<?xml version="1.0" encoding="UTF-8" standalone="yes"?>
<gpx
 xmlns="http://www.topografix.com/GPX/1/1"
 creator="OziExplorer Version 3956f - http://www.oziexplorer.com"
 version="1.1"
 xmlns:xsi="http://www.w3.org/2001/XMLSchema-instance"
 xsi:schemaLocation="http://www.topografix.com/GPX/1/1 http://www.topografix.com/GPX/1/1/gpx.xsd">
<metadata>
 <time>2023-01-25T12:10:33Z</time>
 <bounds minlat="31.735980" minlon="35.080810" maxlat="31.785390" maxlon="35.153990"/>
</metadata>
<wpt lat="31.7582651" lon="35.0895605">
 <time>2023-01-25T14:08:59.981Z</time>
 <name>StFin</name>
 <sym>Bike Trail</sym>
</wpt>
<wpt lat="31.7586282" lon="35.1471314">
 <time>2023-01-25T14:09:00.002Z</time>
 <name>IMBA</name>
 <sym>Flag, Red</sym>
</wpt>
<wpt lat="31.7622150" lon="35.1386932">
 <time>2023-01-25T14:09:00.003Z</time>
 <name>EinHandak</name>
 <sym>Flag, Red</sym>
</wpt>
<wpt lat="31.7729296" lon="35.0962874">
 <time>2023-01-25T14:09:00.003Z</time>
 <name>EinTayasim</name>
 <sym>Flag, Red</sym>
</wpt>
<wpt lat="31.7665139" lon="35.1441810">
 <time>2023-01-25T14:09:00.004Z</time>
 <name>DerehRomanit</name>
 <sym>Flag, Red</sym>
</wpt>
<wpt lat="31.7850514" lon="35.1256308">
 <time>2023-01-25T14:09:00.005Z</time>
 <name>TelTsuba</name>
 <sym>Flag, Red</sym>
</wpt>
<wpt lat="31.7589724" lon="35.0888953">
 <time>2023-01-25T14:09:00.006Z</time>
 <name>NahalSoreq</name>
 <sym>Flag, Red</sym>
</wpt>
<trk>
 <name>RefaimTayasimTsubaSataf,36km.750m</name>
 <desc>RefaimTayasimTsubaSataf,36km.750m</desc>
<trkseg>
<trkpt lat="31.7583100" lon="35.0894300">
<ele>414.470001</ele>
<time>2023-01-25T14:09:00.006Z</time>
</trkpt>
<trkpt lat="31.7583100" lon="35.0893900">
<ele>413.930023</ele>
<time>2023-01-25T14:09:00.006Z</time>
</trkpt>
<trkpt lat="31.7583200" lon="35.0893400">
<ele>413.359985</ele>
<time>2023-01-25T14:09:00.006Z</time>
</trkpt>
<trkpt lat="31.7583400" lon="35.0892700">
<ele>412.610016</ele>
<time>2023-01-25T14:09:00.006Z</time>
</trkpt>
<trkpt lat="31.7583500" lon="35.0892000">
<ele>411.820007</ele>
<time>2023-01-25T14:09:00.006Z</time>
</trkpt>
<trkpt lat="31.7584100" lon="35.0890700">
<ele>412.019989</ele>
<time>2023-01-25T14:09:00.006Z</time>
</trkpt>
<trkpt lat="31.7584700" lon="35.0890100">
<ele>412.559998</ele>
<time>2023-01-25T14:09:00.006Z</time>
</trkpt>
<trkpt lat="31.7585800" lon="35.0889900">
<ele>414.000000</ele>
<time>2023-01-25T14:09:00.006Z</time>
</trkpt>
<trkpt lat="31.7587000" lon="35.0889800">
<ele>414.309998</ele>
<time>2023-01-25T14:09:00.006Z</time>
</trkpt>
<trkpt lat="31.7588200" lon="35.0889600">
<ele>414.020020</ele>
<time>2023-01-25T14:09:00.006Z</time>
</trkpt>
<trkpt lat="31.7589000" lon="35.0889200">
<ele>413.589996</ele>
<time>2023-01-25T14:09:00.006Z</time>
</trkpt>
<trkpt lat="31.7588000" lon="35.0889100">
<ele>413.299988</ele>
<time>2023-01-25T14:09:00.006Z</time>
</trkpt>
<trkpt lat="31.7587100" lon="35.0889400">
<ele>413.739990</ele>
<time>2023-01-25T14:09:00.006Z</time>
</trkpt>
<trkpt lat="31.7586100" lon="35.0889300">
<ele>413.580017</ele>
<time>2023-01-25T14:09:00.006Z</time>
</trkpt>
<trkpt lat="31.7585600" lon="35.0888900">
<ele>412.459991</ele>
<time>2023-01-25T14:09:00.006Z</time>
</trkpt>
<trkpt lat="31.7585600" lon="35.0887900">
<ele>412.669983</ele>
<time>2023-01-25T14:09:00.006Z</time>
</trkpt>
<trkpt lat="31.7585800" lon="35.0886900">
<ele>413.220001</ele>
<time>2023-01-25T14:09:00.006Z</time>
</trkpt>
<trkpt lat="31.7586000" lon="35.0885800">
<ele>413.699982</ele>
<time>2023-01-25T14:09:00.006Z</time>
</trkpt>
<trkpt lat="31.7586100" lon="35.0884700">
<ele>413.479980</ele>
<time>2023-01-25T14:09:00.006Z</time>
</trkpt>
<trkpt lat="31.7586100" lon="35.0883600">
<ele>413.089996</ele>
<time>2023-01-25T14:09:00.006Z</time>
</trkpt>
<trkpt lat="31.7586000" lon="35.0882500">
<ele>412.919983</ele>
<time>2023-01-25T14:09:00.006Z</time>
</trkpt>
<trkpt lat="31.7585600" lon="35.0881300">
<ele>412.630005</ele>
<time>2023-01-25T14:09:00.006Z</time>
</trkpt>
<trkpt lat="31.7585200" lon="35.0880000">
<ele>412.610016</ele>
<time>2023-01-25T14:09:00.006Z</time>
</trkpt>
<trkpt lat="31.7584600" lon="35.0878900">
<ele>412.829987</ele>
<time>2023-01-25T14:09:00.006Z</time>
</trkpt>
<trkpt lat="31.7584000" lon="35.0877600">
<ele>413.299988</ele>
<time>2023-01-25T14:09:00.006Z</time>
</trkpt>
<trkpt lat="31.7583400" lon="35.0876500">
<ele>413.479980</ele>
<time>2023-01-25T14:09:00.006Z</time>
</trkpt>
<trkpt lat="31.7582800" lon="35.0875300">
<ele>413.699982</ele>
<time>2023-01-25T14:09:00.006Z</time>
</trkpt>
<trkpt lat="31.7582200" lon="35.0874000">
<ele>413.949982</ele>
<time>2023-01-25T14:09:00.006Z</time>
</trkpt>
<trkpt lat="31.7581600" lon="35.0872600">
<ele>414.240021</ele>
<time>2023-01-25T14:09:00.006Z</time>
</trkpt>
<trkpt lat="31.7580900" lon="35.0871300">
<ele>414.790009</ele>
<time>2023-01-25T14:09:00.006Z</time>
</trkpt>
<trkpt lat="31.7580200" lon="35.0870000">
<ele>415.470001</ele>
<time>2023-01-25T14:09:00.006Z</time>
</trkpt>
<trkpt lat="31.7579500" lon="35.0868700">
<ele>416.220001</ele>
<time>2023-01-25T14:09:00.006Z</time>
</trkpt>
<trkpt lat="31.7578800" lon="35.0867500">
<ele>416.580017</ele>
<time>2023-01-25T14:09:00.006Z</time>
</trkpt>
<trkpt lat="31.7578100" lon="35.0866300">
<ele>416.320007</ele>
<time>2023-01-25T14:09:00.006Z</time>
</trkpt>
<trkpt lat="31.7577300" lon="35.0865200">
<ele>416.089996</ele>
<time>2023-01-25T14:09:00.006Z</time>
</trkpt>
<trkpt lat="31.7576500" lon="35.0864100">
<ele>416.429993</ele>
<time>2023-01-25T14:09:00.006Z</time>
</trkpt>
<trkpt lat="31.7575800" lon="35.0862900">
<ele>416.460022</ele>
<time>2023-01-25T14:09:00.006Z</time>
</trkpt>
<trkpt lat="31.7574900" lon="35.0861800">
<ele>414.790009</ele>
<time>2023-01-25T14:09:00.006Z</time>
</trkpt>
<trkpt lat="31.7574100" lon="35.0860600">
<ele>415.329987</ele>
<time>2023-01-25T14:09:00.006Z</time>
</trkpt>
<trkpt lat="31.7573300" lon="35.0859400">
<ele>416.800018</ele>
<time>2023-01-25T14:09:00.006Z</time>
</trkpt>
<trkpt lat="31.7572600" lon="35.0858100">
<ele>417.400024</ele>
<time>2023-01-25T14:09:00.006Z</time>
</trkpt>
<trkpt lat="31.7571900" lon="35.0856900">
<ele>417.280029</ele>
<time>2023-01-25T14:09:00.006Z</time>
</trkpt>
<trkpt lat="31.7571200" lon="35.0855700">
<ele>416.880005</ele>
<time>2023-01-25T14:09:00.006Z</time>
</trkpt>
<trkpt lat="31.7570400" lon="35.0854500">
<ele>415.529999</ele>
<time>2023-01-25T14:09:00.006Z</time>
</trkpt>
<trkpt lat="31.7569500" lon="35.0853300">
<ele>413.470032</ele>
<time>2023-01-25T14:09:00.006Z</time>
</trkpt>
<trkpt lat="31.7568700" lon="35.0852200">
<ele>412.339996</ele>
<time>2023-01-25T14:09:00.006Z</time>
</trkpt>
<trkpt lat="31.7568100" lon="35.0851000">
<ele>412.809998</ele>
<time>2023-01-25T14:09:00.006Z</time>
</trkpt>
<trkpt lat="31.7567300" lon="35.0849900">
<ele>412.999969</ele>
<time>2023-01-25T14:09:00.006Z</time>
</trkpt>
<trkpt lat="31.7566500" lon="35.0848700">
<ele>412.640015</ele>
<time>2023-01-25T14:09:00.006Z</time>
</trkpt>
<trkpt lat="31.7565900" lon="35.0847500">
<ele>412.199982</ele>
<time>2023-01-25T14:09:00.006Z</time>
</trkpt>
<trkpt lat="31.7565400" lon="35.0846200">
<ele>411.299988</ele>
<time>2023-01-25T14:09:00.006Z</time>
</trkpt>
<trkpt lat="31.7565100" lon="35.0844700">
<ele>410.500000</ele>
<time>2023-01-25T14:09:00.006Z</time>
</trkpt>
<trkpt lat="31.7564800" lon="35.0843300">
<ele>409.360016</ele>
<time>2023-01-25T14:09:00.006Z</time>
</trkpt>
<trkpt lat="31.7564600" lon="35.0841900">
<ele>408.790009</ele>
<time>2023-01-25T14:09:00.006Z</time>
</trkpt>
<trkpt lat="31.7564400" lon="35.0840500">
<ele>407.449982</ele>
<time>2023-01-25T14:09:00.006Z</time>
</trkpt>
<trkpt lat="31.7564300" lon="35.0839100">
<ele>405.949982</ele>
<time>2023-01-25T14:09:00.006Z</time>
</trkpt>
<trkpt lat="31.7564200" lon="35.0837800">
<ele>405.910004</ele>
<time>2023-01-25T14:09:00.006Z</time>
</trkpt>
<trkpt lat="31.7564000" lon="35.0836400">
<ele>406.060028</ele>
<time>2023-01-25T14:09:00.006Z</time>
</trkpt>
<trkpt lat="31.7563800" lon="35.0835000">
<ele>406.339996</ele>
<time>2023-01-25T14:09:00.006Z</time>
</trkpt>
<trkpt lat="31.7563500" lon="35.0833600">
<ele>406.510010</ele>
<time>2023-01-25T14:09:00.006Z</time>
</trkpt>
<trkpt lat="31.7563300" lon="35.0832400">
<ele>405.890015</ele>
<time>2023-01-25T14:09:00.006Z</time>
</trkpt>
<trkpt lat="31.7563300" lon="35.0831200">
<ele>405.269989</ele>
<time>2023-01-25T14:09:00.006Z</time>
</trkpt>
<trkpt lat="31.7563500" lon="35.0830000">
<ele>405.179993</ele>
<time>2023-01-25T14:09:00.006Z</time>
</trkpt>
<trkpt lat="31.7564000" lon="35.0829000">
<ele>405.540009</ele>
<time>2023-01-25T14:09:00.006Z</time>
</trkpt>
<trkpt lat="31.7564700" lon="35.0828200">
<ele>405.979980</ele>
<time>2023-01-25T14:09:00.006Z</time>
</trkpt>
<trkpt lat="31.7565500" lon="35.0827600">
<ele>406.709991</ele>
<time>2023-01-25T14:09:00.006Z</time>
</trkpt>
<trkpt lat="31.7566100" lon="35.0826800">
<ele>407.320007</ele>
<time>2023-01-25T14:09:00.006Z</time>
</trkpt>
<trkpt lat="31.7566900" lon="35.0826100">
<ele>408.269989</ele>
<time>2023-01-25T14:09:00.006Z</time>
</trkpt>
<trkpt lat="31.7567500" lon="35.0825400">
<ele>408.729980</ele>
<time>2023-01-25T14:09:00.006Z</time>
</trkpt>
<trkpt lat="31.7568200" lon="35.0824600">
<ele>409.089996</ele>
<time>2023-01-25T14:09:00.006Z</time>
</trkpt>
<trkpt lat="31.7568900" lon="35.0823600">
<ele>409.299988</ele>
<time>2023-01-25T14:09:00.006Z</time>
</trkpt>
<trkpt lat="31.7569400" lon="35.0822500">
<ele>409.100006</ele>
<time>2023-01-25T14:09:00.006Z</time>
</trkpt>
<trkpt lat="31.7570000" lon="35.0821400">
<ele>409.290009</ele>
<time>2023-01-25T14:09:00.006Z</time>
</trkpt>
<trkpt lat="31.7570700" lon="35.0820400">
<ele>409.350006</ele>
<time>2023-01-25T14:09:00.006Z</time>
</trkpt>
<trkpt lat="31.7571500" lon="35.0819600">
<ele>409.409973</ele>
<time>2023-01-25T14:09:00.006Z</time>
</trkpt>
<trkpt lat="31.7572300" lon="35.0818900">
<ele>410.440002</ele>
<time>2023-01-25T14:09:00.006Z</time>
</trkpt>
<trkpt lat="31.7573100" lon="35.0818300">
<ele>412.999969</ele>
<time>2023-01-25T14:09:00.006Z</time>
</trkpt>
<trkpt lat="31.7574000" lon="35.0817600">
<ele>415.569977</ele>
<time>2023-01-25T14:09:00.006Z</time>
</trkpt>
<trkpt lat="31.7574800" lon="35.0817200">
<ele>417.660004</ele>
<time>2023-01-25T14:09:00.006Z</time>
</trkpt>
<trkpt lat="31.7575800" lon="35.0816700">
<ele>418.589996</ele>
<time>2023-01-25T14:09:00.006Z</time>
</trkpt>
<trkpt lat="31.7576700" lon="35.0816500">
<ele>419.450012</ele>
<time>2023-01-25T14:09:00.006Z</time>
</trkpt>
<trkpt lat="31.7577600" lon="35.0816200">
<ele>420.400024</ele>
<time>2023-01-25T14:09:00.006Z</time>
</trkpt>
<trkpt lat="31.7578600" lon="35.0816000">
<ele>420.790009</ele>
<time>2023-01-25T14:09:00.006Z</time>
</trkpt>
<trkpt lat="31.7579600" lon="35.0815800">
<ele>421.139984</ele>
<time>2023-01-25T14:09:00.006Z</time>
</trkpt>
<trkpt lat="31.7580500" lon="35.0815400">
<ele>421.809998</ele>
<time>2023-01-25T14:09:00.006Z</time>
</trkpt>
<trkpt lat="31.7581400" lon="35.0815100">
<ele>422.580017</ele>
<time>2023-01-25T14:09:00.006Z</time>
</trkpt>
<trkpt lat="31.7582400" lon="35.0814900">
<ele>422.910004</ele>
<time>2023-01-25T14:09:00.006Z</time>
</trkpt>
<trkpt lat="31.7583200" lon="35.0814300">
<ele>422.490021</ele>
<time>2023-01-25T14:09:00.006Z</time>
</trkpt>
<trkpt lat="31.7583900" lon="35.0813700">
<ele>423.409973</ele>
<time>2023-01-25T14:09:00.006Z</time>
</trkpt>
<trkpt lat="31.7584600" lon="35.0812900">
<ele>425.639984</ele>
<time>2023-01-25T14:09:00.006Z</time>
</trkpt>
<trkpt lat="31.7585200" lon="35.0812000">
<ele>427.619995</ele>
<time>2023-01-25T14:09:00.006Z</time>
</trkpt>
<trkpt lat="31.7585900" lon="35.0811200">
<ele>429.550018</ele>
<time>2023-01-25T14:09:00.006Z</time>
</trkpt>
<trkpt lat="31.7586700" lon="35.0810800">
<ele>431.669983</ele>
<time>2023-01-25T14:09:00.006Z</time>
</trkpt>
<trkpt lat="31.7587500" lon="35.0810100">
<ele>434.089996</ele>
<time>2023-01-25T14:09:00.006Z</time>
</trkpt>
<trkpt lat="31.7588200" lon="35.0809400">
<ele>436.049988</ele>
<time>2023-01-25T14:09:00.006Z</time>
</trkpt>
<trkpt lat="31.7588800" lon="35.0808500">
<ele>437.750000</ele>
<time>2023-01-25T14:09:00.006Z</time>
</trkpt>
<trkpt lat="31.7589400" lon="35.0808100">
<ele>439.000000</ele>
<time>2023-01-25T14:09:00.006Z</time>
</trkpt>
<trkpt lat="31.7590500" lon="35.0808200">
<ele>441.399994</ele>
<time>2023-01-25T14:09:00.006Z</time>
</trkpt>
<trkpt lat="31.7591100" lon="35.0808600">
<ele>442.580017</ele>
<time>2023-01-25T14:09:00.006Z</time>
</trkpt>
<trkpt lat="31.7591900" lon="35.0809300">
<ele>443.579987</ele>
<time>2023-01-25T14:09:00.006Z</time>
</trkpt>
<trkpt lat="31.7592400" lon="35.0810200">
<ele>443.359985</ele>
<time>2023-01-25T14:09:00.006Z</time>
</trkpt>
<trkpt lat="31.7592900" lon="35.0811100">
<ele>442.899994</ele>
<time>2023-01-25T14:09:00.006Z</time>
</trkpt>
<trkpt lat="31.7593500" lon="35.0812000">
<ele>442.899994</ele>
<time>2023-01-25T14:09:00.006Z</time>
</trkpt>
<trkpt lat="31.7594300" lon="35.0812800">
<ele>442.740021</ele>
<time>2023-01-25T14:09:00.006Z</time>
</trkpt>
<trkpt lat="31.7595000" lon="35.0813700">
<ele>443.350006</ele>
<time>2023-01-25T14:09:00.006Z</time>
</trkpt>
<trkpt lat="31.7595700" lon="35.0814600">
<ele>445.360016</ele>
<time>2023-01-25T14:09:00.006Z</time>
</trkpt>
<trkpt lat="31.7595900" lon="35.0815500">
<ele>446.579987</ele>
<time>2023-01-25T14:09:00.006Z</time>
</trkpt>
<trkpt lat="31.7595900" lon="35.0816700">
<ele>447.670013</ele>
<time>2023-01-25T14:09:00.006Z</time>
</trkpt>
<trkpt lat="31.7595800" lon="35.0817800">
<ele>449.279999</ele>
<time>2023-01-25T14:09:00.006Z</time>
</trkpt>
<trkpt lat="31.7595100" lon="35.0818400">
<ele>449.149994</ele>
<time>2023-01-25T14:09:00.006Z</time>
</trkpt>
<trkpt lat="31.7594300" lon="35.0819200">
<ele>449.410004</ele>
<time>2023-01-25T14:09:00.006Z</time>
</trkpt>
<trkpt lat="31.7593600" lon="35.0819900">
<ele>449.810028</ele>
<time>2023-01-25T14:09:00.006Z</time>
</trkpt>
<trkpt lat="31.7592800" lon="35.0820600">
<ele>449.810028</ele>
<time>2023-01-25T14:09:00.006Z</time>
</trkpt>
<trkpt lat="31.7592600" lon="35.0821500">
<ele>450.729980</ele>
<time>2023-01-25T14:09:00.006Z</time>
</trkpt>
<trkpt lat="31.7592500" lon="35.0822500">
<ele>452.059998</ele>
<time>2023-01-25T14:09:00.006Z</time>
</trkpt>
<trkpt lat="31.7592700" lon="35.0823200">
<ele>453.880005</ele>
<time>2023-01-25T14:09:00.006Z</time>
</trkpt>
<trkpt lat="31.7593400" lon="35.0823400">
<ele>455.769989</ele>
<time>2023-01-25T14:09:00.006Z</time>
</trkpt>
<trkpt lat="31.7594300" lon="35.0823800">
<ele>458.660004</ele>
<time>2023-01-25T14:09:00.006Z</time>
</trkpt>
<trkpt lat="31.7595100" lon="35.0824500">
<ele>460.869995</ele>
<time>2023-01-25T14:09:00.006Z</time>
</trkpt>
<trkpt lat="31.7595800" lon="35.0825200">
<ele>462.290009</ele>
<time>2023-01-25T14:09:00.006Z</time>
</trkpt>
<trkpt lat="31.7596600" lon="35.0826000">
<ele>463.239990</ele>
<time>2023-01-25T14:09:00.006Z</time>
</trkpt>
<trkpt lat="31.7597200" lon="35.0826900">
<ele>464.059998</ele>
<time>2023-01-25T14:09:00.006Z</time>
</trkpt>
<trkpt lat="31.7597900" lon="35.0827700">
<ele>465.149994</ele>
<time>2023-01-25T14:09:00.006Z</time>
</trkpt>
<trkpt lat="31.7598800" lon="35.0828200">
<ele>466.179993</ele>
<time>2023-01-25T14:09:00.006Z</time>
</trkpt>
<trkpt lat="31.7599700" lon="35.0828400">
<ele>466.790009</ele>
<time>2023-01-25T14:09:00.006Z</time>
</trkpt>
<trkpt lat="31.7600600" lon="35.0828400">
<ele>466.989990</ele>
<time>2023-01-25T14:09:00.006Z</time>
</trkpt>
<trkpt lat="31.7601600" lon="35.0828400">
<ele>467.150024</ele>
<time>2023-01-25T14:09:00.006Z</time>
</trkpt>
<trkpt lat="31.7602600" lon="35.0828300">
<ele>467.100006</ele>
<time>2023-01-25T14:09:00.006Z</time>
</trkpt>
<trkpt lat="31.7603600" lon="35.0828100">
<ele>467.289978</ele>
<time>2023-01-25T14:09:00.006Z</time>
</trkpt>
<trkpt lat="31.7604500" lon="35.0827900">
<ele>467.500000</ele>
<time>2023-01-25T14:09:00.006Z</time>
</trkpt>
<trkpt lat="31.7605600" lon="35.0827500">
<ele>468.040009</ele>
<time>2023-01-25T14:09:00.006Z</time>
</trkpt>
<trkpt lat="31.7606400" lon="35.0827200">
<ele>468.789978</ele>
<time>2023-01-25T14:09:00.006Z</time>
</trkpt>
<trkpt lat="31.7607400" lon="35.0827000">
<ele>469.619995</ele>
<time>2023-01-25T14:09:00.006Z</time>
</trkpt>
<trkpt lat="31.7608300" lon="35.0826700">
<ele>470.199982</ele>
<time>2023-01-25T14:09:00.006Z</time>
</trkpt>
<trkpt lat="31.7609000" lon="35.0826100">
<ele>471.569977</ele>
<time>2023-01-25T14:09:00.006Z</time>
</trkpt>
<trkpt lat="31.7609100" lon="35.0825100">
<ele>471.519989</ele>
<time>2023-01-25T14:09:00.006Z</time>
</trkpt>
<trkpt lat="31.7609100" lon="35.0824000">
<ele>471.940002</ele>
<time>2023-01-25T14:09:00.006Z</time>
</trkpt>
<trkpt lat="31.7609200" lon="35.0822900">
<ele>472.800018</ele>
<time>2023-01-25T14:09:00.006Z</time>
</trkpt>
<trkpt lat="31.7609300" lon="35.0821800">
<ele>473.630005</ele>
<time>2023-01-25T14:09:00.006Z</time>
</trkpt>
<trkpt lat="31.7609400" lon="35.0820700">
<ele>474.300018</ele>
<time>2023-01-25T14:09:00.006Z</time>
</trkpt>
<trkpt lat="31.7610100" lon="35.0820300">
<ele>476.420013</ele>
<time>2023-01-25T14:09:00.006Z</time>
</trkpt>
<trkpt lat="31.7611000" lon="35.0820300">
<ele>478.989990</ele>
<time>2023-01-25T14:09:00.006Z</time>
</trkpt>
<trkpt lat="31.7611700" lon="35.0820600">
<ele>481.020020</ele>
<time>2023-01-25T14:09:00.006Z</time>
</trkpt>
<trkpt lat="31.7612300" lon="35.0821300">
<ele>482.809998</ele>
<time>2023-01-25T14:09:00.006Z</time>
</trkpt>
<trkpt lat="31.7612800" lon="35.0822300">
<ele>484.180023</ele>
<time>2023-01-25T14:09:00.006Z</time>
</trkpt>
<trkpt lat="31.7613300" lon="35.0823300">
<ele>484.429993</ele>
<time>2023-01-25T14:09:00.006Z</time>
</trkpt>
<trkpt lat="31.7613600" lon="35.0824400">
<ele>484.000000</ele>
<time>2023-01-25T14:09:00.006Z</time>
</trkpt>
<trkpt lat="31.7614100" lon="35.0825500">
<ele>484.220001</ele>
<time>2023-01-25T14:09:00.006Z</time>
</trkpt>
<trkpt lat="31.7614500" lon="35.0826400">
<ele>484.530029</ele>
<time>2023-01-25T14:09:00.006Z</time>
</trkpt>
<trkpt lat="31.7614700" lon="35.0827400">
<ele>484.100006</ele>
<time>2023-01-25T14:09:00.006Z</time>
</trkpt>
<trkpt lat="31.7614700" lon="35.0828600">
<ele>483.489990</ele>
<time>2023-01-25T14:09:00.006Z</time>
</trkpt>
<trkpt lat="31.7614500" lon="35.0829600">
<ele>482.890015</ele>
<time>2023-01-25T14:09:00.006Z</time>
</trkpt>
<trkpt lat="31.7613800" lon="35.0830100">
<ele>481.889984</ele>
<time>2023-01-25T14:09:00.006Z</time>
</trkpt>
<trkpt lat="31.7613200" lon="35.0831000">
<ele>481.500000</ele>
<time>2023-01-25T14:09:00.006Z</time>
</trkpt>
<trkpt lat="31.7612800" lon="35.0832100">
<ele>481.820007</ele>
<time>2023-01-25T14:09:00.006Z</time>
</trkpt>
<trkpt lat="31.7612400" lon="35.0833100">
<ele>482.290009</ele>
<time>2023-01-25T14:09:00.006Z</time>
</trkpt>
<trkpt lat="31.7612300" lon="35.0834200">
<ele>482.919983</ele>
<time>2023-01-25T14:09:00.006Z</time>
</trkpt>
<trkpt lat="31.7612200" lon="35.0835300">
<ele>483.529999</ele>
<time>2023-01-25T14:09:00.006Z</time>
</trkpt>
<trkpt lat="31.7612300" lon="35.0836400">
<ele>484.270020</ele>
<time>2023-01-25T14:09:00.006Z</time>
</trkpt>
<trkpt lat="31.7612400" lon="35.0837500">
<ele>485.269989</ele>
<time>2023-01-25T14:09:00.006Z</time>
</trkpt>
<trkpt lat="31.7612800" lon="35.0838500">
<ele>486.059998</ele>
<time>2023-01-25T14:09:00.006Z</time>
</trkpt>
<trkpt lat="31.7613200" lon="35.0839500">
<ele>486.299988</ele>
<time>2023-01-25T14:09:00.006Z</time>
</trkpt>
<trkpt lat="31.7613700" lon="35.0840500">
<ele>486.529999</ele>
<time>2023-01-25T14:09:00.006Z</time>
</trkpt>
<trkpt lat="31.7614200" lon="35.0841400">
<ele>487.470001</ele>
<time>2023-01-25T14:09:00.006Z</time>
</trkpt>
<trkpt lat="31.7614700" lon="35.0842400">
<ele>488.680023</ele>
<time>2023-01-25T14:09:00.006Z</time>
</trkpt>
<trkpt lat="31.7615200" lon="35.0843500">
<ele>489.429993</ele>
<time>2023-01-25T14:09:00.006Z</time>
</trkpt>
<trkpt lat="31.7615700" lon="35.0844400">
<ele>489.660004</ele>
<time>2023-01-25T14:09:00.006Z</time>
</trkpt>
<trkpt lat="31.7616200" lon="35.0845300">
<ele>490.040009</ele>
<time>2023-01-25T14:09:00.006Z</time>
</trkpt>
<trkpt lat="31.7616600" lon="35.0846300">
<ele>490.610016</ele>
<time>2023-01-25T14:09:00.006Z</time>
</trkpt>
<trkpt lat="31.7617200" lon="35.0847200">
<ele>492.150024</ele>
<time>2023-01-25T14:09:00.006Z</time>
</trkpt>
<trkpt lat="31.7617800" lon="35.0848100">
<ele>493.510010</ele>
<time>2023-01-25T14:09:00.006Z</time>
</trkpt>
<trkpt lat="31.7618300" lon="35.0849100">
<ele>494.410004</ele>
<time>2023-01-25T14:09:00.006Z</time>
</trkpt>
<trkpt lat="31.7619100" lon="35.0849900">
<ele>495.529999</ele>
<time>2023-01-25T14:09:00.006Z</time>
</trkpt>
<trkpt lat="31.7619800" lon="35.0850700">
<ele>496.229980</ele>
<time>2023-01-25T14:09:00.006Z</time>
</trkpt>
<trkpt lat="31.7620500" lon="35.0851700">
<ele>496.680023</ele>
<time>2023-01-25T14:09:00.006Z</time>
</trkpt>
<trkpt lat="31.7621100" lon="35.0852700">
<ele>496.829987</ele>
<time>2023-01-25T14:09:00.006Z</time>
</trkpt>
<trkpt lat="31.7621600" lon="35.0853800">
<ele>496.799988</ele>
<time>2023-01-25T14:09:00.006Z</time>
</trkpt>
<trkpt lat="31.7621700" lon="35.0854700">
<ele>496.479980</ele>
<time>2023-01-25T14:09:00.006Z</time>
</trkpt>
<trkpt lat="31.7621800" lon="35.0856000">
<ele>496.380005</ele>
<time>2023-01-25T14:09:00.006Z</time>
</trkpt>
<trkpt lat="31.7621800" lon="35.0857000">
<ele>496.680023</ele>
<time>2023-01-25T14:09:00.006Z</time>
</trkpt>
<trkpt lat="31.7621900" lon="35.0858100">
<ele>497.230011</ele>
<time>2023-01-25T14:09:00.006Z</time>
</trkpt>
<trkpt lat="31.7621900" lon="35.0859400">
<ele>497.690002</ele>
<time>2023-01-25T14:09:00.006Z</time>
</trkpt>
<trkpt lat="31.7622100" lon="35.0860500">
<ele>498.520020</ele>
<time>2023-01-25T14:09:00.006Z</time>
</trkpt>
<trkpt lat="31.7622400" lon="35.0861600">
<ele>499.609985</ele>
<time>2023-01-25T14:09:00.006Z</time>
</trkpt>
<trkpt lat="31.7623000" lon="35.0862800">
<ele>501.290009</ele>
<time>2023-01-25T14:09:00.006Z</time>
</trkpt>
<trkpt lat="31.7623600" lon="35.0863800">
<ele>502.519989</ele>
<time>2023-01-25T14:09:00.006Z</time>
</trkpt>
<trkpt lat="31.7624400" lon="35.0864900">
<ele>502.750000</ele>
<time>2023-01-25T14:09:00.006Z</time>
</trkpt>
<trkpt lat="31.7625300" lon="35.0865800">
<ele>503.499969</ele>
<time>2023-01-25T14:09:00.006Z</time>
</trkpt>
<trkpt lat="31.7626200" lon="35.0866500">
<ele>505.160004</ele>
<time>2023-01-25T14:09:00.006Z</time>
</trkpt>
<trkpt lat="31.7627000" lon="35.0867300">
<ele>506.000000</ele>
<time>2023-01-25T14:09:00.006Z</time>
</trkpt>
<trkpt lat="31.7627800" lon="35.0867900">
<ele>506.060028</ele>
<time>2023-01-25T14:09:00.006Z</time>
</trkpt>
<trkpt lat="31.7628500" lon="35.0868600">
<ele>505.380005</ele>
<time>2023-01-25T14:09:00.006Z</time>
</trkpt>
<trkpt lat="31.7629200" lon="35.0869300">
<ele>504.569977</ele>
<time>2023-01-25T14:09:00.006Z</time>
</trkpt>
<trkpt lat="31.7630000" lon="35.0870100">
<ele>505.089996</ele>
<time>2023-01-25T14:09:00.006Z</time>
</trkpt>
<trkpt lat="31.7630800" lon="35.0870900">
<ele>505.290009</ele>
<time>2023-01-25T14:09:00.006Z</time>
</trkpt>
<trkpt lat="31.7631400" lon="35.0871900">
<ele>504.250000</ele>
<time>2023-01-25T14:09:00.006Z</time>
</trkpt>
<trkpt lat="31.7631800" lon="35.0873100">
<ele>504.180023</ele>
<time>2023-01-25T14:09:00.006Z</time>
</trkpt>
<trkpt lat="31.7631700" lon="35.0874300">
<ele>504.439972</ele>
<time>2023-01-25T14:09:00.006Z</time>
</trkpt>
<trkpt lat="31.7631100" lon="35.0874900">
<ele>503.769989</ele>
<time>2023-01-25T14:09:00.006Z</time>
</trkpt>
<trkpt lat="31.7630200" lon="35.0875100">
<ele>502.949982</ele>
<time>2023-01-25T14:09:00.006Z</time>
</trkpt>
<trkpt lat="31.7629300" lon="35.0875300">
<ele>502.599976</ele>
<time>2023-01-25T14:09:00.006Z</time>
</trkpt>
<trkpt lat="31.7628200" lon="35.0875400">
<ele>501.799988</ele>
<time>2023-01-25T14:09:00.006Z</time>
</trkpt>
<trkpt lat="31.7627100" lon="35.0875600">
<ele>498.559998</ele>
<time>2023-01-25T14:09:00.006Z</time>
</trkpt>
<trkpt lat="31.7626000" lon="35.0875900">
<ele>493.669983</ele>
<time>2023-01-25T14:09:00.006Z</time>
</trkpt>
<trkpt lat="31.7624600" lon="35.0876200">
<ele>488.160004</ele>
<time>2023-01-25T14:09:00.006Z</time>
</trkpt>
<trkpt lat="31.7623700" lon="35.0876300">
<ele>486.350006</ele>
<time>2023-01-25T14:09:00.006Z</time>
</trkpt>
<trkpt lat="31.7622600" lon="35.0876500">
<ele>484.419983</ele>
<time>2023-01-25T14:09:00.006Z</time>
</trkpt>
<trkpt lat="31.7621600" lon="35.0876800">
<ele>484.919983</ele>
<time>2023-01-25T14:09:00.006Z</time>
</trkpt>
<trkpt lat="31.7620700" lon="35.0877200">
<ele>486.399994</ele>
<time>2023-01-25T14:09:00.006Z</time>
</trkpt>
<trkpt lat="31.7619600" lon="35.0877600">
<ele>487.750000</ele>
<time>2023-01-25T14:09:00.006Z</time>
</trkpt>
<trkpt lat="31.7618700" lon="35.0878000">
<ele>488.089996</ele>
<time>2023-01-25T14:09:00.006Z</time>
</trkpt>
<trkpt lat="31.7617800" lon="35.0878400">
<ele>488.259979</ele>
<time>2023-01-25T14:09:00.006Z</time>
</trkpt>
<trkpt lat="31.7616900" lon="35.0879100">
<ele>488.589996</ele>
<time>2023-01-25T14:09:00.006Z</time>
</trkpt>
<trkpt lat="31.7616200" lon="35.0879900">
<ele>489.379974</ele>
<time>2023-01-25T14:09:00.006Z</time>
</trkpt>
<trkpt lat="31.7615400" lon="35.0880600">
<ele>490.589996</ele>
<time>2023-01-25T14:09:00.006Z</time>
</trkpt>
<trkpt lat="31.7614700" lon="35.0881400">
<ele>493.009979</ele>
<time>2023-01-25T14:09:00.006Z</time>
</trkpt>
<trkpt lat="31.7614100" lon="35.0882400">
<ele>495.669983</ele>
<time>2023-01-25T14:09:00.006Z</time>
</trkpt>
<trkpt lat="31.7613600" lon="35.0883600">
<ele>498.019989</ele>
<time>2023-01-25T14:09:00.006Z</time>
</trkpt>
<trkpt lat="31.7613000" lon="35.0884600">
<ele>499.399994</ele>
<time>2023-01-25T14:09:00.006Z</time>
</trkpt>
<trkpt lat="31.7612500" lon="35.0885700">
<ele>501.239990</ele>
<time>2023-01-25T14:09:00.006Z</time>
</trkpt>
<trkpt lat="31.7612000" lon="35.0886700">
<ele>502.089996</ele>
<time>2023-01-25T14:09:00.006Z</time>
</trkpt>
<trkpt lat="31.7611600" lon="35.0887800">
<ele>503.410004</ele>
<time>2023-01-25T14:09:00.006Z</time>
</trkpt>
<trkpt lat="31.7611200" lon="35.0889000">
<ele>505.210022</ele>
<time>2023-01-25T14:09:00.006Z</time>
</trkpt>
<trkpt lat="31.7610800" lon="35.0890100">
<ele>504.529999</ele>
<time>2023-01-25T14:09:00.006Z</time>
</trkpt>
<trkpt lat="31.7610400" lon="35.0891000">
<ele>503.849976</ele>
<time>2023-01-25T14:09:00.006Z</time>
</trkpt>
<trkpt lat="31.7610200" lon="35.0892200">
<ele>504.279999</ele>
<time>2023-01-25T14:09:00.006Z</time>
</trkpt>
<trkpt lat="31.7610000" lon="35.0893300">
<ele>504.959991</ele>
<time>2023-01-25T14:09:00.006Z</time>
</trkpt>
<trkpt lat="31.7609700" lon="35.0894400">
<ele>505.399994</ele>
<time>2023-01-25T14:09:00.006Z</time>
</trkpt>
<trkpt lat="31.7609400" lon="35.0895400">
<ele>505.980011</ele>
<time>2023-01-25T14:09:00.006Z</time>
</trkpt>
<trkpt lat="31.7609100" lon="35.0896500">
<ele>506.559998</ele>
<time>2023-01-25T14:09:00.006Z</time>
</trkpt>
<trkpt lat="31.7608900" lon="35.0897400">
<ele>507.319977</ele>
<time>2023-01-25T14:09:00.006Z</time>
</trkpt>
<trkpt lat="31.7608700" lon="35.0897600">
<ele>507.190002</ele>
<time>2023-01-25T14:09:00.006Z</time>
</trkpt>
<trkpt lat="31.7608600" lon="35.0898600">
<ele>509.480011</ele>
<time>2023-01-25T14:09:00.006Z</time>
</trkpt>
<trkpt lat="31.7608300" lon="35.0899500">
<ele>510.619995</ele>
<time>2023-01-25T14:09:00.006Z</time>
</trkpt>
<trkpt lat="31.7607900" lon="35.0900600">
<ele>510.940002</ele>
<time>2023-01-25T14:09:00.006Z</time>
</trkpt>
<trkpt lat="31.7607800" lon="35.0901800">
<ele>511.619995</ele>
<time>2023-01-25T14:09:00.006Z</time>
</trkpt>
<trkpt lat="31.7607500" lon="35.0903000">
<ele>511.779999</ele>
<time>2023-01-25T14:09:00.006Z</time>
</trkpt>
<trkpt lat="31.7607500" lon="35.0904000">
<ele>512.609985</ele>
<time>2023-01-25T14:09:00.006Z</time>
</trkpt>
<trkpt lat="31.7607500" lon="35.0905100">
<ele>513.519958</ele>
<time>2023-01-25T14:09:00.006Z</time>
</trkpt>
<trkpt lat="31.7607600" lon="35.0906200">
<ele>513.980042</ele>
<time>2023-01-25T14:09:00.006Z</time>
</trkpt>
<trkpt lat="31.7608000" lon="35.0907200">
<ele>514.640015</ele>
<time>2023-01-25T14:09:00.006Z</time>
</trkpt>
<trkpt lat="31.7608800" lon="35.0908200">
<ele>516.899963</ele>
<time>2023-01-25T14:09:00.006Z</time>
</trkpt>
<trkpt lat="31.7609600" lon="35.0909300">
<ele>517.729980</ele>
<time>2023-01-25T14:09:00.006Z</time>
</trkpt>
<trkpt lat="31.7610600" lon="35.0910100">
<ele>517.510010</ele>
<time>2023-01-25T14:09:00.006Z</time>
</trkpt>
<trkpt lat="31.7611700" lon="35.0910900">
<ele>516.429993</ele>
<time>2023-01-25T14:09:00.006Z</time>
</trkpt>
<trkpt lat="31.7612600" lon="35.0911600">
<ele>514.679993</ele>
<time>2023-01-25T14:09:00.006Z</time>
</trkpt>
<trkpt lat="31.7613400" lon="35.0912200">
<ele>513.040039</ele>
<time>2023-01-25T14:09:00.006Z</time>
</trkpt>
<trkpt lat="31.7614200" lon="35.0912900">
<ele>511.930023</ele>
<time>2023-01-25T14:09:00.006Z</time>
</trkpt>
<trkpt lat="31.7615000" lon="35.0913700">
<ele>512.910034</ele>
<time>2023-01-25T14:09:00.006Z</time>
</trkpt>
<trkpt lat="31.7615800" lon="35.0914300">
<ele>514.929993</ele>
<time>2023-01-25T14:09:00.006Z</time>
</trkpt>
<trkpt lat="31.7616600" lon="35.0914900">
<ele>515.929993</ele>
<time>2023-01-25T14:09:00.006Z</time>
</trkpt>
<trkpt lat="31.7617500" lon="35.0915600">
<ele>517.510010</ele>
<time>2023-01-25T14:09:00.006Z</time>
</trkpt>
<trkpt lat="31.7618400" lon="35.0916200">
<ele>522.219971</ele>
<time>2023-01-25T14:09:00.006Z</time>
</trkpt>
<trkpt lat="31.7619200" lon="35.0916800">
<ele>527.630005</ele>
<time>2023-01-25T14:09:00.006Z</time>
</trkpt>
<trkpt lat="31.7620100" lon="35.0917400">
<ele>527.210022</ele>
<time>2023-01-25T14:09:00.006Z</time>
</trkpt>
<trkpt lat="31.7621100" lon="35.0918000">
<ele>525.809998</ele>
<time>2023-01-25T14:09:00.006Z</time>
</trkpt>
<trkpt lat="31.7622000" lon="35.0918500">
<ele>525.440002</ele>
<time>2023-01-25T14:09:00.006Z</time>
</trkpt>
<trkpt lat="31.7622800" lon="35.0919100">
<ele>522.570007</ele>
<time>2023-01-25T14:09:00.006Z</time>
</trkpt>
<trkpt lat="31.7623700" lon="35.0919500">
<ele>520.349976</ele>
<time>2023-01-25T14:09:00.006Z</time>
</trkpt>
<trkpt lat="31.7624700" lon="35.0920000">
<ele>519.219971</ele>
<time>2023-01-25T14:09:00.006Z</time>
</trkpt>
<trkpt lat="31.7625700" lon="35.0920400">
<ele>520.059998</ele>
<time>2023-01-25T14:09:00.006Z</time>
</trkpt>
<trkpt lat="31.7626600" lon="35.0921000">
<ele>521.289978</ele>
<time>2023-01-25T14:09:00.006Z</time>
</trkpt>
<trkpt lat="31.7627100" lon="35.0922100">
<ele>521.399963</ele>
<time>2023-01-25T14:09:00.006Z</time>
</trkpt>
<trkpt lat="31.7627200" lon="35.0923300">
<ele>521.159973</ele>
<time>2023-01-25T14:09:00.006Z</time>
</trkpt>
<trkpt lat="31.7627300" lon="35.0924600">
<ele>520.940002</ele>
<time>2023-01-25T14:09:00.006Z</time>
</trkpt>
<trkpt lat="31.7627400" lon="35.0925900">
<ele>520.119995</ele>
<time>2023-01-25T14:09:00.006Z</time>
</trkpt>
<trkpt lat="31.7627500" lon="35.0927300">
<ele>518.900024</ele>
<time>2023-01-25T14:09:00.006Z</time>
</trkpt>
<trkpt lat="31.7627700" lon="35.0928600">
<ele>518.539978</ele>
<time>2023-01-25T14:09:00.006Z</time>
</trkpt>
<trkpt lat="31.7628100" lon="35.0929900">
<ele>519.540039</ele>
<time>2023-01-25T14:09:00.006Z</time>
</trkpt>
<trkpt lat="31.7628400" lon="35.0930900">
<ele>520.309998</ele>
<time>2023-01-25T14:09:00.006Z</time>
</trkpt>
<trkpt lat="31.7628800" lon="35.0932000">
<ele>521.340027</ele>
<time>2023-01-25T14:09:00.006Z</time>
</trkpt>
<trkpt lat="31.7629200" lon="35.0932900">
<ele>522.359985</ele>
<time>2023-01-25T14:09:00.006Z</time>
</trkpt>
<trkpt lat="31.7629500" lon="35.0934300">
<ele>523.200012</ele>
<time>2023-01-25T14:09:00.006Z</time>
</trkpt>
<trkpt lat="31.7629500" lon="35.0935400">
<ele>523.200012</ele>
<time>2023-01-25T14:09:00.006Z</time>
</trkpt>
<trkpt lat="31.7629600" lon="35.0936700">
<ele>523.919983</ele>
<time>2023-01-25T14:09:00.006Z</time>
</trkpt>
<trkpt lat="31.7629500" lon="35.0938000">
<ele>524.399963</ele>
<time>2023-01-25T14:09:00.006Z</time>
</trkpt>
<trkpt lat="31.7629400" lon="35.0939000">
<ele>524.720032</ele>
<time>2023-01-25T14:09:00.006Z</time>
</trkpt>
<trkpt lat="31.7629400" lon="35.0940200">
<ele>525.260010</ele>
<time>2023-01-25T14:09:00.006Z</time>
</trkpt>
<trkpt lat="31.7629400" lon="35.0941500">
<ele>525.849976</ele>
<time>2023-01-25T14:09:00.006Z</time>
</trkpt>
<trkpt lat="31.7629400" lon="35.0942700">
<ele>526.140015</ele>
<time>2023-01-25T14:09:00.006Z</time>
</trkpt>
<trkpt lat="31.7629600" lon="35.0943900">
<ele>526.809998</ele>
<time>2023-01-25T14:09:00.006Z</time>
</trkpt>
<trkpt lat="31.7629900" lon="35.0945000">
<ele>526.880005</ele>
<time>2023-01-25T14:09:00.006Z</time>
</trkpt>
<trkpt lat="31.7630400" lon="35.0945900">
<ele>526.630005</ele>
<time>2023-01-25T14:09:00.006Z</time>
</trkpt>
<trkpt lat="31.7631000" lon="35.0946800">
<ele>526.910034</ele>
<time>2023-01-25T14:09:00.006Z</time>
</trkpt>
<trkpt lat="31.7631500" lon="35.0947700">
<ele>527.260010</ele>
<time>2023-01-25T14:09:00.006Z</time>
</trkpt>
<trkpt lat="31.7632200" lon="35.0948500">
<ele>528.270020</ele>
<time>2023-01-25T14:09:00.006Z</time>
</trkpt>
<trkpt lat="31.7632900" lon="35.0949300">
<ele>528.989990</ele>
<time>2023-01-25T14:09:00.006Z</time>
</trkpt>
<trkpt lat="31.7633600" lon="35.0950300">
<ele>529.549988</ele>
<time>2023-01-25T14:09:00.006Z</time>
</trkpt>
<trkpt lat="31.7634300" lon="35.0951100">
<ele>530.280029</ele>
<time>2023-01-25T14:09:00.006Z</time>
</trkpt>
<trkpt lat="31.7635000" lon="35.0951900">
<ele>529.989990</ele>
<time>2023-01-25T14:09:00.006Z</time>
</trkpt>
<trkpt lat="31.7635700" lon="35.0952600">
<ele>529.049988</ele>
<time>2023-01-25T14:09:00.006Z</time>
</trkpt>
<trkpt lat="31.7636600" lon="35.0953300">
<ele>528.729980</ele>
<time>2023-01-25T14:09:00.006Z</time>
</trkpt>
<trkpt lat="31.7637300" lon="35.0953900">
<ele>528.520020</ele>
<time>2023-01-25T14:09:00.006Z</time>
</trkpt>
<trkpt lat="31.7638200" lon="35.0954600">
<ele>528.229980</ele>
<time>2023-01-25T14:09:00.006Z</time>
</trkpt>
<trkpt lat="31.7639100" lon="35.0955200">
<ele>528.289978</ele>
<time>2023-01-25T14:09:00.006Z</time>
</trkpt>
<trkpt lat="31.7640000" lon="35.0955700">
<ele>529.700012</ele>
<time>2023-01-25T14:09:00.006Z</time>
</trkpt>
<trkpt lat="31.7641000" lon="35.0956400">
<ele>531.709961</ele>
<time>2023-01-25T14:09:00.006Z</time>
</trkpt>
<trkpt lat="31.7641800" lon="35.0956900">
<ele>533.489990</ele>
<time>2023-01-25T14:09:00.006Z</time>
</trkpt>
<trkpt lat="31.7642600" lon="35.0957500">
<ele>535.460022</ele>
<time>2023-01-25T14:09:00.006Z</time>
</trkpt>
<trkpt lat="31.7643500" lon="35.0958000">
<ele>537.260010</ele>
<time>2023-01-25T14:09:00.006Z</time>
</trkpt>
<trkpt lat="31.7644200" lon="35.0958700">
<ele>538.030029</ele>
<time>2023-01-25T14:09:00.006Z</time>
</trkpt>
<trkpt lat="31.7645100" lon="35.0959300">
<ele>538.750000</ele>
<time>2023-01-25T14:09:00.006Z</time>
</trkpt>
<trkpt lat="31.7646000" lon="35.0960000">
<ele>539.219971</ele>
<time>2023-01-25T14:09:00.006Z</time>
</trkpt>
<trkpt lat="31.7646500" lon="35.0960900">
<ele>539.130005</ele>
<time>2023-01-25T14:09:00.006Z</time>
</trkpt>
<trkpt lat="31.7646500" lon="35.0961900">
<ele>538.960022</ele>
<time>2023-01-25T14:09:00.006Z</time>
</trkpt>
<trkpt lat="31.7646500" lon="35.0963100">
<ele>538.960022</ele>
<time>2023-01-25T14:09:00.006Z</time>
</trkpt>
<trkpt lat="31.7646400" lon="35.0964300">
<ele>539.020020</ele>
<time>2023-01-25T14:09:00.006Z</time>
</trkpt>
<trkpt lat="31.7646100" lon="35.0965600">
<ele>539.119995</ele>
<time>2023-01-25T14:09:00.006Z</time>
</trkpt>
<trkpt lat="31.7645800" lon="35.0966800">
<ele>539.070007</ele>
<time>2023-01-25T14:09:00.006Z</time>
</trkpt>
<trkpt lat="31.7645600" lon="35.0968000">
<ele>539.770020</ele>
<time>2023-01-25T14:09:00.006Z</time>
</trkpt>
<trkpt lat="31.7645400" lon="35.0969400">
<ele>540.399963</ele>
<time>2023-01-25T14:09:00.006Z</time>
</trkpt>
<trkpt lat="31.7645200" lon="35.0970500">
<ele>540.380005</ele>
<time>2023-01-25T14:09:00.006Z</time>
</trkpt>
<trkpt lat="31.7645100" lon="35.0971000">
<ele>540.350037</ele>
<time>2023-01-25T14:09:00.006Z</time>
</trkpt>
<trkpt lat="31.7644900" lon="35.0971200">
<ele>539.799988</ele>
<time>2023-01-25T14:09:00.006Z</time>
</trkpt>
<trkpt lat="31.7644900" lon="35.0972400">
<ele>540.359985</ele>
<time>2023-01-25T14:09:00.006Z</time>
</trkpt>
<trkpt lat="31.7644900" lon="35.0973800">
<ele>539.429993</ele>
<time>2023-01-25T14:09:00.006Z</time>
</trkpt>
<trkpt lat="31.7644900" lon="35.0974900">
<ele>538.710022</ele>
<time>2023-01-25T14:09:00.006Z</time>
</trkpt>
<trkpt lat="31.7644900" lon="35.0976200">
<ele>538.140015</ele>
<time>2023-01-25T14:09:00.006Z</time>
</trkpt>
<trkpt lat="31.7645000" lon="35.0977600">
<ele>537.880005</ele>
<time>2023-01-25T14:09:00.006Z</time>
</trkpt>
<trkpt lat="31.7645000" lon="35.0978700">
<ele>537.530029</ele>
<time>2023-01-25T14:09:00.006Z</time>
</trkpt>
<trkpt lat="31.7644900" lon="35.0979800">
<ele>536.869995</ele>
<time>2023-01-25T14:09:00.006Z</time>
</trkpt>
<trkpt lat="31.7644900" lon="35.0981200">
<ele>537.299988</ele>
<time>2023-01-25T14:09:00.006Z</time>
</trkpt>
<trkpt lat="31.7644800" lon="35.0982500">
<ele>538.289978</ele>
<time>2023-01-25T14:09:00.006Z</time>
</trkpt>
<trkpt lat="31.7644800" lon="35.0983700">
<ele>539.400024</ele>
<time>2023-01-25T14:09:00.006Z</time>
</trkpt>
<trkpt lat="31.7644800" lon="35.0984900">
<ele>540.210022</ele>
<time>2023-01-25T14:09:00.006Z</time>
</trkpt>
<trkpt lat="31.7644800" lon="35.0986200">
<ele>541.099976</ele>
<time>2023-01-25T14:09:00.006Z</time>
</trkpt>
<trkpt lat="31.7644900" lon="35.0987500">
<ele>542.479980</ele>
<time>2023-01-25T14:09:00.006Z</time>
</trkpt>
<trkpt lat="31.7645100" lon="35.0988700">
<ele>543.799988</ele>
<time>2023-01-25T14:09:00.006Z</time>
</trkpt>
<trkpt lat="31.7645500" lon="35.0989800">
<ele>544.349976</ele>
<time>2023-01-25T14:09:00.006Z</time>
</trkpt>
<trkpt lat="31.7646000" lon="35.0990800">
<ele>544.390015</ele>
<time>2023-01-25T14:09:00.006Z</time>
</trkpt>
<trkpt lat="31.7646800" lon="35.0991600">
<ele>544.059998</ele>
<time>2023-01-25T14:09:00.006Z</time>
</trkpt>
<trkpt lat="31.7647500" lon="35.0992200">
<ele>542.609985</ele>
<time>2023-01-25T14:09:00.006Z</time>
</trkpt>
<trkpt lat="31.7648500" lon="35.0992700">
<ele>541.450012</ele>
<time>2023-01-25T14:09:00.006Z</time>
</trkpt>
<trkpt lat="31.7649400" lon="35.0993200">
<ele>540.650024</ele>
<time>2023-01-25T14:09:00.006Z</time>
</trkpt>
<trkpt lat="31.7650500" lon="35.0993600">
<ele>541.489990</ele>
<time>2023-01-25T14:09:00.006Z</time>
</trkpt>
<trkpt lat="31.7651400" lon="35.0993900">
<ele>543.520020</ele>
<time>2023-01-25T14:09:00.006Z</time>
</trkpt>
<trkpt lat="31.7652400" lon="35.0994200">
<ele>546.040039</ele>
<time>2023-01-25T14:09:00.006Z</time>
</trkpt>
<trkpt lat="31.7653400" lon="35.0994500">
<ele>547.030029</ele>
<time>2023-01-25T14:09:00.006Z</time>
</trkpt>
<trkpt lat="31.7654300" lon="35.0994800">
<ele>546.409973</ele>
<time>2023-01-25T14:09:00.006Z</time>
</trkpt>
<trkpt lat="31.7655200" lon="35.0995100">
<ele>545.920044</ele>
<time>2023-01-25T14:09:00.006Z</time>
</trkpt>
<trkpt lat="31.7656100" lon="35.0995300">
<ele>546.169983</ele>
<time>2023-01-25T14:09:00.006Z</time>
</trkpt>
<trkpt lat="31.7657100" lon="35.0995600">
<ele>546.710022</ele>
<time>2023-01-25T14:09:00.006Z</time>
</trkpt>
<trkpt lat="31.7658100" lon="35.0995900">
<ele>547.559998</ele>
<time>2023-01-25T14:09:00.006Z</time>
</trkpt>
<trkpt lat="31.7658900" lon="35.0996400">
<ele>547.039978</ele>
<time>2023-01-25T14:09:00.006Z</time>
</trkpt>
<trkpt lat="31.7659700" lon="35.0996800">
<ele>546.190002</ele>
<time>2023-01-25T14:09:00.006Z</time>
</trkpt>
<trkpt lat="31.7660700" lon="35.0997300">
<ele>545.010010</ele>
<time>2023-01-25T14:09:00.006Z</time>
</trkpt>
<trkpt lat="31.7661500" lon="35.0997700">
<ele>544.020020</ele>
<time>2023-01-25T14:09:00.006Z</time>
</trkpt>
<trkpt lat="31.7662500" lon="35.0998000">
<ele>543.239990</ele>
<time>2023-01-25T14:09:00.006Z</time>
</trkpt>
<trkpt lat="31.7663400" lon="35.0998100">
<ele>542.859985</ele>
<time>2023-01-25T14:09:00.006Z</time>
</trkpt>
<trkpt lat="31.7664500" lon="35.0998200">
<ele>541.580017</ele>
<time>2023-01-25T14:09:00.006Z</time>
</trkpt>
<trkpt lat="31.7665400" lon="35.0998300">
<ele>540.029968</ele>
<time>2023-01-25T14:09:00.006Z</time>
</trkpt>
<trkpt lat="31.7666400" lon="35.0998300">
<ele>538.429993</ele>
<time>2023-01-25T14:09:00.006Z</time>
</trkpt>
<trkpt lat="31.7667300" lon="35.0998300">
<ele>539.880005</ele>
<time>2023-01-25T14:09:00.006Z</time>
</trkpt>
<trkpt lat="31.7668300" lon="35.0998300">
<ele>542.839966</ele>
<time>2023-01-25T14:09:00.006Z</time>
</trkpt>
<trkpt lat="31.7669300" lon="35.0998300">
<ele>545.799988</ele>
<time>2023-01-25T14:09:00.006Z</time>
</trkpt>
<trkpt lat="31.7670300" lon="35.0998300">
<ele>547.609985</ele>
<time>2023-01-25T14:09:00.006Z</time>
</trkpt>
<trkpt lat="31.7671200" lon="35.0998400">
<ele>548.799988</ele>
<time>2023-01-25T14:09:00.006Z</time>
</trkpt>
<trkpt lat="31.7672200" lon="35.0998500">
<ele>549.909973</ele>
<time>2023-01-25T14:09:00.006Z</time>
</trkpt>
<trkpt lat="31.7673300" lon="35.0998500">
<ele>553.969971</ele>
<time>2023-01-25T14:09:00.006Z</time>
</trkpt>
<trkpt lat="31.7674200" lon="35.0998600">
<ele>557.010010</ele>
<time>2023-01-25T14:09:00.006Z</time>
</trkpt>
<trkpt lat="31.7675100" lon="35.0998600">
<ele>560.080017</ele>
<time>2023-01-25T14:09:00.006Z</time>
</trkpt>
<trkpt lat="31.7676000" lon="35.0998500">
<ele>560.760010</ele>
<time>2023-01-25T14:09:00.006Z</time>
</trkpt>
<trkpt lat="31.7676900" lon="35.0998200">
<ele>561.500000</ele>
<time>2023-01-25T14:09:00.006Z</time>
</trkpt>
<trkpt lat="31.7677700" lon="35.0997600">
<ele>561.889954</ele>
<time>2023-01-25T14:09:00.006Z</time>
</trkpt>
<trkpt lat="31.7678300" lon="35.0996800">
<ele>562.440002</ele>
<time>2023-01-25T14:09:00.006Z</time>
</trkpt>
<trkpt lat="31.7678900" lon="35.0996300">
<ele>562.739990</ele>
<time>2023-01-25T14:09:00.006Z</time>
</trkpt>
<trkpt lat="31.7678600" lon="35.0996600">
<ele>562.619995</ele>
<time>2023-01-25T14:09:00.006Z</time>
</trkpt>
<trkpt lat="31.7678400" lon="35.0996800">
<ele>562.500000</ele>
<time>2023-01-25T14:09:00.006Z</time>
</trkpt>
<trkpt lat="31.7678700" lon="35.0996500">
<ele>562.669983</ele>
<time>2023-01-25T14:09:00.006Z</time>
</trkpt>
<trkpt lat="31.7679300" lon="35.0995600">
<ele>562.719971</ele>
<time>2023-01-25T14:09:00.006Z</time>
</trkpt>
<trkpt lat="31.7680100" lon="35.0994800">
<ele>562.360046</ele>
<time>2023-01-25T14:09:00.006Z</time>
</trkpt>
<trkpt lat="31.7681000" lon="35.0994300">
<ele>562.700012</ele>
<time>2023-01-25T14:09:00.006Z</time>
</trkpt>
<trkpt lat="31.7681700" lon="35.0994000">
<ele>563.710022</ele>
<time>2023-01-25T14:09:00.006Z</time>
</trkpt>
<trkpt lat="31.7681900" lon="35.0993800">
<ele>564.049988</ele>
<time>2023-01-25T14:09:00.006Z</time>
</trkpt>
<trkpt lat="31.7682700" lon="35.0993200">
<ele>564.830017</ele>
<time>2023-01-25T14:09:00.006Z</time>
</trkpt>
<trkpt lat="31.7683600" lon="35.0992600">
<ele>564.869995</ele>
<time>2023-01-25T14:09:00.006Z</time>
</trkpt>
<trkpt lat="31.7684500" lon="35.0992200">
<ele>564.500000</ele>
<time>2023-01-25T14:09:00.006Z</time>
</trkpt>
<trkpt lat="31.7685600" lon="35.0992000">
<ele>564.090027</ele>
<time>2023-01-25T14:09:00.006Z</time>
</trkpt>
<trkpt lat="31.7686600" lon="35.0991800">
<ele>564.799988</ele>
<time>2023-01-25T14:09:00.006Z</time>
</trkpt>
<trkpt lat="31.7687600" lon="35.0991700">
<ele>566.640015</ele>
<time>2023-01-25T14:09:00.006Z</time>
</trkpt>
<trkpt lat="31.7688500" lon="35.0991500">
<ele>568.320007</ele>
<time>2023-01-25T14:09:00.006Z</time>
</trkpt>
<trkpt lat="31.7689500" lon="35.0991200">
<ele>567.440002</ele>
<time>2023-01-25T14:09:00.006Z</time>
</trkpt>
<trkpt lat="31.7690400" lon="35.0990800">
<ele>566.030029</ele>
<time>2023-01-25T14:09:00.006Z</time>
</trkpt>
<trkpt lat="31.7691300" lon="35.0990500">
<ele>565.279968</ele>
<time>2023-01-25T14:09:00.006Z</time>
</trkpt>
<trkpt lat="31.7692200" lon="35.0990200">
<ele>564.359985</ele>
<time>2023-01-25T14:09:00.006Z</time>
</trkpt>
<trkpt lat="31.7693200" lon="35.0990000">
<ele>562.090027</ele>
<time>2023-01-25T14:09:00.006Z</time>
</trkpt>
<trkpt lat="31.7694100" lon="35.0989900">
<ele>559.640015</ele>
<time>2023-01-25T14:09:00.006Z</time>
</trkpt>
<trkpt lat="31.7695100" lon="35.0989900">
<ele>558.809998</ele>
<time>2023-01-25T14:09:00.006Z</time>
</trkpt>
<trkpt lat="31.7696000" lon="35.0989900">
<ele>559.039978</ele>
<time>2023-01-25T14:09:00.006Z</time>
</trkpt>
<trkpt lat="31.7696900" lon="35.0990000">
<ele>558.950012</ele>
<time>2023-01-25T14:09:00.006Z</time>
</trkpt>
<trkpt lat="31.7697900" lon="35.0990000">
<ele>560.419983</ele>
<time>2023-01-25T14:09:00.006Z</time>
</trkpt>
<trkpt lat="31.7698800" lon="35.0990000">
<ele>562.289978</ele>
<time>2023-01-25T14:09:00.006Z</time>
</trkpt>
<trkpt lat="31.7699900" lon="35.0990000">
<ele>564.589966</ele>
<time>2023-01-25T14:09:00.006Z</time>
</trkpt>
<trkpt lat="31.7700900" lon="35.0990000">
<ele>567.459961</ele>
<time>2023-01-25T14:09:00.006Z</time>
</trkpt>
<trkpt lat="31.7701900" lon="35.0990000">
<ele>570.409973</ele>
<time>2023-01-25T14:09:00.006Z</time>
</trkpt>
<trkpt lat="31.7702900" lon="35.0989900">
<ele>573.599976</ele>
<time>2023-01-25T14:09:00.006Z</time>
</trkpt>
<trkpt lat="31.7703900" lon="35.0989900">
<ele>574.130005</ele>
<time>2023-01-25T14:09:00.006Z</time>
</trkpt>
<trkpt lat="31.7704900" lon="35.0989900">
<ele>574.659973</ele>
<time>2023-01-25T14:09:00.006Z</time>
</trkpt>
<trkpt lat="31.7706000" lon="35.0989800">
<ele>575.640015</ele>
<time>2023-01-25T14:09:00.006Z</time>
</trkpt>
<trkpt lat="31.7707100" lon="35.0989700">
<ele>577.219971</ele>
<time>2023-01-25T14:09:00.006Z</time>
</trkpt>
<trkpt lat="31.7708100" lon="35.0989300">
<ele>578.660034</ele>
<time>2023-01-25T14:09:00.006Z</time>
</trkpt>
<trkpt lat="31.7709000" lon="35.0988800">
<ele>579.460022</ele>
<time>2023-01-25T14:09:00.006Z</time>
</trkpt>
<trkpt lat="31.7709900" lon="35.0988100">
<ele>580.000000</ele>
<time>2023-01-25T14:09:00.006Z</time>
</trkpt>
<trkpt lat="31.7710700" lon="35.0987300">
<ele>580.619995</ele>
<time>2023-01-25T14:09:00.006Z</time>
</trkpt>
<trkpt lat="31.7711600" lon="35.0986500">
<ele>580.729980</ele>
<time>2023-01-25T14:09:00.006Z</time>
</trkpt>
<trkpt lat="31.7712200" lon="35.0985500">
<ele>580.469971</ele>
<time>2023-01-25T14:09:00.006Z</time>
</trkpt>
<trkpt lat="31.7712900" lon="35.0984400">
<ele>580.140015</ele>
<time>2023-01-25T14:09:00.006Z</time>
</trkpt>
<trkpt lat="31.7713600" lon="35.0983300">
<ele>580.030029</ele>
<time>2023-01-25T14:09:00.006Z</time>
</trkpt>
<trkpt lat="31.7714200" lon="35.0982200">
<ele>581.090027</ele>
<time>2023-01-25T14:09:00.006Z</time>
</trkpt>
<trkpt lat="31.7714700" lon="35.0981200">
<ele>582.340027</ele>
<time>2023-01-25T14:09:00.006Z</time>
</trkpt>
<trkpt lat="31.7715100" lon="35.0980300">
<ele>583.229980</ele>
<time>2023-01-25T14:09:00.006Z</time>
</trkpt>
<trkpt lat="31.7715700" lon="35.0979400">
<ele>583.410034</ele>
<time>2023-01-25T14:09:00.006Z</time>
</trkpt>
<trkpt lat="31.7716300" lon="35.0978600">
<ele>583.380005</ele>
<time>2023-01-25T14:09:00.006Z</time>
</trkpt>
<trkpt lat="31.7717200" lon="35.0977600">
<ele>583.630005</ele>
<time>2023-01-25T14:09:00.006Z</time>
</trkpt>
<trkpt lat="31.7717800" lon="35.0976800">
<ele>583.779968</ele>
<time>2023-01-25T14:09:00.006Z</time>
</trkpt>
<trkpt lat="31.7718300" lon="35.0975900">
<ele>583.599976</ele>
<time>2023-01-25T14:09:00.006Z</time>
</trkpt>
<trkpt lat="31.7718800" lon="35.0975000">
<ele>583.299988</ele>
<time>2023-01-25T14:09:00.006Z</time>
</trkpt>
<trkpt lat="31.7719500" lon="35.0974200">
<ele>583.479980</ele>
<time>2023-01-25T14:09:00.006Z</time>
</trkpt>
<trkpt lat="31.7720100" lon="35.0973200">
<ele>583.260010</ele>
<time>2023-01-25T14:09:00.006Z</time>
</trkpt>
<trkpt lat="31.7720800" lon="35.0972400">
<ele>583.140015</ele>
<time>2023-01-25T14:09:00.006Z</time>
</trkpt>
<trkpt lat="31.7721400" lon="35.0971500">
<ele>583.119995</ele>
<time>2023-01-25T14:09:00.006Z</time>
</trkpt>
<trkpt lat="31.7722100" lon="35.0970700">
<ele>582.890015</ele>
<time>2023-01-25T14:09:00.006Z</time>
</trkpt>
<trkpt lat="31.7722600" lon="35.0969800">
<ele>582.659973</ele>
<time>2023-01-25T14:09:00.006Z</time>
</trkpt>
<trkpt lat="31.7723300" lon="35.0968600">
<ele>583.540039</ele>
<time>2023-01-25T14:09:00.006Z</time>
</trkpt>
<trkpt lat="31.7723800" lon="35.0967600">
<ele>584.279968</ele>
<time>2023-01-25T14:09:00.006Z</time>
</trkpt>
<trkpt lat="31.7724200" lon="35.0967300">
<ele>584.579956</ele>
<time>2023-01-25T14:09:00.006Z</time>
</trkpt>
<trkpt lat="31.7724400" lon="35.0967100">
<ele>584.719971</ele>
<time>2023-01-25T14:09:00.006Z</time>
</trkpt>
<trkpt lat="31.7724700" lon="35.0965800">
<ele>586.869995</ele>
<time>2023-01-25T14:09:00.006Z</time>
</trkpt>
<trkpt lat="31.7725200" lon="35.0965100">
<ele>588.880005</ele>
<time>2023-01-25T14:09:00.006Z</time>
</trkpt>
<trkpt lat="31.7725400" lon="35.0964000">
<ele>591.640015</ele>
<time>2023-01-25T14:09:00.006Z</time>
</trkpt>
<trkpt lat="31.7725600" lon="35.0963000">
<ele>594.899963</ele>
<time>2023-01-25T14:09:00.006Z</time>
</trkpt>
<trkpt lat="31.7726200" lon="35.0962500">
<ele>597.229980</ele>
<time>2023-01-25T14:09:00.006Z</time>
</trkpt>
<trkpt lat="31.7727400" lon="35.0962500">
<ele>598.960022</ele>
<time>2023-01-25T14:09:00.006Z</time>
</trkpt>
<trkpt lat="31.7728200" lon="35.0962800">
<ele>600.970032</ele>
<time>2023-01-25T14:09:00.006Z</time>
</trkpt>
<trkpt lat="31.7728600" lon="35.0963100">
<ele>602.399963</ele>
<time>2023-01-25T14:09:00.006Z</time>
</trkpt>
<trkpt lat="31.7729100" lon="35.0962900">
<ele>605.109985</ele>
<time>2023-01-25T14:09:00.006Z</time>
</trkpt>
<trkpt lat="31.7729000" lon="35.0963200">
<ele>604.179993</ele>
<time>2023-01-25T14:09:00.006Z</time>
</trkpt>
<trkpt lat="31.7728600" lon="35.0962700">
<ele>603.029968</ele>
<time>2023-01-25T14:09:00.006Z</time>
</trkpt>
<trkpt lat="31.7727800" lon="35.0962500">
<ele>599.600037</ele>
<time>2023-01-25T14:09:00.006Z</time>
</trkpt>
<trkpt lat="31.7726800" lon="35.0962400">
<ele>598.320007</ele>
<time>2023-01-25T14:09:00.006Z</time>
</trkpt>
<trkpt lat="31.7726000" lon="35.0962600">
<ele>596.669983</ele>
<time>2023-01-25T14:09:00.006Z</time>
</trkpt>
<trkpt lat="31.7725300" lon="35.0963300">
<ele>593.460022</ele>
<time>2023-01-25T14:09:00.006Z</time>
</trkpt>
<trkpt lat="31.7725000" lon="35.0964500">
<ele>589.679993</ele>
<time>2023-01-25T14:09:00.006Z</time>
</trkpt>
<trkpt lat="31.7725000" lon="35.0965500">
<ele>587.520020</ele>
<time>2023-01-25T14:09:00.006Z</time>
</trkpt>
<trkpt lat="31.7724800" lon="35.0966500">
<ele>585.299988</ele>
<time>2023-01-25T14:09:00.006Z</time>
</trkpt>
<trkpt lat="31.7724800" lon="35.0967300">
<ele>584.900024</ele>
<time>2023-01-25T14:09:00.006Z</time>
</trkpt>
<trkpt lat="31.7725200" lon="35.0968100">
<ele>585.649963</ele>
<time>2023-01-25T14:09:00.006Z</time>
</trkpt>
<trkpt lat="31.7725700" lon="35.0968900">
<ele>587.419983</ele>
<time>2023-01-25T14:09:00.006Z</time>
</trkpt>
<trkpt lat="31.7726100" lon="35.0970100">
<ele>589.250000</ele>
<time>2023-01-25T14:09:00.006Z</time>
</trkpt>
<trkpt lat="31.7726200" lon="35.0971200">
<ele>590.039978</ele>
<time>2023-01-25T14:09:00.006Z</time>
</trkpt>
<trkpt lat="31.7726400" lon="35.0972400">
<ele>591.099976</ele>
<time>2023-01-25T14:09:00.006Z</time>
</trkpt>
<trkpt lat="31.7726400" lon="35.0973500">
<ele>591.489990</ele>
<time>2023-01-25T14:09:00.006Z</time>
</trkpt>
<trkpt lat="31.7726500" lon="35.0974600">
<ele>592.110046</ele>
<time>2023-01-25T14:09:00.006Z</time>
</trkpt>
<trkpt lat="31.7726500" lon="35.0975800">
<ele>592.840027</ele>
<time>2023-01-25T14:09:00.006Z</time>
</trkpt>
<trkpt lat="31.7726500" lon="35.0977100">
<ele>593.809998</ele>
<time>2023-01-25T14:09:00.006Z</time>
</trkpt>
<trkpt lat="31.7726500" lon="35.0978400">
<ele>594.339966</ele>
<time>2023-01-25T14:09:00.006Z</time>
</trkpt>
<trkpt lat="31.7726500" lon="35.0979700">
<ele>594.380005</ele>
<time>2023-01-25T14:09:00.006Z</time>
</trkpt>
<trkpt lat="31.7726400" lon="35.0980900">
<ele>594.039978</ele>
<time>2023-01-25T14:09:00.006Z</time>
</trkpt>
<trkpt lat="31.7726400" lon="35.0982200">
<ele>594.039978</ele>
<time>2023-01-25T14:09:00.006Z</time>
</trkpt>
<trkpt lat="31.7726400" lon="35.0983500">
<ele>594.010010</ele>
<time>2023-01-25T14:09:00.006Z</time>
</trkpt>
<trkpt lat="31.7726500" lon="35.0984900">
<ele>594.099976</ele>
<time>2023-01-25T14:09:00.006Z</time>
</trkpt>
<trkpt lat="31.7726700" lon="35.0986300">
<ele>594.559998</ele>
<time>2023-01-25T14:09:00.006Z</time>
</trkpt>
<trkpt lat="31.7726900" lon="35.0987300">
<ele>595.429993</ele>
<time>2023-01-25T14:09:00.006Z</time>
</trkpt>
<trkpt lat="31.7727300" lon="35.0988300">
<ele>596.720032</ele>
<time>2023-01-25T14:09:00.006Z</time>
</trkpt>
<trkpt lat="31.7727700" lon="35.0989300">
<ele>597.650024</ele>
<time>2023-01-25T14:09:00.006Z</time>
</trkpt>
<trkpt lat="31.7728300" lon="35.0990400">
<ele>597.630005</ele>
<time>2023-01-25T14:09:00.006Z</time>
</trkpt>
<trkpt lat="31.7728800" lon="35.0991300">
<ele>597.229980</ele>
<time>2023-01-25T14:09:00.006Z</time>
</trkpt>
<trkpt lat="31.7729300" lon="35.0992400">
<ele>596.789978</ele>
<time>2023-01-25T14:09:00.006Z</time>
</trkpt>
<trkpt lat="31.7729900" lon="35.0993200">
<ele>597.030029</ele>
<time>2023-01-25T14:09:00.006Z</time>
</trkpt>
<trkpt lat="31.7730600" lon="35.0994100">
<ele>597.869995</ele>
<time>2023-01-25T14:09:00.006Z</time>
</trkpt>
<trkpt lat="31.7731500" lon="35.0994700">
<ele>597.079956</ele>
<time>2023-01-25T14:09:00.006Z</time>
</trkpt>
<trkpt lat="31.7732600" lon="35.0995000">
<ele>596.399963</ele>
<time>2023-01-25T14:09:00.006Z</time>
</trkpt>
<trkpt lat="31.7733500" lon="35.0995200">
<ele>596.580017</ele>
<time>2023-01-25T14:09:00.006Z</time>
</trkpt>
<trkpt lat="31.7734600" lon="35.0995400">
<ele>598.830017</ele>
<time>2023-01-25T14:09:00.006Z</time>
</trkpt>
<trkpt lat="31.7735600" lon="35.0995400">
<ele>601.090027</ele>
<time>2023-01-25T14:09:00.006Z</time>
</trkpt>
<trkpt lat="31.7736600" lon="35.0995500">
<ele>602.010010</ele>
<time>2023-01-25T14:09:00.006Z</time>
</trkpt>
<trkpt lat="31.7737500" lon="35.0995400">
<ele>602.280029</ele>
<time>2023-01-25T14:09:00.006Z</time>
</trkpt>
<trkpt lat="31.7738400" lon="35.0995400">
<ele>602.299988</ele>
<time>2023-01-25T14:09:00.006Z</time>
</trkpt>
<trkpt lat="31.7739400" lon="35.0995400">
<ele>603.419983</ele>
<time>2023-01-25T14:09:00.006Z</time>
</trkpt>
<trkpt lat="31.7740500" lon="35.0995400">
<ele>605.789978</ele>
<time>2023-01-25T14:09:00.006Z</time>
</trkpt>
<trkpt lat="31.7741500" lon="35.0995400">
<ele>607.950012</ele>
<time>2023-01-25T14:09:00.006Z</time>
</trkpt>
<trkpt lat="31.7742300" lon="35.0995800">
<ele>610.080017</ele>
<time>2023-01-25T14:09:00.006Z</time>
</trkpt>
<trkpt lat="31.7742500" lon="35.0996900">
<ele>609.929993</ele>
<time>2023-01-25T14:09:00.006Z</time>
</trkpt>
<trkpt lat="31.7742700" lon="35.0998000">
<ele>610.600037</ele>
<time>2023-01-25T14:09:00.006Z</time>
</trkpt>
<trkpt lat="31.7742800" lon="35.0999200">
<ele>611.219971</ele>
<time>2023-01-25T14:09:00.006Z</time>
</trkpt>
<trkpt lat="31.7743000" lon="35.1000400">
<ele>612.159973</ele>
<time>2023-01-25T14:09:00.006Z</time>
</trkpt>
<trkpt lat="31.7743200" lon="35.1001400">
<ele>613.369995</ele>
<time>2023-01-25T14:09:00.006Z</time>
</trkpt>
<trkpt lat="31.7743500" lon="35.1002600">
<ele>615.130005</ele>
<time>2023-01-25T14:09:00.006Z</time>
</trkpt>
<trkpt lat="31.7744200" lon="35.1003600">
<ele>616.549988</ele>
<time>2023-01-25T14:09:00.006Z</time>
</trkpt>
<trkpt lat="31.7745000" lon="35.1004300">
<ele>618.650024</ele>
<time>2023-01-25T14:09:00.006Z</time>
</trkpt>
<trkpt lat="31.7745900" lon="35.1005000">
<ele>621.640015</ele>
<time>2023-01-25T14:09:00.006Z</time>
</trkpt>
<trkpt lat="31.7746700" lon="35.1005700">
<ele>624.440002</ele>
<time>2023-01-25T14:09:00.006Z</time>
</trkpt>
<trkpt lat="31.7747500" lon="35.1006300">
<ele>624.809998</ele>
<time>2023-01-25T14:09:00.006Z</time>
</trkpt>
<trkpt lat="31.7748200" lon="35.1007000">
<ele>623.210022</ele>
<time>2023-01-25T14:09:00.006Z</time>
</trkpt>
<trkpt lat="31.7749100" lon="35.1007500">
<ele>622.530029</ele>
<time>2023-01-25T14:09:00.006Z</time>
</trkpt>
<trkpt lat="31.7750000" lon="35.1008000">
<ele>621.959961</ele>
<time>2023-01-25T14:09:00.006Z</time>
</trkpt>
<trkpt lat="31.7751000" lon="35.1008600">
<ele>624.070007</ele>
<time>2023-01-25T14:09:00.006Z</time>
</trkpt>
<trkpt lat="31.7751700" lon="35.1009300">
<ele>624.679993</ele>
<time>2023-01-25T14:09:00.006Z</time>
</trkpt>
<trkpt lat="31.7752600" lon="35.1009800">
<ele>627.000000</ele>
<time>2023-01-25T14:09:00.006Z</time>
</trkpt>
<trkpt lat="31.7753500" lon="35.1010200">
<ele>625.150024</ele>
<time>2023-01-25T14:09:00.006Z</time>
</trkpt>
<trkpt lat="31.7754400" lon="35.1010700">
<ele>621.440002</ele>
<time>2023-01-25T14:09:00.006Z</time>
</trkpt>
<trkpt lat="31.7755300" lon="35.1011200">
<ele>617.400024</ele>
<time>2023-01-25T14:09:00.006Z</time>
</trkpt>
<trkpt lat="31.7756100" lon="35.1011700">
<ele>616.450012</ele>
<time>2023-01-25T14:09:00.006Z</time>
</trkpt>
<trkpt lat="31.7756900" lon="35.1012100">
<ele>616.760010</ele>
<time>2023-01-25T14:09:00.006Z</time>
</trkpt>
<trkpt lat="31.7757800" lon="35.1012500">
<ele>617.140015</ele>
<time>2023-01-25T14:09:00.006Z</time>
</trkpt>
<trkpt lat="31.7758700" lon="35.1012700">
<ele>617.369995</ele>
<time>2023-01-25T14:09:00.006Z</time>
</trkpt>
<trkpt lat="31.7759700" lon="35.1012900">
<ele>616.669983</ele>
<time>2023-01-25T14:09:00.006Z</time>
</trkpt>
<trkpt lat="31.7760600" lon="35.1013000">
<ele>616.299988</ele>
<time>2023-01-25T14:09:00.006Z</time>
</trkpt>
<trkpt lat="31.7761600" lon="35.1013100">
<ele>614.630005</ele>
<time>2023-01-25T14:09:00.006Z</time>
</trkpt>
<trkpt lat="31.7762500" lon="35.1013200">
<ele>611.859985</ele>
<time>2023-01-25T14:09:00.006Z</time>
</trkpt>
<trkpt lat="31.7763600" lon="35.1013200">
<ele>608.789978</ele>
<time>2023-01-25T14:09:00.006Z</time>
</trkpt>
<trkpt lat="31.7764600" lon="35.1013200">
<ele>608.429993</ele>
<time>2023-01-25T14:09:00.006Z</time>
</trkpt>
<trkpt lat="31.7765600" lon="35.1013100">
<ele>609.250000</ele>
<time>2023-01-25T14:09:00.006Z</time>
</trkpt>
<trkpt lat="31.7766600" lon="35.1013000">
<ele>609.929993</ele>
<time>2023-01-25T14:09:00.006Z</time>
</trkpt>
<trkpt lat="31.7767700" lon="35.1012900">
<ele>609.459961</ele>
<time>2023-01-25T14:09:00.006Z</time>
</trkpt>
<trkpt lat="31.7768600" lon="35.1012700">
<ele>609.190002</ele>
<time>2023-01-25T14:09:00.006Z</time>
</trkpt>
<trkpt lat="31.7769600" lon="35.1012400">
<ele>609.599976</ele>
<time>2023-01-25T14:09:00.006Z</time>
</trkpt>
<trkpt lat="31.7770500" lon="35.1012200">
<ele>612.979980</ele>
<time>2023-01-25T14:09:00.006Z</time>
</trkpt>
<trkpt lat="31.7771400" lon="35.1011900">
<ele>617.729980</ele>
<time>2023-01-25T14:09:00.006Z</time>
</trkpt>
<trkpt lat="31.7772500" lon="35.1011800">
<ele>621.919983</ele>
<time>2023-01-25T14:09:00.006Z</time>
</trkpt>
<trkpt lat="31.7773500" lon="35.1011600">
<ele>623.570007</ele>
<time>2023-01-25T14:09:00.006Z</time>
</trkpt>
<trkpt lat="31.7774600" lon="35.1011400">
<ele>624.760010</ele>
<time>2023-01-25T14:09:00.006Z</time>
</trkpt>
<trkpt lat="31.7775700" lon="35.1011300">
<ele>624.329956</ele>
<time>2023-01-25T14:09:00.006Z</time>
</trkpt>
<trkpt lat="31.7776700" lon="35.1011300">
<ele>623.109985</ele>
<time>2023-01-25T14:09:00.006Z</time>
</trkpt>
<trkpt lat="31.7777800" lon="35.1011300">
<ele>621.820007</ele>
<time>2023-01-25T14:09:00.006Z</time>
</trkpt>
<trkpt lat="31.7778900" lon="35.1011400">
<ele>623.029968</ele>
<time>2023-01-25T14:09:00.006Z</time>
</trkpt>
<trkpt lat="31.7780100" lon="35.1011700">
<ele>624.399963</ele>
<time>2023-01-25T14:09:00.006Z</time>
</trkpt>
<trkpt lat="31.7780800" lon="35.1012400">
<ele>625.619995</ele>
<time>2023-01-25T14:09:00.006Z</time>
</trkpt>
<trkpt lat="31.7781300" lon="35.1013500">
<ele>626.680054</ele>
<time>2023-01-25T14:09:00.006Z</time>
</trkpt>
<trkpt lat="31.7781500" lon="35.1014500">
<ele>626.820007</ele>
<time>2023-01-25T14:09:00.006Z</time>
</trkpt>
<trkpt lat="31.7781600" lon="35.1015700">
<ele>626.599976</ele>
<time>2023-01-25T14:09:00.006Z</time>
</trkpt>
<trkpt lat="31.7781600" lon="35.1017000">
<ele>626.299988</ele>
<time>2023-01-25T14:09:00.006Z</time>
</trkpt>
<trkpt lat="31.7781500" lon="35.1018200">
<ele>626.229980</ele>
<time>2023-01-25T14:09:00.006Z</time>
</trkpt>
<trkpt lat="31.7781400" lon="35.1019400">
<ele>626.119995</ele>
<time>2023-01-25T14:09:00.006Z</time>
</trkpt>
<trkpt lat="31.7781300" lon="35.1020800">
<ele>626.489990</ele>
<time>2023-01-25T14:09:00.006Z</time>
</trkpt>
<trkpt lat="31.7781200" lon="35.1021900">
<ele>626.710022</ele>
<time>2023-01-25T14:09:00.006Z</time>
</trkpt>
<trkpt lat="31.7781200" lon="35.1023100">
<ele>627.730042</ele>
<time>2023-01-25T14:09:00.006Z</time>
</trkpt>
<trkpt lat="31.7781200" lon="35.1024200">
<ele>628.830017</ele>
<time>2023-01-25T14:09:00.006Z</time>
</trkpt>
<trkpt lat="31.7781200" lon="35.1025400">
<ele>629.849976</ele>
<time>2023-01-25T14:09:00.006Z</time>
</trkpt>
<trkpt lat="31.7781300" lon="35.1026600">
<ele>630.719971</ele>
<time>2023-01-25T14:09:00.006Z</time>
</trkpt>
<trkpt lat="31.7781400" lon="35.1027700">
<ele>631.479980</ele>
<time>2023-01-25T14:09:00.006Z</time>
</trkpt>
<trkpt lat="31.7781800" lon="35.1028800">
<ele>632.079956</ele>
<time>2023-01-25T14:09:00.006Z</time>
</trkpt>
<trkpt lat="31.7782300" lon="35.1029700">
<ele>632.710022</ele>
<time>2023-01-25T14:09:00.006Z</time>
</trkpt>
<trkpt lat="31.7783000" lon="35.1030700">
<ele>633.420044</ele>
<time>2023-01-25T14:09:00.006Z</time>
</trkpt>
<trkpt lat="31.7783500" lon="35.1031600">
<ele>633.470032</ele>
<time>2023-01-25T14:09:00.006Z</time>
</trkpt>
<trkpt lat="31.7784000" lon="35.1032700">
<ele>633.230042</ele>
<time>2023-01-25T14:09:00.006Z</time>
</trkpt>
<trkpt lat="31.7784600" lon="35.1033700">
<ele>633.030029</ele>
<time>2023-01-25T14:09:00.006Z</time>
</trkpt>
<trkpt lat="31.7785100" lon="35.1034600">
<ele>632.830017</ele>
<time>2023-01-25T14:09:00.006Z</time>
</trkpt>
<trkpt lat="31.7785600" lon="35.1035600">
<ele>632.669983</ele>
<time>2023-01-25T14:09:00.006Z</time>
</trkpt>
<trkpt lat="31.7786200" lon="35.1036500">
<ele>632.989990</ele>
<time>2023-01-25T14:09:00.006Z</time>
</trkpt>
<trkpt lat="31.7786500" lon="35.1037700">
<ele>632.989990</ele>
<time>2023-01-25T14:09:00.006Z</time>
</trkpt>
<trkpt lat="31.7786600" lon="35.1038900">
<ele>632.710022</ele>
<time>2023-01-25T14:09:00.006Z</time>
</trkpt>
<trkpt lat="31.7786600" lon="35.1040000">
<ele>633.359985</ele>
<time>2023-01-25T14:09:00.006Z</time>
</trkpt>
<trkpt lat="31.7786600" lon="35.1041200">
<ele>634.080017</ele>
<time>2023-01-25T14:09:00.006Z</time>
</trkpt>
<trkpt lat="31.7786300" lon="35.1042100">
<ele>634.460022</ele>
<time>2023-01-25T14:09:00.006Z</time>
</trkpt>
<trkpt lat="31.7785900" lon="35.1043000">
<ele>634.500000</ele>
<time>2023-01-25T14:09:00.006Z</time>
</trkpt>
<trkpt lat="31.7785400" lon="35.1044100">
<ele>634.219971</ele>
<time>2023-01-25T14:09:00.006Z</time>
</trkpt>
<trkpt lat="31.7784900" lon="35.1045000">
<ele>634.269958</ele>
<time>2023-01-25T14:09:00.006Z</time>
</trkpt>
<trkpt lat="31.7784500" lon="35.1046000">
<ele>635.079956</ele>
<time>2023-01-25T14:09:00.006Z</time>
</trkpt>
<trkpt lat="31.7783900" lon="35.1046900">
<ele>635.460022</ele>
<time>2023-01-25T14:09:00.006Z</time>
</trkpt>
<trkpt lat="31.7783700" lon="35.1048000">
<ele>636.739990</ele>
<time>2023-01-25T14:09:00.006Z</time>
</trkpt>
<trkpt lat="31.7783600" lon="35.1049200">
<ele>638.260010</ele>
<time>2023-01-25T14:09:00.006Z</time>
</trkpt>
<trkpt lat="31.7783500" lon="35.1050300">
<ele>639.459961</ele>
<time>2023-01-25T14:09:00.006Z</time>
</trkpt>
<trkpt lat="31.7783500" lon="35.1051400">
<ele>640.250061</ele>
<time>2023-01-25T14:09:00.006Z</time>
</trkpt>
<trkpt lat="31.7783600" lon="35.1052700">
<ele>641.330017</ele>
<time>2023-01-25T14:09:00.006Z</time>
</trkpt>
<trkpt lat="31.7783700" lon="35.1053900">
<ele>642.340027</ele>
<time>2023-01-25T14:09:00.006Z</time>
</trkpt>
<trkpt lat="31.7783800" lon="35.1055000">
<ele>643.269958</ele>
<time>2023-01-25T14:09:00.006Z</time>
</trkpt>
<trkpt lat="31.7784000" lon="35.1056100">
<ele>644.200012</ele>
<time>2023-01-25T14:09:00.006Z</time>
</trkpt>
<trkpt lat="31.7784300" lon="35.1057300">
<ele>645.239990</ele>
<time>2023-01-25T14:09:00.006Z</time>
</trkpt>
<trkpt lat="31.7784700" lon="35.1058200">
<ele>646.390015</ele>
<time>2023-01-25T14:09:00.006Z</time>
</trkpt>
<trkpt lat="31.7785300" lon="35.1059100">
<ele>647.649963</ele>
<time>2023-01-25T14:09:00.006Z</time>
</trkpt>
<trkpt lat="31.7785900" lon="35.1059800">
<ele>649.069946</ele>
<time>2023-01-25T14:09:00.006Z</time>
</trkpt>
<trkpt lat="31.7786700" lon="35.1060500">
<ele>650.419983</ele>
<time>2023-01-25T14:09:00.006Z</time>
</trkpt>
<trkpt lat="31.7787500" lon="35.1061100">
<ele>651.500000</ele>
<time>2023-01-25T14:09:00.006Z</time>
</trkpt>
<trkpt lat="31.7788400" lon="35.1061600">
<ele>652.349976</ele>
<time>2023-01-25T14:09:00.006Z</time>
</trkpt>
<trkpt lat="31.7789300" lon="35.1062000">
<ele>653.690063</ele>
<time>2023-01-25T14:09:00.006Z</time>
</trkpt>
<trkpt lat="31.7790100" lon="35.1062700">
<ele>654.929993</ele>
<time>2023-01-25T14:09:00.006Z</time>
</trkpt>
<trkpt lat="31.7790600" lon="35.1063600">
<ele>655.529968</ele>
<time>2023-01-25T14:09:00.006Z</time>
</trkpt>
<trkpt lat="31.7790800" lon="35.1064700">
<ele>655.749939</ele>
<time>2023-01-25T14:09:00.006Z</time>
</trkpt>
<trkpt lat="31.7791000" lon="35.1065800">
<ele>656.040039</ele>
<time>2023-01-25T14:09:00.006Z</time>
</trkpt>
<trkpt lat="31.7791100" lon="35.1066900">
<ele>656.229980</ele>
<time>2023-01-25T14:09:00.006Z</time>
</trkpt>
<trkpt lat="31.7791200" lon="35.1068000">
<ele>656.650024</ele>
<time>2023-01-25T14:09:00.006Z</time>
</trkpt>
<trkpt lat="31.7791200" lon="35.1069200">
<ele>656.929993</ele>
<time>2023-01-25T14:09:00.006Z</time>
</trkpt>
<trkpt lat="31.7791200" lon="35.1070300">
<ele>656.989990</ele>
<time>2023-01-25T14:09:00.006Z</time>
</trkpt>
<trkpt lat="31.7791100" lon="35.1071500">
<ele>656.780029</ele>
<time>2023-01-25T14:09:00.006Z</time>
</trkpt>
<trkpt lat="31.7791000" lon="35.1072500">
<ele>656.679993</ele>
<time>2023-01-25T14:09:00.006Z</time>
</trkpt>
<trkpt lat="31.7790800" lon="35.1073700">
<ele>656.830017</ele>
<time>2023-01-25T14:09:00.006Z</time>
</trkpt>
<trkpt lat="31.7790600" lon="35.1074800">
<ele>656.980042</ele>
<time>2023-01-25T14:09:00.006Z</time>
</trkpt>
<trkpt lat="31.7790300" lon="35.1075900">
<ele>657.179993</ele>
<time>2023-01-25T14:09:00.006Z</time>
</trkpt>
<trkpt lat="31.7790100" lon="35.1077100">
<ele>657.790039</ele>
<time>2023-01-25T14:09:00.006Z</time>
</trkpt>
<trkpt lat="31.7789800" lon="35.1078200">
<ele>658.340027</ele>
<time>2023-01-25T14:09:00.006Z</time>
</trkpt>
<trkpt lat="31.7789700" lon="35.1079300">
<ele>659.130005</ele>
<time>2023-01-25T14:09:00.006Z</time>
</trkpt>
<trkpt lat="31.7789500" lon="35.1080400">
<ele>659.760010</ele>
<time>2023-01-25T14:09:00.006Z</time>
</trkpt>
<trkpt lat="31.7789500" lon="35.1081500">
<ele>660.559998</ele>
<time>2023-01-25T14:09:00.006Z</time>
</trkpt>
<trkpt lat="31.7789400" lon="35.1082600">
<ele>661.210022</ele>
<time>2023-01-25T14:09:00.006Z</time>
</trkpt>
<trkpt lat="31.7789300" lon="35.1083900">
<ele>661.589966</ele>
<time>2023-01-25T14:09:00.006Z</time>
</trkpt>
<trkpt lat="31.7789300" lon="35.1085100">
<ele>661.589966</ele>
<time>2023-01-25T14:09:00.006Z</time>
</trkpt>
<trkpt lat="31.7789200" lon="35.1086400">
<ele>661.660034</ele>
<time>2023-01-25T14:09:00.006Z</time>
</trkpt>
<trkpt lat="31.7789100" lon="35.1087500">
<ele>662.299988</ele>
<time>2023-01-25T14:09:00.006Z</time>
</trkpt>
<trkpt lat="31.7789100" lon="35.1088600">
<ele>663.099976</ele>
<time>2023-01-25T14:09:00.006Z</time>
</trkpt>
<trkpt lat="31.7789100" lon="35.1089600">
<ele>663.839966</ele>
<time>2023-01-25T14:09:00.006Z</time>
</trkpt>
<trkpt lat="31.7789100" lon="35.1091000">
<ele>664.880005</ele>
<time>2023-01-25T14:09:00.006Z</time>
</trkpt>
<trkpt lat="31.7789200" lon="35.1092200">
<ele>665.940002</ele>
<time>2023-01-25T14:09:00.006Z</time>
</trkpt>
<trkpt lat="31.7789400" lon="35.1093500">
<ele>667.239990</ele>
<time>2023-01-25T14:09:00.006Z</time>
</trkpt>
<trkpt lat="31.7789800" lon="35.1094500">
<ele>668.650024</ele>
<time>2023-01-25T14:09:00.006Z</time>
</trkpt>
<trkpt lat="31.7790400" lon="35.1095600">
<ele>670.169983</ele>
<time>2023-01-25T14:09:00.006Z</time>
</trkpt>
<trkpt lat="31.7790900" lon="35.1096500">
<ele>671.690002</ele>
<time>2023-01-25T14:09:00.006Z</time>
</trkpt>
<trkpt lat="31.7791600" lon="35.1097200">
<ele>673.820007</ele>
<time>2023-01-25T14:09:00.006Z</time>
</trkpt>
<trkpt lat="31.7792400" lon="35.1098000">
<ele>674.450012</ele>
<time>2023-01-25T14:09:00.006Z</time>
</trkpt>
<trkpt lat="31.7793000" lon="35.1098900">
<ele>675.099976</ele>
<time>2023-01-25T14:09:00.006Z</time>
</trkpt>
<trkpt lat="31.7793600" lon="35.1099700">
<ele>676.169983</ele>
<time>2023-01-25T14:09:00.006Z</time>
</trkpt>
<trkpt lat="31.7794200" lon="35.1100500">
<ele>676.979980</ele>
<time>2023-01-25T14:09:00.006Z</time>
</trkpt>
<trkpt lat="31.7795000" lon="35.1101400">
<ele>677.089966</ele>
<time>2023-01-25T14:09:00.006Z</time>
</trkpt>
<trkpt lat="31.7795600" lon="35.1102300">
<ele>676.489990</ele>
<time>2023-01-25T14:09:00.006Z</time>
</trkpt>
<trkpt lat="31.7796200" lon="35.1103100">
<ele>675.799988</ele>
<time>2023-01-25T14:09:00.006Z</time>
</trkpt>
<trkpt lat="31.7796700" lon="35.1104000">
<ele>674.860046</ele>
<time>2023-01-25T14:09:00.006Z</time>
</trkpt>
<trkpt lat="31.7797000" lon="35.1105000">
<ele>673.640015</ele>
<time>2023-01-25T14:09:00.006Z</time>
</trkpt>
<trkpt lat="31.7797200" lon="35.1106100">
<ele>672.779968</ele>
<time>2023-01-25T14:09:00.006Z</time>
</trkpt>
<trkpt lat="31.7797200" lon="35.1107300">
<ele>672.339966</ele>
<time>2023-01-25T14:09:00.006Z</time>
</trkpt>
<trkpt lat="31.7797200" lon="35.1108400">
<ele>671.949951</ele>
<time>2023-01-25T14:09:00.006Z</time>
</trkpt>
<trkpt lat="31.7797100" lon="35.1109600">
<ele>671.739990</ele>
<time>2023-01-25T14:09:00.006Z</time>
</trkpt>
<trkpt lat="31.7796900" lon="35.1110800">
<ele>671.299988</ele>
<time>2023-01-25T14:09:00.006Z</time>
</trkpt>
<trkpt lat="31.7796700" lon="35.1111900">
<ele>671.620056</ele>
<time>2023-01-25T14:09:00.006Z</time>
</trkpt>
<trkpt lat="31.7796500" lon="35.1113100">
<ele>672.220032</ele>
<time>2023-01-25T14:09:00.006Z</time>
</trkpt>
<trkpt lat="31.7796400" lon="35.1114200">
<ele>672.929993</ele>
<time>2023-01-25T14:09:00.006Z</time>
</trkpt>
<trkpt lat="31.7796100" lon="35.1115300">
<ele>673.090027</ele>
<time>2023-01-25T14:09:00.006Z</time>
</trkpt>
<trkpt lat="31.7796000" lon="35.1116500">
<ele>673.890015</ele>
<time>2023-01-25T14:09:00.006Z</time>
</trkpt>
<trkpt lat="31.7795900" lon="35.1117500">
<ele>674.769958</ele>
<time>2023-01-25T14:09:00.006Z</time>
</trkpt>
<trkpt lat="31.7795800" lon="35.1118700">
<ele>675.950012</ele>
<time>2023-01-25T14:09:00.006Z</time>
</trkpt>
<trkpt lat="31.7795600" lon="35.1119800">
<ele>676.649963</ele>
<time>2023-01-25T14:09:00.006Z</time>
</trkpt>
<trkpt lat="31.7795500" lon="35.1120900">
<ele>677.769958</ele>
<time>2023-01-25T14:09:00.006Z</time>
</trkpt>
<trkpt lat="31.7795300" lon="35.1122000">
<ele>678.410034</ele>
<time>2023-01-25T14:09:00.006Z</time>
</trkpt>
<trkpt lat="31.7795200" lon="35.1123200">
<ele>679.290039</ele>
<time>2023-01-25T14:09:00.006Z</time>
</trkpt>
<trkpt lat="31.7794900" lon="35.1124200">
<ele>679.350037</ele>
<time>2023-01-25T14:09:00.006Z</time>
</trkpt>
<trkpt lat="31.7794700" lon="35.1125200">
<ele>680.020020</ele>
<time>2023-01-25T14:09:00.006Z</time>
</trkpt>
<trkpt lat="31.7794500" lon="35.1126300">
<ele>681.020020</ele>
<time>2023-01-25T14:09:00.006Z</time>
</trkpt>
<trkpt lat="31.7794400" lon="35.1127500">
<ele>682.460022</ele>
<time>2023-01-25T14:09:00.006Z</time>
</trkpt>
<trkpt lat="31.7794400" lon="35.1128700">
<ele>683.530029</ele>
<time>2023-01-25T14:09:00.006Z</time>
</trkpt>
<trkpt lat="31.7794400" lon="35.1129800">
<ele>684.339966</ele>
<time>2023-01-25T14:09:00.006Z</time>
</trkpt>
<trkpt lat="31.7794500" lon="35.1131000">
<ele>685.090027</ele>
<time>2023-01-25T14:09:00.006Z</time>
</trkpt>
<trkpt lat="31.7794700" lon="35.1132200">
<ele>685.480042</ele>
<time>2023-01-25T14:09:00.006Z</time>
</trkpt>
<trkpt lat="31.7795100" lon="35.1133200">
<ele>686.390015</ele>
<time>2023-01-25T14:09:00.006Z</time>
</trkpt>
<trkpt lat="31.7795500" lon="35.1134300">
<ele>687.410034</ele>
<time>2023-01-25T14:09:00.006Z</time>
</trkpt>
<trkpt lat="31.7796000" lon="35.1135200">
<ele>688.740051</ele>
<time>2023-01-25T14:09:00.006Z</time>
</trkpt>
<trkpt lat="31.7796500" lon="35.1136100">
<ele>690.179993</ele>
<time>2023-01-25T14:09:00.006Z</time>
</trkpt>
<trkpt lat="31.7797000" lon="35.1137100">
<ele>690.729980</ele>
<time>2023-01-25T14:09:00.006Z</time>
</trkpt>
<trkpt lat="31.7797500" lon="35.1138200">
<ele>691.020020</ele>
<time>2023-01-25T14:09:00.006Z</time>
</trkpt>
<trkpt lat="31.7798000" lon="35.1139200">
<ele>691.409973</ele>
<time>2023-01-25T14:09:00.006Z</time>
</trkpt>
<trkpt lat="31.7798600" lon="35.1140100">
<ele>692.909973</ele>
<time>2023-01-25T14:09:00.006Z</time>
</trkpt>
<trkpt lat="31.7798900" lon="35.1141100">
<ele>694.150024</ele>
<time>2023-01-25T14:09:00.006Z</time>
</trkpt>
<trkpt lat="31.7799400" lon="35.1142200">
<ele>695.820007</ele>
<time>2023-01-25T14:09:00.006Z</time>
</trkpt>
<trkpt lat="31.7799900" lon="35.1143300">
<ele>697.070007</ele>
<time>2023-01-25T14:09:00.006Z</time>
</trkpt>
<trkpt lat="31.7800300" lon="35.1144200">
<ele>697.430054</ele>
<time>2023-01-25T14:09:00.006Z</time>
</trkpt>
<trkpt lat="31.7800800" lon="35.1145200">
<ele>698.179993</ele>
<time>2023-01-25T14:09:00.006Z</time>
</trkpt>
<trkpt lat="31.7801300" lon="35.1146300">
<ele>699.650024</ele>
<time>2023-01-25T14:09:00.006Z</time>
</trkpt>
<trkpt lat="31.7801800" lon="35.1147300">
<ele>701.469971</ele>
<time>2023-01-25T14:09:00.006Z</time>
</trkpt>
<trkpt lat="31.7802300" lon="35.1148300">
<ele>701.580017</ele>
<time>2023-01-25T14:09:00.006Z</time>
</trkpt>
<trkpt lat="31.7802900" lon="35.1149300">
<ele>700.989990</ele>
<time>2023-01-25T14:09:00.006Z</time>
</trkpt>
<trkpt lat="31.7803600" lon="35.1150100">
<ele>699.869995</ele>
<time>2023-01-25T14:09:00.006Z</time>
</trkpt>
<trkpt lat="31.7804300" lon="35.1151000">
<ele>698.530029</ele>
<time>2023-01-25T14:09:00.006Z</time>
</trkpt>
<trkpt lat="31.7805100" lon="35.1151700">
<ele>697.140015</ele>
<time>2023-01-25T14:09:00.006Z</time>
</trkpt>
<trkpt lat="31.7805900" lon="35.1152300">
<ele>695.329956</ele>
<time>2023-01-25T14:09:00.006Z</time>
</trkpt>
<trkpt lat="31.7806800" lon="35.1152700">
<ele>692.950012</ele>
<time>2023-01-25T14:09:00.006Z</time>
</trkpt>
<trkpt lat="31.7807600" lon="35.1152900">
<ele>690.919983</ele>
<time>2023-01-25T14:09:00.006Z</time>
</trkpt>
<trkpt lat="31.7808600" lon="35.1153100">
<ele>688.240051</ele>
<time>2023-01-25T14:09:00.006Z</time>
</trkpt>
<trkpt lat="31.7809500" lon="35.1153100">
<ele>685.840027</ele>
<time>2023-01-25T14:09:00.006Z</time>
</trkpt>
<trkpt lat="31.7810500" lon="35.1153100">
<ele>683.169983</ele>
<time>2023-01-25T14:09:00.006Z</time>
</trkpt>
<trkpt lat="31.7811500" lon="35.1153100">
<ele>681.040039</ele>
<time>2023-01-25T14:09:00.006Z</time>
</trkpt>
<trkpt lat="31.7812400" lon="35.1153000">
<ele>679.970032</ele>
<time>2023-01-25T14:09:00.006Z</time>
</trkpt>
<trkpt lat="31.7813400" lon="35.1152900">
<ele>678.670044</ele>
<time>2023-01-25T14:09:00.006Z</time>
</trkpt>
<trkpt lat="31.7814400" lon="35.1152800">
<ele>677.080017</ele>
<time>2023-01-25T14:09:00.006Z</time>
</trkpt>
<trkpt lat="31.7815400" lon="35.1152600">
<ele>676.179993</ele>
<time>2023-01-25T14:09:00.006Z</time>
</trkpt>
<trkpt lat="31.7816400" lon="35.1152400">
<ele>675.489990</ele>
<time>2023-01-25T14:09:00.006Z</time>
</trkpt>
<trkpt lat="31.7817400" lon="35.1152300">
<ele>675.700012</ele>
<time>2023-01-25T14:09:00.006Z</time>
</trkpt>
<trkpt lat="31.7818400" lon="35.1152200">
<ele>676.200012</ele>
<time>2023-01-25T14:09:00.006Z</time>
</trkpt>
<trkpt lat="31.7819400" lon="35.1152000">
<ele>676.690002</ele>
<time>2023-01-25T14:09:00.006Z</time>
</trkpt>
<trkpt lat="31.7820300" lon="35.1151900">
<ele>680.899963</ele>
<time>2023-01-25T14:09:00.006Z</time>
</trkpt>
<trkpt lat="31.7821300" lon="35.1151800">
<ele>685.799988</ele>
<time>2023-01-25T14:09:00.006Z</time>
</trkpt>
<trkpt lat="31.7822300" lon="35.1151700">
<ele>690.509949</ele>
<time>2023-01-25T14:09:00.006Z</time>
</trkpt>
<trkpt lat="31.7823200" lon="35.1151500">
<ele>692.929993</ele>
<time>2023-01-25T14:09:00.006Z</time>
</trkpt>
<trkpt lat="31.7824200" lon="35.1151100">
<ele>695.600037</ele>
<time>2023-01-25T14:09:00.006Z</time>
</trkpt>
<trkpt lat="31.7825000" lon="35.1150600">
<ele>697.570007</ele>
<time>2023-01-25T14:09:00.006Z</time>
</trkpt>
<trkpt lat="31.7825900" lon="35.1150200">
<ele>698.779968</ele>
<time>2023-01-25T14:09:00.006Z</time>
</trkpt>
<trkpt lat="31.7826800" lon="35.1149700">
<ele>700.159973</ele>
<time>2023-01-25T14:09:00.006Z</time>
</trkpt>
<trkpt lat="31.7827400" lon="35.1148900">
<ele>701.380005</ele>
<time>2023-01-25T14:09:00.006Z</time>
</trkpt>
<trkpt lat="31.7828200" lon="35.1148300">
<ele>702.140015</ele>
<time>2023-01-25T14:09:00.006Z</time>
</trkpt>
<trkpt lat="31.7828900" lon="35.1147500">
<ele>703.040039</ele>
<time>2023-01-25T14:09:00.006Z</time>
</trkpt>
<trkpt lat="31.7829500" lon="35.1146600">
<ele>705.020020</ele>
<time>2023-01-25T14:09:00.006Z</time>
</trkpt>
<trkpt lat="31.7830200" lon="35.1145800">
<ele>707.320007</ele>
<time>2023-01-25T14:09:00.006Z</time>
</trkpt>
<trkpt lat="31.7830700" lon="35.1145600">
<ele>708.030029</ele>
<time>2023-01-25T14:09:00.006Z</time>
</trkpt>
<trkpt lat="31.7831900" lon="35.1145700">
<ele>707.309998</ele>
<time>2023-01-25T14:09:00.006Z</time>
</trkpt>
<trkpt lat="31.7833100" lon="35.1145800">
<ele>706.650024</ele>
<time>2023-01-25T14:09:00.006Z</time>
</trkpt>
<trkpt lat="31.7834400" lon="35.1146300">
<ele>705.529968</ele>
<time>2023-01-25T14:09:00.006Z</time>
</trkpt>
<trkpt lat="31.7835600" lon="35.1147100">
<ele>704.179993</ele>
<time>2023-01-25T14:09:00.006Z</time>
</trkpt>
<trkpt lat="31.7836400" lon="35.1148100">
<ele>703.469971</ele>
<time>2023-01-25T14:09:00.006Z</time>
</trkpt>
<trkpt lat="31.7837300" lon="35.1148600">
<ele>704.220032</ele>
<time>2023-01-25T14:09:00.006Z</time>
</trkpt>
<trkpt lat="31.7838100" lon="35.1148500">
<ele>705.479980</ele>
<time>2023-01-25T14:09:00.006Z</time>
</trkpt>
<trkpt lat="31.7839100" lon="35.1148600">
<ele>706.630005</ele>
<time>2023-01-25T14:09:00.006Z</time>
</trkpt>
<trkpt lat="31.7839800" lon="35.1148100">
<ele>707.480042</ele>
<time>2023-01-25T14:09:00.006Z</time>
</trkpt>
<trkpt lat="31.7840300" lon="35.1147400">
<ele>708.349976</ele>
<time>2023-01-25T14:09:00.006Z</time>
</trkpt>
<trkpt lat="31.7841200" lon="35.1147100">
<ele>708.780029</ele>
<time>2023-01-25T14:09:00.006Z</time>
</trkpt>
<trkpt lat="31.7842100" lon="35.1147200">
<ele>708.840027</ele>
<time>2023-01-25T14:09:00.006Z</time>
</trkpt>
<trkpt lat="31.7842300" lon="35.1148000">
<ele>708.340027</ele>
<time>2023-01-25T14:09:00.006Z</time>
</trkpt>
<trkpt lat="31.7842400" lon="35.1149100">
<ele>707.739990</ele>
<time>2023-01-25T14:09:00.006Z</time>
</trkpt>
<trkpt lat="31.7842400" lon="35.1150200">
<ele>707.389954</ele>
<time>2023-01-25T14:09:00.006Z</time>
</trkpt>
<trkpt lat="31.7842500" lon="35.1151200">
<ele>708.030029</ele>
<time>2023-01-25T14:09:00.006Z</time>
</trkpt>
<trkpt lat="31.7842500" lon="35.1152300">
<ele>708.710022</ele>
<time>2023-01-25T14:09:00.006Z</time>
</trkpt>
<trkpt lat="31.7842500" lon="35.1153500">
<ele>709.260010</ele>
<time>2023-01-25T14:09:00.006Z</time>
</trkpt>
<trkpt lat="31.7842500" lon="35.1154600">
<ele>709.659973</ele>
<time>2023-01-25T14:09:00.006Z</time>
</trkpt>
<trkpt lat="31.7842500" lon="35.1155700">
<ele>710.099976</ele>
<time>2023-01-25T14:09:00.006Z</time>
</trkpt>
<trkpt lat="31.7842400" lon="35.1156800">
<ele>710.900024</ele>
<time>2023-01-25T14:09:00.006Z</time>
</trkpt>
<trkpt lat="31.7842100" lon="35.1157900">
<ele>711.690002</ele>
<time>2023-01-25T14:09:00.006Z</time>
</trkpt>
<trkpt lat="31.7841900" lon="35.1159100">
<ele>713.099976</ele>
<time>2023-01-25T14:09:00.006Z</time>
</trkpt>
<trkpt lat="31.7841600" lon="35.1160300">
<ele>714.770020</ele>
<time>2023-01-25T14:09:00.006Z</time>
</trkpt>
<trkpt lat="31.7841300" lon="35.1161400">
<ele>715.830017</ele>
<time>2023-01-25T14:09:00.006Z</time>
</trkpt>
<trkpt lat="31.7841100" lon="35.1162500">
<ele>716.489990</ele>
<time>2023-01-25T14:09:00.006Z</time>
</trkpt>
<trkpt lat="31.7840900" lon="35.1163700">
<ele>717.290039</ele>
<time>2023-01-25T14:09:00.006Z</time>
</trkpt>
<trkpt lat="31.7840800" lon="35.1164800">
<ele>718.260010</ele>
<time>2023-01-25T14:09:00.006Z</time>
</trkpt>
<trkpt lat="31.7840600" lon="35.1166000">
<ele>719.220032</ele>
<time>2023-01-25T14:09:00.006Z</time>
</trkpt>
<trkpt lat="31.7840600" lon="35.1167100">
<ele>720.320007</ele>
<time>2023-01-25T14:09:00.006Z</time>
</trkpt>
<trkpt lat="31.7840500" lon="35.1168300">
<ele>721.500000</ele>
<time>2023-01-25T14:09:00.006Z</time>
</trkpt>
<trkpt lat="31.7840500" lon="35.1169600">
<ele>722.929993</ele>
<time>2023-01-25T14:09:00.006Z</time>
</trkpt>
<trkpt lat="31.7840500" lon="35.1170900">
<ele>724.529968</ele>
<time>2023-01-25T14:09:00.006Z</time>
</trkpt>
<trkpt lat="31.7840600" lon="35.1172200">
<ele>726.200012</ele>
<time>2023-01-25T14:09:00.006Z</time>
</trkpt>
<trkpt lat="31.7840700" lon="35.1173500">
<ele>727.080017</ele>
<time>2023-01-25T14:09:00.006Z</time>
</trkpt>
<trkpt lat="31.7840900" lon="35.1174900">
<ele>727.940002</ele>
<time>2023-01-25T14:09:00.006Z</time>
</trkpt>
<trkpt lat="31.7841200" lon="35.1176000">
<ele>727.880066</ele>
<time>2023-01-25T14:09:00.006Z</time>
</trkpt>
<trkpt lat="31.7841300" lon="35.1177400">
<ele>727.769958</ele>
<time>2023-01-25T14:09:00.006Z</time>
</trkpt>
<trkpt lat="31.7841500" lon="35.1179000">
<ele>727.000000</ele>
<time>2023-01-25T14:09:00.006Z</time>
</trkpt>
<trkpt lat="31.7841500" lon="35.1180100">
<ele>726.210022</ele>
<time>2023-01-25T14:09:00.006Z</time>
</trkpt>
<trkpt lat="31.7841800" lon="35.1181300">
<ele>725.399963</ele>
<time>2023-01-25T14:09:00.006Z</time>
</trkpt>
<trkpt lat="31.7842200" lon="35.1182400">
<ele>724.349976</ele>
<time>2023-01-25T14:09:00.006Z</time>
</trkpt>
<trkpt lat="31.7842300" lon="35.1183700">
<ele>723.479980</ele>
<time>2023-01-25T14:09:00.006Z</time>
</trkpt>
<trkpt lat="31.7842300" lon="35.1185100">
<ele>723.250000</ele>
<time>2023-01-25T14:09:00.006Z</time>
</trkpt>
<trkpt lat="31.7842300" lon="35.1186300">
<ele>722.870056</ele>
<time>2023-01-25T14:09:00.006Z</time>
</trkpt>
<trkpt lat="31.7842100" lon="35.1187700">
<ele>721.570007</ele>
<time>2023-01-25T14:09:00.006Z</time>
</trkpt>
<trkpt lat="31.7841700" lon="35.1189100">
<ele>720.940002</ele>
<time>2023-01-25T14:09:00.006Z</time>
</trkpt>
<trkpt lat="31.7841300" lon="35.1190400">
<ele>721.479980</ele>
<time>2023-01-25T14:09:00.006Z</time>
</trkpt>
<trkpt lat="31.7841000" lon="35.1191900">
<ele>722.200012</ele>
<time>2023-01-25T14:09:00.006Z</time>
</trkpt>
<trkpt lat="31.7840700" lon="35.1193300">
<ele>722.740051</ele>
<time>2023-01-25T14:09:00.006Z</time>
</trkpt>
<trkpt lat="31.7840600" lon="35.1194800">
<ele>722.839966</ele>
<time>2023-01-25T14:09:00.006Z</time>
</trkpt>
<trkpt lat="31.7840600" lon="35.1196400">
<ele>722.489990</ele>
<time>2023-01-25T14:09:00.006Z</time>
</trkpt>
<trkpt lat="31.7840600" lon="35.1198100">
<ele>721.479980</ele>
<time>2023-01-25T14:09:00.006Z</time>
</trkpt>
<trkpt lat="31.7840700" lon="35.1199700">
<ele>719.720032</ele>
<time>2023-01-25T14:09:00.006Z</time>
</trkpt>
<trkpt lat="31.7840900" lon="35.1201300">
<ele>717.790039</ele>
<time>2023-01-25T14:09:00.006Z</time>
</trkpt>
<trkpt lat="31.7841300" lon="35.1202900">
<ele>715.039978</ele>
<time>2023-01-25T14:09:00.006Z</time>
</trkpt>
<trkpt lat="31.7841800" lon="35.1204700">
<ele>711.719971</ele>
<time>2023-01-25T14:09:00.006Z</time>
</trkpt>
<trkpt lat="31.7842000" lon="35.1206700">
<ele>710.279968</ele>
<time>2023-01-25T14:09:00.006Z</time>
</trkpt>
<trkpt lat="31.7842200" lon="35.1208700">
<ele>709.689941</ele>
<time>2023-01-25T14:09:00.006Z</time>
</trkpt>
<trkpt lat="31.7842200" lon="35.1210800">
<ele>710.130005</ele>
<time>2023-01-25T14:09:00.006Z</time>
</trkpt>
<trkpt lat="31.7842300" lon="35.1212800">
<ele>711.169983</ele>
<time>2023-01-25T14:09:00.006Z</time>
</trkpt>
<trkpt lat="31.7842300" lon="35.1214700">
<ele>712.130005</ele>
<time>2023-01-25T14:09:00.006Z</time>
</trkpt>
<trkpt lat="31.7842200" lon="35.1216400">
<ele>712.890015</ele>
<time>2023-01-25T14:09:00.006Z</time>
</trkpt>
<trkpt lat="31.7842100" lon="35.1217900">
<ele>712.489990</ele>
<time>2023-01-25T14:09:00.006Z</time>
</trkpt>
<trkpt lat="31.7842000" lon="35.1219100">
<ele>712.020020</ele>
<time>2023-01-25T14:09:00.006Z</time>
</trkpt>
<trkpt lat="31.7841800" lon="35.1220200">
<ele>712.239990</ele>
<time>2023-01-25T14:09:00.006Z</time>
</trkpt>
<trkpt lat="31.7841500" lon="35.1221400">
<ele>712.579956</ele>
<time>2023-01-25T14:09:00.006Z</time>
</trkpt>
<trkpt lat="31.7841100" lon="35.1222500">
<ele>712.709961</ele>
<time>2023-01-25T14:09:00.006Z</time>
</trkpt>
<trkpt lat="31.7840900" lon="35.1223700">
<ele>713.130005</ele>
<time>2023-01-25T14:09:00.006Z</time>
</trkpt>
<trkpt lat="31.7840700" lon="35.1224800">
<ele>713.549988</ele>
<time>2023-01-25T14:09:00.006Z</time>
</trkpt>
<trkpt lat="31.7840600" lon="35.1225900">
<ele>713.419983</ele>
<time>2023-01-25T14:09:00.006Z</time>
</trkpt>
<trkpt lat="31.7840300" lon="35.1227200">
<ele>713.110046</ele>
<time>2023-01-25T14:09:00.006Z</time>
</trkpt>
<trkpt lat="31.7840100" lon="35.1228400">
<ele>712.899963</ele>
<time>2023-01-25T14:09:00.006Z</time>
</trkpt>
<trkpt lat="31.7840000" lon="35.1229500">
<ele>712.750000</ele>
<time>2023-01-25T14:09:00.006Z</time>
</trkpt>
<trkpt lat="31.7840000" lon="35.1230800">
<ele>712.720032</ele>
<time>2023-01-25T14:09:00.006Z</time>
</trkpt>
<trkpt lat="31.7840000" lon="35.1231900">
<ele>713.279968</ele>
<time>2023-01-25T14:09:00.006Z</time>
</trkpt>
<trkpt lat="31.7840000" lon="35.1233000">
<ele>713.830017</ele>
<time>2023-01-25T14:09:00.006Z</time>
</trkpt>
<trkpt lat="31.7840200" lon="35.1234100">
<ele>714.000000</ele>
<time>2023-01-25T14:09:00.006Z</time>
</trkpt>
<trkpt lat="31.7840400" lon="35.1235100">
<ele>714.000000</ele>
<time>2023-01-25T14:09:00.006Z</time>
</trkpt>
<trkpt lat="31.7840700" lon="35.1236300">
<ele>714.109985</ele>
<time>2023-01-25T14:09:00.006Z</time>
</trkpt>
<trkpt lat="31.7840800" lon="35.1237400">
<ele>714.780029</ele>
<time>2023-01-25T14:09:00.006Z</time>
</trkpt>
<trkpt lat="31.7840800" lon="35.1238500">
<ele>715.450012</ele>
<time>2023-01-25T14:09:00.006Z</time>
</trkpt>
<trkpt lat="31.7840800" lon="35.1239400">
<ele>716.350037</ele>
<time>2023-01-25T14:09:00.006Z</time>
</trkpt>
<trkpt lat="31.7840700" lon="35.1240500">
<ele>717.799988</ele>
<time>2023-01-25T14:09:00.006Z</time>
</trkpt>
<trkpt lat="31.7840600" lon="35.1241600">
<ele>719.289978</ele>
<time>2023-01-25T14:09:00.006Z</time>
</trkpt>
<trkpt lat="31.7840600" lon="35.1242700">
<ele>720.500000</ele>
<time>2023-01-25T14:09:00.006Z</time>
</trkpt>
<trkpt lat="31.7840700" lon="35.1243800">
<ele>721.650024</ele>
<time>2023-01-25T14:09:00.006Z</time>
</trkpt>
<trkpt lat="31.7840900" lon="35.1244900">
<ele>722.559998</ele>
<time>2023-01-25T14:09:00.006Z</time>
</trkpt>
<trkpt lat="31.7841300" lon="35.1245900">
<ele>723.110046</ele>
<time>2023-01-25T14:09:00.006Z</time>
</trkpt>
<trkpt lat="31.7841800" lon="35.1246900">
<ele>723.760010</ele>
<time>2023-01-25T14:09:00.006Z</time>
</trkpt>
<trkpt lat="31.7842000" lon="35.1247900">
<ele>724.730042</ele>
<time>2023-01-25T14:09:00.006Z</time>
</trkpt>
<trkpt lat="31.7842000" lon="35.1249100">
<ele>726.030029</ele>
<time>2023-01-25T14:09:00.006Z</time>
</trkpt>
<trkpt lat="31.7842000" lon="35.1250300">
<ele>727.309998</ele>
<time>2023-01-25T14:09:00.006Z</time>
</trkpt>
<trkpt lat="31.7841700" lon="35.1251300">
<ele>728.399963</ele>
<time>2023-01-25T14:09:00.006Z</time>
</trkpt>
<trkpt lat="31.7841100" lon="35.1252100">
<ele>729.270020</ele>
<time>2023-01-25T14:09:00.006Z</time>
</trkpt>
<trkpt lat="31.7840500" lon="35.1253100">
<ele>730.419983</ele>
<time>2023-01-25T14:09:00.006Z</time>
</trkpt>
<trkpt lat="31.7840200" lon="35.1254000">
<ele>731.529968</ele>
<time>2023-01-25T14:09:00.006Z</time>
</trkpt>
<trkpt lat="31.7840100" lon="35.1255200">
<ele>733.000000</ele>
<time>2023-01-25T14:09:00.006Z</time>
</trkpt>
<trkpt lat="31.7840200" lon="35.1256300">
<ele>734.800049</ele>
<time>2023-01-25T14:09:00.006Z</time>
</trkpt>
<trkpt lat="31.7840300" lon="35.1257300">
<ele>736.659973</ele>
<time>2023-01-25T14:09:00.006Z</time>
</trkpt>
<trkpt lat="31.7840400" lon="35.1258400">
<ele>738.750000</ele>
<time>2023-01-25T14:09:00.006Z</time>
</trkpt>
<trkpt lat="31.7840600" lon="35.1259500">
<ele>740.949951</ele>
<time>2023-01-25T14:09:00.006Z</time>
</trkpt>
<trkpt lat="31.7840900" lon="35.1260500">
<ele>743.070007</ele>
<time>2023-01-25T14:09:00.006Z</time>
</trkpt>
<trkpt lat="31.7841100" lon="35.1261600">
<ele>744.350037</ele>
<time>2023-01-25T14:09:00.006Z</time>
</trkpt>
<trkpt lat="31.7841600" lon="35.1262500">
<ele>744.919983</ele>
<time>2023-01-25T14:09:00.006Z</time>
</trkpt>
<trkpt lat="31.7842300" lon="35.1262900">
<ele>745.989990</ele>
<time>2023-01-25T14:09:00.006Z</time>
</trkpt>
<trkpt lat="31.7843100" lon="35.1262900">
<ele>747.250000</ele>
<time>2023-01-25T14:09:00.006Z</time>
</trkpt>
<trkpt lat="31.7843300" lon="35.1262200">
<ele>747.709961</ele>
<time>2023-01-25T14:09:00.006Z</time>
</trkpt>
<trkpt lat="31.7843600" lon="35.1261200">
<ele>748.459961</ele>
<time>2023-01-25T14:09:00.006Z</time>
</trkpt>
<trkpt lat="31.7843800" lon="35.1260100">
<ele>747.300049</ele>
<time>2023-01-25T14:09:00.006Z</time>
</trkpt>
<trkpt lat="31.7844000" lon="35.1259000">
<ele>746.039978</ele>
<time>2023-01-25T14:09:00.006Z</time>
</trkpt>
<trkpt lat="31.7844300" lon="35.1258000">
<ele>744.969971</ele>
<time>2023-01-25T14:09:00.006Z</time>
</trkpt>
<trkpt lat="31.7844700" lon="35.1257000">
<ele>744.090027</ele>
<time>2023-01-25T14:09:00.006Z</time>
</trkpt>
<trkpt lat="31.7845500" lon="35.1256300">
<ele>745.510010</ele>
<time>2023-01-25T14:09:00.006Z</time>
</trkpt>
<trkpt lat="31.7846300" lon="35.1255900">
<ele>747.510010</ele>
<time>2023-01-25T14:09:00.006Z</time>
</trkpt>
<trkpt lat="31.7847200" lon="35.1255600">
<ele>750.029968</ele>
<time>2023-01-25T14:09:00.006Z</time>
</trkpt>
<trkpt lat="31.7848100" lon="35.1255600">
<ele>751.680054</ele>
<time>2023-01-25T14:09:00.006Z</time>
</trkpt>
<trkpt lat="31.7849000" lon="35.1255600">
<ele>753.280029</ele>
<time>2023-01-25T14:09:00.006Z</time>
</trkpt>
<trkpt lat="31.7849400" lon="35.1256000">
<ele>754.660034</ele>
<time>2023-01-25T14:09:00.006Z</time>
</trkpt>
<trkpt lat="31.7849700" lon="35.1256100">
<ele>755.309998</ele>
<time>2023-01-25T14:09:00.006Z</time>
</trkpt>
<trkpt lat="31.7850000" lon="35.1256200">
<ele>755.929993</ele>
<time>2023-01-25T14:09:00.006Z</time>
</trkpt>
<trkpt lat="31.7849400" lon="35.1256100">
<ele>754.829956</ele>
<time>2023-01-25T14:09:00.006Z</time>
</trkpt>
<trkpt lat="31.7848800" lon="35.1255600">
<ele>752.919983</ele>
<time>2023-01-25T14:09:00.006Z</time>
</trkpt>
<trkpt lat="31.7847800" lon="35.1255600">
<ele>751.140015</ele>
<time>2023-01-25T14:09:00.006Z</time>
</trkpt>
<trkpt lat="31.7846700" lon="35.1255800">
<ele>748.719971</ele>
<time>2023-01-25T14:09:00.006Z</time>
</trkpt>
<trkpt lat="31.7845900" lon="35.1256100">
<ele>746.520020</ele>
<time>2023-01-25T14:09:00.006Z</time>
</trkpt>
<trkpt lat="31.7844900" lon="35.1256700">
<ele>744.179993</ele>
<time>2023-01-25T14:09:00.006Z</time>
</trkpt>
<trkpt lat="31.7844200" lon="35.1257300">
<ele>743.239990</ele>
<time>2023-01-25T14:09:00.006Z</time>
</trkpt>
<trkpt lat="31.7844000" lon="35.1258500">
<ele>745.290039</ele>
<time>2023-01-25T14:09:00.006Z</time>
</trkpt>
<trkpt lat="31.7843600" lon="35.1259700">
<ele>746.289978</ele>
<time>2023-01-25T14:09:00.006Z</time>
</trkpt>
<trkpt lat="31.7843400" lon="35.1260900">
<ele>747.789978</ele>
<time>2023-01-25T14:09:00.006Z</time>
</trkpt>
<trkpt lat="31.7843300" lon="35.1262000">
<ele>747.750000</ele>
<time>2023-01-25T14:09:00.006Z</time>
</trkpt>
<trkpt lat="31.7843000" lon="35.1262800">
<ele>747.109985</ele>
<time>2023-01-25T14:09:00.006Z</time>
</trkpt>
<trkpt lat="31.7842000" lon="35.1262800">
<ele>745.530029</ele>
<time>2023-01-25T14:09:00.006Z</time>
</trkpt>
<trkpt lat="31.7841400" lon="35.1262200">
<ele>744.669983</ele>
<time>2023-01-25T14:09:00.006Z</time>
</trkpt>
<trkpt lat="31.7840900" lon="35.1261000">
<ele>743.969971</ele>
<time>2023-01-25T14:09:00.006Z</time>
</trkpt>
<trkpt lat="31.7840800" lon="35.1259700">
<ele>741.519958</ele>
<time>2023-01-25T14:09:00.006Z</time>
</trkpt>
<trkpt lat="31.7840400" lon="35.1258200">
<ele>738.389954</ele>
<time>2023-01-25T14:09:00.006Z</time>
</trkpt>
<trkpt lat="31.7840200" lon="35.1257100">
<ele>736.219971</ele>
<time>2023-01-25T14:09:00.006Z</time>
</trkpt>
<trkpt lat="31.7840000" lon="35.1256600">
<ele>735.200012</ele>
<time>2023-01-25T14:09:00.006Z</time>
</trkpt>
<trkpt lat="31.7839600" lon="35.1256600">
<ele>734.949951</ele>
<time>2023-01-25T14:09:00.006Z</time>
</trkpt>
<trkpt lat="31.7839600" lon="35.1257600">
<ele>736.580017</ele>
<time>2023-01-25T14:09:00.006Z</time>
</trkpt>
<trkpt lat="31.7839600" lon="35.1258900">
<ele>738.790039</ele>
<time>2023-01-25T14:09:00.006Z</time>
</trkpt>
<trkpt lat="31.7839800" lon="35.1260000">
<ele>740.980042</ele>
<time>2023-01-25T14:09:00.006Z</time>
</trkpt>
<trkpt lat="31.7840000" lon="35.1261100">
<ele>743.179993</ele>
<time>2023-01-25T14:09:00.006Z</time>
</trkpt>
<trkpt lat="31.7840400" lon="35.1262300">
<ele>743.440002</ele>
<time>2023-01-25T14:09:00.006Z</time>
</trkpt>
<trkpt lat="31.7840900" lon="35.1263300">
<ele>743.949951</ele>
<time>2023-01-25T14:09:00.006Z</time>
</trkpt>
<trkpt lat="31.7841500" lon="35.1264100">
<ele>744.519958</ele>
<time>2023-01-25T14:09:00.006Z</time>
</trkpt>
<trkpt lat="31.7842300" lon="35.1264900">
<ele>744.649963</ele>
<time>2023-01-25T14:09:00.006Z</time>
</trkpt>
<trkpt lat="31.7843100" lon="35.1265600">
<ele>744.579956</ele>
<time>2023-01-25T14:09:00.006Z</time>
</trkpt>
<trkpt lat="31.7843900" lon="35.1266200">
<ele>744.380005</ele>
<time>2023-01-25T14:09:00.006Z</time>
</trkpt>
<trkpt lat="31.7844800" lon="35.1267000">
<ele>742.790039</ele>
<time>2023-01-25T14:09:00.006Z</time>
</trkpt>
<trkpt lat="31.7845400" lon="35.1267900">
<ele>739.660034</ele>
<time>2023-01-25T14:09:00.006Z</time>
</trkpt>
<trkpt lat="31.7845900" lon="35.1268900">
<ele>736.239990</ele>
<time>2023-01-25T14:09:00.006Z</time>
</trkpt>
<trkpt lat="31.7846600" lon="35.1269800">
<ele>733.140015</ele>
<time>2023-01-25T14:09:00.006Z</time>
</trkpt>
<trkpt lat="31.7847600" lon="35.1270500">
<ele>730.570007</ele>
<time>2023-01-25T14:09:00.006Z</time>
</trkpt>
<trkpt lat="31.7848800" lon="35.1271300">
<ele>727.520020</ele>
<time>2023-01-25T14:09:00.006Z</time>
</trkpt>
<trkpt lat="31.7849900" lon="35.1272100">
<ele>725.260010</ele>
<time>2023-01-25T14:09:00.006Z</time>
</trkpt>
<trkpt lat="31.7851000" lon="35.1273500">
<ele>723.259949</ele>
<time>2023-01-25T14:09:00.006Z</time>
</trkpt>
<trkpt lat="31.7851900" lon="35.1274900">
<ele>721.419983</ele>
<time>2023-01-25T14:09:00.006Z</time>
</trkpt>
<trkpt lat="31.7852600" lon="35.1276500">
<ele>718.899963</ele>
<time>2023-01-25T14:09:00.006Z</time>
</trkpt>
<trkpt lat="31.7853100" lon="35.1278200">
<ele>715.890015</ele>
<time>2023-01-25T14:09:00.006Z</time>
</trkpt>
<trkpt lat="31.7853500" lon="35.1280100">
<ele>711.760010</ele>
<time>2023-01-25T14:09:00.006Z</time>
</trkpt>
<trkpt lat="31.7853700" lon="35.1282200">
<ele>708.820007</ele>
<time>2023-01-25T14:09:00.006Z</time>
</trkpt>
<trkpt lat="31.7853800" lon="35.1283600">
<ele>707.320007</ele>
<time>2023-01-25T14:09:00.006Z</time>
</trkpt>
<trkpt lat="31.7853900" lon="35.1284800">
<ele>706.770020</ele>
<time>2023-01-25T14:09:00.006Z</time>
</trkpt>
<trkpt lat="31.7853900" lon="35.1286100">
<ele>706.029968</ele>
<time>2023-01-25T14:09:00.006Z</time>
</trkpt>
<trkpt lat="31.7853900" lon="35.1287300">
<ele>706.100037</ele>
<time>2023-01-25T14:09:00.006Z</time>
</trkpt>
<trkpt lat="31.7853900" lon="35.1288500">
<ele>706.190002</ele>
<time>2023-01-25T14:09:00.006Z</time>
</trkpt>
<trkpt lat="31.7853900" lon="35.1289600">
<ele>706.980042</ele>
<time>2023-01-25T14:09:00.006Z</time>
</trkpt>
<trkpt lat="31.7853800" lon="35.1291000">
<ele>708.380005</ele>
<time>2023-01-25T14:09:00.006Z</time>
</trkpt>
<trkpt lat="31.7853800" lon="35.1292100">
<ele>709.670044</ele>
<time>2023-01-25T14:09:00.006Z</time>
</trkpt>
<trkpt lat="31.7853700" lon="35.1293300">
<ele>711.149963</ele>
<time>2023-01-25T14:09:00.006Z</time>
</trkpt>
<trkpt lat="31.7853600" lon="35.1294400">
<ele>712.529968</ele>
<time>2023-01-25T14:09:00.006Z</time>
</trkpt>
<trkpt lat="31.7853500" lon="35.1295500">
<ele>713.740051</ele>
<time>2023-01-25T14:09:00.006Z</time>
</trkpt>
<trkpt lat="31.7853500" lon="35.1296800">
<ele>715.250061</ele>
<time>2023-01-25T14:09:00.006Z</time>
</trkpt>
<trkpt lat="31.7853500" lon="35.1298000">
<ele>715.330017</ele>
<time>2023-01-25T14:09:00.006Z</time>
</trkpt>
<trkpt lat="31.7853500" lon="35.1299400">
<ele>714.580017</ele>
<time>2023-01-25T14:09:00.006Z</time>
</trkpt>
<trkpt lat="31.7853500" lon="35.1300500">
<ele>714.030029</ele>
<time>2023-01-25T14:09:00.006Z</time>
</trkpt>
<trkpt lat="31.7853600" lon="35.1301900">
<ele>713.409973</ele>
<time>2023-01-25T14:09:00.006Z</time>
</trkpt>
<trkpt lat="31.7853700" lon="35.1302900">
<ele>712.989990</ele>
<time>2023-01-25T14:09:00.006Z</time>
</trkpt>
<trkpt lat="31.7853800" lon="35.1304100">
<ele>712.869995</ele>
<time>2023-01-25T14:09:00.006Z</time>
</trkpt>
<trkpt lat="31.7853900" lon="35.1305300">
<ele>712.830017</ele>
<time>2023-01-25T14:09:00.006Z</time>
</trkpt>
<trkpt lat="31.7853900" lon="35.1306500">
<ele>711.849976</ele>
<time>2023-01-25T14:09:00.006Z</time>
</trkpt>
<trkpt lat="31.7853600" lon="35.1307200">
<ele>711.059998</ele>
<time>2023-01-25T14:09:00.006Z</time>
</trkpt>
<trkpt lat="31.7852800" lon="35.1307600">
<ele>710.530029</ele>
<time>2023-01-25T14:09:00.006Z</time>
</trkpt>
<trkpt lat="31.7851800" lon="35.1307700">
<ele>710.099976</ele>
<time>2023-01-25T14:09:00.006Z</time>
</trkpt>
<trkpt lat="31.7850800" lon="35.1308000">
<ele>709.529968</ele>
<time>2023-01-25T14:09:00.006Z</time>
</trkpt>
<trkpt lat="31.7849900" lon="35.1308700">
<ele>708.860046</ele>
<time>2023-01-25T14:09:00.006Z</time>
</trkpt>
<trkpt lat="31.7848800" lon="35.1309000">
<ele>708.549988</ele>
<time>2023-01-25T14:09:00.006Z</time>
</trkpt>
<trkpt lat="31.7847800" lon="35.1309200">
<ele>708.190002</ele>
<time>2023-01-25T14:09:00.006Z</time>
</trkpt>
<trkpt lat="31.7846900" lon="35.1309600">
<ele>707.400024</ele>
<time>2023-01-25T14:09:00.006Z</time>
</trkpt>
<trkpt lat="31.7846000" lon="35.1309900">
<ele>706.430054</ele>
<time>2023-01-25T14:09:00.006Z</time>
</trkpt>
<trkpt lat="31.7845100" lon="35.1309900">
<ele>705.780029</ele>
<time>2023-01-25T14:09:00.006Z</time>
</trkpt>
<trkpt lat="31.7844100" lon="35.1309600">
<ele>705.140015</ele>
<time>2023-01-25T14:09:00.006Z</time>
</trkpt>
<trkpt lat="31.7843300" lon="35.1308900">
<ele>704.739990</ele>
<time>2023-01-25T14:09:00.006Z</time>
</trkpt>
<trkpt lat="31.7842800" lon="35.1308000">
<ele>704.460022</ele>
<time>2023-01-25T14:09:00.006Z</time>
</trkpt>
<trkpt lat="31.7842300" lon="35.1307100">
<ele>703.369995</ele>
<time>2023-01-25T14:09:00.006Z</time>
</trkpt>
<trkpt lat="31.7841400" lon="35.1306100">
<ele>702.000000</ele>
<time>2023-01-25T14:09:00.006Z</time>
</trkpt>
<trkpt lat="31.7840700" lon="35.1305100">
<ele>700.659973</ele>
<time>2023-01-25T14:09:00.006Z</time>
</trkpt>
<trkpt lat="31.7840000" lon="35.1304500">
<ele>699.580017</ele>
<time>2023-01-25T14:09:00.006Z</time>
</trkpt>
<trkpt lat="31.7839100" lon="35.1304100">
<ele>698.979980</ele>
<time>2023-01-25T14:09:00.006Z</time>
</trkpt>
<trkpt lat="31.7838300" lon="35.1304300">
<ele>697.919983</ele>
<time>2023-01-25T14:09:00.006Z</time>
</trkpt>
<trkpt lat="31.7837300" lon="35.1304100">
<ele>695.820007</ele>
<time>2023-01-25T14:09:00.006Z</time>
</trkpt>
<trkpt lat="31.7836600" lon="35.1303700">
<ele>694.270020</ele>
<time>2023-01-25T14:09:00.006Z</time>
</trkpt>
<trkpt lat="31.7835500" lon="35.1303700">
<ele>691.720032</ele>
<time>2023-01-25T14:09:00.006Z</time>
</trkpt>
<trkpt lat="31.7834500" lon="35.1303700">
<ele>689.080017</ele>
<time>2023-01-25T14:09:00.006Z</time>
</trkpt>
<trkpt lat="31.7833500" lon="35.1303800">
<ele>686.440063</ele>
<time>2023-01-25T14:09:00.006Z</time>
</trkpt>
<trkpt lat="31.7832600" lon="35.1304000">
<ele>684.559937</ele>
<time>2023-01-25T14:09:00.006Z</time>
</trkpt>
<trkpt lat="31.7831600" lon="35.1304400">
<ele>682.519958</ele>
<time>2023-01-25T14:09:00.006Z</time>
</trkpt>
<trkpt lat="31.7831300" lon="35.1304600">
<ele>681.859985</ele>
<time>2023-01-25T14:09:00.006Z</time>
</trkpt>
<trkpt lat="31.7830700" lon="35.1305500">
<ele>680.329956</ele>
<time>2023-01-25T14:09:00.006Z</time>
</trkpt>
<trkpt lat="31.7830100" lon="35.1306400">
<ele>678.980042</ele>
<time>2023-01-25T14:09:00.006Z</time>
</trkpt>
<trkpt lat="31.7829300" lon="35.1306900">
<ele>676.859985</ele>
<time>2023-01-25T14:09:00.006Z</time>
</trkpt>
<trkpt lat="31.7828400" lon="35.1307500">
<ele>673.950012</ele>
<time>2023-01-25T14:09:00.006Z</time>
</trkpt>
<trkpt lat="31.7827400" lon="35.1308200">
<ele>670.349976</ele>
<time>2023-01-25T14:09:00.006Z</time>
</trkpt>
<trkpt lat="31.7826400" lon="35.1309200">
<ele>667.400024</ele>
<time>2023-01-25T14:09:00.006Z</time>
</trkpt>
<trkpt lat="31.7825700" lon="35.1310000">
<ele>665.309998</ele>
<time>2023-01-25T14:09:00.006Z</time>
</trkpt>
<trkpt lat="31.7825500" lon="35.1311100">
<ele>664.089966</ele>
<time>2023-01-25T14:09:00.006Z</time>
</trkpt>
<trkpt lat="31.7825400" lon="35.1312300">
<ele>664.109985</ele>
<time>2023-01-25T14:09:00.006Z</time>
</trkpt>
<trkpt lat="31.7825300" lon="35.1313400">
<ele>664.000000</ele>
<time>2023-01-25T14:09:00.006Z</time>
</trkpt>
<trkpt lat="31.7825200" lon="35.1314500">
<ele>664.349976</ele>
<time>2023-01-25T14:09:00.006Z</time>
</trkpt>
<trkpt lat="31.7825200" lon="35.1315800">
<ele>665.679993</ele>
<time>2023-01-25T14:09:00.006Z</time>
</trkpt>
<trkpt lat="31.7824600" lon="35.1316300">
<ele>665.570007</ele>
<time>2023-01-25T14:09:00.006Z</time>
</trkpt>
<trkpt lat="31.7823600" lon="35.1316300">
<ele>665.470032</ele>
<time>2023-01-25T14:09:00.006Z</time>
</trkpt>
<trkpt lat="31.7822700" lon="35.1316100">
<ele>665.049988</ele>
<time>2023-01-25T14:09:00.006Z</time>
</trkpt>
<trkpt lat="31.7821900" lon="35.1315700">
<ele>664.990051</ele>
<time>2023-01-25T14:09:00.006Z</time>
</trkpt>
<trkpt lat="31.7821700" lon="35.1315300">
<ele>664.669983</ele>
<time>2023-01-25T14:09:00.006Z</time>
</trkpt>
<trkpt lat="31.7821000" lon="35.1314500">
<ele>664.489990</ele>
<time>2023-01-25T14:09:00.006Z</time>
</trkpt>
<trkpt lat="31.7820000" lon="35.1313900">
<ele>665.029968</ele>
<time>2023-01-25T14:09:00.006Z</time>
</trkpt>
<trkpt lat="31.7819200" lon="35.1313400">
<ele>665.230042</ele>
<time>2023-01-25T14:09:00.006Z</time>
</trkpt>
<trkpt lat="31.7818300" lon="35.1312700">
<ele>663.979980</ele>
<time>2023-01-25T14:09:00.006Z</time>
</trkpt>
<trkpt lat="31.7817500" lon="35.1311900">
<ele>661.820007</ele>
<time>2023-01-25T14:09:00.006Z</time>
</trkpt>
<trkpt lat="31.7816600" lon="35.1311100">
<ele>659.130005</ele>
<time>2023-01-25T14:09:00.006Z</time>
</trkpt>
<trkpt lat="31.7815800" lon="35.1310300">
<ele>659.340027</ele>
<time>2023-01-25T14:09:00.006Z</time>
</trkpt>
<trkpt lat="31.7814800" lon="35.1309800">
<ele>659.880005</ele>
<time>2023-01-25T14:09:00.006Z</time>
</trkpt>
<trkpt lat="31.7813700" lon="35.1309300">
<ele>659.969971</ele>
<time>2023-01-25T14:09:00.006Z</time>
</trkpt>
<trkpt lat="31.7812700" lon="35.1308900">
<ele>659.659973</ele>
<time>2023-01-25T14:09:00.006Z</time>
</trkpt>
<trkpt lat="31.7811600" lon="35.1308700">
<ele>659.919983</ele>
<time>2023-01-25T14:09:00.006Z</time>
</trkpt>
<trkpt lat="31.7810400" lon="35.1308600">
<ele>660.419983</ele>
<time>2023-01-25T14:09:00.006Z</time>
</trkpt>
<trkpt lat="31.7809500" lon="35.1308500">
<ele>660.690002</ele>
<time>2023-01-25T14:09:00.006Z</time>
</trkpt>
<trkpt lat="31.7808200" lon="35.1308500">
<ele>661.570007</ele>
<time>2023-01-25T14:09:00.006Z</time>
</trkpt>
<trkpt lat="31.7806900" lon="35.1308500">
<ele>662.419983</ele>
<time>2023-01-25T14:09:00.006Z</time>
</trkpt>
<trkpt lat="31.7805800" lon="35.1308600">
<ele>663.330017</ele>
<time>2023-01-25T14:09:00.006Z</time>
</trkpt>
<trkpt lat="31.7804800" lon="35.1308600">
<ele>662.960022</ele>
<time>2023-01-25T14:09:00.006Z</time>
</trkpt>
<trkpt lat="31.7803700" lon="35.1308500">
<ele>662.000000</ele>
<time>2023-01-25T14:09:00.006Z</time>
</trkpt>
<trkpt lat="31.7802700" lon="35.1308500">
<ele>661.440063</ele>
<time>2023-01-25T14:09:00.006Z</time>
</trkpt>
<trkpt lat="31.7801800" lon="35.1308300">
<ele>661.959961</ele>
<time>2023-01-25T14:09:00.006Z</time>
</trkpt>
<trkpt lat="31.7800900" lon="35.1307200">
<ele>660.040039</ele>
<time>2023-01-25T14:09:00.006Z</time>
</trkpt>
<trkpt lat="31.7800400" lon="35.1306300">
<ele>658.340027</ele>
<time>2023-01-25T14:09:00.006Z</time>
</trkpt>
<trkpt lat="31.7799700" lon="35.1305300">
<ele>657.720032</ele>
<time>2023-01-25T14:09:00.006Z</time>
</trkpt>
<trkpt lat="31.7798800" lon="35.1304400">
<ele>660.000000</ele>
<time>2023-01-25T14:09:00.006Z</time>
</trkpt>
<trkpt lat="31.7798200" lon="35.1303200">
<ele>661.390015</ele>
<time>2023-01-25T14:09:00.006Z</time>
</trkpt>
<trkpt lat="31.7797600" lon="35.1302300">
<ele>662.689941</ele>
<time>2023-01-25T14:09:00.006Z</time>
</trkpt>
<trkpt lat="31.7797300" lon="35.1301300">
<ele>662.059998</ele>
<time>2023-01-25T14:09:00.006Z</time>
</trkpt>
<trkpt lat="31.7796800" lon="35.1300200">
<ele>661.570007</ele>
<time>2023-01-25T14:09:00.006Z</time>
</trkpt>
<trkpt lat="31.7796300" lon="35.1299300">
<ele>661.479980</ele>
<time>2023-01-25T14:09:00.006Z</time>
</trkpt>
<trkpt lat="31.7795600" lon="35.1298500">
<ele>662.289978</ele>
<time>2023-01-25T14:09:00.006Z</time>
</trkpt>
<trkpt lat="31.7794700" lon="35.1298000">
<ele>664.320007</ele>
<time>2023-01-25T14:09:00.006Z</time>
</trkpt>
<trkpt lat="31.7793600" lon="35.1297700">
<ele>666.759949</ele>
<time>2023-01-25T14:09:00.006Z</time>
</trkpt>
<trkpt lat="31.7792800" lon="35.1296800">
<ele>667.229980</ele>
<time>2023-01-25T14:09:00.006Z</time>
</trkpt>
<trkpt lat="31.7792200" lon="35.1296000">
<ele>667.019958</ele>
<time>2023-01-25T14:09:00.006Z</time>
</trkpt>
<trkpt lat="31.7791500" lon="35.1295100">
<ele>666.450012</ele>
<time>2023-01-25T14:09:00.006Z</time>
</trkpt>
<trkpt lat="31.7790900" lon="35.1294300">
<ele>664.869995</ele>
<time>2023-01-25T14:09:00.006Z</time>
</trkpt>
<trkpt lat="31.7790000" lon="35.1293500">
<ele>663.079956</ele>
<time>2023-01-25T14:09:00.006Z</time>
</trkpt>
<trkpt lat="31.7789000" lon="35.1293300">
<ele>663.060059</ele>
<time>2023-01-25T14:09:00.006Z</time>
</trkpt>
<trkpt lat="31.7788000" lon="35.1293100">
<ele>664.840027</ele>
<time>2023-01-25T14:09:00.006Z</time>
</trkpt>
<trkpt lat="31.7787000" lon="35.1293000">
<ele>667.149963</ele>
<time>2023-01-25T14:09:00.006Z</time>
</trkpt>
<trkpt lat="31.7785900" lon="35.1293000">
<ele>669.669983</ele>
<time>2023-01-25T14:09:00.006Z</time>
</trkpt>
<trkpt lat="31.7785000" lon="35.1293000">
<ele>670.820007</ele>
<time>2023-01-25T14:09:00.006Z</time>
</trkpt>
<trkpt lat="31.7783900" lon="35.1293000">
<ele>672.229980</ele>
<time>2023-01-25T14:09:00.006Z</time>
</trkpt>
<trkpt lat="31.7782900" lon="35.1293000">
<ele>673.039978</ele>
<time>2023-01-25T14:09:00.006Z</time>
</trkpt>
<trkpt lat="31.7782000" lon="35.1293000">
<ele>673.210022</ele>
<time>2023-01-25T14:09:00.006Z</time>
</trkpt>
<trkpt lat="31.7781000" lon="35.1292900">
<ele>673.359985</ele>
<time>2023-01-25T14:09:00.006Z</time>
</trkpt>
<trkpt lat="31.7780000" lon="35.1292800">
<ele>673.489990</ele>
<time>2023-01-25T14:09:00.006Z</time>
</trkpt>
<trkpt lat="31.7779300" lon="35.1292300">
<ele>673.330017</ele>
<time>2023-01-25T14:09:00.006Z</time>
</trkpt>
<trkpt lat="31.7779100" lon="35.1291100">
<ele>672.799988</ele>
<time>2023-01-25T14:09:00.006Z</time>
</trkpt>
<trkpt lat="31.7778600" lon="35.1290400">
<ele>672.540039</ele>
<time>2023-01-25T14:09:00.006Z</time>
</trkpt>
<trkpt lat="31.7778600" lon="35.1289300">
<ele>672.150024</ele>
<time>2023-01-25T14:09:00.006Z</time>
</trkpt>
<trkpt lat="31.7778200" lon="35.1288300">
<ele>672.150024</ele>
<time>2023-01-25T14:09:00.006Z</time>
</trkpt>
<trkpt lat="31.7777400" lon="35.1287700">
<ele>672.369995</ele>
<time>2023-01-25T14:09:00.006Z</time>
</trkpt>
<trkpt lat="31.7776500" lon="35.1287600">
<ele>672.250000</ele>
<time>2023-01-25T14:09:00.006Z</time>
</trkpt>
<trkpt lat="31.7775500" lon="35.1287600">
<ele>672.079956</ele>
<time>2023-01-25T14:09:00.006Z</time>
</trkpt>
<trkpt lat="31.7774600" lon="35.1287800">
<ele>671.589966</ele>
<time>2023-01-25T14:09:00.006Z</time>
</trkpt>
<trkpt lat="31.7773900" lon="35.1288500">
<ele>670.580017</ele>
<time>2023-01-25T14:09:00.006Z</time>
</trkpt>
<trkpt lat="31.7773200" lon="35.1289300">
<ele>669.500000</ele>
<time>2023-01-25T14:09:00.006Z</time>
</trkpt>
<trkpt lat="31.7772400" lon="35.1290100">
<ele>668.659973</ele>
<time>2023-01-25T14:09:00.006Z</time>
</trkpt>
<trkpt lat="31.7771400" lon="35.1290700">
<ele>667.190002</ele>
<time>2023-01-25T14:09:00.006Z</time>
</trkpt>
<trkpt lat="31.7770600" lon="35.1291200">
<ele>665.619995</ele>
<time>2023-01-25T14:09:00.006Z</time>
</trkpt>
<trkpt lat="31.7769900" lon="35.1291500">
<ele>664.070007</ele>
<time>2023-01-25T14:09:00.006Z</time>
</trkpt>
<trkpt lat="31.7768900" lon="35.1291600">
<ele>663.049988</ele>
<time>2023-01-25T14:09:00.006Z</time>
</trkpt>
<trkpt lat="31.7768100" lon="35.1291300">
<ele>663.260010</ele>
<time>2023-01-25T14:09:00.006Z</time>
</trkpt>
<trkpt lat="31.7767000" lon="35.1291200">
<ele>663.339966</ele>
<time>2023-01-25T14:09:00.006Z</time>
</trkpt>
<trkpt lat="31.7766000" lon="35.1291100">
<ele>663.029968</ele>
<time>2023-01-25T14:09:00.006Z</time>
</trkpt>
<trkpt lat="31.7765100" lon="35.1291000">
<ele>662.619995</ele>
<time>2023-01-25T14:09:00.006Z</time>
</trkpt>
<trkpt lat="31.7764000" lon="35.1290600">
<ele>662.590027</ele>
<time>2023-01-25T14:09:00.006Z</time>
</trkpt>
<trkpt lat="31.7762900" lon="35.1290200">
<ele>663.130005</ele>
<time>2023-01-25T14:09:00.006Z</time>
</trkpt>
<trkpt lat="31.7761800" lon="35.1289800">
<ele>663.950012</ele>
<time>2023-01-25T14:09:00.006Z</time>
</trkpt>
<trkpt lat="31.7760600" lon="35.1289200">
<ele>664.760010</ele>
<time>2023-01-25T14:09:00.006Z</time>
</trkpt>
<trkpt lat="31.7759700" lon="35.1288900">
<ele>664.450012</ele>
<time>2023-01-25T14:09:00.006Z</time>
</trkpt>
<trkpt lat="31.7758600" lon="35.1288700">
<ele>663.710022</ele>
<time>2023-01-25T14:09:00.006Z</time>
</trkpt>
<trkpt lat="31.7757300" lon="35.1288600">
<ele>664.450012</ele>
<time>2023-01-25T14:09:00.006Z</time>
</trkpt>
<trkpt lat="31.7756000" lon="35.1288400">
<ele>666.029968</ele>
<time>2023-01-25T14:09:00.006Z</time>
</trkpt>
<trkpt lat="31.7754600" lon="35.1288200">
<ele>666.729980</ele>
<time>2023-01-25T14:09:00.006Z</time>
</trkpt>
<trkpt lat="31.7753200" lon="35.1288000">
<ele>666.750000</ele>
<time>2023-01-25T14:09:00.006Z</time>
</trkpt>
<trkpt lat="31.7751700" lon="35.1287700">
<ele>666.920044</ele>
<time>2023-01-25T14:09:00.006Z</time>
</trkpt>
<trkpt lat="31.7750100" lon="35.1287300">
<ele>667.450012</ele>
<time>2023-01-25T14:09:00.006Z</time>
</trkpt>
<trkpt lat="31.7748600" lon="35.1286700">
<ele>666.280029</ele>
<time>2023-01-25T14:09:00.006Z</time>
</trkpt>
<trkpt lat="31.7747100" lon="35.1285900">
<ele>666.130005</ele>
<time>2023-01-25T14:09:00.006Z</time>
</trkpt>
<trkpt lat="31.7745600" lon="35.1285000">
<ele>665.500000</ele>
<time>2023-01-25T14:09:00.006Z</time>
</trkpt>
<trkpt lat="31.7744100" lon="35.1284100">
<ele>664.699951</ele>
<time>2023-01-25T14:09:00.006Z</time>
</trkpt>
<trkpt lat="31.7742600" lon="35.1283200">
<ele>661.820007</ele>
<time>2023-01-25T14:09:00.006Z</time>
</trkpt>
<trkpt lat="31.7741100" lon="35.1282200">
<ele>658.349976</ele>
<time>2023-01-25T14:09:00.006Z</time>
</trkpt>
<trkpt lat="31.7739700" lon="35.1280900">
<ele>656.330017</ele>
<time>2023-01-25T14:09:00.006Z</time>
</trkpt>
<trkpt lat="31.7738400" lon="35.1279600">
<ele>652.669983</ele>
<time>2023-01-25T14:09:00.006Z</time>
</trkpt>
<trkpt lat="31.7737600" lon="35.1278200">
<ele>649.450012</ele>
<time>2023-01-25T14:09:00.006Z</time>
</trkpt>
<trkpt lat="31.7737300" lon="35.1276200">
<ele>648.669983</ele>
<time>2023-01-25T14:09:00.006Z</time>
</trkpt>
<trkpt lat="31.7737200" lon="35.1274200">
<ele>649.100037</ele>
<time>2023-01-25T14:09:00.006Z</time>
</trkpt>
<trkpt lat="31.7737100" lon="35.1272100">
<ele>650.390015</ele>
<time>2023-01-25T14:09:00.006Z</time>
</trkpt>
<trkpt lat="31.7737000" lon="35.1270200">
<ele>653.049988</ele>
<time>2023-01-25T14:09:00.006Z</time>
</trkpt>
<trkpt lat="31.7736700" lon="35.1268700">
<ele>654.669983</ele>
<time>2023-01-25T14:09:00.006Z</time>
</trkpt>
<trkpt lat="31.7736000" lon="35.1268000">
<ele>653.700012</ele>
<time>2023-01-25T14:09:00.006Z</time>
</trkpt>
<trkpt lat="31.7734700" lon="35.1267600">
<ele>650.250000</ele>
<time>2023-01-25T14:09:00.006Z</time>
</trkpt>
<trkpt lat="31.7733100" lon="35.1267500">
<ele>645.239990</ele>
<time>2023-01-25T14:09:00.006Z</time>
</trkpt>
<trkpt lat="31.7731600" lon="35.1267300">
<ele>639.180054</ele>
<time>2023-01-25T14:09:00.006Z</time>
</trkpt>
<trkpt lat="31.7730000" lon="35.1266800">
<ele>634.300049</ele>
<time>2023-01-25T14:09:00.006Z</time>
</trkpt>
<trkpt lat="31.7728600" lon="35.1266000">
<ele>632.710022</ele>
<time>2023-01-25T14:09:00.006Z</time>
</trkpt>
<trkpt lat="31.7727300" lon="35.1265500">
<ele>632.200012</ele>
<time>2023-01-25T14:09:00.006Z</time>
</trkpt>
<trkpt lat="31.7726000" lon="35.1265000">
<ele>634.739990</ele>
<time>2023-01-25T14:09:00.006Z</time>
</trkpt>
<trkpt lat="31.7724700" lon="35.1264700">
<ele>635.740051</ele>
<time>2023-01-25T14:09:00.006Z</time>
</trkpt>
<trkpt lat="31.7723200" lon="35.1264600">
<ele>633.349976</ele>
<time>2023-01-25T14:09:00.006Z</time>
</trkpt>
<trkpt lat="31.7721700" lon="35.1264300">
<ele>632.549988</ele>
<time>2023-01-25T14:09:00.006Z</time>
</trkpt>
<trkpt lat="31.7720100" lon="35.1264100">
<ele>632.409973</ele>
<time>2023-01-25T14:09:00.006Z</time>
</trkpt>
<trkpt lat="31.7718600" lon="35.1263900">
<ele>631.120056</ele>
<time>2023-01-25T14:09:00.006Z</time>
</trkpt>
<trkpt lat="31.7717100" lon="35.1263800">
<ele>628.280029</ele>
<time>2023-01-25T14:09:00.006Z</time>
</trkpt>
<trkpt lat="31.7715700" lon="35.1263800">
<ele>626.350037</ele>
<time>2023-01-25T14:09:00.006Z</time>
</trkpt>
<trkpt lat="31.7714200" lon="35.1263700">
<ele>625.330017</ele>
<time>2023-01-25T14:09:00.006Z</time>
</trkpt>
<trkpt lat="31.7712800" lon="35.1263600">
<ele>623.910034</ele>
<time>2023-01-25T14:09:00.006Z</time>
</trkpt>
<trkpt lat="31.7711300" lon="35.1263500">
<ele>622.109985</ele>
<time>2023-01-25T14:09:00.006Z</time>
</trkpt>
<trkpt lat="31.7709700" lon="35.1263100">
<ele>624.780029</ele>
<time>2023-01-25T14:09:00.006Z</time>
</trkpt>
<trkpt lat="31.7707900" lon="35.1262600">
<ele>628.359985</ele>
<time>2023-01-25T14:09:00.006Z</time>
</trkpt>
<trkpt lat="31.7707100" lon="35.1262400">
<ele>630.310059</ele>
<time>2023-01-25T14:09:00.006Z</time>
</trkpt>
<trkpt lat="31.7706100" lon="35.1262100">
<ele>632.710022</ele>
<time>2023-01-25T14:09:00.006Z</time>
</trkpt>
<trkpt lat="31.7705200" lon="35.1261700">
<ele>634.130005</ele>
<time>2023-01-25T14:09:00.006Z</time>
</trkpt>
<trkpt lat="31.7704400" lon="35.1261200">
<ele>634.529968</ele>
<time>2023-01-25T14:09:00.006Z</time>
</trkpt>
<trkpt lat="31.7703600" lon="35.1260700">
<ele>634.330017</ele>
<time>2023-01-25T14:09:00.006Z</time>
</trkpt>
<trkpt lat="31.7702300" lon="35.1259500">
<ele>633.609985</ele>
<time>2023-01-25T14:09:00.006Z</time>
</trkpt>
<trkpt lat="31.7701500" lon="35.1258100">
<ele>632.859985</ele>
<time>2023-01-25T14:09:00.006Z</time>
</trkpt>
<trkpt lat="31.7701400" lon="35.1257000">
<ele>633.010010</ele>
<time>2023-01-25T14:09:00.006Z</time>
</trkpt>
<trkpt lat="31.7701400" lon="35.1255900">
<ele>633.400024</ele>
<time>2023-01-25T14:09:00.006Z</time>
</trkpt>
<trkpt lat="31.7701400" lon="35.1254800">
<ele>633.119995</ele>
<time>2023-01-25T14:09:00.006Z</time>
</trkpt>
<trkpt lat="31.7701700" lon="35.1253800">
<ele>633.549988</ele>
<time>2023-01-25T14:09:00.006Z</time>
</trkpt>
<trkpt lat="31.7702100" lon="35.1252800">
<ele>634.570007</ele>
<time>2023-01-25T14:09:00.006Z</time>
</trkpt>
<trkpt lat="31.7702500" lon="35.1251600">
<ele>634.300049</ele>
<time>2023-01-25T14:09:00.006Z</time>
</trkpt>
<trkpt lat="31.7703000" lon="35.1250700">
<ele>634.689941</ele>
<time>2023-01-25T14:09:00.006Z</time>
</trkpt>
<trkpt lat="31.7703500" lon="35.1249800">
<ele>634.980042</ele>
<time>2023-01-25T14:09:00.006Z</time>
</trkpt>
<trkpt lat="31.7704000" lon="35.1248900">
<ele>634.980042</ele>
<time>2023-01-25T14:09:00.006Z</time>
</trkpt>
<trkpt lat="31.7704500" lon="35.1247900">
<ele>634.800049</ele>
<time>2023-01-25T14:09:00.006Z</time>
</trkpt>
<trkpt lat="31.7705000" lon="35.1246900">
<ele>634.689941</ele>
<time>2023-01-25T14:09:00.006Z</time>
</trkpt>
<trkpt lat="31.7705600" lon="35.1246100">
<ele>635.499939</ele>
<time>2023-01-25T14:09:00.006Z</time>
</trkpt>
<trkpt lat="31.7706100" lon="35.1245200">
<ele>635.599976</ele>
<time>2023-01-25T14:09:00.006Z</time>
</trkpt>
<trkpt lat="31.7706800" lon="35.1244300">
<ele>636.369995</ele>
<time>2023-01-25T14:09:00.006Z</time>
</trkpt>
<trkpt lat="31.7707400" lon="35.1243400">
<ele>636.929993</ele>
<time>2023-01-25T14:09:00.006Z</time>
</trkpt>
<trkpt lat="31.7708200" lon="35.1242700">
<ele>638.669983</ele>
<time>2023-01-25T14:09:00.006Z</time>
</trkpt>
<trkpt lat="31.7708700" lon="35.1241800">
<ele>639.199951</ele>
<time>2023-01-25T14:09:00.006Z</time>
</trkpt>
<trkpt lat="31.7709200" lon="35.1240900">
<ele>639.669983</ele>
<time>2023-01-25T14:09:00.006Z</time>
</trkpt>
<trkpt lat="31.7710000" lon="35.1240200">
<ele>641.220032</ele>
<time>2023-01-25T14:09:00.006Z</time>
</trkpt>
<trkpt lat="31.7710600" lon="35.1239400">
<ele>642.080017</ele>
<time>2023-01-25T14:09:00.006Z</time>
</trkpt>
<trkpt lat="31.7711300" lon="35.1238700">
<ele>642.950012</ele>
<time>2023-01-25T14:09:00.006Z</time>
</trkpt>
<trkpt lat="31.7712000" lon="35.1237900">
<ele>642.880005</ele>
<time>2023-01-25T14:09:00.006Z</time>
</trkpt>
<trkpt lat="31.7712700" lon="35.1237100">
<ele>643.249939</ele>
<time>2023-01-25T14:09:00.006Z</time>
</trkpt>
<trkpt lat="31.7713600" lon="35.1236600">
<ele>644.610046</ele>
<time>2023-01-25T14:09:00.006Z</time>
</trkpt>
<trkpt lat="31.7714000" lon="35.1235700">
<ele>645.710022</ele>
<time>2023-01-25T14:09:00.006Z</time>
</trkpt>
<trkpt lat="31.7714700" lon="35.1234900">
<ele>648.099976</ele>
<time>2023-01-25T14:09:00.006Z</time>
</trkpt>
<trkpt lat="31.7715500" lon="35.1234100">
<ele>650.390015</ele>
<time>2023-01-25T14:09:00.006Z</time>
</trkpt>
<trkpt lat="31.7716200" lon="35.1233200">
<ele>652.349976</ele>
<time>2023-01-25T14:09:00.006Z</time>
</trkpt>
<trkpt lat="31.7716500" lon="35.1232200">
<ele>654.330017</ele>
<time>2023-01-25T14:09:00.006Z</time>
</trkpt>
<trkpt lat="31.7716600" lon="35.1231100">
<ele>656.100037</ele>
<time>2023-01-25T14:09:00.006Z</time>
</trkpt>
<trkpt lat="31.7716600" lon="35.1229800">
<ele>657.970032</ele>
<time>2023-01-25T14:09:00.006Z</time>
</trkpt>
<trkpt lat="31.7716300" lon="35.1228800">
<ele>658.950012</ele>
<time>2023-01-25T14:09:00.006Z</time>
</trkpt>
<trkpt lat="31.7715400" lon="35.1228000">
<ele>658.820007</ele>
<time>2023-01-25T14:09:00.006Z</time>
</trkpt>
<trkpt lat="31.7714600" lon="35.1227300">
<ele>659.190002</ele>
<time>2023-01-25T14:09:00.006Z</time>
</trkpt>
<trkpt lat="31.7713800" lon="35.1226800">
<ele>659.159973</ele>
<time>2023-01-25T14:09:00.006Z</time>
</trkpt>
<trkpt lat="31.7712900" lon="35.1226200">
<ele>661.970032</ele>
<time>2023-01-25T14:09:00.006Z</time>
</trkpt>
<trkpt lat="31.7711900" lon="35.1225700">
<ele>666.299988</ele>
<time>2023-01-25T14:09:00.006Z</time>
</trkpt>
<trkpt lat="31.7710900" lon="35.1225200">
<ele>671.269958</ele>
<time>2023-01-25T14:09:00.006Z</time>
</trkpt>
<trkpt lat="31.7710000" lon="35.1224800">
<ele>671.600037</ele>
<time>2023-01-25T14:09:00.006Z</time>
</trkpt>
<trkpt lat="31.7709000" lon="35.1224200">
<ele>672.239990</ele>
<time>2023-01-25T14:09:00.006Z</time>
</trkpt>
<trkpt lat="31.7708100" lon="35.1223600">
<ele>672.870056</ele>
<time>2023-01-25T14:09:00.006Z</time>
</trkpt>
<trkpt lat="31.7707200" lon="35.1223100">
<ele>670.349976</ele>
<time>2023-01-25T14:09:00.006Z</time>
</trkpt>
<trkpt lat="31.7706700" lon="35.1222900">
<ele>668.540039</ele>
<time>2023-01-25T14:09:00.006Z</time>
</trkpt>
<trkpt lat="31.7706300" lon="35.1222700">
<ele>667.210022</ele>
<time>2023-01-25T14:09:00.006Z</time>
</trkpt>
<trkpt lat="31.7705500" lon="35.1222500">
<ele>663.960022</ele>
<time>2023-01-25T14:09:00.006Z</time>
</trkpt>
<trkpt lat="31.7704200" lon="35.1222100">
<ele>664.600037</ele>
<time>2023-01-25T14:09:00.006Z</time>
</trkpt>
<trkpt lat="31.7702900" lon="35.1221900">
<ele>664.169983</ele>
<time>2023-01-25T14:09:00.006Z</time>
</trkpt>
<trkpt lat="31.7701800" lon="35.1221600">
<ele>663.020020</ele>
<time>2023-01-25T14:09:00.006Z</time>
</trkpt>
<trkpt lat="31.7700600" lon="35.1221500">
<ele>660.809998</ele>
<time>2023-01-25T14:09:00.006Z</time>
</trkpt>
<trkpt lat="31.7699300" lon="35.1221400">
<ele>657.480042</ele>
<time>2023-01-25T14:09:00.006Z</time>
</trkpt>
<trkpt lat="31.7697800" lon="35.1221400">
<ele>652.559998</ele>
<time>2023-01-25T14:09:00.006Z</time>
</trkpt>
<trkpt lat="31.7696100" lon="35.1221400">
<ele>648.359985</ele>
<time>2023-01-25T14:09:00.006Z</time>
</trkpt>
<trkpt lat="31.7694400" lon="35.1221600">
<ele>644.209961</ele>
<time>2023-01-25T14:09:00.006Z</time>
</trkpt>
<trkpt lat="31.7692600" lon="35.1222100">
<ele>641.690002</ele>
<time>2023-01-25T14:09:00.006Z</time>
</trkpt>
<trkpt lat="31.7691800" lon="35.1222400">
<ele>640.479980</ele>
<time>2023-01-25T14:09:00.006Z</time>
</trkpt>
<trkpt lat="31.7691000" lon="35.1222700">
<ele>639.010010</ele>
<time>2023-01-25T14:09:00.006Z</time>
</trkpt>
<trkpt lat="31.7690100" lon="35.1223000">
<ele>637.510010</ele>
<time>2023-01-25T14:09:00.006Z</time>
</trkpt>
<trkpt lat="31.7689200" lon="35.1223400">
<ele>635.779968</ele>
<time>2023-01-25T14:09:00.006Z</time>
</trkpt>
<trkpt lat="31.7688300" lon="35.1223700">
<ele>634.659973</ele>
<time>2023-01-25T14:09:00.006Z</time>
</trkpt>
<trkpt lat="31.7687500" lon="35.1224100">
<ele>633.609985</ele>
<time>2023-01-25T14:09:00.006Z</time>
</trkpt>
<trkpt lat="31.7686600" lon="35.1224400">
<ele>633.019958</ele>
<time>2023-01-25T14:09:00.006Z</time>
</trkpt>
<trkpt lat="31.7685700" lon="35.1224800">
<ele>631.640015</ele>
<time>2023-01-25T14:09:00.006Z</time>
</trkpt>
<trkpt lat="31.7684900" lon="35.1225100">
<ele>629.719971</ele>
<time>2023-01-25T14:09:00.006Z</time>
</trkpt>
<trkpt lat="31.7683100" lon="35.1225800">
<ele>626.229980</ele>
<time>2023-01-25T14:09:00.006Z</time>
</trkpt>
<trkpt lat="31.7682200" lon="35.1226100">
<ele>624.320007</ele>
<time>2023-01-25T14:09:00.006Z</time>
</trkpt>
<trkpt lat="31.7681200" lon="35.1226300">
<ele>622.280029</ele>
<time>2023-01-25T14:09:00.006Z</time>
</trkpt>
<trkpt lat="31.7680200" lon="35.1226300">
<ele>621.210022</ele>
<time>2023-01-25T14:09:00.006Z</time>
</trkpt>
<trkpt lat="31.7679200" lon="35.1226300">
<ele>621.809998</ele>
<time>2023-01-25T14:09:00.006Z</time>
</trkpt>
<trkpt lat="31.7678200" lon="35.1226200">
<ele>622.559998</ele>
<time>2023-01-25T14:09:00.006Z</time>
</trkpt>
<trkpt lat="31.7677300" lon="35.1226100">
<ele>623.500000</ele>
<time>2023-01-25T14:09:00.006Z</time>
</trkpt>
<trkpt lat="31.7676400" lon="35.1226000">
<ele>624.650024</ele>
<time>2023-01-25T14:09:00.006Z</time>
</trkpt>
<trkpt lat="31.7674800" lon="35.1225800">
<ele>626.539978</ele>
<time>2023-01-25T14:09:00.006Z</time>
</trkpt>
<trkpt lat="31.7674000" lon="35.1225800">
<ele>625.929993</ele>
<time>2023-01-25T14:09:00.006Z</time>
</trkpt>
<trkpt lat="31.7673700" lon="35.1226200">
<ele>624.750061</ele>
<time>2023-01-25T14:09:00.006Z</time>
</trkpt>
<trkpt lat="31.7673900" lon="35.1227600">
<ele>621.440002</ele>
<time>2023-01-25T14:09:00.006Z</time>
</trkpt>
<trkpt lat="31.7674300" lon="35.1228700">
<ele>618.590027</ele>
<time>2023-01-25T14:09:00.006Z</time>
</trkpt>
<trkpt lat="31.7675300" lon="35.1229700">
<ele>616.119995</ele>
<time>2023-01-25T14:09:00.006Z</time>
</trkpt>
<trkpt lat="31.7676500" lon="35.1230600">
<ele>613.919983</ele>
<time>2023-01-25T14:09:00.006Z</time>
</trkpt>
<trkpt lat="31.7677700" lon="35.1231700">
<ele>612.330017</ele>
<time>2023-01-25T14:09:00.006Z</time>
</trkpt>
<trkpt lat="31.7678800" lon="35.1233000">
<ele>611.909973</ele>
<time>2023-01-25T14:09:00.006Z</time>
</trkpt>
<trkpt lat="31.7679700" lon="35.1234100">
<ele>611.750000</ele>
<time>2023-01-25T14:09:00.006Z</time>
</trkpt>
<trkpt lat="31.7680100" lon="35.1235100">
<ele>610.900024</ele>
<time>2023-01-25T14:09:00.006Z</time>
</trkpt>
<trkpt lat="31.7680000" lon="35.1236600">
<ele>607.679993</ele>
<time>2023-01-25T14:09:00.006Z</time>
</trkpt>
<trkpt lat="31.7679300" lon="35.1237300">
<ele>604.559998</ele>
<time>2023-01-25T14:09:00.006Z</time>
</trkpt>
<trkpt lat="31.7677900" lon="35.1238100">
<ele>600.660034</ele>
<time>2023-01-25T14:09:00.006Z</time>
</trkpt>
<trkpt lat="31.7676300" lon="35.1239000">
<ele>596.090027</ele>
<time>2023-01-25T14:09:00.006Z</time>
</trkpt>
<trkpt lat="31.7675300" lon="35.1239500">
<ele>593.910034</ele>
<time>2023-01-25T14:09:00.006Z</time>
</trkpt>
<trkpt lat="31.7674300" lon="35.1239800">
<ele>592.100037</ele>
<time>2023-01-25T14:09:00.006Z</time>
</trkpt>
<trkpt lat="31.7673200" lon="35.1240000">
<ele>590.400024</ele>
<time>2023-01-25T14:09:00.006Z</time>
</trkpt>
<trkpt lat="31.7672000" lon="35.1240100">
<ele>588.799988</ele>
<time>2023-01-25T14:09:00.006Z</time>
</trkpt>
<trkpt lat="31.7670800" lon="35.1240100">
<ele>587.010010</ele>
<time>2023-01-25T14:09:00.006Z</time>
</trkpt>
<trkpt lat="31.7669600" lon="35.1240200">
<ele>585.229980</ele>
<time>2023-01-25T14:09:00.006Z</time>
</trkpt>
<trkpt lat="31.7668400" lon="35.1240200">
<ele>582.770020</ele>
<time>2023-01-25T14:09:00.006Z</time>
</trkpt>
<trkpt lat="31.7667300" lon="35.1240100">
<ele>580.469971</ele>
<time>2023-01-25T14:09:00.006Z</time>
</trkpt>
<trkpt lat="31.7666200" lon="35.1240100">
<ele>578.809998</ele>
<time>2023-01-25T14:09:00.006Z</time>
</trkpt>
<trkpt lat="31.7665200" lon="35.1240000">
<ele>578.250000</ele>
<time>2023-01-25T14:09:00.006Z</time>
</trkpt>
<trkpt lat="31.7663600" lon="35.1239800">
<ele>577.549988</ele>
<time>2023-01-25T14:09:00.006Z</time>
</trkpt>
<trkpt lat="31.7662100" lon="35.1239600">
<ele>577.020020</ele>
<time>2023-01-25T14:09:00.006Z</time>
</trkpt>
<trkpt lat="31.7661000" lon="35.1239500">
<ele>576.539978</ele>
<time>2023-01-25T14:09:00.006Z</time>
</trkpt>
<trkpt lat="31.7660400" lon="35.1239600">
<ele>576.359985</ele>
<time>2023-01-25T14:09:00.006Z</time>
</trkpt>
<trkpt lat="31.7660300" lon="35.1240700">
<ele>575.320007</ele>
<time>2023-01-25T14:09:00.006Z</time>
</trkpt>
<trkpt lat="31.7660400" lon="35.1241000">
<ele>575.089966</ele>
<time>2023-01-25T14:09:00.006Z</time>
</trkpt>
<trkpt lat="31.7661000" lon="35.1242000">
<ele>574.440002</ele>
<time>2023-01-25T14:09:00.006Z</time>
</trkpt>
<trkpt lat="31.7661500" lon="35.1243400">
<ele>572.590027</ele>
<time>2023-01-25T14:09:00.006Z</time>
</trkpt>
<trkpt lat="31.7661900" lon="35.1244600">
<ele>571.070007</ele>
<time>2023-01-25T14:09:00.006Z</time>
</trkpt>
<trkpt lat="31.7662500" lon="35.1245900">
<ele>569.140015</ele>
<time>2023-01-25T14:09:00.006Z</time>
</trkpt>
<trkpt lat="31.7663100" lon="35.1247100">
<ele>566.789978</ele>
<time>2023-01-25T14:09:00.006Z</time>
</trkpt>
<trkpt lat="31.7663700" lon="35.1248300">
<ele>564.919983</ele>
<time>2023-01-25T14:09:00.006Z</time>
</trkpt>
<trkpt lat="31.7664300" lon="35.1249400">
<ele>564.099976</ele>
<time>2023-01-25T14:09:00.006Z</time>
</trkpt>
<trkpt lat="31.7665100" lon="35.1250500">
<ele>562.820007</ele>
<time>2023-01-25T14:09:00.006Z</time>
</trkpt>
<trkpt lat="31.7665800" lon="35.1251500">
<ele>560.929993</ele>
<time>2023-01-25T14:09:00.006Z</time>
</trkpt>
<trkpt lat="31.7666400" lon="35.1252400">
<ele>558.929993</ele>
<time>2023-01-25T14:09:00.006Z</time>
</trkpt>
<trkpt lat="31.7666900" lon="35.1253200">
<ele>557.789978</ele>
<time>2023-01-25T14:09:00.006Z</time>
</trkpt>
<trkpt lat="31.7667400" lon="35.1254200">
<ele>557.000000</ele>
<time>2023-01-25T14:09:00.006Z</time>
</trkpt>
<trkpt lat="31.7667300" lon="35.1255400">
<ele>554.929993</ele>
<time>2023-01-25T14:09:00.006Z</time>
</trkpt>
<trkpt lat="31.7666600" lon="35.1255800">
<ele>553.479980</ele>
<time>2023-01-25T14:09:00.006Z</time>
</trkpt>
<trkpt lat="31.7665600" lon="35.1256200">
<ele>551.510010</ele>
<time>2023-01-25T14:09:00.006Z</time>
</trkpt>
<trkpt lat="31.7664600" lon="35.1256600">
<ele>549.330017</ele>
<time>2023-01-25T14:09:00.006Z</time>
</trkpt>
<trkpt lat="31.7663500" lon="35.1256800">
<ele>547.119995</ele>
<time>2023-01-25T14:09:00.006Z</time>
</trkpt>
<trkpt lat="31.7662600" lon="35.1257000">
<ele>544.779968</ele>
<time>2023-01-25T14:09:00.006Z</time>
</trkpt>
<trkpt lat="31.7661600" lon="35.1257000">
<ele>542.780029</ele>
<time>2023-01-25T14:09:00.006Z</time>
</trkpt>
<trkpt lat="31.7660600" lon="35.1257000">
<ele>540.979980</ele>
<time>2023-01-25T14:09:00.006Z</time>
</trkpt>
<trkpt lat="31.7659500" lon="35.1256900">
<ele>539.520020</ele>
<time>2023-01-25T14:09:00.006Z</time>
</trkpt>
<trkpt lat="31.7658500" lon="35.1256600">
<ele>538.659973</ele>
<time>2023-01-25T14:09:00.006Z</time>
</trkpt>
<trkpt lat="31.7657700" lon="35.1256200">
<ele>538.219971</ele>
<time>2023-01-25T14:09:00.006Z</time>
</trkpt>
<trkpt lat="31.7656700" lon="35.1255700">
<ele>537.230042</ele>
<time>2023-01-25T14:09:00.006Z</time>
</trkpt>
<trkpt lat="31.7655800" lon="35.1255200">
<ele>536.070007</ele>
<time>2023-01-25T14:09:00.006Z</time>
</trkpt>
<trkpt lat="31.7655000" lon="35.1254300">
<ele>534.940002</ele>
<time>2023-01-25T14:09:00.006Z</time>
</trkpt>
<trkpt lat="31.7654400" lon="35.1253600">
<ele>533.609985</ele>
<time>2023-01-25T14:09:00.006Z</time>
</trkpt>
<trkpt lat="31.7653500" lon="35.1253300">
<ele>530.529968</ele>
<time>2023-01-25T14:09:00.006Z</time>
</trkpt>
<trkpt lat="31.7653000" lon="35.1253600">
<ele>528.510010</ele>
<time>2023-01-25T14:09:00.006Z</time>
</trkpt>
<trkpt lat="31.7653000" lon="35.1254700">
<ele>528.020020</ele>
<time>2023-01-25T14:09:00.006Z</time>
</trkpt>
<trkpt lat="31.7653100" lon="35.1255800">
<ele>527.590027</ele>
<time>2023-01-25T14:09:00.006Z</time>
</trkpt>
<trkpt lat="31.7653200" lon="35.1256900">
<ele>526.350037</ele>
<time>2023-01-25T14:09:00.006Z</time>
</trkpt>
<trkpt lat="31.7653200" lon="35.1258100">
<ele>524.690002</ele>
<time>2023-01-25T14:09:00.006Z</time>
</trkpt>
<trkpt lat="31.7653300" lon="35.1259100">
<ele>523.210022</ele>
<time>2023-01-25T14:09:00.006Z</time>
</trkpt>
<trkpt lat="31.7653400" lon="35.1260200">
<ele>521.349976</ele>
<time>2023-01-25T14:09:00.006Z</time>
</trkpt>
<trkpt lat="31.7653500" lon="35.1261600">
<ele>518.839966</ele>
<time>2023-01-25T14:09:00.006Z</time>
</trkpt>
<trkpt lat="31.7653300" lon="35.1262900">
<ele>516.010010</ele>
<time>2023-01-25T14:09:00.006Z</time>
</trkpt>
<trkpt lat="31.7652600" lon="35.1263700">
<ele>513.820007</ele>
<time>2023-01-25T14:09:00.006Z</time>
</trkpt>
<trkpt lat="31.7651900" lon="35.1264700">
<ele>509.239990</ele>
<time>2023-01-25T14:09:00.006Z</time>
</trkpt>
<trkpt lat="31.7651500" lon="35.1265800">
<ele>505.169983</ele>
<time>2023-01-25T14:09:00.006Z</time>
</trkpt>
<trkpt lat="31.7651000" lon="35.1267000">
<ele>500.549988</ele>
<time>2023-01-25T14:09:00.006Z</time>
</trkpt>
<trkpt lat="31.7650200" lon="35.1267700">
<ele>496.699982</ele>
<time>2023-01-25T14:09:00.006Z</time>
</trkpt>
<trkpt lat="31.7649200" lon="35.1268100">
<ele>493.529999</ele>
<time>2023-01-25T14:09:00.006Z</time>
</trkpt>
<trkpt lat="31.7648200" lon="35.1269000">
<ele>488.660004</ele>
<time>2023-01-25T14:09:00.006Z</time>
</trkpt>
<trkpt lat="31.7647100" lon="35.1269300">
<ele>486.589996</ele>
<time>2023-01-25T14:09:00.006Z</time>
</trkpt>
<trkpt lat="31.7646000" lon="35.1269400">
<ele>487.429993</ele>
<time>2023-01-25T14:09:00.006Z</time>
</trkpt>
<trkpt lat="31.7645400" lon="35.1269300">
<ele>488.269989</ele>
<time>2023-01-25T14:09:00.006Z</time>
</trkpt>
<trkpt lat="31.7645100" lon="35.1269200">
<ele>488.750000</ele>
<time>2023-01-25T14:09:00.006Z</time>
</trkpt>
<trkpt lat="31.7644100" lon="35.1269200">
<ele>489.419983</ele>
<time>2023-01-25T14:09:00.006Z</time>
</trkpt>
<trkpt lat="31.7643100" lon="35.1269000">
<ele>489.739990</ele>
<time>2023-01-25T14:09:00.006Z</time>
</trkpt>
<trkpt lat="31.7642200" lon="35.1268800">
<ele>489.799988</ele>
<time>2023-01-25T14:09:00.006Z</time>
</trkpt>
<trkpt lat="31.7641100" lon="35.1268800">
<ele>487.929993</ele>
<time>2023-01-25T14:09:00.006Z</time>
</trkpt>
<trkpt lat="31.7639900" lon="35.1268800">
<ele>484.040009</ele>
<time>2023-01-25T14:09:00.006Z</time>
</trkpt>
<trkpt lat="31.7638700" lon="35.1268900">
<ele>480.529999</ele>
<time>2023-01-25T14:09:00.006Z</time>
</trkpt>
<trkpt lat="31.7638400" lon="35.1269800">
<ele>480.240021</ele>
<time>2023-01-25T14:09:00.006Z</time>
</trkpt>
<trkpt lat="31.7638400" lon="35.1271100">
<ele>480.009979</ele>
<time>2023-01-25T14:09:00.006Z</time>
</trkpt>
<trkpt lat="31.7638400" lon="35.1271500">
<ele>479.950012</ele>
<time>2023-01-25T14:09:00.006Z</time>
</trkpt>
<trkpt lat="31.7638800" lon="35.1272700">
<ele>479.279999</ele>
<time>2023-01-25T14:09:00.006Z</time>
</trkpt>
<trkpt lat="31.7639200" lon="35.1273700">
<ele>477.850006</ele>
<time>2023-01-25T14:09:00.006Z</time>
</trkpt>
<trkpt lat="31.7639900" lon="35.1274700">
<ele>475.580017</ele>
<time>2023-01-25T14:09:00.006Z</time>
</trkpt>
<trkpt lat="31.7640900" lon="35.1275800">
<ele>472.209991</ele>
<time>2023-01-25T14:09:00.006Z</time>
</trkpt>
<trkpt lat="31.7641900" lon="35.1276900">
<ele>468.239990</ele>
<time>2023-01-25T14:09:00.006Z</time>
</trkpt>
<trkpt lat="31.7642600" lon="35.1277600">
<ele>466.739990</ele>
<time>2023-01-25T14:09:00.006Z</time>
</trkpt>
<trkpt lat="31.7643500" lon="35.1278400">
<ele>468.149994</ele>
<time>2023-01-25T14:09:00.006Z</time>
</trkpt>
<trkpt lat="31.7644400" lon="35.1278600">
<ele>469.049988</ele>
<time>2023-01-25T14:09:00.006Z</time>
</trkpt>
<trkpt lat="31.7644600" lon="35.1278700">
<ele>469.139984</ele>
<time>2023-01-25T14:09:00.006Z</time>
</trkpt>
<trkpt lat="31.7644900" lon="35.1278900">
<ele>469.269989</ele>
<time>2023-01-25T14:09:00.006Z</time>
</trkpt>
<trkpt lat="31.7645300" lon="35.1278900">
<ele>468.779968</ele>
<time>2023-01-25T14:09:00.006Z</time>
</trkpt>
<trkpt lat="31.7646400" lon="35.1278900">
<ele>467.429993</ele>
<time>2023-01-25T14:09:00.006Z</time>
</trkpt>
<trkpt lat="31.7647300" lon="35.1278800">
<ele>466.309998</ele>
<time>2023-01-25T14:09:00.006Z</time>
</trkpt>
<trkpt lat="31.7648200" lon="35.1278800">
<ele>467.519989</ele>
<time>2023-01-25T14:09:00.006Z</time>
</trkpt>
<trkpt lat="31.7649200" lon="35.1278500">
<ele>468.070007</ele>
<time>2023-01-25T14:09:00.006Z</time>
</trkpt>
<trkpt lat="31.7650100" lon="35.1278300">
<ele>468.529999</ele>
<time>2023-01-25T14:09:00.006Z</time>
</trkpt>
<trkpt lat="31.7650900" lon="35.1278000">
<ele>467.910004</ele>
<time>2023-01-25T14:09:00.006Z</time>
</trkpt>
<trkpt lat="31.7651900" lon="35.1277600">
<ele>467.700012</ele>
<time>2023-01-25T14:09:00.006Z</time>
</trkpt>
<trkpt lat="31.7652900" lon="35.1277200">
<ele>468.070007</ele>
<time>2023-01-25T14:09:00.006Z</time>
</trkpt>
<trkpt lat="31.7654000" lon="35.1276800">
<ele>468.569977</ele>
<time>2023-01-25T14:09:00.006Z</time>
</trkpt>
<trkpt lat="31.7655100" lon="35.1276600">
<ele>468.959991</ele>
<time>2023-01-25T14:09:00.006Z</time>
</trkpt>
<trkpt lat="31.7656200" lon="35.1276300">
<ele>469.959991</ele>
<time>2023-01-25T14:09:00.006Z</time>
</trkpt>
<trkpt lat="31.7657200" lon="35.1275900">
<ele>471.000000</ele>
<time>2023-01-25T14:09:00.006Z</time>
</trkpt>
<trkpt lat="31.7658300" lon="35.1275600">
<ele>472.039978</ele>
<time>2023-01-25T14:09:00.006Z</time>
</trkpt>
<trkpt lat="31.7659300" lon="35.1275500">
<ele>472.119995</ele>
<time>2023-01-25T14:09:00.006Z</time>
</trkpt>
<trkpt lat="31.7660400" lon="35.1275400">
<ele>472.249969</ele>
<time>2023-01-25T14:09:00.006Z</time>
</trkpt>
<trkpt lat="31.7661300" lon="35.1275400">
<ele>472.840027</ele>
<time>2023-01-25T14:09:00.006Z</time>
</trkpt>
<trkpt lat="31.7662200" lon="35.1275300">
<ele>474.680023</ele>
<time>2023-01-25T14:09:00.006Z</time>
</trkpt>
<trkpt lat="31.7663100" lon="35.1275300">
<ele>476.619995</ele>
<time>2023-01-25T14:09:00.006Z</time>
</trkpt>
<trkpt lat="31.7664000" lon="35.1275400">
<ele>478.519989</ele>
<time>2023-01-25T14:09:00.006Z</time>
</trkpt>
<trkpt lat="31.7665000" lon="35.1275400">
<ele>479.290009</ele>
<time>2023-01-25T14:09:00.006Z</time>
</trkpt>
<trkpt lat="31.7665900" lon="35.1275500">
<ele>480.120026</ele>
<time>2023-01-25T14:09:00.006Z</time>
</trkpt>
<trkpt lat="31.7666800" lon="35.1275700">
<ele>481.199982</ele>
<time>2023-01-25T14:09:00.006Z</time>
</trkpt>
<trkpt lat="31.7667900" lon="35.1276100">
<ele>483.360016</ele>
<time>2023-01-25T14:09:00.006Z</time>
</trkpt>
<trkpt lat="31.7669000" lon="35.1276700">
<ele>485.809998</ele>
<time>2023-01-25T14:09:00.006Z</time>
</trkpt>
<trkpt lat="31.7670000" lon="35.1277400">
<ele>487.050018</ele>
<time>2023-01-25T14:09:00.006Z</time>
</trkpt>
<trkpt lat="31.7670800" lon="35.1278000">
<ele>486.820007</ele>
<time>2023-01-25T14:09:00.006Z</time>
</trkpt>
<trkpt lat="31.7671700" lon="35.1278700">
<ele>486.209991</ele>
<time>2023-01-25T14:09:00.006Z</time>
</trkpt>
<trkpt lat="31.7672600" lon="35.1279300">
<ele>485.510010</ele>
<time>2023-01-25T14:09:00.006Z</time>
</trkpt>
<trkpt lat="31.7673500" lon="35.1280000">
<ele>484.970001</ele>
<time>2023-01-25T14:09:00.006Z</time>
</trkpt>
<trkpt lat="31.7674500" lon="35.1280600">
<ele>483.559998</ele>
<time>2023-01-25T14:09:00.006Z</time>
</trkpt>
<trkpt lat="31.7675500" lon="35.1281300">
<ele>483.559998</ele>
<time>2023-01-25T14:09:00.006Z</time>
</trkpt>
<trkpt lat="31.7676400" lon="35.1281800">
<ele>483.939972</ele>
<time>2023-01-25T14:09:00.006Z</time>
</trkpt>
<trkpt lat="31.7677400" lon="35.1282300">
<ele>483.519989</ele>
<time>2023-01-25T14:09:00.006Z</time>
</trkpt>
<trkpt lat="31.7678500" lon="35.1283000">
<ele>485.080017</ele>
<time>2023-01-25T14:09:00.006Z</time>
</trkpt>
<trkpt lat="31.7679400" lon="35.1283800">
<ele>487.029999</ele>
<time>2023-01-25T14:09:00.006Z</time>
</trkpt>
<trkpt lat="31.7680200" lon="35.1284500">
<ele>487.799988</ele>
<time>2023-01-25T14:09:00.006Z</time>
</trkpt>
<trkpt lat="31.7680800" lon="35.1285200">
<ele>487.779999</ele>
<time>2023-01-25T14:09:00.006Z</time>
</trkpt>
<trkpt lat="31.7681300" lon="35.1286300">
<ele>487.170013</ele>
<time>2023-01-25T14:09:00.006Z</time>
</trkpt>
<trkpt lat="31.7681700" lon="35.1287500">
<ele>486.769989</ele>
<time>2023-01-25T14:09:00.006Z</time>
</trkpt>
<trkpt lat="31.7682000" lon="35.1288700">
<ele>485.200012</ele>
<time>2023-01-25T14:09:00.006Z</time>
</trkpt>
<trkpt lat="31.7682200" lon="35.1289900">
<ele>483.639984</ele>
<time>2023-01-25T14:09:00.006Z</time>
</trkpt>
<trkpt lat="31.7682400" lon="35.1291200">
<ele>481.600006</ele>
<time>2023-01-25T14:09:00.006Z</time>
</trkpt>
<trkpt lat="31.7682600" lon="35.1292600">
<ele>480.630005</ele>
<time>2023-01-25T14:09:00.006Z</time>
</trkpt>
<trkpt lat="31.7682900" lon="35.1293600">
<ele>480.420013</ele>
<time>2023-01-25T14:09:00.006Z</time>
</trkpt>
<trkpt lat="31.7683100" lon="35.1294600">
<ele>480.080017</ele>
<time>2023-01-25T14:09:00.006Z</time>
</trkpt>
<trkpt lat="31.7683400" lon="35.1295800">
<ele>480.710022</ele>
<time>2023-01-25T14:09:00.006Z</time>
</trkpt>
<trkpt lat="31.7683700" lon="35.1297000">
<ele>481.889984</ele>
<time>2023-01-25T14:09:00.006Z</time>
</trkpt>
<trkpt lat="31.7683900" lon="35.1298000">
<ele>482.929993</ele>
<time>2023-01-25T14:09:00.006Z</time>
</trkpt>
<trkpt lat="31.7684200" lon="35.1299200">
<ele>483.989990</ele>
<time>2023-01-25T14:09:00.006Z</time>
</trkpt>
<trkpt lat="31.7684600" lon="35.1300400">
<ele>484.610016</ele>
<time>2023-01-25T14:09:00.006Z</time>
</trkpt>
<trkpt lat="31.7685100" lon="35.1301500">
<ele>485.029999</ele>
<time>2023-01-25T14:09:00.006Z</time>
</trkpt>
<trkpt lat="31.7685500" lon="35.1302600">
<ele>485.190002</ele>
<time>2023-01-25T14:09:00.006Z</time>
</trkpt>
<trkpt lat="31.7685700" lon="35.1303800">
<ele>485.420013</ele>
<time>2023-01-25T14:09:00.006Z</time>
</trkpt>
<trkpt lat="31.7686200" lon="35.1304700">
<ele>484.860016</ele>
<time>2023-01-25T14:09:00.006Z</time>
</trkpt>
<trkpt lat="31.7687200" lon="35.1305500">
<ele>482.690002</ele>
<time>2023-01-25T14:09:00.006Z</time>
</trkpt>
<trkpt lat="31.7688100" lon="35.1306000">
<ele>480.890015</ele>
<time>2023-01-25T14:09:00.006Z</time>
</trkpt>
<trkpt lat="31.7689300" lon="35.1306300">
<ele>478.299988</ele>
<time>2023-01-25T14:09:00.006Z</time>
</trkpt>
<trkpt lat="31.7690400" lon="35.1306700">
<ele>476.500000</ele>
<time>2023-01-25T14:09:00.006Z</time>
</trkpt>
<trkpt lat="31.7691300" lon="35.1307000">
<ele>475.110016</ele>
<time>2023-01-25T14:09:00.006Z</time>
</trkpt>
<trkpt lat="31.7692300" lon="35.1307100">
<ele>474.859985</ele>
<time>2023-01-25T14:09:00.006Z</time>
</trkpt>
<trkpt lat="31.7693300" lon="35.1307400">
<ele>475.830017</ele>
<time>2023-01-25T14:09:00.006Z</time>
</trkpt>
<trkpt lat="31.7694500" lon="35.1307500">
<ele>476.850006</ele>
<time>2023-01-25T14:09:00.006Z</time>
</trkpt>
<trkpt lat="31.7695400" lon="35.1307500">
<ele>476.040009</ele>
<time>2023-01-25T14:09:00.006Z</time>
</trkpt>
<trkpt lat="31.7696300" lon="35.1307400">
<ele>475.100006</ele>
<time>2023-01-25T14:09:00.006Z</time>
</trkpt>
<trkpt lat="31.7697300" lon="35.1307300">
<ele>474.269989</ele>
<time>2023-01-25T14:09:00.006Z</time>
</trkpt>
<trkpt lat="31.7698400" lon="35.1306700">
<ele>474.720001</ele>
<time>2023-01-25T14:09:00.006Z</time>
</trkpt>
<trkpt lat="31.7699300" lon="35.1306400">
<ele>475.759979</ele>
<time>2023-01-25T14:09:00.006Z</time>
</trkpt>
<trkpt lat="31.7700200" lon="35.1306000">
<ele>477.510010</ele>
<time>2023-01-25T14:09:00.006Z</time>
</trkpt>
<trkpt lat="31.7701300" lon="35.1305500">
<ele>479.900024</ele>
<time>2023-01-25T14:09:00.006Z</time>
</trkpt>
<trkpt lat="31.7702100" lon="35.1305000">
<ele>481.380005</ele>
<time>2023-01-25T14:09:00.006Z</time>
</trkpt>
<trkpt lat="31.7703100" lon="35.1304700">
<ele>482.799988</ele>
<time>2023-01-25T14:09:00.006Z</time>
</trkpt>
<trkpt lat="31.7704000" lon="35.1304300">
<ele>483.739990</ele>
<time>2023-01-25T14:09:00.006Z</time>
</trkpt>
<trkpt lat="31.7705100" lon="35.1303900">
<ele>485.019989</ele>
<time>2023-01-25T14:09:00.006Z</time>
</trkpt>
<trkpt lat="31.7706200" lon="35.1303600">
<ele>484.839996</ele>
<time>2023-01-25T14:09:00.006Z</time>
</trkpt>
<trkpt lat="31.7707300" lon="35.1303200">
<ele>483.200012</ele>
<time>2023-01-25T14:09:00.006Z</time>
</trkpt>
<trkpt lat="31.7708200" lon="35.1302900">
<ele>481.360016</ele>
<time>2023-01-25T14:09:00.006Z</time>
</trkpt>
<trkpt lat="31.7709300" lon="35.1302800">
<ele>483.450012</ele>
<time>2023-01-25T14:09:00.006Z</time>
</trkpt>
<trkpt lat="31.7710300" lon="35.1302600">
<ele>486.150024</ele>
<time>2023-01-25T14:09:00.006Z</time>
</trkpt>
<trkpt lat="31.7711300" lon="35.1302500">
<ele>488.770020</ele>
<time>2023-01-25T14:09:00.006Z</time>
</trkpt>
<trkpt lat="31.7712300" lon="35.1302500">
<ele>491.250000</ele>
<time>2023-01-25T14:09:00.006Z</time>
</trkpt>
<trkpt lat="31.7713300" lon="35.1302600">
<ele>493.660004</ele>
<time>2023-01-25T14:09:00.006Z</time>
</trkpt>
<trkpt lat="31.7714400" lon="35.1303100">
<ele>494.309998</ele>
<time>2023-01-25T14:09:00.006Z</time>
</trkpt>
<trkpt lat="31.7715500" lon="35.1303700">
<ele>492.740021</ele>
<time>2023-01-25T14:09:00.006Z</time>
</trkpt>
<trkpt lat="31.7716400" lon="35.1304400">
<ele>491.179993</ele>
<time>2023-01-25T14:09:00.006Z</time>
</trkpt>
<trkpt lat="31.7717300" lon="35.1305300">
<ele>490.449982</ele>
<time>2023-01-25T14:09:00.006Z</time>
</trkpt>
<trkpt lat="31.7718000" lon="35.1306400">
<ele>489.899994</ele>
<time>2023-01-25T14:09:00.006Z</time>
</trkpt>
<trkpt lat="31.7718600" lon="35.1307500">
<ele>488.750000</ele>
<time>2023-01-25T14:09:00.006Z</time>
</trkpt>
<trkpt lat="31.7719000" lon="35.1308700">
<ele>487.589996</ele>
<time>2023-01-25T14:09:00.006Z</time>
</trkpt>
<trkpt lat="31.7719200" lon="35.1309800">
<ele>487.750000</ele>
<time>2023-01-25T14:09:00.006Z</time>
</trkpt>
<trkpt lat="31.7719500" lon="35.1311000">
<ele>488.059998</ele>
<time>2023-01-25T14:09:00.006Z</time>
</trkpt>
<trkpt lat="31.7719700" lon="35.1312100">
<ele>488.680023</ele>
<time>2023-01-25T14:09:00.006Z</time>
</trkpt>
<trkpt lat="31.7719800" lon="35.1313200">
<ele>489.010010</ele>
<time>2023-01-25T14:09:00.006Z</time>
</trkpt>
<trkpt lat="31.7719900" lon="35.1314400">
<ele>488.949982</ele>
<time>2023-01-25T14:09:00.006Z</time>
</trkpt>
<trkpt lat="31.7719900" lon="35.1315500">
<ele>488.489990</ele>
<time>2023-01-25T14:09:00.006Z</time>
</trkpt>
<trkpt lat="31.7719900" lon="35.1316600">
<ele>488.029999</ele>
<time>2023-01-25T14:09:00.006Z</time>
</trkpt>
<trkpt lat="31.7719800" lon="35.1317800">
<ele>487.589996</ele>
<time>2023-01-25T14:09:00.006Z</time>
</trkpt>
<trkpt lat="31.7719700" lon="35.1319100">
<ele>487.119995</ele>
<time>2023-01-25T14:09:00.006Z</time>
</trkpt>
<trkpt lat="31.7719700" lon="35.1320300">
<ele>486.970001</ele>
<time>2023-01-25T14:09:00.006Z</time>
</trkpt>
<trkpt lat="31.7719700" lon="35.1321400">
<ele>486.940002</ele>
<time>2023-01-25T14:09:00.006Z</time>
</trkpt>
<trkpt lat="31.7719700" lon="35.1322600">
<ele>487.149994</ele>
<time>2023-01-25T14:09:00.006Z</time>
</trkpt>
<trkpt lat="31.7719900" lon="35.1323800">
<ele>487.789978</ele>
<time>2023-01-25T14:09:00.006Z</time>
</trkpt>
<trkpt lat="31.7720000" lon="35.1325000">
<ele>488.399994</ele>
<time>2023-01-25T14:09:00.006Z</time>
</trkpt>
<trkpt lat="31.7720100" lon="35.1326200">
<ele>489.049988</ele>
<time>2023-01-25T14:09:00.006Z</time>
</trkpt>
<trkpt lat="31.7720100" lon="35.1327300">
<ele>489.750000</ele>
<time>2023-01-25T14:09:00.006Z</time>
</trkpt>
<trkpt lat="31.7720200" lon="35.1328600">
<ele>490.640015</ele>
<time>2023-01-25T14:09:00.006Z</time>
</trkpt>
<trkpt lat="31.7720300" lon="35.1329700">
<ele>491.420013</ele>
<time>2023-01-25T14:09:00.006Z</time>
</trkpt>
<trkpt lat="31.7720400" lon="35.1330800">
<ele>492.230011</ele>
<time>2023-01-25T14:09:00.006Z</time>
</trkpt>
<trkpt lat="31.7720500" lon="35.1331900">
<ele>493.290009</ele>
<time>2023-01-25T14:09:00.006Z</time>
</trkpt>
<trkpt lat="31.7720600" lon="35.1333000">
<ele>494.290009</ele>
<time>2023-01-25T14:09:00.006Z</time>
</trkpt>
<trkpt lat="31.7720800" lon="35.1334000">
<ele>494.220001</ele>
<time>2023-01-25T14:09:00.006Z</time>
</trkpt>
<trkpt lat="31.7720900" lon="35.1335100">
<ele>494.110016</ele>
<time>2023-01-25T14:09:00.006Z</time>
</trkpt>
<trkpt lat="31.7721100" lon="35.1336200">
<ele>493.720001</ele>
<time>2023-01-25T14:09:00.006Z</time>
</trkpt>
<trkpt lat="31.7721400" lon="35.1337400">
<ele>493.919983</ele>
<time>2023-01-25T14:09:00.006Z</time>
</trkpt>
<trkpt lat="31.7721600" lon="35.1338600">
<ele>494.500000</ele>
<time>2023-01-25T14:09:00.006Z</time>
</trkpt>
<trkpt lat="31.7721900" lon="35.1339800">
<ele>494.619995</ele>
<time>2023-01-25T14:09:00.006Z</time>
</trkpt>
<trkpt lat="31.7722000" lon="35.1341000">
<ele>495.220001</ele>
<time>2023-01-25T14:09:00.006Z</time>
</trkpt>
<trkpt lat="31.7722200" lon="35.1342200">
<ele>495.639984</ele>
<time>2023-01-25T14:09:00.006Z</time>
</trkpt>
<trkpt lat="31.7722400" lon="35.1343400">
<ele>496.699982</ele>
<time>2023-01-25T14:09:00.006Z</time>
</trkpt>
<trkpt lat="31.7722400" lon="35.1344500">
<ele>497.869995</ele>
<time>2023-01-25T14:09:00.006Z</time>
</trkpt>
<trkpt lat="31.7722400" lon="35.1345800">
<ele>499.300018</ele>
<time>2023-01-25T14:09:00.006Z</time>
</trkpt>
<trkpt lat="31.7722400" lon="35.1347000">
<ele>500.629974</ele>
<time>2023-01-25T14:09:00.006Z</time>
</trkpt>
<trkpt lat="31.7722300" lon="35.1348200">
<ele>500.970032</ele>
<time>2023-01-25T14:09:00.006Z</time>
</trkpt>
<trkpt lat="31.7722100" lon="35.1349400">
<ele>500.979980</ele>
<time>2023-01-25T14:09:00.006Z</time>
</trkpt>
<trkpt lat="31.7721600" lon="35.1350300">
<ele>500.779999</ele>
<time>2023-01-25T14:09:00.006Z</time>
</trkpt>
<trkpt lat="31.7720600" lon="35.1351200">
<ele>500.419983</ele>
<time>2023-01-25T14:09:00.006Z</time>
</trkpt>
<trkpt lat="31.7719600" lon="35.1351400">
<ele>500.059998</ele>
<time>2023-01-25T14:09:00.006Z</time>
</trkpt>
<trkpt lat="31.7718500" lon="35.1351400">
<ele>500.849976</ele>
<time>2023-01-25T14:09:00.006Z</time>
</trkpt>
<trkpt lat="31.7717400" lon="35.1351400">
<ele>501.839996</ele>
<time>2023-01-25T14:09:00.006Z</time>
</trkpt>
<trkpt lat="31.7716400" lon="35.1351200">
<ele>502.839996</ele>
<time>2023-01-25T14:09:00.006Z</time>
</trkpt>
<trkpt lat="31.7715500" lon="35.1350700">
<ele>504.319977</ele>
<time>2023-01-25T14:09:00.006Z</time>
</trkpt>
<trkpt lat="31.7714400" lon="35.1350200">
<ele>506.709991</ele>
<time>2023-01-25T14:09:00.006Z</time>
</trkpt>
<trkpt lat="31.7713300" lon="35.1350000">
<ele>508.000000</ele>
<time>2023-01-25T14:09:00.006Z</time>
</trkpt>
<trkpt lat="31.7712000" lon="35.1350000">
<ele>508.000000</ele>
<time>2023-01-25T14:09:00.006Z</time>
</trkpt>
<trkpt lat="31.7710800" lon="35.1350000">
<ele>507.779968</ele>
<time>2023-01-25T14:09:00.006Z</time>
</trkpt>
<trkpt lat="31.7709700" lon="35.1350200">
<ele>506.589996</ele>
<time>2023-01-25T14:09:00.006Z</time>
</trkpt>
<trkpt lat="31.7708800" lon="35.1350800">
<ele>505.039978</ele>
<time>2023-01-25T14:09:00.006Z</time>
</trkpt>
<trkpt lat="31.7707900" lon="35.1351500">
<ele>503.679993</ele>
<time>2023-01-25T14:09:00.006Z</time>
</trkpt>
<trkpt lat="31.7707100" lon="35.1352200">
<ele>502.389984</ele>
<time>2023-01-25T14:09:00.006Z</time>
</trkpt>
<trkpt lat="31.7706400" lon="35.1353000">
<ele>501.019989</ele>
<time>2023-01-25T14:09:00.006Z</time>
</trkpt>
<trkpt lat="31.7705800" lon="35.1353900">
<ele>499.800018</ele>
<time>2023-01-25T14:09:00.006Z</time>
</trkpt>
<trkpt lat="31.7705300" lon="35.1354900">
<ele>499.369995</ele>
<time>2023-01-25T14:09:00.006Z</time>
</trkpt>
<trkpt lat="31.7704800" lon="35.1356000">
<ele>499.730011</ele>
<time>2023-01-25T14:09:00.006Z</time>
</trkpt>
<trkpt lat="31.7704400" lon="35.1357100">
<ele>499.989990</ele>
<time>2023-01-25T14:09:00.006Z</time>
</trkpt>
<trkpt lat="31.7703900" lon="35.1358200">
<ele>499.900024</ele>
<time>2023-01-25T14:09:00.006Z</time>
</trkpt>
<trkpt lat="31.7703500" lon="35.1359200">
<ele>499.219971</ele>
<time>2023-01-25T14:09:00.006Z</time>
</trkpt>
<trkpt lat="31.7703100" lon="35.1360200">
<ele>498.199982</ele>
<time>2023-01-25T14:09:00.006Z</time>
</trkpt>
<trkpt lat="31.7702700" lon="35.1361200">
<ele>497.160004</ele>
<time>2023-01-25T14:09:00.006Z</time>
</trkpt>
<trkpt lat="31.7702200" lon="35.1362400">
<ele>497.450012</ele>
<time>2023-01-25T14:09:00.006Z</time>
</trkpt>
<trkpt lat="31.7701800" lon="35.1363300">
<ele>497.410004</ele>
<time>2023-01-25T14:09:00.006Z</time>
</trkpt>
<trkpt lat="31.7701500" lon="35.1364400">
<ele>497.059998</ele>
<time>2023-01-25T14:09:00.006Z</time>
</trkpt>
<trkpt lat="31.7701200" lon="35.1365500">
<ele>496.770020</ele>
<time>2023-01-25T14:09:00.006Z</time>
</trkpt>
<trkpt lat="31.7701100" lon="35.1366700">
<ele>496.009979</ele>
<time>2023-01-25T14:09:00.006Z</time>
</trkpt>
<trkpt lat="31.7701000" lon="35.1368000">
<ele>496.349976</ele>
<time>2023-01-25T14:09:00.006Z</time>
</trkpt>
<trkpt lat="31.7701000" lon="35.1369300">
<ele>496.680023</ele>
<time>2023-01-25T14:09:00.006Z</time>
</trkpt>
<trkpt lat="31.7701100" lon="35.1370400">
<ele>497.209991</ele>
<time>2023-01-25T14:09:00.006Z</time>
</trkpt>
<trkpt lat="31.7701300" lon="35.1371500">
<ele>497.719971</ele>
<time>2023-01-25T14:09:00.006Z</time>
</trkpt>
<trkpt lat="31.7701500" lon="35.1372900">
<ele>497.529999</ele>
<time>2023-01-25T14:09:00.006Z</time>
</trkpt>
<trkpt lat="31.7701600" lon="35.1373900">
<ele>496.880005</ele>
<time>2023-01-25T14:09:00.006Z</time>
</trkpt>
<trkpt lat="31.7701700" lon="35.1375400">
<ele>496.220032</ele>
<time>2023-01-25T14:09:00.006Z</time>
</trkpt>
<trkpt lat="31.7701700" lon="35.1376500">
<ele>496.220032</ele>
<time>2023-01-25T14:09:00.006Z</time>
</trkpt>
<trkpt lat="31.7701600" lon="35.1377600">
<ele>496.149994</ele>
<time>2023-01-25T14:09:00.006Z</time>
</trkpt>
<trkpt lat="31.7701500" lon="35.1378700">
<ele>496.260010</ele>
<time>2023-01-25T14:09:00.006Z</time>
</trkpt>
<trkpt lat="31.7701100" lon="35.1379700">
<ele>496.070007</ele>
<time>2023-01-25T14:09:00.006Z</time>
</trkpt>
<trkpt lat="31.7700500" lon="35.1380600">
<ele>495.610016</ele>
<time>2023-01-25T14:09:00.006Z</time>
</trkpt>
<trkpt lat="31.7699600" lon="35.1381500">
<ele>496.500000</ele>
<time>2023-01-25T14:09:00.006Z</time>
</trkpt>
<trkpt lat="31.7698600" lon="35.1382100">
<ele>497.389984</ele>
<time>2023-01-25T14:09:00.006Z</time>
</trkpt>
<trkpt lat="31.7697700" lon="35.1382800">
<ele>497.880005</ele>
<time>2023-01-25T14:09:00.006Z</time>
</trkpt>
<trkpt lat="31.7696700" lon="35.1383500">
<ele>497.970001</ele>
<time>2023-01-25T14:09:00.006Z</time>
</trkpt>
<trkpt lat="31.7695700" lon="35.1384400">
<ele>498.180023</ele>
<time>2023-01-25T14:09:00.006Z</time>
</trkpt>
<trkpt lat="31.7694700" lon="35.1385300">
<ele>497.930023</ele>
<time>2023-01-25T14:09:00.006Z</time>
</trkpt>
<trkpt lat="31.7693800" lon="35.1386200">
<ele>498.640015</ele>
<time>2023-01-25T14:09:00.006Z</time>
</trkpt>
<trkpt lat="31.7692900" lon="35.1387100">
<ele>500.419983</ele>
<time>2023-01-25T14:09:00.006Z</time>
</trkpt>
<trkpt lat="31.7692100" lon="35.1387900">
<ele>500.929993</ele>
<time>2023-01-25T14:09:00.006Z</time>
</trkpt>
<trkpt lat="31.7691300" lon="35.1388700">
<ele>501.529968</ele>
<time>2023-01-25T14:09:00.006Z</time>
</trkpt>
<trkpt lat="31.7690700" lon="35.1389600">
<ele>502.640015</ele>
<time>2023-01-25T14:09:00.006Z</time>
</trkpt>
<trkpt lat="31.7690100" lon="35.1390500">
<ele>503.429993</ele>
<time>2023-01-25T14:09:00.006Z</time>
</trkpt>
<trkpt lat="31.7689600" lon="35.1391500">
<ele>503.759979</ele>
<time>2023-01-25T14:09:00.006Z</time>
</trkpt>
<trkpt lat="31.7689200" lon="35.1392500">
<ele>503.620026</ele>
<time>2023-01-25T14:09:00.006Z</time>
</trkpt>
<trkpt lat="31.7688900" lon="35.1393800">
<ele>503.230011</ele>
<time>2023-01-25T14:09:00.006Z</time>
</trkpt>
<trkpt lat="31.7688700" lon="35.1394900">
<ele>504.119995</ele>
<time>2023-01-25T14:09:00.006Z</time>
</trkpt>
<trkpt lat="31.7688600" lon="35.1396000">
<ele>504.359985</ele>
<time>2023-01-25T14:09:00.006Z</time>
</trkpt>
<trkpt lat="31.7688600" lon="35.1397000">
<ele>503.960022</ele>
<time>2023-01-25T14:09:00.006Z</time>
</trkpt>
<trkpt lat="31.7688600" lon="35.1398100">
<ele>503.769989</ele>
<time>2023-01-25T14:09:00.006Z</time>
</trkpt>
<trkpt lat="31.7688600" lon="35.1399200">
<ele>503.649994</ele>
<time>2023-01-25T14:09:00.006Z</time>
</trkpt>
<trkpt lat="31.7688600" lon="35.1400400">
<ele>503.529999</ele>
<time>2023-01-25T14:09:00.006Z</time>
</trkpt>
<trkpt lat="31.7688600" lon="35.1401700">
<ele>503.429993</ele>
<time>2023-01-25T14:09:00.006Z</time>
</trkpt>
<trkpt lat="31.7688600" lon="35.1403200">
<ele>503.230011</ele>
<time>2023-01-25T14:09:00.006Z</time>
</trkpt>
<trkpt lat="31.7688600" lon="35.1404300">
<ele>502.920013</ele>
<time>2023-01-25T14:09:00.006Z</time>
</trkpt>
<trkpt lat="31.7688700" lon="35.1405300">
<ele>502.100006</ele>
<time>2023-01-25T14:09:00.006Z</time>
</trkpt>
<trkpt lat="31.7688800" lon="35.1406400">
<ele>501.480011</ele>
<time>2023-01-25T14:09:00.006Z</time>
</trkpt>
<trkpt lat="31.7688900" lon="35.1407500">
<ele>501.019989</ele>
<time>2023-01-25T14:09:00.006Z</time>
</trkpt>
<trkpt lat="31.7689100" lon="35.1408800">
<ele>501.239990</ele>
<time>2023-01-25T14:09:00.006Z</time>
</trkpt>
<trkpt lat="31.7689300" lon="35.1410000">
<ele>501.319977</ele>
<time>2023-01-25T14:09:00.006Z</time>
</trkpt>
<trkpt lat="31.7689500" lon="35.1411200">
<ele>501.559998</ele>
<time>2023-01-25T14:09:00.006Z</time>
</trkpt>
<trkpt lat="31.7689600" lon="35.1412500">
<ele>502.040009</ele>
<time>2023-01-25T14:09:00.006Z</time>
</trkpt>
<trkpt lat="31.7689600" lon="35.1413700">
<ele>502.250000</ele>
<time>2023-01-25T14:09:00.006Z</time>
</trkpt>
<trkpt lat="31.7689600" lon="35.1414900">
<ele>502.739990</ele>
<time>2023-01-25T14:09:00.006Z</time>
</trkpt>
<trkpt lat="31.7689600" lon="35.1416200">
<ele>503.320007</ele>
<time>2023-01-25T14:09:00.006Z</time>
</trkpt>
<trkpt lat="31.7689600" lon="35.1417500">
<ele>503.840027</ele>
<time>2023-01-25T14:09:00.006Z</time>
</trkpt>
<trkpt lat="31.7689400" lon="35.1419000">
<ele>503.940002</ele>
<time>2023-01-25T14:09:00.006Z</time>
</trkpt>
<trkpt lat="31.7689300" lon="35.1420200">
<ele>504.940002</ele>
<time>2023-01-25T14:09:00.006Z</time>
</trkpt>
<trkpt lat="31.7689200" lon="35.1421500">
<ele>506.549988</ele>
<time>2023-01-25T14:09:00.006Z</time>
</trkpt>
<trkpt lat="31.7689100" lon="35.1422600">
<ele>507.650024</ele>
<time>2023-01-25T14:09:00.006Z</time>
</trkpt>
<trkpt lat="31.7689000" lon="35.1423800">
<ele>508.339996</ele>
<time>2023-01-25T14:09:00.006Z</time>
</trkpt>
<trkpt lat="31.7688900" lon="35.1424900">
<ele>508.949982</ele>
<time>2023-01-25T14:09:00.006Z</time>
</trkpt>
<trkpt lat="31.7688900" lon="35.1426200">
<ele>510.739990</ele>
<time>2023-01-25T14:09:00.006Z</time>
</trkpt>
<trkpt lat="31.7689000" lon="35.1427400">
<ele>512.589966</ele>
<time>2023-01-25T14:09:00.006Z</time>
</trkpt>
<trkpt lat="31.7689000" lon="35.1428700">
<ele>514.700012</ele>
<time>2023-01-25T14:09:00.006Z</time>
</trkpt>
<trkpt lat="31.7689300" lon="35.1429900">
<ele>516.590027</ele>
<time>2023-01-25T14:09:00.006Z</time>
</trkpt>
<trkpt lat="31.7689900" lon="35.1431000">
<ele>516.489990</ele>
<time>2023-01-25T14:09:00.006Z</time>
</trkpt>
<trkpt lat="31.7690600" lon="35.1431900">
<ele>515.000000</ele>
<time>2023-01-25T14:09:00.006Z</time>
</trkpt>
<trkpt lat="31.7691400" lon="35.1432900">
<ele>513.519958</ele>
<time>2023-01-25T14:09:00.006Z</time>
</trkpt>
<trkpt lat="31.7692400" lon="35.1433900">
<ele>516.619995</ele>
<time>2023-01-25T14:09:00.006Z</time>
</trkpt>
<trkpt lat="31.7693300" lon="35.1434700">
<ele>520.589966</ele>
<time>2023-01-25T14:09:00.006Z</time>
</trkpt>
<trkpt lat="31.7694100" lon="35.1435200">
<ele>522.909973</ele>
<time>2023-01-25T14:09:00.006Z</time>
</trkpt>
<trkpt lat="31.7694900" lon="35.1435800">
<ele>525.299988</ele>
<time>2023-01-25T14:09:00.006Z</time>
</trkpt>
<trkpt lat="31.7695800" lon="35.1436300">
<ele>527.850037</ele>
<time>2023-01-25T14:09:00.006Z</time>
</trkpt>
<trkpt lat="31.7696700" lon="35.1436800">
<ele>530.239990</ele>
<time>2023-01-25T14:09:00.006Z</time>
</trkpt>
<trkpt lat="31.7697700" lon="35.1437200">
<ele>530.869995</ele>
<time>2023-01-25T14:09:00.006Z</time>
</trkpt>
<trkpt lat="31.7698600" lon="35.1437700">
<ele>530.729980</ele>
<time>2023-01-25T14:09:00.006Z</time>
</trkpt>
<trkpt lat="31.7699600" lon="35.1438200">
<ele>531.090027</ele>
<time>2023-01-25T14:09:00.006Z</time>
</trkpt>
<trkpt lat="31.7700600" lon="35.1438800">
<ele>531.900024</ele>
<time>2023-01-25T14:09:00.006Z</time>
</trkpt>
<trkpt lat="31.7701700" lon="35.1439300">
<ele>530.590027</ele>
<time>2023-01-25T14:09:00.006Z</time>
</trkpt>
<trkpt lat="31.7702600" lon="35.1439700">
<ele>529.510010</ele>
<time>2023-01-25T14:09:00.006Z</time>
</trkpt>
<trkpt lat="31.7703600" lon="35.1440200">
<ele>529.489990</ele>
<time>2023-01-25T14:09:00.006Z</time>
</trkpt>
<trkpt lat="31.7704700" lon="35.1440600">
<ele>529.460022</ele>
<time>2023-01-25T14:09:00.006Z</time>
</trkpt>
<trkpt lat="31.7705700" lon="35.1441000">
<ele>528.960022</ele>
<time>2023-01-25T14:09:00.006Z</time>
</trkpt>
<trkpt lat="31.7706700" lon="35.1441400">
<ele>526.489990</ele>
<time>2023-01-25T14:09:00.006Z</time>
</trkpt>
<trkpt lat="31.7707600" lon="35.1441900">
<ele>523.450012</ele>
<time>2023-01-25T14:09:00.006Z</time>
</trkpt>
<trkpt lat="31.7708500" lon="35.1442500">
<ele>520.549988</ele>
<time>2023-01-25T14:09:00.006Z</time>
</trkpt>
<trkpt lat="31.7709300" lon="35.1443200">
<ele>519.169983</ele>
<time>2023-01-25T14:09:00.006Z</time>
</trkpt>
<trkpt lat="31.7710100" lon="35.1444000">
<ele>516.940002</ele>
<time>2023-01-25T14:09:00.006Z</time>
</trkpt>
<trkpt lat="31.7711100" lon="35.1444800">
<ele>515.010010</ele>
<time>2023-01-25T14:09:00.006Z</time>
</trkpt>
<trkpt lat="31.7711900" lon="35.1445500">
<ele>516.160034</ele>
<time>2023-01-25T14:09:00.006Z</time>
</trkpt>
<trkpt lat="31.7712700" lon="35.1446400">
<ele>516.419983</ele>
<time>2023-01-25T14:09:00.006Z</time>
</trkpt>
<trkpt lat="31.7713400" lon="35.1447400">
<ele>515.729980</ele>
<time>2023-01-25T14:09:00.006Z</time>
</trkpt>
<trkpt lat="31.7714100" lon="35.1448400">
<ele>515.739990</ele>
<time>2023-01-25T14:09:00.006Z</time>
</trkpt>
<trkpt lat="31.7714500" lon="35.1449400">
<ele>515.890015</ele>
<time>2023-01-25T14:09:00.006Z</time>
</trkpt>
<trkpt lat="31.7714700" lon="35.1450600">
<ele>515.279968</ele>
<time>2023-01-25T14:09:00.006Z</time>
</trkpt>
<trkpt lat="31.7714800" lon="35.1452000">
<ele>514.299988</ele>
<time>2023-01-25T14:09:00.006Z</time>
</trkpt>
<trkpt lat="31.7714900" lon="35.1453100">
<ele>513.770020</ele>
<time>2023-01-25T14:09:00.006Z</time>
</trkpt>
<trkpt lat="31.7715000" lon="35.1454200">
<ele>514.000000</ele>
<time>2023-01-25T14:09:00.006Z</time>
</trkpt>
<trkpt lat="31.7715100" lon="35.1455300">
<ele>514.270020</ele>
<time>2023-01-25T14:09:00.006Z</time>
</trkpt>
<trkpt lat="31.7715100" lon="35.1456300">
<ele>514.609985</ele>
<time>2023-01-25T14:09:00.006Z</time>
</trkpt>
<trkpt lat="31.7715200" lon="35.1457400">
<ele>515.119995</ele>
<time>2023-01-25T14:09:00.006Z</time>
</trkpt>
<trkpt lat="31.7715400" lon="35.1458500">
<ele>515.570007</ele>
<time>2023-01-25T14:09:00.006Z</time>
</trkpt>
<trkpt lat="31.7715500" lon="35.1459600">
<ele>515.700012</ele>
<time>2023-01-25T14:09:00.006Z</time>
</trkpt>
<trkpt lat="31.7715600" lon="35.1460700">
<ele>515.750000</ele>
<time>2023-01-25T14:09:00.006Z</time>
</trkpt>
<trkpt lat="31.7715800" lon="35.1461900">
<ele>516.089966</ele>
<time>2023-01-25T14:09:00.006Z</time>
</trkpt>
<trkpt lat="31.7716000" lon="35.1462900">
<ele>516.429993</ele>
<time>2023-01-25T14:09:00.006Z</time>
</trkpt>
<trkpt lat="31.7716300" lon="35.1464000">
<ele>516.580017</ele>
<time>2023-01-25T14:09:00.006Z</time>
</trkpt>
<trkpt lat="31.7716700" lon="35.1465000">
<ele>516.429993</ele>
<time>2023-01-25T14:09:00.006Z</time>
</trkpt>
<trkpt lat="31.7717200" lon="35.1466100">
<ele>517.110046</ele>
<time>2023-01-25T14:09:00.006Z</time>
</trkpt>
<trkpt lat="31.7717600" lon="35.1467200">
<ele>517.780029</ele>
<time>2023-01-25T14:09:00.006Z</time>
</trkpt>
<trkpt lat="31.7718100" lon="35.1468100">
<ele>518.250000</ele>
<time>2023-01-25T14:09:00.006Z</time>
</trkpt>
<trkpt lat="31.7718700" lon="35.1469000">
<ele>518.020020</ele>
<time>2023-01-25T14:09:00.006Z</time>
</trkpt>
<trkpt lat="31.7719400" lon="35.1469800">
<ele>517.450012</ele>
<time>2023-01-25T14:09:00.006Z</time>
</trkpt>
<trkpt lat="31.7720100" lon="35.1470600">
<ele>518.940002</ele>
<time>2023-01-25T14:09:00.006Z</time>
</trkpt>
<trkpt lat="31.7720800" lon="35.1471400">
<ele>519.830017</ele>
<time>2023-01-25T14:09:00.006Z</time>
</trkpt>
<trkpt lat="31.7721400" lon="35.1472200">
<ele>520.000000</ele>
<time>2023-01-25T14:09:00.006Z</time>
</trkpt>
<trkpt lat="31.7722200" lon="35.1473100">
<ele>519.390015</ele>
<time>2023-01-25T14:09:00.006Z</time>
</trkpt>
<trkpt lat="31.7722900" lon="35.1473800">
<ele>519.809998</ele>
<time>2023-01-25T14:09:00.006Z</time>
</trkpt>
<trkpt lat="31.7723700" lon="35.1474600">
<ele>520.039978</ele>
<time>2023-01-25T14:09:00.006Z</time>
</trkpt>
<trkpt lat="31.7724600" lon="35.1475500">
<ele>520.570007</ele>
<time>2023-01-25T14:09:00.006Z</time>
</trkpt>
<trkpt lat="31.7725500" lon="35.1476300">
<ele>520.539978</ele>
<time>2023-01-25T14:09:00.006Z</time>
</trkpt>
<trkpt lat="31.7726300" lon="35.1477200">
<ele>519.929993</ele>
<time>2023-01-25T14:09:00.006Z</time>
</trkpt>
<trkpt lat="31.7727200" lon="35.1478100">
<ele>519.049988</ele>
<time>2023-01-25T14:09:00.006Z</time>
</trkpt>
<trkpt lat="31.7728200" lon="35.1479100">
<ele>518.200012</ele>
<time>2023-01-25T14:09:00.006Z</time>
</trkpt>
<trkpt lat="31.7729100" lon="35.1480000">
<ele>517.880005</ele>
<time>2023-01-25T14:09:00.006Z</time>
</trkpt>
<trkpt lat="31.7730100" lon="35.1480900">
<ele>517.920044</ele>
<time>2023-01-25T14:09:00.006Z</time>
</trkpt>
<trkpt lat="31.7731200" lon="35.1481700">
<ele>519.239990</ele>
<time>2023-01-25T14:09:00.006Z</time>
</trkpt>
<trkpt lat="31.7732300" lon="35.1482500">
<ele>520.640015</ele>
<time>2023-01-25T14:09:00.006Z</time>
</trkpt>
<trkpt lat="31.7733400" lon="35.1483200">
<ele>521.320007</ele>
<time>2023-01-25T14:09:00.006Z</time>
</trkpt>
<trkpt lat="31.7734100" lon="35.1483900">
<ele>521.510010</ele>
<time>2023-01-25T14:09:00.006Z</time>
</trkpt>
<trkpt lat="31.7734700" lon="35.1484800">
<ele>521.090027</ele>
<time>2023-01-25T14:09:00.006Z</time>
</trkpt>
<trkpt lat="31.7735300" lon="35.1485900">
<ele>520.190002</ele>
<time>2023-01-25T14:09:00.006Z</time>
</trkpt>
<trkpt lat="31.7735700" lon="35.1486900">
<ele>519.639954</ele>
<time>2023-01-25T14:09:00.006Z</time>
</trkpt>
<trkpt lat="31.7735800" lon="35.1488100">
<ele>518.559998</ele>
<time>2023-01-25T14:09:00.006Z</time>
</trkpt>
<trkpt lat="31.7736000" lon="35.1489300">
<ele>517.630005</ele>
<time>2023-01-25T14:09:00.006Z</time>
</trkpt>
<trkpt lat="31.7736100" lon="35.1490500">
<ele>516.830017</ele>
<time>2023-01-25T14:09:00.006Z</time>
</trkpt>
<trkpt lat="31.7736200" lon="35.1491600">
<ele>516.109985</ele>
<time>2023-01-25T14:09:00.006Z</time>
</trkpt>
<trkpt lat="31.7736300" lon="35.1492700">
<ele>516.510010</ele>
<time>2023-01-25T14:09:00.006Z</time>
</trkpt>
<trkpt lat="31.7736500" lon="35.1494000">
<ele>517.119995</ele>
<time>2023-01-25T14:09:00.006Z</time>
</trkpt>
<trkpt lat="31.7736700" lon="35.1495300">
<ele>517.799988</ele>
<time>2023-01-25T14:09:00.006Z</time>
</trkpt>
<trkpt lat="31.7737000" lon="35.1496400">
<ele>518.570007</ele>
<time>2023-01-25T14:09:00.006Z</time>
</trkpt>
<trkpt lat="31.7737400" lon="35.1497300">
<ele>519.390015</ele>
<time>2023-01-25T14:09:00.006Z</time>
</trkpt>
<trkpt lat="31.7737900" lon="35.1498200">
<ele>519.929993</ele>
<time>2023-01-25T14:09:00.006Z</time>
</trkpt>
<trkpt lat="31.7738600" lon="35.1499300">
<ele>520.690002</ele>
<time>2023-01-25T14:09:00.006Z</time>
</trkpt>
<trkpt lat="31.7739100" lon="35.1500100">
<ele>521.239990</ele>
<time>2023-01-25T14:09:00.006Z</time>
</trkpt>
<trkpt lat="31.7739700" lon="35.1501000">
<ele>521.659973</ele>
<time>2023-01-25T14:09:00.006Z</time>
</trkpt>
<trkpt lat="31.7740000" lon="35.1501900">
<ele>521.779968</ele>
<time>2023-01-25T14:09:00.006Z</time>
</trkpt>
<trkpt lat="31.7740100" lon="35.1503000">
<ele>521.619995</ele>
<time>2023-01-25T14:09:00.006Z</time>
</trkpt>
<trkpt lat="31.7739700" lon="35.1504000">
<ele>520.750000</ele>
<time>2023-01-25T14:09:00.006Z</time>
</trkpt>
<trkpt lat="31.7739000" lon="35.1504500">
<ele>519.239990</ele>
<time>2023-01-25T14:09:00.006Z</time>
</trkpt>
<trkpt lat="31.7738000" lon="35.1505400">
<ele>517.400024</ele>
<time>2023-01-25T14:09:00.006Z</time>
</trkpt>
<trkpt lat="31.7737200" lon="35.1506400">
<ele>516.450012</ele>
<time>2023-01-25T14:09:00.006Z</time>
</trkpt>
<trkpt lat="31.7736500" lon="35.1507300">
<ele>515.869995</ele>
<time>2023-01-25T14:09:00.006Z</time>
</trkpt>
<trkpt lat="31.7736000" lon="35.1508200">
<ele>515.910034</ele>
<time>2023-01-25T14:09:00.006Z</time>
</trkpt>
<trkpt lat="31.7735600" lon="35.1509500">
<ele>517.110046</ele>
<time>2023-01-25T14:09:00.006Z</time>
</trkpt>
<trkpt lat="31.7735600" lon="35.1510800">
<ele>518.340027</ele>
<time>2023-01-25T14:09:00.006Z</time>
</trkpt>
<trkpt lat="31.7735500" lon="35.1512100">
<ele>519.270020</ele>
<time>2023-01-25T14:09:00.006Z</time>
</trkpt>
<trkpt lat="31.7735500" lon="35.1513500">
<ele>520.279968</ele>
<time>2023-01-25T14:09:00.006Z</time>
</trkpt>
<trkpt lat="31.7735500" lon="35.1514700">
<ele>520.690002</ele>
<time>2023-01-25T14:09:00.006Z</time>
</trkpt>
<trkpt lat="31.7735500" lon="35.1515900">
<ele>520.880005</ele>
<time>2023-01-25T14:09:00.006Z</time>
</trkpt>
<trkpt lat="31.7735500" lon="35.1517200">
<ele>520.739990</ele>
<time>2023-01-25T14:09:00.006Z</time>
</trkpt>
<trkpt lat="31.7735500" lon="35.1518200">
<ele>520.260010</ele>
<time>2023-01-25T14:09:00.006Z</time>
</trkpt>
<trkpt lat="31.7735500" lon="35.1519300">
<ele>519.729980</ele>
<time>2023-01-25T14:09:00.006Z</time>
</trkpt>
<trkpt lat="31.7735500" lon="35.1520600">
<ele>519.979980</ele>
<time>2023-01-25T14:09:00.006Z</time>
</trkpt>
<trkpt lat="31.7735300" lon="35.1521800">
<ele>520.479980</ele>
<time>2023-01-25T14:09:00.006Z</time>
</trkpt>
<trkpt lat="31.7735200" lon="35.1522800">
<ele>520.579956</ele>
<time>2023-01-25T14:09:00.006Z</time>
</trkpt>
<trkpt lat="31.7734900" lon="35.1523900">
<ele>520.790039</ele>
<time>2023-01-25T14:09:00.006Z</time>
</trkpt>
<trkpt lat="31.7734500" lon="35.1524900">
<ele>521.309998</ele>
<time>2023-01-25T14:09:00.006Z</time>
</trkpt>
<trkpt lat="31.7733900" lon="35.1525900">
<ele>521.409973</ele>
<time>2023-01-25T14:09:00.006Z</time>
</trkpt>
<trkpt lat="31.7733400" lon="35.1527000">
<ele>520.799988</ele>
<time>2023-01-25T14:09:00.006Z</time>
</trkpt>
<trkpt lat="31.7733100" lon="35.1528000">
<ele>519.989990</ele>
<time>2023-01-25T14:09:00.006Z</time>
</trkpt>
<trkpt lat="31.7732600" lon="35.1529100">
<ele>519.869995</ele>
<time>2023-01-25T14:09:00.006Z</time>
</trkpt>
<trkpt lat="31.7732000" lon="35.1530200">
<ele>519.580017</ele>
<time>2023-01-25T14:09:00.006Z</time>
</trkpt>
<trkpt lat="31.7731400" lon="35.1531000">
<ele>519.460022</ele>
<time>2023-01-25T14:09:00.006Z</time>
</trkpt>
<trkpt lat="31.7730700" lon="35.1531900">
<ele>519.540039</ele>
<time>2023-01-25T14:09:00.006Z</time>
</trkpt>
<trkpt lat="31.7729800" lon="35.1532800">
<ele>519.469971</ele>
<time>2023-01-25T14:09:00.006Z</time>
</trkpt>
<trkpt lat="31.7729000" lon="35.1533400">
<ele>518.880005</ele>
<time>2023-01-25T14:09:00.006Z</time>
</trkpt>
<trkpt lat="31.7728100" lon="35.1534100">
<ele>518.229980</ele>
<time>2023-01-25T14:09:00.006Z</time>
</trkpt>
<trkpt lat="31.7727200" lon="35.1534700">
<ele>518.419983</ele>
<time>2023-01-25T14:09:00.006Z</time>
</trkpt>
<trkpt lat="31.7726300" lon="35.1535300">
<ele>518.839966</ele>
<time>2023-01-25T14:09:00.006Z</time>
</trkpt>
<trkpt lat="31.7725400" lon="35.1535700">
<ele>519.109985</ele>
<time>2023-01-25T14:09:00.006Z</time>
</trkpt>
<trkpt lat="31.7724400" lon="35.1536300">
<ele>518.989990</ele>
<time>2023-01-25T14:09:00.006Z</time>
</trkpt>
<trkpt lat="31.7723600" lon="35.1536500">
<ele>519.130005</ele>
<time>2023-01-25T14:09:00.006Z</time>
</trkpt>
<trkpt lat="31.7722700" lon="35.1536600">
<ele>519.250000</ele>
<time>2023-01-25T14:09:00.006Z</time>
</trkpt>
<trkpt lat="31.7721700" lon="35.1536700">
<ele>521.179993</ele>
<time>2023-01-25T14:09:00.006Z</time>
</trkpt>
<trkpt lat="31.7720600" lon="35.1536700">
<ele>524.760010</ele>
<time>2023-01-25T14:09:00.006Z</time>
</trkpt>
<trkpt lat="31.7719700" lon="35.1536800">
<ele>527.479980</ele>
<time>2023-01-25T14:09:00.006Z</time>
</trkpt>
<trkpt lat="31.7718800" lon="35.1536800">
<ele>528.200012</ele>
<time>2023-01-25T14:09:00.006Z</time>
</trkpt>
<trkpt lat="31.7717800" lon="35.1536900">
<ele>527.919983</ele>
<time>2023-01-25T14:09:00.006Z</time>
</trkpt>
<trkpt lat="31.7716800" lon="35.1536900">
<ele>527.869995</ele>
<time>2023-01-25T14:09:00.006Z</time>
</trkpt>
<trkpt lat="31.7715800" lon="35.1536900">
<ele>530.309998</ele>
<time>2023-01-25T14:09:00.006Z</time>
</trkpt>
<trkpt lat="31.7714800" lon="35.1536900">
<ele>533.130005</ele>
<time>2023-01-25T14:09:00.006Z</time>
</trkpt>
<trkpt lat="31.7713700" lon="35.1536900">
<ele>535.779968</ele>
<time>2023-01-25T14:09:00.006Z</time>
</trkpt>
<trkpt lat="31.7712800" lon="35.1536900">
<ele>536.160034</ele>
<time>2023-01-25T14:09:00.006Z</time>
</trkpt>
<trkpt lat="31.7711800" lon="35.1536900">
<ele>536.580017</ele>
<time>2023-01-25T14:09:00.006Z</time>
</trkpt>
<trkpt lat="31.7710700" lon="35.1536800">
<ele>536.899963</ele>
<time>2023-01-25T14:09:00.006Z</time>
</trkpt>
<trkpt lat="31.7709800" lon="35.1536900">
<ele>536.530029</ele>
<time>2023-01-25T14:09:00.006Z</time>
</trkpt>
<trkpt lat="31.7708800" lon="35.1536900">
<ele>536.270020</ele>
<time>2023-01-25T14:09:00.006Z</time>
</trkpt>
<trkpt lat="31.7707800" lon="35.1536900">
<ele>535.739990</ele>
<time>2023-01-25T14:09:00.006Z</time>
</trkpt>
<trkpt lat="31.7706600" lon="35.1537100">
<ele>534.729980</ele>
<time>2023-01-25T14:09:00.006Z</time>
</trkpt>
<trkpt lat="31.7705700" lon="35.1537400">
<ele>534.080017</ele>
<time>2023-01-25T14:09:00.006Z</time>
</trkpt>
<trkpt lat="31.7704600" lon="35.1537800">
<ele>534.130005</ele>
<time>2023-01-25T14:09:00.006Z</time>
</trkpt>
<trkpt lat="31.7703600" lon="35.1538300">
<ele>534.149963</ele>
<time>2023-01-25T14:09:00.006Z</time>
</trkpt>
<trkpt lat="31.7702600" lon="35.1538800">
<ele>534.419983</ele>
<time>2023-01-25T14:09:00.006Z</time>
</trkpt>
<trkpt lat="31.7701800" lon="35.1539300">
<ele>536.349976</ele>
<time>2023-01-25T14:09:00.006Z</time>
</trkpt>
<trkpt lat="31.7700900" lon="35.1539500">
<ele>538.119995</ele>
<time>2023-01-25T14:09:00.006Z</time>
</trkpt>
<trkpt lat="31.7700100" lon="35.1539900">
<ele>539.469971</ele>
<time>2023-01-25T14:09:00.006Z</time>
</trkpt>
<trkpt lat="31.7699200" lon="35.1539900">
<ele>540.969971</ele>
<time>2023-01-25T14:09:00.006Z</time>
</trkpt>
<trkpt lat="31.7699100" lon="35.1539000">
<ele>541.570007</ele>
<time>2023-01-25T14:09:00.006Z</time>
</trkpt>
<trkpt lat="31.7699000" lon="35.1537900">
<ele>542.380005</ele>
<time>2023-01-25T14:09:00.006Z</time>
</trkpt>
<trkpt lat="31.7699000" lon="35.1537600">
<ele>542.559998</ele>
<time>2023-01-25T14:09:00.006Z</time>
</trkpt>
<trkpt lat="31.7699000" lon="35.1537000">
<ele>542.920044</ele>
<time>2023-01-25T14:09:00.006Z</time>
</trkpt>
<trkpt lat="31.7699100" lon="35.1535700">
<ele>543.340027</ele>
<time>2023-01-25T14:09:00.006Z</time>
</trkpt>
<trkpt lat="31.7699300" lon="35.1534500">
<ele>543.149963</ele>
<time>2023-01-25T14:09:00.006Z</time>
</trkpt>
<trkpt lat="31.7699600" lon="35.1533400">
<ele>542.719971</ele>
<time>2023-01-25T14:09:00.006Z</time>
</trkpt>
<trkpt lat="31.7700000" lon="35.1532600">
<ele>542.790039</ele>
<time>2023-01-25T14:09:00.006Z</time>
</trkpt>
<trkpt lat="31.7700200" lon="35.1532300">
<ele>542.979980</ele>
<time>2023-01-25T14:09:00.006Z</time>
</trkpt>
<trkpt lat="31.7700600" lon="35.1531100">
<ele>544.280029</ele>
<time>2023-01-25T14:09:00.006Z</time>
</trkpt>
<trkpt lat="31.7700300" lon="35.1529100">
<ele>545.750000</ele>
<time>2023-01-25T14:09:00.006Z</time>
</trkpt>
<trkpt lat="31.7699500" lon="35.1528400">
<ele>546.040039</ele>
<time>2023-01-25T14:09:00.006Z</time>
</trkpt>
<trkpt lat="31.7700600" lon="35.1526700">
<ele>547.250000</ele>
<time>2023-01-25T14:09:00.006Z</time>
</trkpt>
<trkpt lat="31.7700800" lon="35.1526100">
<ele>547.760010</ele>
<time>2023-01-25T14:09:00.006Z</time>
</trkpt>
<trkpt lat="31.7703700" lon="35.1523200">
<ele>554.869995</ele>
<time>2023-01-25T14:09:00.006Z</time>
</trkpt>
<trkpt lat="31.7705000" lon="35.1520800">
<ele>559.440002</ele>
<time>2023-01-25T14:09:00.006Z</time>
</trkpt>
<trkpt lat="31.7709900" lon="35.1519700">
<ele>560.289978</ele>
<time>2023-01-25T14:09:00.006Z</time>
</trkpt>
<trkpt lat="31.7713000" lon="35.1518300">
<ele>563.809998</ele>
<time>2023-01-25T14:09:00.006Z</time>
</trkpt>
<trkpt lat="31.7713500" lon="35.1517500">
<ele>563.989990</ele>
<time>2023-01-25T14:09:00.006Z</time>
</trkpt>
<trkpt lat="31.7713500" lon="35.1516600">
<ele>564.510010</ele>
<time>2023-01-25T14:09:00.006Z</time>
</trkpt>
<trkpt lat="31.7713500" lon="35.1516200">
<ele>565.019958</ele>
<time>2023-01-25T14:09:00.006Z</time>
</trkpt>
<trkpt lat="31.7713300" lon="35.1515600">
<ele>565.929993</ele>
<time>2023-01-25T14:09:00.006Z</time>
</trkpt>
<trkpt lat="31.7710700" lon="35.1514900">
<ele>567.369995</ele>
<time>2023-01-25T14:09:00.006Z</time>
</trkpt>
<trkpt lat="31.7710100" lon="35.1514000">
<ele>567.890015</ele>
<time>2023-01-25T14:09:00.006Z</time>
</trkpt>
<trkpt lat="31.7709800" lon="35.1512900">
<ele>569.070007</ele>
<time>2023-01-25T14:09:00.006Z</time>
</trkpt>
<trkpt lat="31.7709700" lon="35.1509700">
<ele>573.289978</ele>
<time>2023-01-25T14:09:00.006Z</time>
</trkpt>
<trkpt lat="31.7709500" lon="35.1508400">
<ele>575.469971</ele>
<time>2023-01-25T14:09:00.006Z</time>
</trkpt>
<trkpt lat="31.7709000" lon="35.1507400">
<ele>577.280029</ele>
<time>2023-01-25T14:09:00.006Z</time>
</trkpt>
<trkpt lat="31.7708200" lon="35.1506500">
<ele>579.220032</ele>
<time>2023-01-25T14:09:00.006Z</time>
</trkpt>
<trkpt lat="31.7707600" lon="35.1506300">
<ele>579.200012</ele>
<time>2023-01-25T14:09:00.006Z</time>
</trkpt>
<trkpt lat="31.7706900" lon="35.1506200">
<ele>578.929993</ele>
<time>2023-01-25T14:09:00.006Z</time>
</trkpt>
<trkpt lat="31.7706100" lon="35.1506100">
<ele>578.570007</ele>
<time>2023-01-25T14:09:00.006Z</time>
</trkpt>
<trkpt lat="31.7704500" lon="35.1503900">
<ele>579.600037</ele>
<time>2023-01-25T14:09:00.006Z</time>
</trkpt>
<trkpt lat="31.7704400" lon="35.1501600">
<ele>580.349976</ele>
<time>2023-01-25T14:09:00.006Z</time>
</trkpt>
<trkpt lat="31.7704000" lon="35.1500800">
<ele>580.799988</ele>
<time>2023-01-25T14:09:00.006Z</time>
</trkpt>
<trkpt lat="31.7703800" lon="35.1499100">
<ele>581.260010</ele>
<time>2023-01-25T14:09:00.006Z</time>
</trkpt>
<trkpt lat="31.7703600" lon="35.1498400">
<ele>581.410034</ele>
<time>2023-01-25T14:09:00.006Z</time>
</trkpt>
<trkpt lat="31.7703400" lon="35.1497100">
<ele>581.489990</ele>
<time>2023-01-25T14:09:00.006Z</time>
</trkpt>
<trkpt lat="31.7702500" lon="35.1495800">
<ele>581.690002</ele>
<time>2023-01-25T14:09:00.006Z</time>
</trkpt>
<trkpt lat="31.7699800" lon="35.1490100">
<ele>584.650024</ele>
<time>2023-01-25T14:09:00.006Z</time>
</trkpt>
<trkpt lat="31.7699700" lon="35.1484200">
<ele>584.549988</ele>
<time>2023-01-25T14:09:00.006Z</time>
</trkpt>
<trkpt lat="31.7699600" lon="35.1480900">
<ele>586.630005</ele>
<time>2023-01-25T14:09:00.006Z</time>
</trkpt>
<trkpt lat="31.7699400" lon="35.1476300">
<ele>588.510010</ele>
<time>2023-01-25T14:09:00.006Z</time>
</trkpt>
<trkpt lat="31.7699100" lon="35.1474000">
<ele>589.150024</ele>
<time>2023-01-25T14:09:00.006Z</time>
</trkpt>
<trkpt lat="31.7697900" lon="35.1470400">
<ele>592.029968</ele>
<time>2023-01-25T14:09:00.006Z</time>
</trkpt>
<trkpt lat="31.7695300" lon="35.1467400">
<ele>595.309998</ele>
<time>2023-01-25T14:09:00.006Z</time>
</trkpt>
<trkpt lat="31.7688800" lon="35.1458500">
<ele>598.309998</ele>
<time>2023-01-25T14:09:00.006Z</time>
</trkpt>
<trkpt lat="31.7687500" lon="35.1457200">
<ele>596.140015</ele>
<time>2023-01-25T14:09:00.006Z</time>
</trkpt>
<trkpt lat="31.7684400" lon="35.1454900">
<ele>592.969971</ele>
<time>2023-01-25T14:09:00.006Z</time>
</trkpt>
<trkpt lat="31.7682400" lon="35.1453600">
<ele>592.150024</ele>
<time>2023-01-25T14:09:00.006Z</time>
</trkpt>
<trkpt lat="31.7677200" lon="35.1451600">
<ele>592.979980</ele>
<time>2023-01-25T14:09:00.006Z</time>
</trkpt>
<trkpt lat="31.7673900" lon="35.1450100">
<ele>596.869995</ele>
<time>2023-01-25T14:09:00.006Z</time>
</trkpt>
<trkpt lat="31.7673300" lon="35.1449800">
<ele>597.789978</ele>
<time>2023-01-25T14:09:00.006Z</time>
</trkpt>
<trkpt lat="31.7672300" lon="35.1449200">
<ele>598.869995</ele>
<time>2023-01-25T14:09:00.006Z</time>
</trkpt>
<trkpt lat="31.7671200" lon="35.1448500">
<ele>598.979980</ele>
<time>2023-01-25T14:09:00.006Z</time>
</trkpt>
<trkpt lat="31.7670200" lon="35.1447800">
<ele>598.599976</ele>
<time>2023-01-25T14:09:00.006Z</time>
</trkpt>
<trkpt lat="31.7669300" lon="35.1447200">
<ele>598.289978</ele>
<time>2023-01-25T14:09:00.006Z</time>
</trkpt>
<trkpt lat="31.7668600" lon="35.1446600">
<ele>598.109985</ele>
<time>2023-01-25T14:09:00.006Z</time>
</trkpt>
<trkpt lat="31.7667700" lon="35.1445600">
<ele>597.140015</ele>
<time>2023-01-25T14:09:00.006Z</time>
</trkpt>
<trkpt lat="31.7667000" lon="35.1444800">
<ele>596.309998</ele>
<time>2023-01-25T14:09:00.006Z</time>
</trkpt>
<trkpt lat="31.7666300" lon="35.1443800">
<ele>595.330017</ele>
<time>2023-01-25T14:09:00.006Z</time>
</trkpt>
<trkpt lat="31.7665600" lon="35.1442800">
<ele>594.720032</ele>
<time>2023-01-25T14:09:00.006Z</time>
</trkpt>
<trkpt lat="31.7665000" lon="35.1441700">
<ele>593.500000</ele>
<time>2023-01-25T14:09:00.006Z</time>
</trkpt>
<trkpt lat="31.7664800" lon="35.1440500">
<ele>593.070007</ele>
<time>2023-01-25T14:09:00.006Z</time>
</trkpt>
<trkpt lat="31.7664700" lon="35.1439400">
<ele>592.500000</ele>
<time>2023-01-25T14:09:00.006Z</time>
</trkpt>
<trkpt lat="31.7664700" lon="35.1438300">
<ele>592.349976</ele>
<time>2023-01-25T14:09:00.006Z</time>
</trkpt>
<trkpt lat="31.7664600" lon="35.1437200">
<ele>593.200012</ele>
<time>2023-01-25T14:09:00.006Z</time>
</trkpt>
<trkpt lat="31.7664600" lon="35.1436000">
<ele>593.729980</ele>
<time>2023-01-25T14:09:00.006Z</time>
</trkpt>
<trkpt lat="31.7664500" lon="35.1434900">
<ele>594.309998</ele>
<time>2023-01-25T14:09:00.006Z</time>
</trkpt>
<trkpt lat="31.7664500" lon="35.1433700">
<ele>594.590027</ele>
<time>2023-01-25T14:09:00.006Z</time>
</trkpt>
<trkpt lat="31.7664500" lon="35.1432600">
<ele>594.619995</ele>
<time>2023-01-25T14:09:00.006Z</time>
</trkpt>
<trkpt lat="31.7664600" lon="35.1431600">
<ele>594.299988</ele>
<time>2023-01-25T14:09:00.006Z</time>
</trkpt>
<trkpt lat="31.7664600" lon="35.1430400">
<ele>594.309998</ele>
<time>2023-01-25T14:09:00.006Z</time>
</trkpt>
<trkpt lat="31.7664700" lon="35.1429100">
<ele>594.850037</ele>
<time>2023-01-25T14:09:00.006Z</time>
</trkpt>
<trkpt lat="31.7664700" lon="35.1427900">
<ele>595.589966</ele>
<time>2023-01-25T14:09:00.006Z</time>
</trkpt>
<trkpt lat="31.7664700" lon="35.1426500">
<ele>595.660034</ele>
<time>2023-01-25T14:09:00.006Z</time>
</trkpt>
<trkpt lat="31.7664700" lon="35.1425300">
<ele>595.660034</ele>
<time>2023-01-25T14:09:00.006Z</time>
</trkpt>
<trkpt lat="31.7664800" lon="35.1424000">
<ele>595.380005</ele>
<time>2023-01-25T14:09:00.006Z</time>
</trkpt>
<trkpt lat="31.7664800" lon="35.1422900">
<ele>595.380005</ele>
<time>2023-01-25T14:09:00.006Z</time>
</trkpt>
<trkpt lat="31.7664900" lon="35.1421800">
<ele>595.049988</ele>
<time>2023-01-25T14:09:00.006Z</time>
</trkpt>
<trkpt lat="31.7664900" lon="35.1420400">
<ele>594.909973</ele>
<time>2023-01-25T14:09:00.006Z</time>
</trkpt>
<trkpt lat="31.7665000" lon="35.1419000">
<ele>594.980042</ele>
<time>2023-01-25T14:09:00.006Z</time>
</trkpt>
<trkpt lat="31.7665200" lon="35.1417700">
<ele>595.719971</ele>
<time>2023-01-25T14:09:00.006Z</time>
</trkpt>
<trkpt lat="31.7665300" lon="35.1416400">
<ele>596.850037</ele>
<time>2023-01-25T14:09:00.006Z</time>
</trkpt>
<trkpt lat="31.7665600" lon="35.1415300">
<ele>598.000000</ele>
<time>2023-01-25T14:09:00.006Z</time>
</trkpt>
<trkpt lat="31.7666100" lon="35.1414100">
<ele>599.260010</ele>
<time>2023-01-25T14:09:00.006Z</time>
</trkpt>
<trkpt lat="31.7666400" lon="35.1413000">
<ele>600.219971</ele>
<time>2023-01-25T14:09:00.006Z</time>
</trkpt>
<trkpt lat="31.7666900" lon="35.1411800">
<ele>600.789978</ele>
<time>2023-01-25T14:09:00.006Z</time>
</trkpt>
<trkpt lat="31.7667200" lon="35.1410800">
<ele>601.350037</ele>
<time>2023-01-25T14:09:00.006Z</time>
</trkpt>
<trkpt lat="31.7667600" lon="35.1409700">
<ele>601.669983</ele>
<time>2023-01-25T14:09:00.006Z</time>
</trkpt>
<trkpt lat="31.7667900" lon="35.1408700">
<ele>602.000000</ele>
<time>2023-01-25T14:09:00.006Z</time>
</trkpt>
<trkpt lat="31.7668300" lon="35.1407600">
<ele>600.899963</ele>
<time>2023-01-25T14:09:00.006Z</time>
</trkpt>
<trkpt lat="31.7668500" lon="35.1406500">
<ele>599.510010</ele>
<time>2023-01-25T14:09:00.006Z</time>
</trkpt>
<trkpt lat="31.7668600" lon="35.1405400">
<ele>598.350037</ele>
<time>2023-01-25T14:09:00.006Z</time>
</trkpt>
<trkpt lat="31.7668600" lon="35.1404200">
<ele>597.750000</ele>
<time>2023-01-25T14:09:00.006Z</time>
</trkpt>
<trkpt lat="31.7668600" lon="35.1403100">
<ele>597.200012</ele>
<time>2023-01-25T14:09:00.006Z</time>
</trkpt>
<trkpt lat="31.7668500" lon="35.1401900">
<ele>597.079956</ele>
<time>2023-01-25T14:09:00.006Z</time>
</trkpt>
<trkpt lat="31.7668400" lon="35.1400700">
<ele>597.010010</ele>
<time>2023-01-25T14:09:00.006Z</time>
</trkpt>
<trkpt lat="31.7668000" lon="35.1399600">
<ele>598.270020</ele>
<time>2023-01-25T14:09:00.006Z</time>
</trkpt>
<trkpt lat="31.7667700" lon="35.1398600">
<ele>599.600037</ele>
<time>2023-01-25T14:09:00.006Z</time>
</trkpt>
<trkpt lat="31.7667500" lon="35.1397400">
<ele>600.660034</ele>
<time>2023-01-25T14:09:00.006Z</time>
</trkpt>
<trkpt lat="31.7667200" lon="35.1396300">
<ele>600.960022</ele>
<time>2023-01-25T14:09:00.006Z</time>
</trkpt>
<trkpt lat="31.7666900" lon="35.1395200">
<ele>600.950012</ele>
<time>2023-01-25T14:09:00.006Z</time>
</trkpt>
<trkpt lat="31.7666400" lon="35.1394100">
<ele>601.119995</ele>
<time>2023-01-25T14:09:00.006Z</time>
</trkpt>
<trkpt lat="31.7665900" lon="35.1392900">
<ele>600.119995</ele>
<time>2023-01-25T14:09:00.006Z</time>
</trkpt>
<trkpt lat="31.7665300" lon="35.1391900">
<ele>599.450012</ele>
<time>2023-01-25T14:09:00.006Z</time>
</trkpt>
<trkpt lat="31.7664600" lon="35.1390800">
<ele>598.200012</ele>
<time>2023-01-25T14:09:00.006Z</time>
</trkpt>
<trkpt lat="31.7663900" lon="35.1389900">
<ele>597.520020</ele>
<time>2023-01-25T14:09:00.006Z</time>
</trkpt>
<trkpt lat="31.7663000" lon="35.1389200">
<ele>596.070007</ele>
<time>2023-01-25T14:09:00.006Z</time>
</trkpt>
<trkpt lat="31.7662100" lon="35.1388700">
<ele>595.010010</ele>
<time>2023-01-25T14:09:00.006Z</time>
</trkpt>
<trkpt lat="31.7661100" lon="35.1388400">
<ele>594.239990</ele>
<time>2023-01-25T14:09:00.006Z</time>
</trkpt>
<trkpt lat="31.7659900" lon="35.1388000">
<ele>593.059998</ele>
<time>2023-01-25T14:09:00.006Z</time>
</trkpt>
<trkpt lat="31.7659000" lon="35.1387800">
<ele>592.809998</ele>
<time>2023-01-25T14:09:00.006Z</time>
</trkpt>
<trkpt lat="31.7658000" lon="35.1387400">
<ele>592.609985</ele>
<time>2023-01-25T14:09:00.006Z</time>
</trkpt>
<trkpt lat="31.7656700" lon="35.1387200">
<ele>593.239990</ele>
<time>2023-01-25T14:09:00.006Z</time>
</trkpt>
<trkpt lat="31.7655500" lon="35.1387200">
<ele>593.969971</ele>
<time>2023-01-25T14:09:00.006Z</time>
</trkpt>
<trkpt lat="31.7654300" lon="35.1387200">
<ele>590.419983</ele>
<time>2023-01-25T14:09:00.006Z</time>
</trkpt>
<trkpt lat="31.7652900" lon="35.1387300">
<ele>586.640015</ele>
<time>2023-01-25T14:09:00.006Z</time>
</trkpt>
<trkpt lat="31.7651600" lon="35.1387400">
<ele>581.289978</ele>
<time>2023-01-25T14:09:00.006Z</time>
</trkpt>
<trkpt lat="31.7650200" lon="35.1387600">
<ele>575.859985</ele>
<time>2023-01-25T14:09:00.006Z</time>
</trkpt>
<trkpt lat="31.7648900" lon="35.1387900">
<ele>574.109985</ele>
<time>2023-01-25T14:09:00.006Z</time>
</trkpt>
<trkpt lat="31.7647600" lon="35.1388100">
<ele>572.500000</ele>
<time>2023-01-25T14:09:00.006Z</time>
</trkpt>
<trkpt lat="31.7646300" lon="35.1388400">
<ele>572.309998</ele>
<time>2023-01-25T14:09:00.006Z</time>
</trkpt>
<trkpt lat="31.7645000" lon="35.1388700">
<ele>572.530029</ele>
<time>2023-01-25T14:09:00.006Z</time>
</trkpt>
<trkpt lat="31.7643700" lon="35.1389100">
<ele>574.150024</ele>
<time>2023-01-25T14:09:00.006Z</time>
</trkpt>
<trkpt lat="31.7642400" lon="35.1389500">
<ele>576.029968</ele>
<time>2023-01-25T14:09:00.006Z</time>
</trkpt>
<trkpt lat="31.7641300" lon="35.1389700">
<ele>577.239990</ele>
<time>2023-01-25T14:09:00.006Z</time>
</trkpt>
<trkpt lat="31.7640100" lon="35.1389800">
<ele>578.979980</ele>
<time>2023-01-25T14:09:00.006Z</time>
</trkpt>
<trkpt lat="31.7639100" lon="35.1389900">
<ele>580.250000</ele>
<time>2023-01-25T14:09:00.006Z</time>
</trkpt>
<trkpt lat="31.7638100" lon="35.1390000">
<ele>580.030029</ele>
<time>2023-01-25T14:09:00.006Z</time>
</trkpt>
<trkpt lat="31.7637100" lon="35.1390000">
<ele>579.309998</ele>
<time>2023-01-25T14:09:00.006Z</time>
</trkpt>
<trkpt lat="31.7636200" lon="35.1390000">
<ele>578.660034</ele>
<time>2023-01-25T14:09:00.006Z</time>
</trkpt>
<trkpt lat="31.7635100" lon="35.1390000">
<ele>577.290039</ele>
<time>2023-01-25T14:09:00.006Z</time>
</trkpt>
<trkpt lat="31.7634400" lon="35.1389900">
<ele>576.220032</ele>
<time>2023-01-25T14:09:00.006Z</time>
</trkpt>
<trkpt lat="31.7633500" lon="35.1389800">
<ele>574.860046</ele>
<time>2023-01-25T14:09:00.006Z</time>
</trkpt>
<trkpt lat="31.7633200" lon="35.1389700">
<ele>574.500000</ele>
<time>2023-01-25T14:09:00.006Z</time>
</trkpt>
<trkpt lat="31.7632100" lon="35.1389500">
<ele>574.239990</ele>
<time>2023-01-25T14:09:00.006Z</time>
</trkpt>
<trkpt lat="31.7630700" lon="35.1389400">
<ele>574.020020</ele>
<time>2023-01-25T14:09:00.006Z</time>
</trkpt>
<trkpt lat="31.7629800" lon="35.1389300">
<ele>573.190002</ele>
<time>2023-01-25T14:09:00.006Z</time>
</trkpt>
<trkpt lat="31.7628800" lon="35.1389300">
<ele>572.619995</ele>
<time>2023-01-25T14:09:00.006Z</time>
</trkpt>
<trkpt lat="31.7627800" lon="35.1389300">
<ele>572.049988</ele>
<time>2023-01-25T14:09:00.006Z</time>
</trkpt>
<trkpt lat="31.7626700" lon="35.1389300">
<ele>569.320007</ele>
<time>2023-01-25T14:09:00.006Z</time>
</trkpt>
<trkpt lat="31.7625600" lon="35.1389500">
<ele>567.049988</ele>
<time>2023-01-25T14:09:00.006Z</time>
</trkpt>
<trkpt lat="31.7624400" lon="35.1389600">
<ele>565.520020</ele>
<time>2023-01-25T14:09:00.006Z</time>
</trkpt>
<trkpt lat="31.7623300" lon="35.1389900">
<ele>565.709961</ele>
<time>2023-01-25T14:09:00.006Z</time>
</trkpt>
<trkpt lat="31.7622100" lon="35.1390300">
<ele>566.000000</ele>
<time>2023-01-25T14:09:00.006Z</time>
</trkpt>
<trkpt lat="31.7621000" lon="35.1390700">
<ele>566.340027</ele>
<time>2023-01-25T14:09:00.006Z</time>
</trkpt>
<trkpt lat="31.7620000" lon="35.1391400">
<ele>566.980042</ele>
<time>2023-01-25T14:09:00.006Z</time>
</trkpt>
<trkpt lat="31.7619100" lon="35.1392200">
<ele>567.719971</ele>
<time>2023-01-25T14:09:00.006Z</time>
</trkpt>
<trkpt lat="31.7618400" lon="35.1392600">
<ele>568.090027</ele>
<time>2023-01-25T14:09:00.006Z</time>
</trkpt>
<trkpt lat="31.7617500" lon="35.1393000">
<ele>568.250000</ele>
<time>2023-01-25T14:09:00.006Z</time>
</trkpt>
<trkpt lat="31.7617400" lon="35.1392400">
<ele>567.669983</ele>
<time>2023-01-25T14:09:00.006Z</time>
</trkpt>
<trkpt lat="31.7617500" lon="35.1391400">
<ele>566.880005</ele>
<time>2023-01-25T14:09:00.006Z</time>
</trkpt>
<trkpt lat="31.7617600" lon="35.1390300">
<ele>566.340027</ele>
<time>2023-01-25T14:09:00.006Z</time>
</trkpt>
<trkpt lat="31.7617800" lon="35.1389100">
<ele>565.489990</ele>
<time>2023-01-25T14:09:00.006Z</time>
</trkpt>
<trkpt lat="31.7618500" lon="35.1388100">
<ele>564.359985</ele>
<time>2023-01-25T14:09:00.006Z</time>
</trkpt>
<trkpt lat="31.7619400" lon="35.1387300">
<ele>563.059998</ele>
<time>2023-01-25T14:09:00.006Z</time>
</trkpt>
<trkpt lat="31.7620300" lon="35.1387100">
<ele>563.000000</ele>
<time>2023-01-25T14:09:00.006Z</time>
</trkpt>
<trkpt lat="31.7621100" lon="35.1386800">
<ele>563.000000</ele>
<time>2023-01-25T14:09:00.006Z</time>
</trkpt>
<trkpt lat="31.7621800" lon="35.1386900">
<ele>563.000000</ele>
<time>2023-01-25T14:09:00.006Z</time>
</trkpt>
<trkpt lat="31.7622100" lon="35.1387000">
<ele>563.000000</ele>
<time>2023-01-25T14:09:00.006Z</time>
</trkpt>
<trkpt lat="31.7621300" lon="35.1387200">
<ele>563.000000</ele>
<time>2023-01-25T14:09:00.006Z</time>
</trkpt>
<trkpt lat="31.7620400" lon="35.1387500">
<ele>563.000000</ele>
<time>2023-01-25T14:09:00.006Z</time>
</trkpt>
<trkpt lat="31.7619400" lon="35.1387900">
<ele>563.059998</ele>
<time>2023-01-25T14:09:00.006Z</time>
</trkpt>
<trkpt lat="31.7618600" lon="35.1388700">
<ele>564.219971</ele>
<time>2023-01-25T14:09:00.006Z</time>
</trkpt>
<trkpt lat="31.7618100" lon="35.1389600">
<ele>565.460022</ele>
<time>2023-01-25T14:09:00.006Z</time>
</trkpt>
<trkpt lat="31.7617800" lon="35.1390600">
<ele>566.369995</ele>
<time>2023-01-25T14:09:00.006Z</time>
</trkpt>
<trkpt lat="31.7617800" lon="35.1391700">
<ele>567.029968</ele>
<time>2023-01-25T14:09:00.006Z</time>
</trkpt>
<trkpt lat="31.7617600" lon="35.1392700">
<ele>567.989990</ele>
<time>2023-01-25T14:09:00.006Z</time>
</trkpt>
<trkpt lat="31.7617600" lon="35.1393400">
<ele>568.669983</ele>
<time>2023-01-25T14:09:00.006Z</time>
</trkpt>
<trkpt lat="31.7618200" lon="35.1393400">
<ele>568.940002</ele>
<time>2023-01-25T14:09:00.006Z</time>
</trkpt>
<trkpt lat="31.7618900" lon="35.1392900">
<ele>568.600037</ele>
<time>2023-01-25T14:09:00.006Z</time>
</trkpt>
<trkpt lat="31.7619600" lon="35.1392300">
<ele>568.059998</ele>
<time>2023-01-25T14:09:00.006Z</time>
</trkpt>
<trkpt lat="31.7620300" lon="35.1391600">
<ele>567.510010</ele>
<time>2023-01-25T14:09:00.006Z</time>
</trkpt>
<trkpt lat="31.7621200" lon="35.1391100">
<ele>567.190002</ele>
<time>2023-01-25T14:09:00.006Z</time>
</trkpt>
<trkpt lat="31.7622100" lon="35.1390600">
<ele>566.640015</ele>
<time>2023-01-25T14:09:00.006Z</time>
</trkpt>
<trkpt lat="31.7622900" lon="35.1390200">
<ele>566.190002</ele>
<time>2023-01-25T14:09:00.006Z</time>
</trkpt>
<trkpt lat="31.7623800" lon="35.1390000">
<ele>566.200012</ele>
<time>2023-01-25T14:09:00.006Z</time>
</trkpt>
<trkpt lat="31.7624800" lon="35.1389800">
<ele>566.200012</ele>
<time>2023-01-25T14:09:00.006Z</time>
</trkpt>
<trkpt lat="31.7625800" lon="35.1389700">
<ele>568.059998</ele>
<time>2023-01-25T14:09:00.006Z</time>
</trkpt>
<trkpt lat="31.7626800" lon="35.1389700">
<ele>570.579956</ele>
<time>2023-01-25T14:09:00.006Z</time>
</trkpt>
<trkpt lat="31.7627700" lon="35.1389700">
<ele>572.849976</ele>
<time>2023-01-25T14:09:00.006Z</time>
</trkpt>
<trkpt lat="31.7628600" lon="35.1389700">
<ele>573.690002</ele>
<time>2023-01-25T14:09:00.006Z</time>
</trkpt>
<trkpt lat="31.7629600" lon="35.1389700">
<ele>574.470032</ele>
<time>2023-01-25T14:09:00.006Z</time>
</trkpt>
<trkpt lat="31.7630600" lon="35.1389800">
<ele>575.589966</ele>
<time>2023-01-25T14:09:00.006Z</time>
</trkpt>
<trkpt lat="31.7631500" lon="35.1389900">
<ele>575.599976</ele>
<time>2023-01-25T14:09:00.006Z</time>
</trkpt>
<trkpt lat="31.7632500" lon="35.1390000">
<ele>575.419983</ele>
<time>2023-01-25T14:09:00.006Z</time>
</trkpt>
<trkpt lat="31.7633500" lon="35.1390000">
<ele>575.219971</ele>
<time>2023-01-25T14:09:00.006Z</time>
</trkpt>
<trkpt lat="31.7634200" lon="35.1390100">
<ele>576.289978</ele>
<time>2023-01-25T14:09:00.006Z</time>
</trkpt>
<trkpt lat="31.7634500" lon="35.1390800">
<ele>577.830017</ele>
<time>2023-01-25T14:09:00.006Z</time>
</trkpt>
<trkpt lat="31.7634200" lon="35.1391600">
<ele>578.820007</ele>
<time>2023-01-25T14:09:00.006Z</time>
</trkpt>
<trkpt lat="31.7633500" lon="35.1391900">
<ele>578.589966</ele>
<time>2023-01-25T14:09:00.006Z</time>
</trkpt>
<trkpt lat="31.7632500" lon="35.1392000">
<ele>579.919983</ele>
<time>2023-01-25T14:09:00.006Z</time>
</trkpt>
<trkpt lat="31.7631500" lon="35.1392300">
<ele>581.690002</ele>
<time>2023-01-25T14:09:00.006Z</time>
</trkpt>
<trkpt lat="31.7630400" lon="35.1392700">
<ele>582.820007</ele>
<time>2023-01-25T14:09:00.006Z</time>
</trkpt>
<trkpt lat="31.7629500" lon="35.1393000">
<ele>582.010010</ele>
<time>2023-01-25T14:09:00.006Z</time>
</trkpt>
<trkpt lat="31.7628500" lon="35.1393500">
<ele>581.739990</ele>
<time>2023-01-25T14:09:00.006Z</time>
</trkpt>
<trkpt lat="31.7627600" lon="35.1393800">
<ele>581.589966</ele>
<time>2023-01-25T14:09:00.006Z</time>
</trkpt>
<trkpt lat="31.7626700" lon="35.1394300">
<ele>581.500000</ele>
<time>2023-01-25T14:09:00.006Z</time>
</trkpt>
<trkpt lat="31.7625800" lon="35.1395000">
<ele>582.380005</ele>
<time>2023-01-25T14:09:00.006Z</time>
</trkpt>
<trkpt lat="31.7625300" lon="35.1395800">
<ele>584.449951</ele>
<time>2023-01-25T14:09:00.006Z</time>
</trkpt>
<trkpt lat="31.7624700" lon="35.1396900">
<ele>587.140015</ele>
<time>2023-01-25T14:09:00.006Z</time>
</trkpt>
<trkpt lat="31.7624200" lon="35.1397800">
<ele>587.650024</ele>
<time>2023-01-25T14:09:00.006Z</time>
</trkpt>
<trkpt lat="31.7624000" lon="35.1398800">
<ele>588.799988</ele>
<time>2023-01-25T14:09:00.006Z</time>
</trkpt>
<trkpt lat="31.7624000" lon="35.1400000">
<ele>590.839966</ele>
<time>2023-01-25T14:09:00.006Z</time>
</trkpt>
<trkpt lat="31.7623900" lon="35.1401100">
<ele>591.260010</ele>
<time>2023-01-25T14:09:00.006Z</time>
</trkpt>
<trkpt lat="31.7623900" lon="35.1402200">
<ele>591.890015</ele>
<time>2023-01-25T14:09:00.006Z</time>
</trkpt>
<trkpt lat="31.7624000" lon="35.1403200">
<ele>592.729980</ele>
<time>2023-01-25T14:09:00.006Z</time>
</trkpt>
<trkpt lat="31.7624200" lon="35.1404300">
<ele>593.919983</ele>
<time>2023-01-25T14:09:00.006Z</time>
</trkpt>
<trkpt lat="31.7624400" lon="35.1405500">
<ele>595.239990</ele>
<time>2023-01-25T14:09:00.006Z</time>
</trkpt>
<trkpt lat="31.7624400" lon="35.1406800">
<ele>595.719971</ele>
<time>2023-01-25T14:09:00.006Z</time>
</trkpt>
<trkpt lat="31.7624600" lon="35.1407900">
<ele>596.690002</ele>
<time>2023-01-25T14:09:00.006Z</time>
</trkpt>
<trkpt lat="31.7624800" lon="35.1409000">
<ele>597.869995</ele>
<time>2023-01-25T14:09:00.006Z</time>
</trkpt>
<trkpt lat="31.7625000" lon="35.1410200">
<ele>599.340027</ele>
<time>2023-01-25T14:09:00.006Z</time>
</trkpt>
<trkpt lat="31.7625100" lon="35.1411300">
<ele>600.559998</ele>
<time>2023-01-25T14:09:00.006Z</time>
</trkpt>
<trkpt lat="31.7625300" lon="35.1412400">
<ele>602.619995</ele>
<time>2023-01-25T14:09:00.006Z</time>
</trkpt>
<trkpt lat="31.7625400" lon="35.1413500">
<ele>604.340027</ele>
<time>2023-01-25T14:09:00.006Z</time>
</trkpt>
<trkpt lat="31.7625600" lon="35.1414700">
<ele>605.299988</ele>
<time>2023-01-25T14:09:00.006Z</time>
</trkpt>
<trkpt lat="31.7625700" lon="35.1415900">
<ele>605.510010</ele>
<time>2023-01-25T14:09:00.006Z</time>
</trkpt>
<trkpt lat="31.7625900" lon="35.1416900">
<ele>605.970032</ele>
<time>2023-01-25T14:09:00.006Z</time>
</trkpt>
<trkpt lat="31.7626100" lon="35.1418100">
<ele>606.479980</ele>
<time>2023-01-25T14:09:00.006Z</time>
</trkpt>
<trkpt lat="31.7626200" lon="35.1419100">
<ele>606.710022</ele>
<time>2023-01-25T14:09:00.006Z</time>
</trkpt>
<trkpt lat="31.7626300" lon="35.1420200">
<ele>607.020020</ele>
<time>2023-01-25T14:09:00.006Z</time>
</trkpt>
<trkpt lat="31.7626400" lon="35.1421300">
<ele>607.350037</ele>
<time>2023-01-25T14:09:00.006Z</time>
</trkpt>
<trkpt lat="31.7626700" lon="35.1422400">
<ele>607.940002</ele>
<time>2023-01-25T14:09:00.006Z</time>
</trkpt>
<trkpt lat="31.7626800" lon="35.1423600">
<ele>608.760010</ele>
<time>2023-01-25T14:09:00.006Z</time>
</trkpt>
<trkpt lat="31.7627000" lon="35.1424700">
<ele>609.690002</ele>
<time>2023-01-25T14:09:00.006Z</time>
</trkpt>
<trkpt lat="31.7627100" lon="35.1425800">
<ele>610.820007</ele>
<time>2023-01-25T14:09:00.006Z</time>
</trkpt>
<trkpt lat="31.7627300" lon="35.1426900">
<ele>612.250000</ele>
<time>2023-01-25T14:09:00.006Z</time>
</trkpt>
<trkpt lat="31.7627400" lon="35.1428100">
<ele>613.649963</ele>
<time>2023-01-25T14:09:00.006Z</time>
</trkpt>
<trkpt lat="31.7627600" lon="35.1429200">
<ele>615.179993</ele>
<time>2023-01-25T14:09:00.006Z</time>
</trkpt>
<trkpt lat="31.7627800" lon="35.1430200">
<ele>616.669983</ele>
<time>2023-01-25T14:09:00.006Z</time>
</trkpt>
<trkpt lat="31.7628100" lon="35.1431200">
<ele>618.039978</ele>
<time>2023-01-25T14:09:00.006Z</time>
</trkpt>
<trkpt lat="31.7628400" lon="35.1432300">
<ele>619.200012</ele>
<time>2023-01-25T14:09:00.006Z</time>
</trkpt>
<trkpt lat="31.7628600" lon="35.1433400">
<ele>620.080017</ele>
<time>2023-01-25T14:09:00.006Z</time>
</trkpt>
<trkpt lat="31.7629200" lon="35.1434200">
<ele>621.580017</ele>
<time>2023-01-25T14:09:00.006Z</time>
</trkpt>
<trkpt lat="31.7629600" lon="35.1435200">
<ele>622.380005</ele>
<time>2023-01-25T14:09:00.006Z</time>
</trkpt>
<trkpt lat="31.7630000" lon="35.1436300">
<ele>623.000000</ele>
<time>2023-01-25T14:09:00.006Z</time>
</trkpt>
<trkpt lat="31.7630500" lon="35.1437200">
<ele>623.900024</ele>
<time>2023-01-25T14:09:00.006Z</time>
</trkpt>
<trkpt lat="31.7631000" lon="35.1438100">
<ele>624.459961</ele>
<time>2023-01-25T14:09:00.006Z</time>
</trkpt>
<trkpt lat="31.7631400" lon="35.1439200">
<ele>624.719971</ele>
<time>2023-01-25T14:09:00.006Z</time>
</trkpt>
<trkpt lat="31.7631900" lon="35.1440200">
<ele>625.440002</ele>
<time>2023-01-25T14:09:00.006Z</time>
</trkpt>
<trkpt lat="31.7632200" lon="35.1441300">
<ele>626.049988</ele>
<time>2023-01-25T14:09:00.006Z</time>
</trkpt>
<trkpt lat="31.7632700" lon="35.1442300">
<ele>626.790039</ele>
<time>2023-01-25T14:09:00.006Z</time>
</trkpt>
<trkpt lat="31.7633200" lon="35.1443300">
<ele>627.970032</ele>
<time>2023-01-25T14:09:00.006Z</time>
</trkpt>
<trkpt lat="31.7633700" lon="35.1444400">
<ele>629.099976</ele>
<time>2023-01-25T14:09:00.006Z</time>
</trkpt>
<trkpt lat="31.7634200" lon="35.1445400">
<ele>629.869995</ele>
<time>2023-01-25T14:09:00.006Z</time>
</trkpt>
<trkpt lat="31.7634700" lon="35.1446400">
<ele>630.890015</ele>
<time>2023-01-25T14:09:00.006Z</time>
</trkpt>
<trkpt lat="31.7635200" lon="35.1447300">
<ele>632.059998</ele>
<time>2023-01-25T14:09:00.006Z</time>
</trkpt>
<trkpt lat="31.7635800" lon="35.1447800">
<ele>633.059998</ele>
<time>2023-01-25T14:09:00.006Z</time>
</trkpt>
<trkpt lat="31.7636000" lon="35.1448100">
<ele>633.500000</ele>
<time>2023-01-25T14:09:00.006Z</time>
</trkpt>
<trkpt lat="31.7636100" lon="35.1448700">
<ele>634.049988</ele>
<time>2023-01-25T14:09:00.006Z</time>
</trkpt>
<trkpt lat="31.7636400" lon="35.1449900">
<ele>635.539978</ele>
<time>2023-01-25T14:09:00.006Z</time>
</trkpt>
<trkpt lat="31.7636700" lon="35.1451100">
<ele>637.769958</ele>
<time>2023-01-25T14:09:00.006Z</time>
</trkpt>
<trkpt lat="31.7637000" lon="35.1452200">
<ele>639.829956</ele>
<time>2023-01-25T14:09:00.006Z</time>
</trkpt>
<trkpt lat="31.7637400" lon="35.1453100">
<ele>641.440002</ele>
<time>2023-01-25T14:09:00.006Z</time>
</trkpt>
<trkpt lat="31.7637700" lon="35.1454100">
<ele>642.270020</ele>
<time>2023-01-25T14:09:00.006Z</time>
</trkpt>
<trkpt lat="31.7638000" lon="35.1455100">
<ele>642.940002</ele>
<time>2023-01-25T14:09:00.006Z</time>
</trkpt>
<trkpt lat="31.7638100" lon="35.1456300">
<ele>643.219971</ele>
<time>2023-01-25T14:09:00.006Z</time>
</trkpt>
<trkpt lat="31.7638200" lon="35.1457500">
<ele>643.429993</ele>
<time>2023-01-25T14:09:00.006Z</time>
</trkpt>
<trkpt lat="31.7638300" lon="35.1458500">
<ele>643.650024</ele>
<time>2023-01-25T14:09:00.006Z</time>
</trkpt>
<trkpt lat="31.7638300" lon="35.1459700">
<ele>644.170044</ele>
<time>2023-01-25T14:09:00.006Z</time>
</trkpt>
<trkpt lat="31.7638300" lon="35.1460800">
<ele>644.649963</ele>
<time>2023-01-25T14:09:00.006Z</time>
</trkpt>
<trkpt lat="31.7638200" lon="35.1461900">
<ele>645.750000</ele>
<time>2023-01-25T14:09:00.006Z</time>
</trkpt>
<trkpt lat="31.7638000" lon="35.1462900">
<ele>646.840027</ele>
<time>2023-01-25T14:09:00.006Z</time>
</trkpt>
<trkpt lat="31.7637700" lon="35.1464000">
<ele>647.969971</ele>
<time>2023-01-25T14:09:00.006Z</time>
</trkpt>
<trkpt lat="31.7637400" lon="35.1465000">
<ele>649.730042</ele>
<time>2023-01-25T14:09:00.006Z</time>
</trkpt>
<trkpt lat="31.7637100" lon="35.1466200">
<ele>651.580017</ele>
<time>2023-01-25T14:09:00.006Z</time>
</trkpt>
<trkpt lat="31.7636800" lon="35.1467200">
<ele>652.409973</ele>
<time>2023-01-25T14:09:00.006Z</time>
</trkpt>
<trkpt lat="31.7636400" lon="35.1468300">
<ele>652.609985</ele>
<time>2023-01-25T14:09:00.006Z</time>
</trkpt>
<trkpt lat="31.7636000" lon="35.1469400">
<ele>652.630005</ele>
<time>2023-01-25T14:09:00.006Z</time>
</trkpt>
<trkpt lat="31.7635600" lon="35.1470500">
<ele>652.600037</ele>
<time>2023-01-25T14:09:00.006Z</time>
</trkpt>
<trkpt lat="31.7635200" lon="35.1471600">
<ele>652.450012</ele>
<time>2023-01-25T14:09:00.006Z</time>
</trkpt>
<trkpt lat="31.7634900" lon="35.1472700">
<ele>652.690002</ele>
<time>2023-01-25T14:09:00.006Z</time>
</trkpt>
<trkpt lat="31.7634600" lon="35.1473700">
<ele>652.940002</ele>
<time>2023-01-25T14:09:00.006Z</time>
</trkpt>
<trkpt lat="31.7634200" lon="35.1474900">
<ele>653.000000</ele>
<time>2023-01-25T14:09:00.006Z</time>
</trkpt>
<trkpt lat="31.7633900" lon="35.1475900">
<ele>652.690002</ele>
<time>2023-01-25T14:09:00.006Z</time>
</trkpt>
<trkpt lat="31.7633400" lon="35.1477000">
<ele>651.680054</ele>
<time>2023-01-25T14:09:00.006Z</time>
</trkpt>
<trkpt lat="31.7633000" lon="35.1477900">
<ele>651.420044</ele>
<time>2023-01-25T14:09:00.006Z</time>
</trkpt>
<trkpt lat="31.7632600" lon="35.1478900">
<ele>651.729980</ele>
<time>2023-01-25T14:09:00.006Z</time>
</trkpt>
<trkpt lat="31.7632100" lon="35.1479900">
<ele>651.970032</ele>
<time>2023-01-25T14:09:00.006Z</time>
</trkpt>
<trkpt lat="31.7631700" lon="35.1481000">
<ele>652.730042</ele>
<time>2023-01-25T14:09:00.006Z</time>
</trkpt>
<trkpt lat="31.7631300" lon="35.1482000">
<ele>653.659973</ele>
<time>2023-01-25T14:09:00.006Z</time>
</trkpt>
<trkpt lat="31.7630900" lon="35.1483000">
<ele>654.799988</ele>
<time>2023-01-25T14:09:00.006Z</time>
</trkpt>
<trkpt lat="31.7630400" lon="35.1484000">
<ele>656.040039</ele>
<time>2023-01-25T14:09:00.006Z</time>
</trkpt>
<trkpt lat="31.7630000" lon="35.1485000">
<ele>657.840027</ele>
<time>2023-01-25T14:09:00.006Z</time>
</trkpt>
<trkpt lat="31.7629600" lon="35.1486100">
<ele>660.010010</ele>
<time>2023-01-25T14:09:00.006Z</time>
</trkpt>
<trkpt lat="31.7629100" lon="35.1487200">
<ele>662.910034</ele>
<time>2023-01-25T14:09:00.006Z</time>
</trkpt>
<trkpt lat="31.7628700" lon="35.1488400">
<ele>665.670044</ele>
<time>2023-01-25T14:09:00.006Z</time>
</trkpt>
<trkpt lat="31.7628200" lon="35.1489000">
<ele>666.950012</ele>
<time>2023-01-25T14:09:00.006Z</time>
</trkpt>
<trkpt lat="31.7627200" lon="35.1488900">
<ele>668.049988</ele>
<time>2023-01-25T14:09:00.006Z</time>
</trkpt>
<trkpt lat="31.7626200" lon="35.1488700">
<ele>669.539978</ele>
<time>2023-01-25T14:09:00.006Z</time>
</trkpt>
<trkpt lat="31.7625500" lon="35.1488200">
<ele>670.059998</ele>
<time>2023-01-25T14:09:00.006Z</time>
</trkpt>
<trkpt lat="31.7624600" lon="35.1487500">
<ele>670.940002</ele>
<time>2023-01-25T14:09:00.006Z</time>
</trkpt>
<trkpt lat="31.7623600" lon="35.1486600">
<ele>672.469971</ele>
<time>2023-01-25T14:09:00.006Z</time>
</trkpt>
<trkpt lat="31.7622900" lon="35.1485500">
<ele>673.169983</ele>
<time>2023-01-25T14:09:00.006Z</time>
</trkpt>
<trkpt lat="31.7622400" lon="35.1484600">
<ele>673.309998</ele>
<time>2023-01-25T14:09:00.006Z</time>
</trkpt>
<trkpt lat="31.7621800" lon="35.1483700">
<ele>673.160034</ele>
<time>2023-01-25T14:09:00.006Z</time>
</trkpt>
<trkpt lat="31.7621100" lon="35.1482700">
<ele>673.019958</ele>
<time>2023-01-25T14:09:00.006Z</time>
</trkpt>
<trkpt lat="31.7620500" lon="35.1481600">
<ele>672.989990</ele>
<time>2023-01-25T14:09:00.006Z</time>
</trkpt>
<trkpt lat="31.7619900" lon="35.1480400">
<ele>673.080017</ele>
<time>2023-01-25T14:09:00.006Z</time>
</trkpt>
<trkpt lat="31.7619500" lon="35.1479400">
<ele>673.080017</ele>
<time>2023-01-25T14:09:00.006Z</time>
</trkpt>
<trkpt lat="31.7619100" lon="35.1478100">
<ele>672.599976</ele>
<time>2023-01-25T14:09:00.006Z</time>
</trkpt>
<trkpt lat="31.7618700" lon="35.1477100">
<ele>672.740051</ele>
<time>2023-01-25T14:09:00.006Z</time>
</trkpt>
<trkpt lat="31.7618400" lon="35.1476100">
<ele>672.900024</ele>
<time>2023-01-25T14:09:00.006Z</time>
</trkpt>
<trkpt lat="31.7618100" lon="35.1475100">
<ele>672.989990</ele>
<time>2023-01-25T14:09:00.006Z</time>
</trkpt>
<trkpt lat="31.7617700" lon="35.1473800">
<ele>672.820007</ele>
<time>2023-01-25T14:09:00.006Z</time>
</trkpt>
<trkpt lat="31.7617400" lon="35.1472600">
<ele>672.610046</ele>
<time>2023-01-25T14:09:00.006Z</time>
</trkpt>
<trkpt lat="31.7617100" lon="35.1471500">
<ele>672.870056</ele>
<time>2023-01-25T14:09:00.006Z</time>
</trkpt>
<trkpt lat="31.7616700" lon="35.1470500">
<ele>673.580017</ele>
<time>2023-01-25T14:09:00.006Z</time>
</trkpt>
<trkpt lat="31.7616100" lon="35.1469400">
<ele>674.390015</ele>
<time>2023-01-25T14:09:00.006Z</time>
</trkpt>
<trkpt lat="31.7615500" lon="35.1468500">
<ele>674.730042</ele>
<time>2023-01-25T14:09:00.006Z</time>
</trkpt>
<trkpt lat="31.7614800" lon="35.1467800">
<ele>675.750000</ele>
<time>2023-01-25T14:09:00.006Z</time>
</trkpt>
<trkpt lat="31.7614000" lon="35.1467200">
<ele>677.409973</ele>
<time>2023-01-25T14:09:00.006Z</time>
</trkpt>
<trkpt lat="31.7613100" lon="35.1466700">
<ele>677.710022</ele>
<time>2023-01-25T14:09:00.006Z</time>
</trkpt>
<trkpt lat="31.7612200" lon="35.1466300">
<ele>676.970032</ele>
<time>2023-01-25T14:09:00.006Z</time>
</trkpt>
<trkpt lat="31.7611300" lon="35.1466200">
<ele>676.699951</ele>
<time>2023-01-25T14:09:00.006Z</time>
</trkpt>
<trkpt lat="31.7610300" lon="35.1466200">
<ele>675.250000</ele>
<time>2023-01-25T14:09:00.006Z</time>
</trkpt>
<trkpt lat="31.7609300" lon="35.1466200">
<ele>673.510010</ele>
<time>2023-01-25T14:09:00.006Z</time>
</trkpt>
<trkpt lat="31.7608300" lon="35.1466300">
<ele>671.769958</ele>
<time>2023-01-25T14:09:00.006Z</time>
</trkpt>
<trkpt lat="31.7607400" lon="35.1466500">
<ele>669.390015</ele>
<time>2023-01-25T14:09:00.006Z</time>
</trkpt>
<trkpt lat="31.7606400" lon="35.1466900">
<ele>667.299988</ele>
<time>2023-01-25T14:09:00.006Z</time>
</trkpt>
<trkpt lat="31.7605400" lon="35.1467300">
<ele>665.470032</ele>
<time>2023-01-25T14:09:00.006Z</time>
</trkpt>
<trkpt lat="31.7604600" lon="35.1467700">
<ele>665.039978</ele>
<time>2023-01-25T14:09:00.006Z</time>
</trkpt>
<trkpt lat="31.7603600" lon="35.1468200">
<ele>665.080017</ele>
<time>2023-01-25T14:09:00.006Z</time>
</trkpt>
<trkpt lat="31.7602700" lon="35.1468600">
<ele>665.410034</ele>
<time>2023-01-25T14:09:00.006Z</time>
</trkpt>
<trkpt lat="31.7601800" lon="35.1469000">
<ele>664.539978</ele>
<time>2023-01-25T14:09:00.006Z</time>
</trkpt>
<trkpt lat="31.7600700" lon="35.1469500">
<ele>662.859985</ele>
<time>2023-01-25T14:09:00.006Z</time>
</trkpt>
<trkpt lat="31.7599600" lon="35.1469900">
<ele>660.909973</ele>
<time>2023-01-25T14:09:00.006Z</time>
</trkpt>
<trkpt lat="31.7598700" lon="35.1470300">
<ele>659.139954</ele>
<time>2023-01-25T14:09:00.006Z</time>
</trkpt>
<trkpt lat="31.7597800" lon="35.1470700">
<ele>657.090027</ele>
<time>2023-01-25T14:09:00.006Z</time>
</trkpt>
<trkpt lat="31.7596800" lon="35.1471100">
<ele>655.310059</ele>
<time>2023-01-25T14:09:00.006Z</time>
</trkpt>
<trkpt lat="31.7595700" lon="35.1471600">
<ele>653.900024</ele>
<time>2023-01-25T14:09:00.006Z</time>
</trkpt>
<trkpt lat="31.7594600" lon="35.1472000">
<ele>651.619995</ele>
<time>2023-01-25T14:09:00.006Z</time>
</trkpt>
<trkpt lat="31.7593600" lon="35.1472300">
<ele>655.349976</ele>
<time>2023-01-25T14:09:00.006Z</time>
</trkpt>
<trkpt lat="31.7592400" lon="35.1472300">
<ele>660.820007</ele>
<time>2023-01-25T14:09:00.006Z</time>
</trkpt>
<trkpt lat="31.7591500" lon="35.1472400">
<ele>664.829956</ele>
<time>2023-01-25T14:09:00.006Z</time>
</trkpt>
<trkpt lat="31.7590500" lon="35.1472300">
<ele>667.420044</ele>
<time>2023-01-25T14:09:00.006Z</time>
</trkpt>
<trkpt lat="31.7589400" lon="35.1472200">
<ele>670.479980</ele>
<time>2023-01-25T14:09:00.006Z</time>
</trkpt>
<trkpt lat="31.7588300" lon="35.1472000">
<ele>671.159973</ele>
<time>2023-01-25T14:09:00.006Z</time>
</trkpt>
<trkpt lat="31.7587100" lon="35.1471900">
<ele>670.309998</ele>
<time>2023-01-25T14:09:00.006Z</time>
</trkpt>
<trkpt lat="31.7585800" lon="35.1472000">
<ele>670.299988</ele>
<time>2023-01-25T14:09:00.006Z</time>
</trkpt>
<trkpt lat="31.7584800" lon="35.1472200">
<ele>671.880005</ele>
<time>2023-01-25T14:09:00.006Z</time>
</trkpt>
<trkpt lat="31.7584000" lon="35.1473000">
<ele>673.229980</ele>
<time>2023-01-25T14:09:00.006Z</time>
</trkpt>
<trkpt lat="31.7583200" lon="35.1473800">
<ele>673.350037</ele>
<time>2023-01-25T14:09:00.006Z</time>
</trkpt>
<trkpt lat="31.7582300" lon="35.1474300">
<ele>672.880005</ele>
<time>2023-01-25T14:09:00.006Z</time>
</trkpt>
<trkpt lat="31.7582100" lon="35.1474400">
<ele>672.830017</ele>
<time>2023-01-25T14:09:00.006Z</time>
</trkpt>
<trkpt lat="31.7581300" lon="35.1474500">
<ele>672.649963</ele>
<time>2023-01-25T14:09:00.006Z</time>
</trkpt>
<trkpt lat="31.7579900" lon="35.1474300">
<ele>671.659973</ele>
<time>2023-01-25T14:09:00.006Z</time>
</trkpt>
<trkpt lat="31.7579600" lon="35.1473700">
<ele>671.190002</ele>
<time>2023-01-25T14:09:00.006Z</time>
</trkpt>
<trkpt lat="31.7579600" lon="35.1472900">
<ele>670.920044</ele>
<time>2023-01-25T14:09:00.006Z</time>
</trkpt>
<trkpt lat="31.7579600" lon="35.1472100">
<ele>670.790039</ele>
<time>2023-01-25T14:09:00.006Z</time>
</trkpt>
<trkpt lat="31.7579800" lon="35.1470900">
<ele>671.630005</ele>
<time>2023-01-25T14:09:00.006Z</time>
</trkpt>
<trkpt lat="31.7585600" lon="35.1459000">
<ele>673.320007</ele>
<time>2023-01-25T14:09:00.006Z</time>
</trkpt>
<trkpt lat="31.7586800" lon="35.1456800">
<ele>672.440002</ele>
<time>2023-01-25T14:09:00.006Z</time>
</trkpt>
<trkpt lat="31.7591900" lon="35.1449700">
<ele>668.369995</ele>
<time>2023-01-25T14:09:00.006Z</time>
</trkpt>
<trkpt lat="31.7592200" lon="35.1449100">
<ele>667.719971</ele>
<time>2023-01-25T14:09:00.006Z</time>
</trkpt>
<trkpt lat="31.7592900" lon="35.1447000">
<ele>667.049988</ele>
<time>2023-01-25T14:09:00.006Z</time>
</trkpt>
<trkpt lat="31.7597900" lon="35.1431700">
<ele>663.209961</ele>
<time>2023-01-25T14:09:00.006Z</time>
</trkpt>
<trkpt lat="31.7600400" lon="35.1424700">
<ele>662.440002</ele>
<time>2023-01-25T14:09:00.006Z</time>
</trkpt>
<trkpt lat="31.7600800" lon="35.1422500">
<ele>661.570007</ele>
<time>2023-01-25T14:09:00.006Z</time>
</trkpt>
<trkpt lat="31.7600900" lon="35.1419400">
<ele>663.790039</ele>
<time>2023-01-25T14:09:00.006Z</time>
</trkpt>
<trkpt lat="31.7600900" lon="35.1416300">
<ele>663.440002</ele>
<time>2023-01-25T14:09:00.006Z</time>
</trkpt>
<trkpt lat="31.7600800" lon="35.1415300">
<ele>662.989990</ele>
<time>2023-01-25T14:09:00.006Z</time>
</trkpt>
<trkpt lat="31.7600100" lon="35.1413800">
<ele>665.299988</ele>
<time>2023-01-25T14:09:00.006Z</time>
</trkpt>
<trkpt lat="31.7597200" lon="35.1409200">
<ele>665.590027</ele>
<time>2023-01-25T14:09:00.006Z</time>
</trkpt>
<trkpt lat="31.7596600" lon="35.1407900">
<ele>664.080017</ele>
<time>2023-01-25T14:09:00.006Z</time>
</trkpt>
<trkpt lat="31.7595900" lon="35.1405100">
<ele>661.489990</ele>
<time>2023-01-25T14:09:00.006Z</time>
</trkpt>
<trkpt lat="31.7595000" lon="35.1403000">
<ele>661.180054</ele>
<time>2023-01-25T14:09:00.006Z</time>
</trkpt>
<trkpt lat="31.7594400" lon="35.1401900">
<ele>661.429993</ele>
<time>2023-01-25T14:09:00.006Z</time>
</trkpt>
<trkpt lat="31.7593000" lon="35.1400400">
<ele>661.919983</ele>
<time>2023-01-25T14:09:00.006Z</time>
</trkpt>
<trkpt lat="31.7592000" lon="35.1399800">
<ele>662.330017</ele>
<time>2023-01-25T14:09:00.006Z</time>
</trkpt>
<trkpt lat="31.7591300" lon="35.1399400">
<ele>662.269958</ele>
<time>2023-01-25T14:09:00.006Z</time>
</trkpt>
<trkpt lat="31.7582900" lon="35.1397600">
<ele>658.700012</ele>
<time>2023-01-25T14:09:00.006Z</time>
</trkpt>
<trkpt lat="31.7582000" lon="35.1397100">
<ele>657.849976</ele>
<time>2023-01-25T14:09:00.006Z</time>
</trkpt>
<trkpt lat="31.7581900" lon="35.1396600">
<ele>657.220032</ele>
<time>2023-01-25T14:09:00.006Z</time>
</trkpt>
<trkpt lat="31.7581900" lon="35.1395700">
<ele>656.090027</ele>
<time>2023-01-25T14:09:00.006Z</time>
</trkpt>
<trkpt lat="31.7582000" lon="35.1394200">
<ele>654.429993</ele>
<time>2023-01-25T14:09:00.006Z</time>
</trkpt>
<trkpt lat="31.7585000" lon="35.1388500">
<ele>652.659973</ele>
<time>2023-01-25T14:09:00.006Z</time>
</trkpt>
<trkpt lat="31.7586200" lon="35.1386400">
<ele>649.219971</ele>
<time>2023-01-25T14:09:00.006Z</time>
</trkpt>
<trkpt lat="31.7586900" lon="35.1383600">
<ele>646.730042</ele>
<time>2023-01-25T14:09:00.006Z</time>
</trkpt>
<trkpt lat="31.7587000" lon="35.1382100">
<ele>646.399963</ele>
<time>2023-01-25T14:09:00.006Z</time>
</trkpt>
<trkpt lat="31.7587100" lon="35.1377400">
<ele>648.479980</ele>
<time>2023-01-25T14:09:00.006Z</time>
</trkpt>
<trkpt lat="31.7587000" lon="35.1373300">
<ele>649.659973</ele>
<time>2023-01-25T14:09:00.006Z</time>
</trkpt>
<trkpt lat="31.7585300" lon="35.1368900">
<ele>652.710022</ele>
<time>2023-01-25T14:09:00.006Z</time>
</trkpt>
<trkpt lat="31.7583000" lon="35.1364200">
<ele>660.320007</ele>
<time>2023-01-25T14:09:00.006Z</time>
</trkpt>
<trkpt lat="31.7580100" lon="35.1358500">
<ele>661.849976</ele>
<time>2023-01-25T14:09:00.006Z</time>
</trkpt>
<trkpt lat="31.7579300" lon="35.1357300">
<ele>660.710022</ele>
<time>2023-01-25T14:09:00.006Z</time>
</trkpt>
<trkpt lat="31.7577500" lon="35.1355700">
<ele>661.030029</ele>
<time>2023-01-25T14:09:00.006Z</time>
</trkpt>
<trkpt lat="31.7575700" lon="35.1354200">
<ele>655.479980</ele>
<time>2023-01-25T14:09:00.006Z</time>
</trkpt>
<trkpt lat="31.7574200" lon="35.1354000">
<ele>651.829956</ele>
<time>2023-01-25T14:09:00.006Z</time>
</trkpt>
<trkpt lat="31.7573300" lon="35.1354000">
<ele>649.429993</ele>
<time>2023-01-25T14:09:00.006Z</time>
</trkpt>
<trkpt lat="31.7571500" lon="35.1354100">
<ele>644.640015</ele>
<time>2023-01-25T14:09:00.006Z</time>
</trkpt>
<trkpt lat="31.7568000" lon="35.1354600">
<ele>639.909973</ele>
<time>2023-01-25T14:09:00.006Z</time>
</trkpt>
<trkpt lat="31.7560900" lon="35.1355500">
<ele>651.420044</ele>
<time>2023-01-25T14:09:00.006Z</time>
</trkpt>
<trkpt lat="31.7559500" lon="35.1355400">
<ele>653.950012</ele>
<time>2023-01-25T14:09:00.006Z</time>
</trkpt>
<trkpt lat="31.7559000" lon="35.1354700">
<ele>654.950012</ele>
<time>2023-01-25T14:09:00.006Z</time>
</trkpt>
<trkpt lat="31.7558600" lon="35.1353300">
<ele>655.679993</ele>
<time>2023-01-25T14:09:00.006Z</time>
</trkpt>
<trkpt lat="31.7558500" lon="35.1351400">
<ele>658.329956</ele>
<time>2023-01-25T14:09:00.006Z</time>
</trkpt>
<trkpt lat="31.7558400" lon="35.1347700">
<ele>663.380005</ele>
<time>2023-01-25T14:09:00.006Z</time>
</trkpt>
<trkpt lat="31.7557900" lon="35.1345700">
<ele>663.790039</ele>
<time>2023-01-25T14:09:00.006Z</time>
</trkpt>
<trkpt lat="31.7557300" lon="35.1344700">
<ele>663.900024</ele>
<time>2023-01-25T14:09:00.006Z</time>
</trkpt>
<trkpt lat="31.7556200" lon="35.1343400">
<ele>664.890015</ele>
<time>2023-01-25T14:09:00.006Z</time>
</trkpt>
<trkpt lat="31.7551900" lon="35.1339700">
<ele>674.479980</ele>
<time>2023-01-25T14:09:00.006Z</time>
</trkpt>
<trkpt lat="31.7551100" lon="35.1339100">
<ele>676.630005</ele>
<time>2023-01-25T14:09:00.006Z</time>
</trkpt>
<trkpt lat="31.7550100" lon="35.1337500">
<ele>677.270020</ele>
<time>2023-01-25T14:09:00.006Z</time>
</trkpt>
<trkpt lat="31.7548500" lon="35.1334100">
<ele>675.260010</ele>
<time>2023-01-25T14:09:00.006Z</time>
</trkpt>
<trkpt lat="31.7547000" lon="35.1327400">
<ele>677.549988</ele>
<time>2023-01-25T14:09:00.006Z</time>
</trkpt>
<trkpt lat="31.7546500" lon="35.1326500">
<ele>678.880005</ele>
<time>2023-01-25T14:09:00.006Z</time>
</trkpt>
<trkpt lat="31.7545000" lon="35.1324500">
<ele>681.900024</ele>
<time>2023-01-25T14:09:00.006Z</time>
</trkpt>
<trkpt lat="31.7544200" lon="35.1323800">
<ele>682.039978</ele>
<time>2023-01-25T14:09:00.006Z</time>
</trkpt>
<trkpt lat="31.7542500" lon="35.1322800">
<ele>682.400024</ele>
<time>2023-01-25T14:09:00.006Z</time>
</trkpt>
<trkpt lat="31.7539600" lon="35.1321700">
<ele>688.389954</ele>
<time>2023-01-25T14:09:00.006Z</time>
</trkpt>
<trkpt lat="31.7530400" lon="35.1318400">
<ele>702.700012</ele>
<time>2023-01-25T14:09:00.006Z</time>
</trkpt>
<trkpt lat="31.7528200" lon="35.1317800">
<ele>706.760010</ele>
<time>2023-01-25T14:09:00.006Z</time>
</trkpt>
<trkpt lat="31.7522100" lon="35.1316700">
<ele>700.079956</ele>
<time>2023-01-25T14:09:00.006Z</time>
</trkpt>
<trkpt lat="31.7521000" lon="35.1316100">
<ele>699.910034</ele>
<time>2023-01-25T14:09:00.006Z</time>
</trkpt>
<trkpt lat="31.7520800" lon="35.1315600">
<ele>699.799988</ele>
<time>2023-01-25T14:09:00.006Z</time>
</trkpt>
<trkpt lat="31.7520800" lon="35.1315100">
<ele>699.710022</ele>
<time>2023-01-25T14:09:00.006Z</time>
</trkpt>
<trkpt lat="31.7520800" lon="35.1314000">
<ele>699.509949</ele>
<time>2023-01-25T14:09:00.006Z</time>
</trkpt>
<trkpt lat="31.7521100" lon="35.1311700">
<ele>701.640015</ele>
<time>2023-01-25T14:09:00.006Z</time>
</trkpt>
<trkpt lat="31.7522100" lon="35.1305300">
<ele>706.739990</ele>
<time>2023-01-25T14:09:00.006Z</time>
</trkpt>
<trkpt lat="31.7522400" lon="35.1304100">
<ele>705.990051</ele>
<time>2023-01-25T14:09:00.006Z</time>
</trkpt>
<trkpt lat="31.7525300" lon="35.1299800">
<ele>710.830017</ele>
<time>2023-01-25T14:09:00.006Z</time>
</trkpt>
<trkpt lat="31.7527400" lon="35.1294700">
<ele>713.669983</ele>
<time>2023-01-25T14:09:00.006Z</time>
</trkpt>
<trkpt lat="31.7527400" lon="35.1292000">
<ele>718.230042</ele>
<time>2023-01-25T14:09:00.006Z</time>
</trkpt>
<trkpt lat="31.7527400" lon="35.1291100">
<ele>719.359985</ele>
<time>2023-01-25T14:09:00.006Z</time>
</trkpt>
<trkpt lat="31.7527100" lon="35.1290200">
<ele>720.200012</ele>
<time>2023-01-25T14:09:00.006Z</time>
</trkpt>
<trkpt lat="31.7526400" lon="35.1288400">
<ele>721.809998</ele>
<time>2023-01-25T14:09:00.006Z</time>
</trkpt>
<trkpt lat="31.7525600" lon="35.1287000">
<ele>722.659973</ele>
<time>2023-01-25T14:09:00.006Z</time>
</trkpt>
<trkpt lat="31.7524000" lon="35.1286100">
<ele>725.070007</ele>
<time>2023-01-25T14:09:00.006Z</time>
</trkpt>
<trkpt lat="31.7523200" lon="35.1285800">
<ele>725.789978</ele>
<time>2023-01-25T14:09:00.006Z</time>
</trkpt>
<trkpt lat="31.7520400" lon="35.1285700">
<ele>728.630005</ele>
<time>2023-01-25T14:09:00.006Z</time>
</trkpt>
<trkpt lat="31.7518600" lon="35.1285500">
<ele>729.469971</ele>
<time>2023-01-25T14:09:00.006Z</time>
</trkpt>
<trkpt lat="31.7518200" lon="35.1285400">
<ele>729.460022</ele>
<time>2023-01-25T14:09:00.006Z</time>
</trkpt>
<trkpt lat="31.7514900" lon="35.1283800">
<ele>731.399963</ele>
<time>2023-01-25T14:09:00.006Z</time>
</trkpt>
<trkpt lat="31.7512600" lon="35.1282000">
<ele>732.429993</ele>
<time>2023-01-25T14:09:00.006Z</time>
</trkpt>
<trkpt lat="31.7511800" lon="35.1281600">
<ele>733.010010</ele>
<time>2023-01-25T14:09:00.006Z</time>
</trkpt>
<trkpt lat="31.7510300" lon="35.1280700">
<ele>732.539978</ele>
<time>2023-01-25T14:09:00.006Z</time>
</trkpt>
<trkpt lat="31.7507000" lon="35.1278000">
<ele>726.210022</ele>
<time>2023-01-25T14:09:00.006Z</time>
</trkpt>
<trkpt lat="31.7506300" lon="35.1278000">
<ele>725.619995</ele>
<time>2023-01-25T14:09:00.006Z</time>
</trkpt>
<trkpt lat="31.7505600" lon="35.1278100">
<ele>725.040039</ele>
<time>2023-01-25T14:09:00.006Z</time>
</trkpt>
<trkpt lat="31.7505100" lon="35.1278500">
<ele>724.509949</ele>
<time>2023-01-25T14:09:00.006Z</time>
</trkpt>
<trkpt lat="31.7504700" lon="35.1279400">
<ele>724.080017</ele>
<time>2023-01-25T14:09:00.006Z</time>
</trkpt>
<trkpt lat="31.7503400" lon="35.1284400">
<ele>725.839966</ele>
<time>2023-01-25T14:09:00.006Z</time>
</trkpt>
<trkpt lat="31.7501800" lon="35.1287200">
<ele>725.630005</ele>
<time>2023-01-25T14:09:00.006Z</time>
</trkpt>
<trkpt lat="31.7500500" lon="35.1290200">
<ele>726.790039</ele>
<time>2023-01-25T14:09:00.006Z</time>
</trkpt>
<trkpt lat="31.7498800" lon="35.1295200">
<ele>729.719971</ele>
<time>2023-01-25T14:09:00.006Z</time>
</trkpt>
<trkpt lat="31.7498400" lon="35.1297900">
<ele>729.500000</ele>
<time>2023-01-25T14:09:00.006Z</time>
</trkpt>
<trkpt lat="31.7497300" lon="35.1302600">
<ele>727.109985</ele>
<time>2023-01-25T14:09:00.006Z</time>
</trkpt>
<trkpt lat="31.7496800" lon="35.1303500">
<ele>726.469971</ele>
<time>2023-01-25T14:09:00.006Z</time>
</trkpt>
<trkpt lat="31.7492800" lon="35.1307100">
<ele>723.179993</ele>
<time>2023-01-25T14:09:00.006Z</time>
</trkpt>
<trkpt lat="31.7489900" lon="35.1309300">
<ele>723.660034</ele>
<time>2023-01-25T14:09:00.006Z</time>
</trkpt>
<trkpt lat="31.7488300" lon="35.1310700">
<ele>726.200012</ele>
<time>2023-01-25T14:09:00.006Z</time>
</trkpt>
<trkpt lat="31.7485700" lon="35.1313000">
<ele>727.329956</ele>
<time>2023-01-25T14:09:00.006Z</time>
</trkpt>
<trkpt lat="31.7479900" lon="35.1317300">
<ele>724.580017</ele>
<time>2023-01-25T14:09:00.006Z</time>
</trkpt>
<trkpt lat="31.7475900" lon="35.1320700">
<ele>726.460022</ele>
<time>2023-01-25T14:09:00.006Z</time>
</trkpt>
<trkpt lat="31.7475300" lon="35.1320900">
<ele>725.630005</ele>
<time>2023-01-25T14:09:00.006Z</time>
</trkpt>
<trkpt lat="31.7474000" lon="35.1320800">
<ele>724.050049</ele>
<time>2023-01-25T14:09:00.006Z</time>
</trkpt>
<trkpt lat="31.7471700" lon="35.1317900">
<ele>715.380066</ele>
<time>2023-01-25T14:09:00.006Z</time>
</trkpt>
<trkpt lat="31.7468200" lon="35.1317800">
<ele>711.409973</ele>
<time>2023-01-25T14:09:00.006Z</time>
</trkpt>
<trkpt lat="31.7464900" lon="35.1318700">
<ele>710.950012</ele>
<time>2023-01-25T14:09:00.006Z</time>
</trkpt>
<trkpt lat="31.7464200" lon="35.1319200">
<ele>711.600037</ele>
<time>2023-01-25T14:09:00.006Z</time>
</trkpt>
<trkpt lat="31.7459300" lon="35.1323700">
<ele>712.289978</ele>
<time>2023-01-25T14:09:00.006Z</time>
</trkpt>
<trkpt lat="31.7458500" lon="35.1329700">
<ele>718.869995</ele>
<time>2023-01-25T14:09:00.006Z</time>
</trkpt>
<trkpt lat="31.7458300" lon="35.1330200">
<ele>719.440002</ele>
<time>2023-01-25T14:09:00.006Z</time>
</trkpt>
<trkpt lat="31.7457100" lon="35.1338200">
<ele>721.890015</ele>
<time>2023-01-25T14:09:00.006Z</time>
</trkpt>
<trkpt lat="31.7457000" lon="35.1341400">
<ele>722.109985</ele>
<time>2023-01-25T14:09:00.006Z</time>
</trkpt>
<trkpt lat="31.7457100" lon="35.1343500">
<ele>722.740051</ele>
<time>2023-01-25T14:09:00.006Z</time>
</trkpt>
<trkpt lat="31.7457600" lon="35.1347300">
<ele>724.549988</ele>
<time>2023-01-25T14:09:00.006Z</time>
</trkpt>
<trkpt lat="31.7460100" lon="35.1354600">
<ele>724.490051</ele>
<time>2023-01-25T14:09:00.006Z</time>
</trkpt>
<trkpt lat="31.7460000" lon="35.1355100">
<ele>724.070007</ele>
<time>2023-01-25T14:09:00.006Z</time>
</trkpt>
<trkpt lat="31.7460000" lon="35.1356000">
<ele>724.639954</ele>
<time>2023-01-25T14:09:00.006Z</time>
</trkpt>
<trkpt lat="31.7459800" lon="35.1356500">
<ele>724.639954</ele>
<time>2023-01-25T14:09:00.006Z</time>
</trkpt>
<trkpt lat="31.7459200" lon="35.1356800">
<ele>722.909973</ele>
<time>2023-01-25T14:09:00.006Z</time>
</trkpt>
<trkpt lat="31.7457600" lon="35.1356900">
<ele>718.369995</ele>
<time>2023-01-25T14:09:00.006Z</time>
</trkpt>
<trkpt lat="31.7456500" lon="35.1356900">
<ele>716.020020</ele>
<time>2023-01-25T14:09:00.006Z</time>
</trkpt>
<trkpt lat="31.7454200" lon="35.1356900">
<ele>711.760010</ele>
<time>2023-01-25T14:09:00.006Z</time>
</trkpt>
<trkpt lat="31.7450700" lon="35.1356700">
<ele>710.909973</ele>
<time>2023-01-25T14:09:00.006Z</time>
</trkpt>
<trkpt lat="31.7447900" lon="35.1356300">
<ele>711.409973</ele>
<time>2023-01-25T14:09:00.006Z</time>
</trkpt>
<trkpt lat="31.7446900" lon="35.1355400">
<ele>709.659973</ele>
<time>2023-01-25T14:09:00.006Z</time>
</trkpt>
<trkpt lat="31.7446400" lon="35.1355000">
<ele>709.440002</ele>
<time>2023-01-25T14:09:00.006Z</time>
</trkpt>
<trkpt lat="31.7442400" lon="35.1354200">
<ele>707.570007</ele>
<time>2023-01-25T14:09:00.006Z</time>
</trkpt>
<trkpt lat="31.7438900" lon="35.1352800">
<ele>706.059998</ele>
<time>2023-01-25T14:09:00.006Z</time>
</trkpt>
<trkpt lat="31.7437900" lon="35.1352100">
<ele>705.739990</ele>
<time>2023-01-25T14:09:00.006Z</time>
</trkpt>
<trkpt lat="31.7433600" lon="35.1348900">
<ele>706.489990</ele>
<time>2023-01-25T14:09:00.006Z</time>
</trkpt>
<trkpt lat="31.7431000" lon="35.1346900">
<ele>713.510010</ele>
<time>2023-01-25T14:09:00.006Z</time>
</trkpt>
<trkpt lat="31.7426000" lon="35.1343400">
<ele>713.380005</ele>
<time>2023-01-25T14:09:00.006Z</time>
</trkpt>
<trkpt lat="31.7422500" lon="35.1341300">
<ele>704.599976</ele>
<time>2023-01-25T14:09:00.006Z</time>
</trkpt>
<trkpt lat="31.7414800" lon="35.1337900">
<ele>699.140015</ele>
<time>2023-01-25T14:09:00.006Z</time>
</trkpt>
<trkpt lat="31.7411800" lon="35.1336100">
<ele>698.750000</ele>
<time>2023-01-25T14:09:00.006Z</time>
</trkpt>
<trkpt lat="31.7410700" lon="35.1335200">
<ele>698.669983</ele>
<time>2023-01-25T14:09:00.006Z</time>
</trkpt>
<trkpt lat="31.7407200" lon="35.1331400">
<ele>694.640015</ele>
<time>2023-01-25T14:09:00.006Z</time>
</trkpt>
<trkpt lat="31.7403500" lon="35.1326600">
<ele>689.510010</ele>
<time>2023-01-25T14:09:00.006Z</time>
</trkpt>
<trkpt lat="31.7401900" lon="35.1324400">
<ele>688.170044</ele>
<time>2023-01-25T14:09:00.006Z</time>
</trkpt>
<trkpt lat="31.7401000" lon="35.1322800">
<ele>687.000000</ele>
<time>2023-01-25T14:09:00.006Z</time>
</trkpt>
<trkpt lat="31.7402000" lon="35.1322800">
<ele>686.789978</ele>
<time>2023-01-25T14:09:00.006Z</time>
</trkpt>
<trkpt lat="31.7402600" lon="35.1323100">
<ele>686.970032</ele>
<time>2023-01-25T14:09:00.006Z</time>
</trkpt>
<trkpt lat="31.7411900" lon="35.1330000">
<ele>684.630005</ele>
<time>2023-01-25T14:09:00.006Z</time>
</trkpt>
<trkpt lat="31.7412700" lon="35.1330500">
<ele>684.739990</ele>
<time>2023-01-25T14:09:00.006Z</time>
</trkpt>
<trkpt lat="31.7413500" lon="35.1330900">
<ele>685.660034</ele>
<time>2023-01-25T14:09:00.006Z</time>
</trkpt>
<trkpt lat="31.7416800" lon="35.1332400">
<ele>672.430054</ele>
<time>2023-01-25T14:09:00.006Z</time>
</trkpt>
<trkpt lat="31.7420700" lon="35.1333200">
<ele>663.060059</ele>
<time>2023-01-25T14:09:00.006Z</time>
</trkpt>
<trkpt lat="31.7425100" lon="35.1333500">
<ele>654.099976</ele>
<time>2023-01-25T14:09:00.006Z</time>
</trkpt>
<trkpt lat="31.7431900" lon="35.1333600">
<ele>654.660034</ele>
<time>2023-01-25T14:09:00.006Z</time>
</trkpt>
<trkpt lat="31.7433300" lon="35.1333700">
<ele>657.460022</ele>
<time>2023-01-25T14:09:00.006Z</time>
</trkpt>
<trkpt lat="31.7433900" lon="35.1333600">
<ele>658.400024</ele>
<time>2023-01-25T14:09:00.006Z</time>
</trkpt>
<trkpt lat="31.7434500" lon="35.1333500">
<ele>659.340027</ele>
<time>2023-01-25T14:09:00.006Z</time>
</trkpt>
<trkpt lat="31.7434800" lon="35.1333100">
<ele>659.559937</ele>
<time>2023-01-25T14:09:00.006Z</time>
</trkpt>
<trkpt lat="31.7435000" lon="35.1332000">
<ele>659.520020</ele>
<time>2023-01-25T14:09:00.006Z</time>
</trkpt>
<trkpt lat="31.7434900" lon="35.1330800">
<ele>658.910034</ele>
<time>2023-01-25T14:09:00.006Z</time>
</trkpt>
<trkpt lat="31.7434500" lon="35.1327900">
<ele>657.389954</ele>
<time>2023-01-25T14:09:00.006Z</time>
</trkpt>
<trkpt lat="31.7434300" lon="35.1325000">
<ele>654.519958</ele>
<time>2023-01-25T14:09:00.006Z</time>
</trkpt>
<trkpt lat="31.7434300" lon="35.1320100">
<ele>649.269958</ele>
<time>2023-01-25T14:09:00.006Z</time>
</trkpt>
<trkpt lat="31.7434300" lon="35.1317700">
<ele>646.379944</ele>
<time>2023-01-25T14:09:00.006Z</time>
</trkpt>
<trkpt lat="31.7434800" lon="35.1313400">
<ele>641.200012</ele>
<time>2023-01-25T14:09:00.006Z</time>
</trkpt>
<trkpt lat="31.7435400" lon="35.1311400">
<ele>638.320007</ele>
<time>2023-01-25T14:09:00.006Z</time>
</trkpt>
<trkpt lat="31.7436100" lon="35.1309600">
<ele>635.169983</ele>
<time>2023-01-25T14:09:00.006Z</time>
</trkpt>
<trkpt lat="31.7437400" lon="35.1307500">
<ele>632.049988</ele>
<time>2023-01-25T14:09:00.006Z</time>
</trkpt>
<trkpt lat="31.7438900" lon="35.1305300">
<ele>629.640015</ele>
<time>2023-01-25T14:09:00.006Z</time>
</trkpt>
<trkpt lat="31.7441300" lon="35.1303300">
<ele>625.670044</ele>
<time>2023-01-25T14:09:00.006Z</time>
</trkpt>
<trkpt lat="31.7447500" lon="35.1300000">
<ele>610.299988</ele>
<time>2023-01-25T14:09:00.006Z</time>
</trkpt>
<trkpt lat="31.7449900" lon="35.1299000">
<ele>610.730042</ele>
<time>2023-01-25T14:09:00.006Z</time>
</trkpt>
<trkpt lat="31.7452300" lon="35.1298500">
<ele>611.799988</ele>
<time>2023-01-25T14:09:00.006Z</time>
</trkpt>
<trkpt lat="31.7454000" lon="35.1298400">
<ele>613.099976</ele>
<time>2023-01-25T14:09:00.006Z</time>
</trkpt>
<trkpt lat="31.7455300" lon="35.1298300">
<ele>614.089966</ele>
<time>2023-01-25T14:09:00.006Z</time>
</trkpt>
<trkpt lat="31.7457700" lon="35.1298100">
<ele>615.400024</ele>
<time>2023-01-25T14:09:00.006Z</time>
</trkpt>
<trkpt lat="31.7464600" lon="35.1294300">
<ele>602.659973</ele>
<time>2023-01-25T14:09:00.006Z</time>
</trkpt>
<trkpt lat="31.7467400" lon="35.1293500">
<ele>605.989990</ele>
<time>2023-01-25T14:09:00.006Z</time>
</trkpt>
<trkpt lat="31.7470300" lon="35.1293200">
<ele>612.090027</ele>
<time>2023-01-25T14:09:00.006Z</time>
</trkpt>
<trkpt lat="31.7470900" lon="35.1292900">
<ele>612.859985</ele>
<time>2023-01-25T14:09:00.006Z</time>
</trkpt>
<trkpt lat="31.7471600" lon="35.1292100">
<ele>612.750000</ele>
<time>2023-01-25T14:09:00.006Z</time>
</trkpt>
<trkpt lat="31.7471800" lon="35.1291000">
<ele>611.719971</ele>
<time>2023-01-25T14:09:00.006Z</time>
</trkpt>
<trkpt lat="31.7471900" lon="35.1289400">
<ele>610.690002</ele>
<time>2023-01-25T14:09:00.006Z</time>
</trkpt>
<trkpt lat="31.7472000" lon="35.1284800">
<ele>607.700012</ele>
<time>2023-01-25T14:09:00.006Z</time>
</trkpt>
<trkpt lat="31.7472100" lon="35.1282300">
<ele>604.940002</ele>
<time>2023-01-25T14:09:00.006Z</time>
</trkpt>
<trkpt lat="31.7472300" lon="35.1280700">
<ele>602.440002</ele>
<time>2023-01-25T14:09:00.006Z</time>
</trkpt>
<trkpt lat="31.7472800" lon="35.1279300">
<ele>601.799988</ele>
<time>2023-01-25T14:09:00.006Z</time>
</trkpt>
<trkpt lat="31.7472900" lon="35.1277800">
<ele>600.250000</ele>
<time>2023-01-25T14:09:00.006Z</time>
</trkpt>
<trkpt lat="31.7472700" lon="35.1276200">
<ele>600.619995</ele>
<time>2023-01-25T14:09:00.006Z</time>
</trkpt>
<trkpt lat="31.7471900" lon="35.1275400">
<ele>599.820007</ele>
<time>2023-01-25T14:09:00.006Z</time>
</trkpt>
<trkpt lat="31.7469400" lon="35.1273900">
<ele>601.190002</ele>
<time>2023-01-25T14:09:00.006Z</time>
</trkpt>
<trkpt lat="31.7465100" lon="35.1270600">
<ele>600.460022</ele>
<time>2023-01-25T14:09:00.006Z</time>
</trkpt>
<trkpt lat="31.7462500" lon="35.1269100">
<ele>597.690002</ele>
<time>2023-01-25T14:09:00.006Z</time>
</trkpt>
<trkpt lat="31.7461400" lon="35.1268100">
<ele>596.049988</ele>
<time>2023-01-25T14:09:00.006Z</time>
</trkpt>
<trkpt lat="31.7460800" lon="35.1267200">
<ele>595.250000</ele>
<time>2023-01-25T14:09:00.006Z</time>
</trkpt>
<trkpt lat="31.7460400" lon="35.1266100">
<ele>594.160034</ele>
<time>2023-01-25T14:09:00.006Z</time>
</trkpt>
<trkpt lat="31.7460200" lon="35.1265000">
<ele>592.570007</ele>
<time>2023-01-25T14:09:00.006Z</time>
</trkpt>
<trkpt lat="31.7460100" lon="35.1263600">
<ele>590.669983</ele>
<time>2023-01-25T14:09:00.006Z</time>
</trkpt>
<trkpt lat="31.7460500" lon="35.1257500">
<ele>584.660034</ele>
<time>2023-01-25T14:09:00.006Z</time>
</trkpt>
<trkpt lat="31.7460400" lon="35.1256700">
<ele>584.660034</ele>
<time>2023-01-25T14:09:00.006Z</time>
</trkpt>
<trkpt lat="31.7460000" lon="35.1255300">
<ele>584.880005</ele>
<time>2023-01-25T14:09:00.006Z</time>
</trkpt>
<trkpt lat="31.7458700" lon="35.1253700">
<ele>585.380005</ele>
<time>2023-01-25T14:09:00.006Z</time>
</trkpt>
<trkpt lat="31.7458000" lon="35.1252400">
<ele>585.760010</ele>
<time>2023-01-25T14:09:00.006Z</time>
</trkpt>
<trkpt lat="31.7457100" lon="35.1248500">
<ele>585.640015</ele>
<time>2023-01-25T14:09:00.006Z</time>
</trkpt>
<trkpt lat="31.7455800" lon="35.1244800">
<ele>583.559998</ele>
<time>2023-01-25T14:09:00.006Z</time>
</trkpt>
<trkpt lat="31.7453900" lon="35.1238000">
<ele>577.040039</ele>
<time>2023-01-25T14:09:00.006Z</time>
</trkpt>
<trkpt lat="31.7451000" lon="35.1231000">
<ele>569.639954</ele>
<time>2023-01-25T14:09:00.006Z</time>
</trkpt>
<trkpt lat="31.7450400" lon="35.1229400">
<ele>568.210022</ele>
<time>2023-01-25T14:09:00.006Z</time>
</trkpt>
<trkpt lat="31.7450000" lon="35.1227200">
<ele>568.210022</ele>
<time>2023-01-25T14:09:00.006Z</time>
</trkpt>
<trkpt lat="31.7449800" lon="35.1223900">
<ele>568.919983</ele>
<time>2023-01-25T14:09:00.006Z</time>
</trkpt>
<trkpt lat="31.7449500" lon="35.1222900">
<ele>568.630005</ele>
<time>2023-01-25T14:09:00.006Z</time>
</trkpt>
<trkpt lat="31.7448600" lon="35.1221700">
<ele>568.010010</ele>
<time>2023-01-25T14:09:00.006Z</time>
</trkpt>
<trkpt lat="31.7445900" lon="35.1219800">
<ele>569.130005</ele>
<time>2023-01-25T14:09:00.006Z</time>
</trkpt>
<trkpt lat="31.7443100" lon="35.1217700">
<ele>568.539978</ele>
<time>2023-01-25T14:09:00.006Z</time>
</trkpt>
<trkpt lat="31.7437700" lon="35.1212700">
<ele>558.390015</ele>
<time>2023-01-25T14:09:00.006Z</time>
</trkpt>
<trkpt lat="31.7435800" lon="35.1210600">
<ele>557.500000</ele>
<time>2023-01-25T14:09:00.006Z</time>
</trkpt>
<trkpt lat="31.7429700" lon="35.1203500">
<ele>546.229980</ele>
<time>2023-01-25T14:09:00.006Z</time>
</trkpt>
<trkpt lat="31.7429100" lon="35.1203200">
<ele>544.280029</ele>
<time>2023-01-25T14:09:00.006Z</time>
</trkpt>
<trkpt lat="31.7423900" lon="35.1201900">
<ele>541.070007</ele>
<time>2023-01-25T14:09:00.006Z</time>
</trkpt>
<trkpt lat="31.7421600" lon="35.1201000">
<ele>539.660034</ele>
<time>2023-01-25T14:09:00.006Z</time>
</trkpt>
<trkpt lat="31.7419200" lon="35.1199500">
<ele>539.739990</ele>
<time>2023-01-25T14:09:00.006Z</time>
</trkpt>
<trkpt lat="31.7415100" lon="35.1197600">
<ele>537.010010</ele>
<time>2023-01-25T14:09:00.006Z</time>
</trkpt>
<trkpt lat="31.7407400" lon="35.1194200">
<ele>528.809998</ele>
<time>2023-01-25T14:09:00.006Z</time>
</trkpt>
<trkpt lat="31.7402600" lon="35.1192800">
<ele>532.000000</ele>
<time>2023-01-25T14:09:00.006Z</time>
</trkpt>
<trkpt lat="31.7399500" lon="35.1192500">
<ele>528.559998</ele>
<time>2023-01-25T14:09:00.006Z</time>
</trkpt>
<trkpt lat="31.7395100" lon="35.1191600">
<ele>518.350037</ele>
<time>2023-01-25T14:09:00.006Z</time>
</trkpt>
<trkpt lat="31.7387500" lon="35.1190500">
<ele>507.970001</ele>
<time>2023-01-25T14:09:00.006Z</time>
</trkpt>
<trkpt lat="31.7369200" lon="35.1188400">
<ele>508.110016</ele>
<time>2023-01-25T14:09:00.006Z</time>
</trkpt>
<trkpt lat="31.7367300" lon="35.1187900">
<ele>507.260010</ele>
<time>2023-01-25T14:09:00.006Z</time>
</trkpt>
<trkpt lat="31.7362800" lon="35.1186100">
<ele>500.820007</ele>
<time>2023-01-25T14:09:00.006Z</time>
</trkpt>
<trkpt lat="31.7362200" lon="35.1186100">
<ele>500.169983</ele>
<time>2023-01-25T14:09:00.006Z</time>
</trkpt>
<trkpt lat="31.7360900" lon="35.1186300">
<ele>499.550018</ele>
<time>2023-01-25T14:09:00.006Z</time>
</trkpt>
<trkpt lat="31.7360600" lon="35.1186200">
<ele>499.689972</ele>
<time>2023-01-25T14:09:00.006Z</time>
</trkpt>
<trkpt lat="31.7360200" lon="35.1186300">
<ele>500.260010</ele>
<time>2023-01-25T14:09:00.006Z</time>
</trkpt>
<trkpt lat="31.7359800" lon="35.1184400">
<ele>497.149994</ele>
<time>2023-01-25T14:09:00.006Z</time>
</trkpt>
<trkpt lat="31.7359900" lon="35.1178200">
<ele>498.579987</ele>
<time>2023-01-25T14:09:00.006Z</time>
</trkpt>
<trkpt lat="31.7361100" lon="35.1173200">
<ele>497.719971</ele>
<time>2023-01-25T14:09:00.006Z</time>
</trkpt>
<trkpt lat="31.7368300" lon="35.1161800">
<ele>504.190002</ele>
<time>2023-01-25T14:09:00.006Z</time>
</trkpt>
<trkpt lat="31.7369200" lon="35.1158200">
<ele>503.920013</ele>
<time>2023-01-25T14:09:00.006Z</time>
</trkpt>
<trkpt lat="31.7371400" lon="35.1149200">
<ele>496.709991</ele>
<time>2023-01-25T14:09:00.006Z</time>
</trkpt>
<trkpt lat="31.7371600" lon="35.1146100">
<ele>494.200012</ele>
<time>2023-01-25T14:09:00.006Z</time>
</trkpt>
<trkpt lat="31.7372200" lon="35.1144900">
<ele>492.529999</ele>
<time>2023-01-25T14:09:00.006Z</time>
</trkpt>
<trkpt lat="31.7372800" lon="35.1144800">
<ele>494.880005</ele>
<time>2023-01-25T14:09:00.006Z</time>
</trkpt>
<trkpt lat="31.7373600" lon="35.1144700">
<ele>498.230011</ele>
<time>2023-01-25T14:09:00.006Z</time>
</trkpt>
<trkpt lat="31.7374100" lon="35.1144100">
<ele>499.819977</ele>
<time>2023-01-25T14:09:00.006Z</time>
</trkpt>
<trkpt lat="31.7374800" lon="35.1140800">
<ele>499.829987</ele>
<time>2023-01-25T14:09:00.006Z</time>
</trkpt>
<trkpt lat="31.7376500" lon="35.1137500">
<ele>501.279999</ele>
<time>2023-01-25T14:09:00.006Z</time>
</trkpt>
<trkpt lat="31.7380000" lon="35.1130100">
<ele>497.179993</ele>
<time>2023-01-25T14:09:00.006Z</time>
</trkpt>
<trkpt lat="31.7385100" lon="35.1122500">
<ele>488.600006</ele>
<time>2023-01-25T14:09:00.006Z</time>
</trkpt>
<trkpt lat="31.7387500" lon="35.1120100">
<ele>487.679993</ele>
<time>2023-01-25T14:09:00.006Z</time>
</trkpt>
<trkpt lat="31.7402600" lon="35.1114300">
<ele>494.630005</ele>
<time>2023-01-25T14:09:00.006Z</time>
</trkpt>
<trkpt lat="31.7406300" lon="35.1111800">
<ele>492.069977</ele>
<time>2023-01-25T14:09:00.006Z</time>
</trkpt>
<trkpt lat="31.7408900" lon="35.1107800">
<ele>485.809998</ele>
<time>2023-01-25T14:09:00.006Z</time>
</trkpt>
<trkpt lat="31.7411900" lon="35.1102200">
<ele>487.959991</ele>
<time>2023-01-25T14:09:00.006Z</time>
</trkpt>
<trkpt lat="31.7413800" lon="35.1091700">
<ele>483.920013</ele>
<time>2023-01-25T14:09:00.006Z</time>
</trkpt>
<trkpt lat="31.7414600" lon="35.1087900">
<ele>487.180023</ele>
<time>2023-01-25T14:09:00.006Z</time>
</trkpt>
<trkpt lat="31.7414400" lon="35.1085000">
<ele>488.460022</ele>
<time>2023-01-25T14:09:00.006Z</time>
</trkpt>
<trkpt lat="31.7411000" lon="35.1078800">
<ele>483.649994</ele>
<time>2023-01-25T14:09:00.006Z</time>
</trkpt>
<trkpt lat="31.7410600" lon="35.1076300">
<ele>483.370026</ele>
<time>2023-01-25T14:09:00.006Z</time>
</trkpt>
<trkpt lat="31.7411100" lon="35.1072800">
<ele>479.829987</ele>
<time>2023-01-25T14:09:00.006Z</time>
</trkpt>
<trkpt lat="31.7412700" lon="35.1070000">
<ele>475.800018</ele>
<time>2023-01-25T14:09:00.006Z</time>
</trkpt>
<trkpt lat="31.7413800" lon="35.1068200">
<ele>473.740021</ele>
<time>2023-01-25T14:09:00.006Z</time>
</trkpt>
<trkpt lat="31.7414800" lon="35.1067300">
<ele>472.970001</ele>
<time>2023-01-25T14:09:00.006Z</time>
</trkpt>
<trkpt lat="31.7415800" lon="35.1066900">
<ele>473.369995</ele>
<time>2023-01-25T14:09:00.006Z</time>
</trkpt>
<trkpt lat="31.7416600" lon="35.1066700">
<ele>473.959991</ele>
<time>2023-01-25T14:09:00.006Z</time>
</trkpt>
<trkpt lat="31.7417700" lon="35.1066300">
<ele>472.130005</ele>
<time>2023-01-25T14:09:00.006Z</time>
</trkpt>
<trkpt lat="31.7418900" lon="35.1066000">
<ele>470.400024</ele>
<time>2023-01-25T14:09:00.006Z</time>
</trkpt>
<trkpt lat="31.7419900" lon="35.1065400">
<ele>469.989990</ele>
<time>2023-01-25T14:09:00.006Z</time>
</trkpt>
<trkpt lat="31.7420900" lon="35.1064900">
<ele>470.320007</ele>
<time>2023-01-25T14:09:00.006Z</time>
</trkpt>
<trkpt lat="31.7421900" lon="35.1064600">
<ele>470.390015</ele>
<time>2023-01-25T14:09:00.006Z</time>
</trkpt>
<trkpt lat="31.7422900" lon="35.1064300">
<ele>472.190002</ele>
<time>2023-01-25T14:09:00.006Z</time>
</trkpt>
<trkpt lat="31.7423700" lon="35.1063800">
<ele>473.750000</ele>
<time>2023-01-25T14:09:00.006Z</time>
</trkpt>
<trkpt lat="31.7424500" lon="35.1062900">
<ele>475.570007</ele>
<time>2023-01-25T14:09:00.006Z</time>
</trkpt>
<trkpt lat="31.7425200" lon="35.1061800">
<ele>476.610016</ele>
<time>2023-01-25T14:09:00.006Z</time>
</trkpt>
<trkpt lat="31.7425600" lon="35.1060600">
<ele>476.870026</ele>
<time>2023-01-25T14:09:00.006Z</time>
</trkpt>
<trkpt lat="31.7425900" lon="35.1059400">
<ele>476.350006</ele>
<time>2023-01-25T14:09:00.006Z</time>
</trkpt>
<trkpt lat="31.7426300" lon="35.1058000">
<ele>475.279999</ele>
<time>2023-01-25T14:09:00.006Z</time>
</trkpt>
<trkpt lat="31.7426700" lon="35.1056700">
<ele>475.250000</ele>
<time>2023-01-25T14:09:00.006Z</time>
</trkpt>
<trkpt lat="31.7427100" lon="35.1055200">
<ele>475.070007</ele>
<time>2023-01-25T14:09:00.006Z</time>
</trkpt>
<trkpt lat="31.7427400" lon="35.1053900">
<ele>474.559967</ele>
<time>2023-01-25T14:09:00.006Z</time>
</trkpt>
<trkpt lat="31.7427900" lon="35.1052500">
<ele>474.250000</ele>
<time>2023-01-25T14:09:00.006Z</time>
</trkpt>
<trkpt lat="31.7428300" lon="35.1051300">
<ele>474.829987</ele>
<time>2023-01-25T14:09:00.006Z</time>
</trkpt>
<trkpt lat="31.7428800" lon="35.1050300">
<ele>475.220001</ele>
<time>2023-01-25T14:09:00.006Z</time>
</trkpt>
<trkpt lat="31.7429000" lon="35.1049100">
<ele>475.179993</ele>
<time>2023-01-25T14:09:00.006Z</time>
</trkpt>
<trkpt lat="31.7429200" lon="35.1048000">
<ele>475.169983</ele>
<time>2023-01-25T14:09:00.006Z</time>
</trkpt>
<trkpt lat="31.7429300" lon="35.1046700">
<ele>475.200012</ele>
<time>2023-01-25T14:09:00.006Z</time>
</trkpt>
<trkpt lat="31.7429200" lon="35.1045300">
<ele>475.379974</ele>
<time>2023-01-25T14:09:00.006Z</time>
</trkpt>
<trkpt lat="31.7428700" lon="35.1044300">
<ele>475.079987</ele>
<time>2023-01-25T14:09:00.006Z</time>
</trkpt>
<trkpt lat="31.7428200" lon="35.1043100">
<ele>475.089996</ele>
<time>2023-01-25T14:09:00.006Z</time>
</trkpt>
<trkpt lat="31.7427900" lon="35.1041800">
<ele>475.169983</ele>
<time>2023-01-25T14:09:00.006Z</time>
</trkpt>
<trkpt lat="31.7427700" lon="35.1040600">
<ele>474.649994</ele>
<time>2023-01-25T14:09:00.006Z</time>
</trkpt>
<trkpt lat="31.7427700" lon="35.1039600">
<ele>474.300018</ele>
<time>2023-01-25T14:09:00.006Z</time>
</trkpt>
<trkpt lat="31.7427700" lon="35.1038000">
<ele>473.419983</ele>
<time>2023-01-25T14:09:00.006Z</time>
</trkpt>
<trkpt lat="31.7427800" lon="35.1036500">
<ele>472.339996</ele>
<time>2023-01-25T14:09:00.006Z</time>
</trkpt>
<trkpt lat="31.7428200" lon="35.1035500">
<ele>473.029999</ele>
<time>2023-01-25T14:09:00.006Z</time>
</trkpt>
<trkpt lat="31.7428600" lon="35.1034500">
<ele>473.959991</ele>
<time>2023-01-25T14:09:00.006Z</time>
</trkpt>
<trkpt lat="31.7429100" lon="35.1033100">
<ele>475.250000</ele>
<time>2023-01-25T14:09:00.006Z</time>
</trkpt>
<trkpt lat="31.7429400" lon="35.1031600">
<ele>475.790009</ele>
<time>2023-01-25T14:09:00.006Z</time>
</trkpt>
<trkpt lat="31.7429800" lon="35.1030100">
<ele>475.800018</ele>
<time>2023-01-25T14:09:00.006Z</time>
</trkpt>
<trkpt lat="31.7430200" lon="35.1028600">
<ele>474.600006</ele>
<time>2023-01-25T14:09:00.006Z</time>
</trkpt>
<trkpt lat="31.7430700" lon="35.1027200">
<ele>473.970001</ele>
<time>2023-01-25T14:09:00.006Z</time>
</trkpt>
<trkpt lat="31.7431200" lon="35.1025900">
<ele>474.029999</ele>
<time>2023-01-25T14:09:00.006Z</time>
</trkpt>
<trkpt lat="31.7431400" lon="35.1024500">
<ele>473.109985</ele>
<time>2023-01-25T14:09:00.006Z</time>
</trkpt>
<trkpt lat="31.7431500" lon="35.1023100">
<ele>472.100006</ele>
<time>2023-01-25T14:09:00.006Z</time>
</trkpt>
<trkpt lat="31.7431600" lon="35.1021900">
<ele>471.519989</ele>
<time>2023-01-25T14:09:00.006Z</time>
</trkpt>
<trkpt lat="31.7431600" lon="35.1020700">
<ele>471.569977</ele>
<time>2023-01-25T14:09:00.006Z</time>
</trkpt>
<trkpt lat="31.7431700" lon="35.1019500">
<ele>471.880005</ele>
<time>2023-01-25T14:09:00.006Z</time>
</trkpt>
<trkpt lat="31.7431700" lon="35.1018400">
<ele>471.349976</ele>
<time>2023-01-25T14:09:00.006Z</time>
</trkpt>
<trkpt lat="31.7431600" lon="35.1016900">
<ele>470.369995</ele>
<time>2023-01-25T14:09:00.006Z</time>
</trkpt>
<trkpt lat="31.7431600" lon="35.1015500">
<ele>469.989990</ele>
<time>2023-01-25T14:09:00.006Z</time>
</trkpt>
<trkpt lat="31.7431600" lon="35.1014000">
<ele>469.660004</ele>
<time>2023-01-25T14:09:00.006Z</time>
</trkpt>
<trkpt lat="31.7431600" lon="35.1012500">
<ele>469.630005</ele>
<time>2023-01-25T14:09:00.006Z</time>
</trkpt>
<trkpt lat="31.7431600" lon="35.1011000">
<ele>469.619995</ele>
<time>2023-01-25T14:09:00.006Z</time>
</trkpt>
<trkpt lat="31.7431500" lon="35.1009600">
<ele>469.200012</ele>
<time>2023-01-25T14:09:00.006Z</time>
</trkpt>
<trkpt lat="31.7431500" lon="35.1008400">
<ele>469.049988</ele>
<time>2023-01-25T14:09:00.006Z</time>
</trkpt>
<trkpt lat="31.7431500" lon="35.1007100">
<ele>469.939972</ele>
<time>2023-01-25T14:09:00.006Z</time>
</trkpt>
<trkpt lat="31.7431400" lon="35.1005900">
<ele>470.500000</ele>
<time>2023-01-25T14:09:00.006Z</time>
</trkpt>
<trkpt lat="31.7431300" lon="35.1004400">
<ele>470.749969</ele>
<time>2023-01-25T14:09:00.006Z</time>
</trkpt>
<trkpt lat="31.7431100" lon="35.1003400">
<ele>470.220001</ele>
<time>2023-01-25T14:09:00.006Z</time>
</trkpt>
<trkpt lat="31.7430900" lon="35.1002300">
<ele>469.899994</ele>
<time>2023-01-25T14:09:00.006Z</time>
</trkpt>
<trkpt lat="31.7430600" lon="35.1001000">
<ele>469.500000</ele>
<time>2023-01-25T14:09:00.006Z</time>
</trkpt>
<trkpt lat="31.7430200" lon="35.0999700">
<ele>469.820007</ele>
<time>2023-01-25T14:09:00.006Z</time>
</trkpt>
<trkpt lat="31.7429700" lon="35.0998300">
<ele>470.109985</ele>
<time>2023-01-25T14:09:00.006Z</time>
</trkpt>
<trkpt lat="31.7429200" lon="35.0997400">
<ele>469.949982</ele>
<time>2023-01-25T14:09:00.006Z</time>
</trkpt>
<trkpt lat="31.7428500" lon="35.0996400">
<ele>469.939972</ele>
<time>2023-01-25T14:09:00.006Z</time>
</trkpt>
<trkpt lat="31.7427800" lon="35.0995300">
<ele>469.440002</ele>
<time>2023-01-25T14:09:00.006Z</time>
</trkpt>
<trkpt lat="31.7427200" lon="35.0994400">
<ele>469.829987</ele>
<time>2023-01-25T14:09:00.006Z</time>
</trkpt>
<trkpt lat="31.7426500" lon="35.0993200">
<ele>470.060028</ele>
<time>2023-01-25T14:09:00.006Z</time>
</trkpt>
<trkpt lat="31.7426000" lon="35.0992500">
<ele>469.670013</ele>
<time>2023-01-25T14:09:00.006Z</time>
</trkpt>
<trkpt lat="31.7425500" lon="35.0991300">
<ele>469.169983</ele>
<time>2023-01-25T14:09:00.006Z</time>
</trkpt>
<trkpt lat="31.7424700" lon="35.0990200">
<ele>468.630005</ele>
<time>2023-01-25T14:09:00.006Z</time>
</trkpt>
<trkpt lat="31.7424200" lon="35.0989200">
<ele>468.950012</ele>
<time>2023-01-25T14:09:00.006Z</time>
</trkpt>
<trkpt lat="31.7423600" lon="35.0988000">
<ele>469.639984</ele>
<time>2023-01-25T14:09:00.006Z</time>
</trkpt>
<trkpt lat="31.7422600" lon="35.0987000">
<ele>469.859985</ele>
<time>2023-01-25T14:09:00.006Z</time>
</trkpt>
<trkpt lat="31.7421800" lon="35.0986000">
<ele>470.289978</ele>
<time>2023-01-25T14:09:00.006Z</time>
</trkpt>
<trkpt lat="31.7420900" lon="35.0984900">
<ele>471.600006</ele>
<time>2023-01-25T14:09:00.006Z</time>
</trkpt>
<trkpt lat="31.7420300" lon="35.0984100">
<ele>472.079987</ele>
<time>2023-01-25T14:09:00.006Z</time>
</trkpt>
<trkpt lat="31.7419700" lon="35.0983200">
<ele>472.339996</ele>
<time>2023-01-25T14:09:00.006Z</time>
</trkpt>
<trkpt lat="31.7419200" lon="35.0982300">
<ele>472.899994</ele>
<time>2023-01-25T14:09:00.006Z</time>
</trkpt>
<trkpt lat="31.7418700" lon="35.0981400">
<ele>473.069977</ele>
<time>2023-01-25T14:09:00.006Z</time>
</trkpt>
<trkpt lat="31.7418200" lon="35.0980400">
<ele>472.790009</ele>
<time>2023-01-25T14:09:00.006Z</time>
</trkpt>
<trkpt lat="31.7417600" lon="35.0979000">
<ele>471.869995</ele>
<time>2023-01-25T14:09:00.006Z</time>
</trkpt>
<trkpt lat="31.7417200" lon="35.0978100">
<ele>471.130005</ele>
<time>2023-01-25T14:09:00.006Z</time>
</trkpt>
<trkpt lat="31.7416800" lon="35.0977100">
<ele>470.069977</ele>
<time>2023-01-25T14:09:00.006Z</time>
</trkpt>
<trkpt lat="31.7416400" lon="35.0976000">
<ele>469.049988</ele>
<time>2023-01-25T14:09:00.006Z</time>
</trkpt>
<trkpt lat="31.7415900" lon="35.0974900">
<ele>467.889984</ele>
<time>2023-01-25T14:09:00.006Z</time>
</trkpt>
<trkpt lat="31.7415400" lon="35.0973800">
<ele>466.980011</ele>
<time>2023-01-25T14:09:00.006Z</time>
</trkpt>
<trkpt lat="31.7415000" lon="35.0972700">
<ele>466.100006</ele>
<time>2023-01-25T14:09:00.006Z</time>
</trkpt>
<trkpt lat="31.7414700" lon="35.0971500">
<ele>465.380005</ele>
<time>2023-01-25T14:09:00.006Z</time>
</trkpt>
<trkpt lat="31.7414400" lon="35.0970300">
<ele>464.790009</ele>
<time>2023-01-25T14:09:00.006Z</time>
</trkpt>
<trkpt lat="31.7414200" lon="35.0969100">
<ele>464.320007</ele>
<time>2023-01-25T14:09:00.006Z</time>
</trkpt>
<trkpt lat="31.7414100" lon="35.0968000">
<ele>463.779999</ele>
<time>2023-01-25T14:09:00.006Z</time>
</trkpt>
<trkpt lat="31.7414000" lon="35.0966500">
<ele>463.040009</ele>
<time>2023-01-25T14:09:00.006Z</time>
</trkpt>
<trkpt lat="31.7413800" lon="35.0965400">
<ele>462.040009</ele>
<time>2023-01-25T14:09:00.006Z</time>
</trkpt>
<trkpt lat="31.7413600" lon="35.0964200">
<ele>461.190002</ele>
<time>2023-01-25T14:09:00.006Z</time>
</trkpt>
<trkpt lat="31.7413500" lon="35.0963000">
<ele>460.720001</ele>
<time>2023-01-25T14:09:00.006Z</time>
</trkpt>
<trkpt lat="31.7413500" lon="35.0961800">
<ele>460.349976</ele>
<time>2023-01-25T14:09:00.006Z</time>
</trkpt>
<trkpt lat="31.7413500" lon="35.0960500">
<ele>460.109985</ele>
<time>2023-01-25T14:09:00.006Z</time>
</trkpt>
<trkpt lat="31.7413600" lon="35.0959300">
<ele>460.040009</ele>
<time>2023-01-25T14:09:00.006Z</time>
</trkpt>
<trkpt lat="31.7414000" lon="35.0958100">
<ele>460.190002</ele>
<time>2023-01-25T14:09:00.006Z</time>
</trkpt>
<trkpt lat="31.7414600" lon="35.0957100">
<ele>460.869995</ele>
<time>2023-01-25T14:09:00.006Z</time>
</trkpt>
<trkpt lat="31.7415100" lon="35.0956100">
<ele>461.059998</ele>
<time>2023-01-25T14:09:00.006Z</time>
</trkpt>
<trkpt lat="31.7415400" lon="35.0955100">
<ele>460.579987</ele>
<time>2023-01-25T14:09:00.006Z</time>
</trkpt>
<trkpt lat="31.7416000" lon="35.0954200">
<ele>459.649994</ele>
<time>2023-01-25T14:09:00.006Z</time>
</trkpt>
<trkpt lat="31.7416900" lon="35.0953100">
<ele>458.379974</ele>
<time>2023-01-25T14:09:00.006Z</time>
</trkpt>
<trkpt lat="31.7417500" lon="35.0952200">
<ele>457.479980</ele>
<time>2023-01-25T14:09:00.006Z</time>
</trkpt>
<trkpt lat="31.7418200" lon="35.0951300">
<ele>456.000000</ele>
<time>2023-01-25T14:09:00.006Z</time>
</trkpt>
<trkpt lat="31.7418900" lon="35.0950600">
<ele>454.059998</ele>
<time>2023-01-25T14:09:00.006Z</time>
</trkpt>
<trkpt lat="31.7419800" lon="35.0950000">
<ele>451.619995</ele>
<time>2023-01-25T14:09:00.006Z</time>
</trkpt>
<trkpt lat="31.7420700" lon="35.0949600">
<ele>450.200012</ele>
<time>2023-01-25T14:09:00.006Z</time>
</trkpt>
<trkpt lat="31.7421700" lon="35.0949500">
<ele>449.139984</ele>
<time>2023-01-25T14:09:00.006Z</time>
</trkpt>
<trkpt lat="31.7422700" lon="35.0949500">
<ele>448.500000</ele>
<time>2023-01-25T14:09:00.006Z</time>
</trkpt>
<trkpt lat="31.7423700" lon="35.0949500">
<ele>448.199982</ele>
<time>2023-01-25T14:09:00.006Z</time>
</trkpt>
<trkpt lat="31.7424700" lon="35.0949600">
<ele>447.950012</ele>
<time>2023-01-25T14:09:00.006Z</time>
</trkpt>
<trkpt lat="31.7425600" lon="35.0949900">
<ele>449.239990</ele>
<time>2023-01-25T14:09:00.006Z</time>
</trkpt>
<trkpt lat="31.7426500" lon="35.0950200">
<ele>451.709991</ele>
<time>2023-01-25T14:09:00.006Z</time>
</trkpt>
<trkpt lat="31.7427400" lon="35.0950600">
<ele>454.669983</ele>
<time>2023-01-25T14:09:00.006Z</time>
</trkpt>
<trkpt lat="31.7428300" lon="35.0951000">
<ele>456.299988</ele>
<time>2023-01-25T14:09:00.006Z</time>
</trkpt>
<trkpt lat="31.7429400" lon="35.0951400">
<ele>456.350006</ele>
<time>2023-01-25T14:09:00.006Z</time>
</trkpt>
<trkpt lat="31.7430500" lon="35.0951600">
<ele>455.630005</ele>
<time>2023-01-25T14:09:00.006Z</time>
</trkpt>
<trkpt lat="31.7431600" lon="35.0951700">
<ele>454.709991</ele>
<time>2023-01-25T14:09:00.006Z</time>
</trkpt>
<trkpt lat="31.7432700" lon="35.0951700">
<ele>453.769989</ele>
<time>2023-01-25T14:09:00.006Z</time>
</trkpt>
<trkpt lat="31.7433600" lon="35.0951600">
<ele>453.649994</ele>
<time>2023-01-25T14:09:00.006Z</time>
</trkpt>
<trkpt lat="31.7434700" lon="35.0951400">
<ele>455.469971</ele>
<time>2023-01-25T14:09:00.006Z</time>
</trkpt>
<trkpt lat="31.7435800" lon="35.0950800">
<ele>456.639984</ele>
<time>2023-01-25T14:09:00.006Z</time>
</trkpt>
<trkpt lat="31.7436700" lon="35.0950300">
<ele>457.730011</ele>
<time>2023-01-25T14:09:00.006Z</time>
</trkpt>
<trkpt lat="31.7437500" lon="35.0949700">
<ele>458.779999</ele>
<time>2023-01-25T14:09:00.006Z</time>
</trkpt>
<trkpt lat="31.7438100" lon="35.0948900">
<ele>459.500000</ele>
<time>2023-01-25T14:09:00.006Z</time>
</trkpt>
<trkpt lat="31.7438800" lon="35.0948000">
<ele>460.369995</ele>
<time>2023-01-25T14:09:00.006Z</time>
</trkpt>
<trkpt lat="31.7439300" lon="35.0946900">
<ele>459.850006</ele>
<time>2023-01-25T14:09:00.006Z</time>
</trkpt>
<trkpt lat="31.7439800" lon="35.0945900">
<ele>458.910004</ele>
<time>2023-01-25T14:09:00.006Z</time>
</trkpt>
<trkpt lat="31.7440500" lon="35.0944700">
<ele>458.049988</ele>
<time>2023-01-25T14:09:00.006Z</time>
</trkpt>
<trkpt lat="31.7441300" lon="35.0943700">
<ele>456.870026</ele>
<time>2023-01-25T14:09:00.006Z</time>
</trkpt>
<trkpt lat="31.7442300" lon="35.0943000">
<ele>455.009979</ele>
<time>2023-01-25T14:09:00.006Z</time>
</trkpt>
<trkpt lat="31.7443400" lon="35.0942900">
<ele>454.139984</ele>
<time>2023-01-25T14:09:00.006Z</time>
</trkpt>
<trkpt lat="31.7444500" lon="35.0942700">
<ele>452.940033</ele>
<time>2023-01-25T14:09:00.006Z</time>
</trkpt>
<trkpt lat="31.7445300" lon="35.0942200">
<ele>451.239990</ele>
<time>2023-01-25T14:09:00.006Z</time>
</trkpt>
<trkpt lat="31.7446200" lon="35.0941700">
<ele>450.059998</ele>
<time>2023-01-25T14:09:00.006Z</time>
</trkpt>
<trkpt lat="31.7447200" lon="35.0941300">
<ele>449.739990</ele>
<time>2023-01-25T14:09:00.006Z</time>
</trkpt>
<trkpt lat="31.7448100" lon="35.0940900">
<ele>449.850006</ele>
<time>2023-01-25T14:09:00.006Z</time>
</trkpt>
<trkpt lat="31.7449000" lon="35.0940500">
<ele>450.070007</ele>
<time>2023-01-25T14:09:00.006Z</time>
</trkpt>
<trkpt lat="31.7450200" lon="35.0940100">
<ele>450.660004</ele>
<time>2023-01-25T14:09:00.006Z</time>
</trkpt>
<trkpt lat="31.7451100" lon="35.0939800">
<ele>451.650024</ele>
<time>2023-01-25T14:09:00.006Z</time>
</trkpt>
<trkpt lat="31.7452000" lon="35.0939600">
<ele>452.769989</ele>
<time>2023-01-25T14:09:00.006Z</time>
</trkpt>
<trkpt lat="31.7453100" lon="35.0939500">
<ele>453.720001</ele>
<time>2023-01-25T14:09:00.006Z</time>
</trkpt>
<trkpt lat="31.7454300" lon="35.0939500">
<ele>453.470001</ele>
<time>2023-01-25T14:09:00.006Z</time>
</trkpt>
<trkpt lat="31.7455300" lon="35.0939400">
<ele>453.240021</ele>
<time>2023-01-25T14:09:00.006Z</time>
</trkpt>
<trkpt lat="31.7456300" lon="35.0939300">
<ele>453.529999</ele>
<time>2023-01-25T14:09:00.006Z</time>
</trkpt>
<trkpt lat="31.7457400" lon="35.0939200">
<ele>454.000000</ele>
<time>2023-01-25T14:09:00.006Z</time>
</trkpt>
<trkpt lat="31.7458300" lon="35.0939100">
<ele>454.290009</ele>
<time>2023-01-25T14:09:00.006Z</time>
</trkpt>
<trkpt lat="31.7459300" lon="35.0938400">
<ele>452.259979</ele>
<time>2023-01-25T14:09:00.006Z</time>
</trkpt>
<trkpt lat="31.7460300" lon="35.0937800">
<ele>450.379974</ele>
<time>2023-01-25T14:09:00.006Z</time>
</trkpt>
<trkpt lat="31.7461400" lon="35.0937400">
<ele>448.980011</ele>
<time>2023-01-25T14:09:00.006Z</time>
</trkpt>
<trkpt lat="31.7462500" lon="35.0937200">
<ele>449.089996</ele>
<time>2023-01-25T14:09:00.006Z</time>
</trkpt>
<trkpt lat="31.7463700" lon="35.0937200">
<ele>449.349976</ele>
<time>2023-01-25T14:09:00.006Z</time>
</trkpt>
<trkpt lat="31.7464800" lon="35.0937300">
<ele>450.459991</ele>
<time>2023-01-25T14:09:00.006Z</time>
</trkpt>
<trkpt lat="31.7465500" lon="35.0937900">
<ele>451.220001</ele>
<time>2023-01-25T14:09:00.006Z</time>
</trkpt>
<trkpt lat="31.7465900" lon="35.0938900">
<ele>451.459991</ele>
<time>2023-01-25T14:09:00.006Z</time>
</trkpt>
<trkpt lat="31.7466100" lon="35.0940100">
<ele>452.290009</ele>
<time>2023-01-25T14:09:00.006Z</time>
</trkpt>
<trkpt lat="31.7466300" lon="35.0941300">
<ele>452.949982</ele>
<time>2023-01-25T14:09:00.006Z</time>
</trkpt>
<trkpt lat="31.7466700" lon="35.0942600">
<ele>453.940002</ele>
<time>2023-01-25T14:09:00.006Z</time>
</trkpt>
<trkpt lat="31.7467500" lon="35.0943600">
<ele>453.380005</ele>
<time>2023-01-25T14:09:00.006Z</time>
</trkpt>
<trkpt lat="31.7468600" lon="35.0944500">
<ele>451.889984</ele>
<time>2023-01-25T14:09:00.006Z</time>
</trkpt>
<trkpt lat="31.7469400" lon="35.0945000">
<ele>450.700012</ele>
<time>2023-01-25T14:09:00.006Z</time>
</trkpt>
<trkpt lat="31.7470400" lon="35.0945800">
<ele>453.010010</ele>
<time>2023-01-25T14:09:00.006Z</time>
</trkpt>
<trkpt lat="31.7471300" lon="35.0946000">
<ele>454.730011</ele>
<time>2023-01-25T14:09:00.006Z</time>
</trkpt>
<trkpt lat="31.7472300" lon="35.0946000">
<ele>456.079987</ele>
<time>2023-01-25T14:09:00.006Z</time>
</trkpt>
<trkpt lat="31.7473200" lon="35.0946000">
<ele>454.209991</ele>
<time>2023-01-25T14:09:00.006Z</time>
</trkpt>
<trkpt lat="31.7474300" lon="35.0945900">
<ele>451.679993</ele>
<time>2023-01-25T14:09:00.006Z</time>
</trkpt>
<trkpt lat="31.7475200" lon="35.0945700">
<ele>449.689972</ele>
<time>2023-01-25T14:09:00.006Z</time>
</trkpt>
<trkpt lat="31.7476500" lon="35.0945200">
<ele>448.720001</ele>
<time>2023-01-25T14:09:00.006Z</time>
</trkpt>
<trkpt lat="31.7477400" lon="35.0944700">
<ele>447.599976</ele>
<time>2023-01-25T14:09:00.006Z</time>
</trkpt>
<trkpt lat="31.7478300" lon="35.0943900">
<ele>447.729980</ele>
<time>2023-01-25T14:09:00.006Z</time>
</trkpt>
<trkpt lat="31.7479300" lon="35.0942900">
<ele>447.920013</ele>
<time>2023-01-25T14:09:00.006Z</time>
</trkpt>
<trkpt lat="31.7480400" lon="35.0942000">
<ele>446.670013</ele>
<time>2023-01-25T14:09:00.006Z</time>
</trkpt>
<trkpt lat="31.7481700" lon="35.0941000">
<ele>446.279999</ele>
<time>2023-01-25T14:09:00.006Z</time>
</trkpt>
<trkpt lat="31.7482900" lon="35.0940300">
<ele>446.560028</ele>
<time>2023-01-25T14:09:00.006Z</time>
</trkpt>
<trkpt lat="31.7483900" lon="35.0939800">
<ele>446.850006</ele>
<time>2023-01-25T14:09:00.006Z</time>
</trkpt>
<trkpt lat="31.7484800" lon="35.0939400">
<ele>446.990021</ele>
<time>2023-01-25T14:09:00.006Z</time>
</trkpt>
<trkpt lat="31.7485900" lon="35.0939100">
<ele>447.289978</ele>
<time>2023-01-25T14:09:00.006Z</time>
</trkpt>
<trkpt lat="31.7487000" lon="35.0938600">
<ele>445.929993</ele>
<time>2023-01-25T14:09:00.006Z</time>
</trkpt>
<trkpt lat="31.7488000" lon="35.0938000">
<ele>444.970001</ele>
<time>2023-01-25T14:09:00.006Z</time>
</trkpt>
<trkpt lat="31.7489200" lon="35.0937200">
<ele>444.970001</ele>
<time>2023-01-25T14:09:00.006Z</time>
</trkpt>
<trkpt lat="31.7490300" lon="35.0936400">
<ele>446.819977</ele>
<time>2023-01-25T14:09:00.006Z</time>
</trkpt>
<trkpt lat="31.7491400" lon="35.0936100">
<ele>448.610016</ele>
<time>2023-01-25T14:09:00.006Z</time>
</trkpt>
<trkpt lat="31.7492400" lon="35.0936000">
<ele>449.380005</ele>
<time>2023-01-25T14:09:00.006Z</time>
</trkpt>
<trkpt lat="31.7493400" lon="35.0935900">
<ele>449.880005</ele>
<time>2023-01-25T14:09:00.006Z</time>
</trkpt>
<trkpt lat="31.7494600" lon="35.0935500">
<ele>449.600006</ele>
<time>2023-01-25T14:09:00.006Z</time>
</trkpt>
<trkpt lat="31.7495600" lon="35.0934900">
<ele>448.100006</ele>
<time>2023-01-25T14:09:00.006Z</time>
</trkpt>
<trkpt lat="31.7496800" lon="35.0934400">
<ele>447.179993</ele>
<time>2023-01-25T14:09:00.006Z</time>
</trkpt>
<trkpt lat="31.7498100" lon="35.0934000">
<ele>446.390015</ele>
<time>2023-01-25T14:09:00.006Z</time>
</trkpt>
<trkpt lat="31.7499400" lon="35.0933700">
<ele>445.239990</ele>
<time>2023-01-25T14:09:00.006Z</time>
</trkpt>
<trkpt lat="31.7500800" lon="35.0933400">
<ele>445.020020</ele>
<time>2023-01-25T14:09:00.006Z</time>
</trkpt>
<trkpt lat="31.7502200" lon="35.0933300">
<ele>446.349976</ele>
<time>2023-01-25T14:09:00.006Z</time>
</trkpt>
<trkpt lat="31.7503500" lon="35.0933100">
<ele>445.539978</ele>
<time>2023-01-25T14:09:00.006Z</time>
</trkpt>
<trkpt lat="31.7504700" lon="35.0932800">
<ele>443.500000</ele>
<time>2023-01-25T14:09:00.006Z</time>
</trkpt>
<trkpt lat="31.7505800" lon="35.0932400">
<ele>442.860016</ele>
<time>2023-01-25T14:09:00.006Z</time>
</trkpt>
<trkpt lat="31.7506700" lon="35.0932100">
<ele>444.639984</ele>
<time>2023-01-25T14:09:00.006Z</time>
</trkpt>
<trkpt lat="31.7507500" lon="35.0931500">
<ele>445.490021</ele>
<time>2023-01-25T14:09:00.006Z</time>
</trkpt>
<trkpt lat="31.7508100" lon="35.0930700">
<ele>445.069977</ele>
<time>2023-01-25T14:09:00.006Z</time>
</trkpt>
<trkpt lat="31.7508700" lon="35.0929700">
<ele>444.959991</ele>
<time>2023-01-25T14:09:00.006Z</time>
</trkpt>
<trkpt lat="31.7509200" lon="35.0928600">
<ele>444.779999</ele>
<time>2023-01-25T14:09:00.006Z</time>
</trkpt>
<trkpt lat="31.7509500" lon="35.0927200">
<ele>443.820007</ele>
<time>2023-01-25T14:09:00.006Z</time>
</trkpt>
<trkpt lat="31.7509600" lon="35.0925800">
<ele>443.200012</ele>
<time>2023-01-25T14:09:00.006Z</time>
</trkpt>
<trkpt lat="31.7509700" lon="35.0924500">
<ele>442.850006</ele>
<time>2023-01-25T14:09:00.006Z</time>
</trkpt>
<trkpt lat="31.7509700" lon="35.0923400">
<ele>442.660004</ele>
<time>2023-01-25T14:09:00.006Z</time>
</trkpt>
<trkpt lat="31.7509700" lon="35.0922200">
<ele>442.459991</ele>
<time>2023-01-25T14:09:00.006Z</time>
</trkpt>
<trkpt lat="31.7509500" lon="35.0921200">
<ele>442.250000</ele>
<time>2023-01-25T14:09:00.006Z</time>
</trkpt>
<trkpt lat="31.7509200" lon="35.0920200">
<ele>441.790009</ele>
<time>2023-01-25T14:09:00.006Z</time>
</trkpt>
<trkpt lat="31.7508400" lon="35.0919200">
<ele>440.329987</ele>
<time>2023-01-25T14:09:00.006Z</time>
</trkpt>
<trkpt lat="31.7507900" lon="35.0918300">
<ele>441.259979</ele>
<time>2023-01-25T14:09:00.006Z</time>
</trkpt>
<trkpt lat="31.7507200" lon="35.0917400">
<ele>442.199982</ele>
<time>2023-01-25T14:09:00.006Z</time>
</trkpt>
<trkpt lat="31.7506600" lon="35.0916200">
<ele>442.809998</ele>
<time>2023-01-25T14:09:00.006Z</time>
</trkpt>
<trkpt lat="31.7506100" lon="35.0915000">
<ele>443.160004</ele>
<time>2023-01-25T14:09:00.006Z</time>
</trkpt>
<trkpt lat="31.7505900" lon="35.0913800">
<ele>443.260010</ele>
<time>2023-01-25T14:09:00.006Z</time>
</trkpt>
<trkpt lat="31.7505700" lon="35.0912700">
<ele>443.170013</ele>
<time>2023-01-25T14:09:00.006Z</time>
</trkpt>
<trkpt lat="31.7505600" lon="35.0911600">
<ele>443.070007</ele>
<time>2023-01-25T14:09:00.006Z</time>
</trkpt>
<trkpt lat="31.7505400" lon="35.0910400">
<ele>443.139984</ele>
<time>2023-01-25T14:09:00.006Z</time>
</trkpt>
<trkpt lat="31.7505300" lon="35.0909200">
<ele>443.149994</ele>
<time>2023-01-25T14:09:00.006Z</time>
</trkpt>
<trkpt lat="31.7505000" lon="35.0908100">
<ele>443.180023</ele>
<time>2023-01-25T14:09:00.006Z</time>
</trkpt>
<trkpt lat="31.7504900" lon="35.0906900">
<ele>443.109985</ele>
<time>2023-01-25T14:09:00.006Z</time>
</trkpt>
<trkpt lat="31.7504800" lon="35.0905600">
<ele>443.000000</ele>
<time>2023-01-25T14:09:00.006Z</time>
</trkpt>
<trkpt lat="31.7504800" lon="35.0904500">
<ele>443.170013</ele>
<time>2023-01-25T14:09:00.006Z</time>
</trkpt>
<trkpt lat="31.7504900" lon="35.0903400">
<ele>443.410004</ele>
<time>2023-01-25T14:09:00.006Z</time>
</trkpt>
<trkpt lat="31.7505000" lon="35.0902200">
<ele>444.059998</ele>
<time>2023-01-25T14:09:00.006Z</time>
</trkpt>
<trkpt lat="31.7505300" lon="35.0901100">
<ele>445.079987</ele>
<time>2023-01-25T14:09:00.006Z</time>
</trkpt>
<trkpt lat="31.7505800" lon="35.0900000">
<ele>446.349976</ele>
<time>2023-01-25T14:09:00.006Z</time>
</trkpt>
<trkpt lat="31.7506200" lon="35.0898800">
<ele>446.730011</ele>
<time>2023-01-25T14:09:00.006Z</time>
</trkpt>
<trkpt lat="31.7506800" lon="35.0897700">
<ele>447.049988</ele>
<time>2023-01-25T14:09:00.006Z</time>
</trkpt>
<trkpt lat="31.7507200" lon="35.0896600">
<ele>446.550018</ele>
<time>2023-01-25T14:09:00.006Z</time>
</trkpt>
<trkpt lat="31.7507600" lon="35.0895500">
<ele>445.899994</ele>
<time>2023-01-25T14:09:00.006Z</time>
</trkpt>
<trkpt lat="31.7507900" lon="35.0894500">
<ele>445.419983</ele>
<time>2023-01-25T14:09:00.006Z</time>
</trkpt>
<trkpt lat="31.7508100" lon="35.0893300">
<ele>443.569977</ele>
<time>2023-01-25T14:09:00.006Z</time>
</trkpt>
<trkpt lat="31.7508300" lon="35.0892200">
<ele>441.899994</ele>
<time>2023-01-25T14:09:00.006Z</time>
</trkpt>
<trkpt lat="31.7508400" lon="35.0891100">
<ele>441.059998</ele>
<time>2023-01-25T14:09:00.006Z</time>
</trkpt>
<trkpt lat="31.7508500" lon="35.0890000">
<ele>441.019989</ele>
<time>2023-01-25T14:09:00.006Z</time>
</trkpt>
<trkpt lat="31.7508500" lon="35.0888500">
<ele>439.790009</ele>
<time>2023-01-25T14:09:00.006Z</time>
</trkpt>
<trkpt lat="31.7508400" lon="35.0887000">
<ele>436.209991</ele>
<time>2023-01-25T14:09:00.006Z</time>
</trkpt>
<trkpt lat="31.7508300" lon="35.0885900">
<ele>434.239990</ele>
<time>2023-01-25T14:09:00.006Z</time>
</trkpt>
<trkpt lat="31.7508100" lon="35.0884700">
<ele>435.479980</ele>
<time>2023-01-25T14:09:00.006Z</time>
</trkpt>
<trkpt lat="31.7507800" lon="35.0883700">
<ele>436.299988</ele>
<time>2023-01-25T14:09:00.006Z</time>
</trkpt>
<trkpt lat="31.7507000" lon="35.0882700">
<ele>437.079987</ele>
<time>2023-01-25T14:09:00.006Z</time>
</trkpt>
<trkpt lat="31.7506300" lon="35.0881800">
<ele>437.640015</ele>
<time>2023-01-25T14:09:00.006Z</time>
</trkpt>
<trkpt lat="31.7505500" lon="35.0880900">
<ele>437.640015</ele>
<time>2023-01-25T14:09:00.006Z</time>
</trkpt>
<trkpt lat="31.7505000" lon="35.0879900">
<ele>438.570007</ele>
<time>2023-01-25T14:09:00.006Z</time>
</trkpt>
<trkpt lat="31.7504400" lon="35.0879000">
<ele>438.980011</ele>
<time>2023-01-25T14:09:00.006Z</time>
</trkpt>
<trkpt lat="31.7503900" lon="35.0878100">
<ele>439.070007</ele>
<time>2023-01-25T14:09:00.006Z</time>
</trkpt>
<trkpt lat="31.7503200" lon="35.0876900">
<ele>439.280029</ele>
<time>2023-01-25T14:09:00.006Z</time>
</trkpt>
<trkpt lat="31.7502500" lon="35.0875800">
<ele>438.869995</ele>
<time>2023-01-25T14:09:00.006Z</time>
</trkpt>
<trkpt lat="31.7501900" lon="35.0874700">
<ele>437.970001</ele>
<time>2023-01-25T14:09:00.006Z</time>
</trkpt>
<trkpt lat="31.7501400" lon="35.0873700">
<ele>437.229980</ele>
<time>2023-01-25T14:09:00.006Z</time>
</trkpt>
<trkpt lat="31.7500900" lon="35.0872500">
<ele>436.459991</ele>
<time>2023-01-25T14:09:00.006Z</time>
</trkpt>
<trkpt lat="31.7500400" lon="35.0871400">
<ele>435.829987</ele>
<time>2023-01-25T14:09:00.006Z</time>
</trkpt>
<trkpt lat="31.7499900" lon="35.0870400">
<ele>435.149994</ele>
<time>2023-01-25T14:09:00.006Z</time>
</trkpt>
<trkpt lat="31.7499300" lon="35.0869400">
<ele>434.489990</ele>
<time>2023-01-25T14:09:00.006Z</time>
</trkpt>
<trkpt lat="31.7498500" lon="35.0868400">
<ele>432.959991</ele>
<time>2023-01-25T14:09:00.006Z</time>
</trkpt>
<trkpt lat="31.7498100" lon="35.0867300">
<ele>432.420013</ele>
<time>2023-01-25T14:09:00.006Z</time>
</trkpt>
<trkpt lat="31.7497800" lon="35.0866100">
<ele>432.160004</ele>
<time>2023-01-25T14:09:00.006Z</time>
</trkpt>
<trkpt lat="31.7497700" lon="35.0865000">
<ele>432.250000</ele>
<time>2023-01-25T14:09:00.006Z</time>
</trkpt>
<trkpt lat="31.7497700" lon="35.0863700">
<ele>432.500000</ele>
<time>2023-01-25T14:09:00.006Z</time>
</trkpt>
<trkpt lat="31.7497800" lon="35.0862700">
<ele>432.529999</ele>
<time>2023-01-25T14:09:00.006Z</time>
</trkpt>
<trkpt lat="31.7498000" lon="35.0861700">
<ele>432.619995</ele>
<time>2023-01-25T14:09:00.006Z</time>
</trkpt>
<trkpt lat="31.7498600" lon="35.0860800">
<ele>432.990021</ele>
<time>2023-01-25T14:09:00.006Z</time>
</trkpt>
<trkpt lat="31.7499600" lon="35.0859900">
<ele>433.399994</ele>
<time>2023-01-25T14:09:00.006Z</time>
</trkpt>
<trkpt lat="31.7500700" lon="35.0859300">
<ele>433.030029</ele>
<time>2023-01-25T14:09:00.006Z</time>
</trkpt>
<trkpt lat="31.7501700" lon="35.0858500">
<ele>431.409973</ele>
<time>2023-01-25T14:09:00.006Z</time>
</trkpt>
<trkpt lat="31.7502400" lon="35.0857800">
<ele>429.739990</ele>
<time>2023-01-25T14:09:00.006Z</time>
</trkpt>
<trkpt lat="31.7503200" lon="35.0857000">
<ele>428.289978</ele>
<time>2023-01-25T14:09:00.006Z</time>
</trkpt>
<trkpt lat="31.7504000" lon="35.0856400">
<ele>428.309998</ele>
<time>2023-01-25T14:09:00.006Z</time>
</trkpt>
<trkpt lat="31.7504900" lon="35.0855800">
<ele>429.070007</ele>
<time>2023-01-25T14:09:00.006Z</time>
</trkpt>
<trkpt lat="31.7506000" lon="35.0855600">
<ele>429.369995</ele>
<time>2023-01-25T14:09:00.006Z</time>
</trkpt>
<trkpt lat="31.7507300" lon="35.0855600">
<ele>427.590027</ele>
<time>2023-01-25T14:09:00.006Z</time>
</trkpt>
<trkpt lat="31.7508600" lon="35.0855600">
<ele>427.599976</ele>
<time>2023-01-25T14:09:00.006Z</time>
</trkpt>
<trkpt lat="31.7509900" lon="35.0855700">
<ele>434.799988</ele>
<time>2023-01-25T14:09:00.006Z</time>
</trkpt>
<trkpt lat="31.7511000" lon="35.0856000">
<ele>440.929993</ele>
<time>2023-01-25T14:09:00.006Z</time>
</trkpt>
<trkpt lat="31.7511900" lon="35.0856100">
<ele>441.070007</ele>
<time>2023-01-25T14:09:00.006Z</time>
</trkpt>
<trkpt lat="31.7513100" lon="35.0856300">
<ele>440.809998</ele>
<time>2023-01-25T14:09:00.006Z</time>
</trkpt>
<trkpt lat="31.7514200" lon="35.0856400">
<ele>440.929993</ele>
<time>2023-01-25T14:09:00.006Z</time>
</trkpt>
<trkpt lat="31.7515400" lon="35.0856500">
<ele>441.959991</ele>
<time>2023-01-25T14:09:00.006Z</time>
</trkpt>
<trkpt lat="31.7516700" lon="35.0856500">
<ele>442.660004</ele>
<time>2023-01-25T14:09:00.006Z</time>
</trkpt>
<trkpt lat="31.7517900" lon="35.0856500">
<ele>440.350006</ele>
<time>2023-01-25T14:09:00.006Z</time>
</trkpt>
<trkpt lat="31.7518900" lon="35.0856500">
<ele>438.429993</ele>
<time>2023-01-25T14:09:00.006Z</time>
</trkpt>
<trkpt lat="31.7520100" lon="35.0856400">
<ele>436.700012</ele>
<time>2023-01-25T14:09:00.006Z</time>
</trkpt>
<trkpt lat="31.7521500" lon="35.0856300">
<ele>435.689972</ele>
<time>2023-01-25T14:09:00.006Z</time>
</trkpt>
<trkpt lat="31.7522900" lon="35.0856200">
<ele>434.029999</ele>
<time>2023-01-25T14:09:00.006Z</time>
</trkpt>
<trkpt lat="31.7524200" lon="35.0856100">
<ele>431.790009</ele>
<time>2023-01-25T14:09:00.006Z</time>
</trkpt>
<trkpt lat="31.7525500" lon="35.0856100">
<ele>430.479980</ele>
<time>2023-01-25T14:09:00.006Z</time>
</trkpt>
<trkpt lat="31.7526800" lon="35.0856100">
<ele>430.670013</ele>
<time>2023-01-25T14:09:00.006Z</time>
</trkpt>
<trkpt lat="31.7528000" lon="35.0856200">
<ele>430.869995</ele>
<time>2023-01-25T14:09:00.006Z</time>
</trkpt>
<trkpt lat="31.7529200" lon="35.0856300">
<ele>431.339996</ele>
<time>2023-01-25T14:09:00.006Z</time>
</trkpt>
<trkpt lat="31.7530400" lon="35.0856500">
<ele>431.589996</ele>
<time>2023-01-25T14:09:00.006Z</time>
</trkpt>
<trkpt lat="31.7531500" lon="35.0856900">
<ele>431.060028</ele>
<time>2023-01-25T14:09:00.006Z</time>
</trkpt>
<trkpt lat="31.7532500" lon="35.0857500">
<ele>430.200012</ele>
<time>2023-01-25T14:09:00.006Z</time>
</trkpt>
<trkpt lat="31.7533400" lon="35.0858300">
<ele>429.029999</ele>
<time>2023-01-25T14:09:00.006Z</time>
</trkpt>
<trkpt lat="31.7534100" lon="35.0859300">
<ele>428.339996</ele>
<time>2023-01-25T14:09:00.006Z</time>
</trkpt>
<trkpt lat="31.7534700" lon="35.0860400">
<ele>427.040009</ele>
<time>2023-01-25T14:09:00.006Z</time>
</trkpt>
<trkpt lat="31.7535300" lon="35.0861600">
<ele>425.790009</ele>
<time>2023-01-25T14:09:00.006Z</time>
</trkpt>
<trkpt lat="31.7535600" lon="35.0862800">
<ele>425.859985</ele>
<time>2023-01-25T14:09:00.006Z</time>
</trkpt>
<trkpt lat="31.7535800" lon="35.0863900">
<ele>425.899994</ele>
<time>2023-01-25T14:09:00.006Z</time>
</trkpt>
<trkpt lat="31.7536100" lon="35.0865400">
<ele>426.119995</ele>
<time>2023-01-25T14:09:00.006Z</time>
</trkpt>
<trkpt lat="31.7536500" lon="35.0866900">
<ele>426.720001</ele>
<time>2023-01-25T14:09:00.006Z</time>
</trkpt>
<trkpt lat="31.7536800" lon="35.0867900">
<ele>426.919983</ele>
<time>2023-01-25T14:09:00.006Z</time>
</trkpt>
<trkpt lat="31.7537100" lon="35.0869000">
<ele>427.009979</ele>
<time>2023-01-25T14:09:00.006Z</time>
</trkpt>
<trkpt lat="31.7537300" lon="35.0870000">
<ele>426.889984</ele>
<time>2023-01-25T14:09:00.006Z</time>
</trkpt>
<trkpt lat="31.7537600" lon="35.0871500">
<ele>426.270020</ele>
<time>2023-01-25T14:09:00.006Z</time>
</trkpt>
<trkpt lat="31.7537800" lon="35.0873100">
<ele>426.119995</ele>
<time>2023-01-25T14:09:00.006Z</time>
</trkpt>
<trkpt lat="31.7538000" lon="35.0874200">
<ele>425.920013</ele>
<time>2023-01-25T14:09:00.006Z</time>
</trkpt>
<trkpt lat="31.7538100" lon="35.0875300">
<ele>426.059998</ele>
<time>2023-01-25T14:09:00.006Z</time>
</trkpt>
<trkpt lat="31.7538300" lon="35.0876600">
<ele>426.270020</ele>
<time>2023-01-25T14:09:00.006Z</time>
</trkpt>
<trkpt lat="31.7538700" lon="35.0877900">
<ele>425.690002</ele>
<time>2023-01-25T14:09:00.006Z</time>
</trkpt>
<trkpt lat="31.7539100" lon="35.0879100">
<ele>424.890015</ele>
<time>2023-01-25T14:09:00.006Z</time>
</trkpt>
<trkpt lat="31.7539600" lon="35.0880400">
<ele>424.500000</ele>
<time>2023-01-25T14:09:00.006Z</time>
</trkpt>
<trkpt lat="31.7540100" lon="35.0881600">
<ele>425.470001</ele>
<time>2023-01-25T14:09:00.006Z</time>
</trkpt>
<trkpt lat="31.7540800" lon="35.0882700">
<ele>426.180023</ele>
<time>2023-01-25T14:09:00.006Z</time>
</trkpt>
<trkpt lat="31.7541600" lon="35.0883600">
<ele>427.059998</ele>
<time>2023-01-25T14:09:00.006Z</time>
</trkpt>
<trkpt lat="31.7542300" lon="35.0884600">
<ele>430.039978</ele>
<time>2023-01-25T14:09:00.006Z</time>
</trkpt>
<trkpt lat="31.7543000" lon="35.0885400">
<ele>431.649994</ele>
<time>2023-01-25T14:09:00.006Z</time>
</trkpt>
<trkpt lat="31.7543800" lon="35.0886100">
<ele>432.139984</ele>
<time>2023-01-25T14:09:00.006Z</time>
</trkpt>
<trkpt lat="31.7544600" lon="35.0886700">
<ele>435.489990</ele>
<time>2023-01-25T14:09:00.006Z</time>
</trkpt>
<trkpt lat="31.7545700" lon="35.0887500">
<ele>435.989990</ele>
<time>2023-01-25T14:09:00.006Z</time>
</trkpt>
<trkpt lat="31.7546600" lon="35.0888100">
<ele>433.309998</ele>
<time>2023-01-25T14:09:00.006Z</time>
</trkpt>
<trkpt lat="31.7547600" lon="35.0888600">
<ele>429.529999</ele>
<time>2023-01-25T14:09:00.006Z</time>
</trkpt>
<trkpt lat="31.7548600" lon="35.0889000">
<ele>428.570007</ele>
<time>2023-01-25T14:09:00.006Z</time>
</trkpt>
<trkpt lat="31.7549600" lon="35.0889500">
<ele>428.130005</ele>
<time>2023-01-25T14:09:00.006Z</time>
</trkpt>
<trkpt lat="31.7550700" lon="35.0889900">
<ele>428.529999</ele>
<time>2023-01-25T14:09:00.006Z</time>
</trkpt>
<trkpt lat="31.7551700" lon="35.0890300">
<ele>429.209991</ele>
<time>2023-01-25T14:09:00.006Z</time>
</trkpt>
<trkpt lat="31.7552500" lon="35.0890500">
<ele>428.979980</ele>
<time>2023-01-25T14:09:00.006Z</time>
</trkpt>
<trkpt lat="31.7553700" lon="35.0890500">
<ele>428.539978</ele>
<time>2023-01-25T14:09:00.006Z</time>
</trkpt>
<trkpt lat="31.7554900" lon="35.0890500">
<ele>428.150024</ele>
<time>2023-01-25T14:09:00.006Z</time>
</trkpt>
<trkpt lat="31.7556100" lon="35.0890400">
<ele>428.140015</ele>
<time>2023-01-25T14:09:00.006Z</time>
</trkpt>
<trkpt lat="31.7557100" lon="35.0890500">
<ele>427.880005</ele>
<time>2023-01-25T14:09:00.006Z</time>
</trkpt>
<trkpt lat="31.7558100" lon="35.0890600">
<ele>427.760010</ele>
<time>2023-01-25T14:09:00.006Z</time>
</trkpt>
<trkpt lat="31.7558900" lon="35.0891200">
<ele>427.540009</ele>
<time>2023-01-25T14:09:00.006Z</time>
</trkpt>
<trkpt lat="31.7559600" lon="35.0891900">
<ele>427.670013</ele>
<time>2023-01-25T14:09:00.006Z</time>
</trkpt>
<trkpt lat="31.7560300" lon="35.0892600">
<ele>428.480011</ele>
<time>2023-01-25T14:09:00.006Z</time>
</trkpt>
<trkpt lat="31.7561300" lon="35.0893600">
<ele>428.799988</ele>
<time>2023-01-25T14:09:00.006Z</time>
</trkpt>
<trkpt lat="31.7562400" lon="35.0894500">
<ele>425.910004</ele>
<time>2023-01-25T14:09:00.006Z</time>
</trkpt>
<trkpt lat="31.7563300" lon="35.0895300">
<ele>424.739990</ele>
<time>2023-01-25T14:09:00.006Z</time>
</trkpt>
<trkpt lat="31.7564400" lon="35.0895900">
<ele>422.719971</ele>
<time>2023-01-25T14:09:00.006Z</time>
</trkpt>
<trkpt lat="31.7565700" lon="35.0896300">
<ele>418.500000</ele>
<time>2023-01-25T14:09:00.006Z</time>
</trkpt>
<trkpt lat="31.7566600" lon="35.0896500">
<ele>415.229980</ele>
<time>2023-01-25T14:09:00.006Z</time>
</trkpt>
<trkpt lat="31.7567600" lon="35.0896600">
<ele>414.169983</ele>
<time>2023-01-25T14:09:00.006Z</time>
</trkpt>
<trkpt lat="31.7568700" lon="35.0896500">
<ele>412.950012</ele>
<time>2023-01-25T14:09:00.006Z</time>
</trkpt>
<trkpt lat="31.7569900" lon="35.0896500">
<ele>412.750000</ele>
<time>2023-01-25T14:09:00.006Z</time>
</trkpt>
<trkpt lat="31.7571100" lon="35.0896300">
<ele>413.989990</ele>
<time>2023-01-25T14:09:00.006Z</time>
</trkpt>
<trkpt lat="31.7572400" lon="35.0895800">
<ele>414.750000</ele>
<time>2023-01-25T14:09:00.006Z</time>
</trkpt>
<trkpt lat="31.7573600" lon="35.0895100">
<ele>412.610016</ele>
<time>2023-01-25T14:09:00.006Z</time>
</trkpt>
<trkpt lat="31.7574700" lon="35.0894300">
<ele>410.389984</ele>
<time>2023-01-25T14:09:00.006Z</time>
</trkpt>
<trkpt lat="31.7575600" lon="35.0893500">
<ele>409.660004</ele>
<time>2023-01-25T14:09:00.006Z</time>
</trkpt>
<trkpt lat="31.7576400" lon="35.0892700">
<ele>409.369995</ele>
<time>2023-01-25T14:09:00.006Z</time>
</trkpt>
<trkpt lat="31.7577100" lon="35.0891900">
<ele>409.079987</ele>
<time>2023-01-25T14:09:00.006Z</time>
</trkpt>
<trkpt lat="31.7577800" lon="35.0891300">
<ele>409.140015</ele>
<time>2023-01-25T14:09:00.006Z</time>
</trkpt>
<trkpt lat="31.7578300" lon="35.0891100">
<ele>409.319977</ele>
<time>2023-01-25T14:09:00.006Z</time>
</trkpt>
<trkpt lat="31.7579200" lon="35.0890300">
<ele>409.500000</ele>
<time>2023-01-25T14:09:00.006Z</time>
</trkpt>
<trkpt lat="31.7579900" lon="35.0889400">
<ele>409.329987</ele>
<time>2023-01-25T14:09:00.006Z</time>
</trkpt>
<trkpt lat="31.7580300" lon="35.0888500">
<ele>409.100006</ele>
<time>2023-01-25T14:09:00.006Z</time>
</trkpt>
<trkpt lat="31.7581300" lon="35.0888300">
<ele>409.209991</ele>
<time>2023-01-25T14:09:00.006Z</time>
</trkpt>
<trkpt lat="31.7581700" lon="35.0887100">
<ele>409.149994</ele>
<time>2023-01-25T14:09:00.006Z</time>
</trkpt>
<trkpt lat="31.7582000" lon="35.0886200">
<ele>409.019989</ele>
<time>2023-01-25T14:09:00.006Z</time>
</trkpt>
<trkpt lat="31.7582300" lon="35.0886100">
<ele>409.010010</ele>
<time>2023-01-25T14:09:00.006Z</time>
</trkpt>
<trkpt lat="31.7583200" lon="35.0886100">
<ele>409.010010</ele>
<time>2023-01-25T14:09:00.006Z</time>
</trkpt>
<trkpt lat="31.7584100" lon="35.0886200">
<ele>410.389984</ele>
<time>2023-01-25T14:09:00.006Z</time>
</trkpt>
<trkpt lat="31.7584900" lon="35.0886600">
<ele>411.800018</ele>
<time>2023-01-25T14:09:00.006Z</time>
</trkpt>
<trkpt lat="31.7585300" lon="35.0886800">
<ele>412.440002</ele>
<time>2023-01-25T14:09:00.006Z</time>
</trkpt>
<trkpt lat="31.7585200" lon="35.0887900">
<ele>412.140015</ele>
<time>2023-01-25T14:09:00.006Z</time>
</trkpt>
<trkpt lat="31.7584900" lon="35.0889000">
<ele>411.800018</ele>
<time>2023-01-25T14:09:00.006Z</time>
</trkpt>
<trkpt lat="31.7584300" lon="35.0890000">
<ele>411.859985</ele>
<time>2023-01-25T14:09:00.006Z</time>
</trkpt>
<trkpt lat="31.7583700" lon="35.0891100">
<ele>411.509979</ele>
<time>2023-01-25T14:09:00.006Z</time>
</trkpt>
<trkpt lat="31.7583400" lon="35.0892300">
<ele>412.040009</ele>
<time>2023-01-25T14:09:00.006Z</time>
</trkpt>
</trkseg>
</trk>
</gpx>
